<?xml version="1.0" encoding="UTF-8" standalone="no" ?>
<gpx xmlns="http://www.topografix.com/GPX/1/1" xmlns:xsi="http://www.w3.org/2001/XMLSchema-instance" xsi:schemaLocation="http://www.topografix.com/GPX/1/1 http://www.topografix.com/GPX/1/1/gpx.xsd" version="1.1" creator="VisuGPX - https://www.visugpx.com">
  <metadata>
    <name>20.01.05 MARCHE POPULAIRE DE WILLGOTHEIM</name>
    <desc><![CDATA[Marche en compagnie de Michèle et Guiseppe MARINO
Temps idéal - ]]></desc>
  </metadata>
  <trk>
    <name><![CDATA[MP Willgotheim]]></name>
    <trkseg>
      <trkpt lat="48.66682" lon="7.51786">
        <ele>229.6</ele>
        <time>2020-01-05T08:42:56Z</time>
      </trkpt>
      <trkpt lat="48.66684" lon="7.51801">
        <ele>229.2</ele>
        <time>2020-01-05T08:45:01Z</time>
      </trkpt>
      <trkpt lat="48.66687" lon="7.51804">
        <ele>229</ele>
        <time>2020-01-05T08:45:04Z</time>
      </trkpt>
      <trkpt lat="48.66689" lon="7.51807">
        <ele>228.9</ele>
        <time>2020-01-05T08:45:07Z</time>
      </trkpt>
      <trkpt lat="48.66693" lon="7.51807">
        <ele>228.6</ele>
        <time>2020-01-05T08:45:10Z</time>
      </trkpt>
      <trkpt lat="48.66695" lon="7.51811">
        <ele>228.5</ele>
        <time>2020-01-05T08:45:14Z</time>
      </trkpt>
      <trkpt lat="48.66698" lon="7.51811">
        <ele>228.4</ele>
        <time>2020-01-05T08:45:18Z</time>
      </trkpt>
      <trkpt lat="48.66701" lon="7.51811">
        <ele>228.3</ele>
        <time>2020-01-05T08:45:23Z</time>
      </trkpt>
      <trkpt lat="48.66704" lon="7.5181">
        <ele>228.2</ele>
        <time>2020-01-05T08:45:28Z</time>
      </trkpt>
      <trkpt lat="48.66707" lon="7.51811">
        <ele>228.1</ele>
        <time>2020-01-05T08:45:30Z</time>
      </trkpt>
      <trkpt lat="48.6671" lon="7.51811">
        <ele>228</ele>
        <time>2020-01-05T08:45:33Z</time>
      </trkpt>
      <trkpt lat="48.66713" lon="7.51813">
        <ele>227.9</ele>
        <time>2020-01-05T08:45:35Z</time>
      </trkpt>
      <trkpt lat="48.66716" lon="7.51814">
        <ele>227.8</ele>
        <time>2020-01-05T08:45:37Z</time>
      </trkpt>
      <trkpt lat="48.66718" lon="7.51818">
        <ele>227.7</ele>
        <time>2020-01-05T08:45:40Z</time>
      </trkpt>
      <trkpt lat="48.66721" lon="7.51819">
        <ele>227.6</ele>
        <time>2020-01-05T08:45:42Z</time>
      </trkpt>
      <trkpt lat="48.66724" lon="7.51818">
        <ele>227.6</ele>
        <time>2020-01-05T08:45:45Z</time>
      </trkpt>
      <trkpt lat="48.66728" lon="7.51819">
        <ele>227.4</ele>
        <time>2020-01-05T08:45:48Z</time>
      </trkpt>
      <trkpt lat="48.66731" lon="7.51821">
        <ele>227.3</ele>
        <time>2020-01-05T08:45:50Z</time>
      </trkpt>
      <trkpt lat="48.66735" lon="7.51818">
        <ele>227.2</ele>
        <time>2020-01-05T08:45:53Z</time>
      </trkpt>
      <trkpt lat="48.66738" lon="7.51819">
        <ele>227.1</ele>
        <time>2020-01-05T08:45:56Z</time>
      </trkpt>
      <trkpt lat="48.66741" lon="7.51822">
        <ele>227</ele>
        <time>2020-01-05T08:45:59Z</time>
      </trkpt>
      <trkpt lat="48.66744" lon="7.51824">
        <ele>226.8</ele>
        <time>2020-01-05T08:46:02Z</time>
      </trkpt>
      <trkpt lat="48.66747" lon="7.51825">
        <ele>226.7</ele>
        <time>2020-01-05T08:46:04Z</time>
      </trkpt>
      <trkpt lat="48.6675" lon="7.51827">
        <ele>226.6</ele>
        <time>2020-01-05T08:46:07Z</time>
      </trkpt>
      <trkpt lat="48.66754" lon="7.51827">
        <ele>226.4</ele>
        <time>2020-01-05T08:46:10Z</time>
      </trkpt>
      <trkpt lat="48.66757" lon="7.51828">
        <ele>226.2</ele>
        <time>2020-01-05T08:46:13Z</time>
      </trkpt>
      <trkpt lat="48.6676" lon="7.51829">
        <ele>226.1</ele>
        <time>2020-01-05T08:46:16Z</time>
      </trkpt>
      <trkpt lat="48.66764" lon="7.51827">
        <ele>225.9</ele>
        <time>2020-01-05T08:46:21Z</time>
      </trkpt>
      <trkpt lat="48.66765" lon="7.51823">
        <ele>225.7</ele>
        <time>2020-01-05T08:46:23Z</time>
      </trkpt>
      <trkpt lat="48.66767" lon="7.51817">
        <ele>225.5</ele>
        <time>2020-01-05T08:46:30Z</time>
      </trkpt>
      <trkpt lat="48.66766" lon="7.51812">
        <ele>225.4</ele>
        <time>2020-01-05T08:46:33Z</time>
      </trkpt>
      <trkpt lat="48.66767" lon="7.51807">
        <ele>225.3</ele>
        <time>2020-01-05T08:46:35Z</time>
      </trkpt>
      <trkpt lat="48.66768" lon="7.51803">
        <ele>225.2</ele>
        <time>2020-01-05T08:46:40Z</time>
      </trkpt>
      <trkpt lat="48.6677" lon="7.51799">
        <ele>225.1</ele>
        <time>2020-01-05T08:46:47Z</time>
      </trkpt>
      <trkpt lat="48.66772" lon="7.51797">
        <ele>225</ele>
        <time>2020-01-05T08:46:50Z</time>
      </trkpt>
      <trkpt lat="48.66775" lon="7.51797">
        <ele>224.9</ele>
        <time>2020-01-05T08:46:54Z</time>
      </trkpt>
      <trkpt lat="48.66778" lon="7.51797">
        <ele>224.8</ele>
        <time>2020-01-05T08:46:58Z</time>
      </trkpt>
      <trkpt lat="48.66782" lon="7.51797">
        <ele>224.6</ele>
        <time>2020-01-05T08:47:01Z</time>
      </trkpt>
      <trkpt lat="48.66785" lon="7.51798">
        <ele>224.5</ele>
        <time>2020-01-05T08:47:04Z</time>
      </trkpt>
      <trkpt lat="48.66789" lon="7.51798">
        <ele>224.4</ele>
        <time>2020-01-05T08:47:06Z</time>
      </trkpt>
      <trkpt lat="48.66791" lon="7.518">
        <ele>224.3</ele>
        <time>2020-01-05T08:47:09Z</time>
      </trkpt>
      <trkpt lat="48.66796" lon="7.518">
        <ele>224.1</ele>
        <time>2020-01-05T08:47:12Z</time>
      </trkpt>
      <trkpt lat="48.66798" lon="7.51803">
        <ele>224</ele>
        <time>2020-01-05T08:47:15Z</time>
      </trkpt>
      <trkpt lat="48.66802" lon="7.51803">
        <ele>223.8</ele>
        <time>2020-01-05T08:47:18Z</time>
      </trkpt>
      <trkpt lat="48.66806" lon="7.51805">
        <ele>223.7</ele>
        <time>2020-01-05T08:47:21Z</time>
      </trkpt>
      <trkpt lat="48.66809" lon="7.51806">
        <ele>223.5</ele>
        <time>2020-01-05T08:47:24Z</time>
      </trkpt>
      <trkpt lat="48.66812" lon="7.51806">
        <ele>223.4</ele>
        <time>2020-01-05T08:47:27Z</time>
      </trkpt>
      <trkpt lat="48.66815" lon="7.51807">
        <ele>223.3</ele>
        <time>2020-01-05T08:47:29Z</time>
      </trkpt>
      <trkpt lat="48.66818" lon="7.51808">
        <ele>223.1</ele>
        <time>2020-01-05T08:47:33Z</time>
      </trkpt>
      <trkpt lat="48.6682" lon="7.51805">
        <ele>223</ele>
        <time>2020-01-05T08:47:38Z</time>
      </trkpt>
      <trkpt lat="48.66818" lon="7.51809">
        <ele>222.8</ele>
        <time>2020-01-05T08:47:41Z</time>
      </trkpt>
      <trkpt lat="48.66818" lon="7.51814">
        <ele>222.7</ele>
        <time>2020-01-05T08:47:44Z</time>
      </trkpt>
      <trkpt lat="48.66819" lon="7.51819">
        <ele>222.5</ele>
        <time>2020-01-05T08:47:47Z</time>
      </trkpt>
      <trkpt lat="48.6682" lon="7.51822">
        <ele>221.4</ele>
        <time>2020-01-05T08:47:51Z</time>
      </trkpt>
      <trkpt lat="48.66824" lon="7.51824">
        <ele>221.4</ele>
        <time>2020-01-05T08:47:55Z</time>
      </trkpt>
      <trkpt lat="48.66827" lon="7.51821">
        <ele>221.4</ele>
        <time>2020-01-05T08:47:58Z</time>
      </trkpt>
      <trkpt lat="48.66829" lon="7.51817">
        <ele>221.4</ele>
        <time>2020-01-05T08:48:01Z</time>
      </trkpt>
      <trkpt lat="48.6683" lon="7.51813">
        <ele>220.9</ele>
        <time>2020-01-05T08:48:03Z</time>
      </trkpt>
      <trkpt lat="48.66831" lon="7.51808">
        <ele>220.7</ele>
        <time>2020-01-05T08:48:06Z</time>
      </trkpt>
      <trkpt lat="48.66832" lon="7.51803">
        <ele>220.5</ele>
        <time>2020-01-05T08:48:09Z</time>
      </trkpt>
      <trkpt lat="48.66833" lon="7.51799">
        <ele>220.4</ele>
        <time>2020-01-05T08:48:12Z</time>
      </trkpt>
      <trkpt lat="48.66834" lon="7.51795">
        <ele>220.2</ele>
        <time>2020-01-05T08:48:15Z</time>
      </trkpt>
      <trkpt lat="48.66836" lon="7.51789">
        <ele>220</ele>
        <time>2020-01-05T08:48:18Z</time>
      </trkpt>
      <trkpt lat="48.66836" lon="7.51784">
        <ele>219.9</ele>
        <time>2020-01-05T08:48:21Z</time>
      </trkpt>
      <trkpt lat="48.66837" lon="7.51779">
        <ele>219.7</ele>
        <time>2020-01-05T08:48:25Z</time>
      </trkpt>
      <trkpt lat="48.66839" lon="7.51774">
        <ele>219.6</ele>
        <time>2020-01-05T08:48:29Z</time>
      </trkpt>
      <trkpt lat="48.66839" lon="7.51769">
        <ele>219.4</ele>
        <time>2020-01-05T08:48:31Z</time>
      </trkpt>
      <trkpt lat="48.66838" lon="7.51763">
        <ele>219.2</ele>
        <time>2020-01-05T08:48:34Z</time>
      </trkpt>
      <trkpt lat="48.66838" lon="7.51759">
        <ele>219.1</ele>
        <time>2020-01-05T08:48:36Z</time>
      </trkpt>
      <trkpt lat="48.66837" lon="7.51754">
        <ele>219</ele>
        <time>2020-01-05T08:48:39Z</time>
      </trkpt>
      <trkpt lat="48.66835" lon="7.51752">
        <ele>219.1</ele>
        <time>2020-01-05T08:48:48Z</time>
      </trkpt>
      <trkpt lat="48.66832" lon="7.51752">
        <ele>219.1</ele>
        <time>2020-01-05T08:48:55Z</time>
      </trkpt>
      <trkpt lat="48.6683" lon="7.51754">
        <ele>219.2</ele>
        <time>2020-01-05T08:49:02Z</time>
      </trkpt>
      <trkpt lat="48.66827" lon="7.51753">
        <ele>219.3</ele>
        <time>2020-01-05T08:49:12Z</time>
      </trkpt>
      <trkpt lat="48.66826" lon="7.51749">
        <ele>219.4</ele>
        <time>2020-01-05T08:49:35Z</time>
      </trkpt>
      <trkpt lat="48.66829" lon="7.51748">
        <ele>219.4</ele>
        <time>2020-01-05T08:49:57Z</time>
      </trkpt>
      <trkpt lat="48.66828" lon="7.51753">
        <ele>219.5</ele>
        <time>2020-01-05T08:50:15Z</time>
      </trkpt>
      <trkpt lat="48.66825" lon="7.51753">
        <ele>219.6</ele>
        <time>2020-01-05T08:50:23Z</time>
      </trkpt>
      <trkpt lat="48.66825" lon="7.51757">
        <ele>219.6</ele>
        <time>2020-01-05T08:50:32Z</time>
      </trkpt>
      <trkpt lat="48.66826" lon="7.51753">
        <ele>219.7</ele>
        <time>2020-01-05T08:50:53Z</time>
      </trkpt>
      <trkpt lat="48.66825" lon="7.51758">
        <ele>219.8</ele>
        <time>2020-01-05T08:50:55Z</time>
      </trkpt>
      <trkpt lat="48.66827" lon="7.51763">
        <ele>219.9</ele>
        <time>2020-01-05T08:51:01Z</time>
      </trkpt>
      <trkpt lat="48.66828" lon="7.51768">
        <ele>220</ele>
        <time>2020-01-05T08:51:04Z</time>
      </trkpt>
      <trkpt lat="48.66829" lon="7.51772">
        <ele>220</ele>
        <time>2020-01-05T08:51:06Z</time>
      </trkpt>
      <trkpt lat="48.6683" lon="7.51777">
        <ele>220.1</ele>
        <time>2020-01-05T08:51:08Z</time>
      </trkpt>
      <trkpt lat="48.6683" lon="7.51782">
        <ele>220.2</ele>
        <time>2020-01-05T08:51:13Z</time>
      </trkpt>
      <trkpt lat="48.66831" lon="7.51786">
        <ele>220.3</ele>
        <time>2020-01-05T08:51:15Z</time>
      </trkpt>
      <trkpt lat="48.66834" lon="7.51788">
        <ele>220.4</ele>
        <time>2020-01-05T08:51:18Z</time>
      </trkpt>
      <trkpt lat="48.66834" lon="7.51794">
        <ele>220.5</ele>
        <time>2020-01-05T08:51:21Z</time>
      </trkpt>
      <trkpt lat="48.66833" lon="7.518">
        <ele>220.6</ele>
        <time>2020-01-05T08:51:25Z</time>
      </trkpt>
      <trkpt lat="48.66831" lon="7.51804">
        <ele>220.7</ele>
        <time>2020-01-05T08:51:28Z</time>
      </trkpt>
      <trkpt lat="48.66831" lon="7.51808">
        <ele>220.8</ele>
        <time>2020-01-05T08:51:32Z</time>
      </trkpt>
      <trkpt lat="48.66831" lon="7.51813">
        <ele>220.9</ele>
        <time>2020-01-05T08:51:35Z</time>
      </trkpt>
      <trkpt lat="48.6683" lon="7.51817">
        <ele>221.1</ele>
        <time>2020-01-05T08:51:38Z</time>
      </trkpt>
      <trkpt lat="48.66828" lon="7.51823">
        <ele>221.2</ele>
        <time>2020-01-05T08:51:41Z</time>
      </trkpt>
      <trkpt lat="48.66828" lon="7.51827">
        <ele>221.4</ele>
        <time>2020-01-05T08:51:45Z</time>
      </trkpt>
      <trkpt lat="48.66825" lon="7.51831">
        <ele>222</ele>
        <time>2020-01-05T08:51:48Z</time>
      </trkpt>
      <trkpt lat="48.66824" lon="7.51837">
        <ele>222.2</ele>
        <time>2020-01-05T08:51:51Z</time>
      </trkpt>
      <trkpt lat="48.66821" lon="7.51837">
        <ele>222.5</ele>
        <time>2020-01-05T08:51:58Z</time>
      </trkpt>
      <trkpt lat="48.66818" lon="7.51835">
        <ele>222.7</ele>
        <time>2020-01-05T08:52:02Z</time>
      </trkpt>
      <trkpt lat="48.66815" lon="7.51834">
        <ele>222.9</ele>
        <time>2020-01-05T08:52:04Z</time>
      </trkpt>
      <trkpt lat="48.66813" lon="7.51832">
        <ele>223</ele>
        <time>2020-01-05T08:52:08Z</time>
      </trkpt>
      <trkpt lat="48.66809" lon="7.51832">
        <ele>223.2</ele>
        <time>2020-01-05T08:52:13Z</time>
      </trkpt>
      <trkpt lat="48.66806" lon="7.51831">
        <ele>223.4</ele>
        <time>2020-01-05T08:52:16Z</time>
      </trkpt>
      <trkpt lat="48.66803" lon="7.51831">
        <ele>223.6</ele>
        <time>2020-01-05T08:52:18Z</time>
      </trkpt>
      <trkpt lat="48.668" lon="7.5183">
        <ele>223.8</ele>
        <time>2020-01-05T08:52:21Z</time>
      </trkpt>
      <trkpt lat="48.66798" lon="7.51831">
        <ele>223.9</ele>
        <time>2020-01-05T08:52:23Z</time>
      </trkpt>
      <trkpt lat="48.66794" lon="7.5183">
        <ele>224</ele>
        <time>2020-01-05T08:52:26Z</time>
      </trkpt>
      <trkpt lat="48.66792" lon="7.51826">
        <ele>224.2</ele>
        <time>2020-01-05T08:52:30Z</time>
      </trkpt>
      <trkpt lat="48.66789" lon="7.51827">
        <ele>224.3</ele>
        <time>2020-01-05T08:52:32Z</time>
      </trkpt>
      <trkpt lat="48.66786" lon="7.51825">
        <ele>224.5</ele>
        <time>2020-01-05T08:52:34Z</time>
      </trkpt>
      <trkpt lat="48.66783" lon="7.51823">
        <ele>224.6</ele>
        <time>2020-01-05T08:52:36Z</time>
      </trkpt>
      <trkpt lat="48.66781" lon="7.51821">
        <ele>224.8</ele>
        <time>2020-01-05T08:52:39Z</time>
      </trkpt>
      <trkpt lat="48.66777" lon="7.5182">
        <ele>224.9</ele>
        <time>2020-01-05T08:52:43Z</time>
      </trkpt>
      <trkpt lat="48.66774" lon="7.5182">
        <ele>225.1</ele>
        <time>2020-01-05T08:52:46Z</time>
      </trkpt>
      <trkpt lat="48.66771" lon="7.51822">
        <ele>225.2</ele>
        <time>2020-01-05T08:52:49Z</time>
      </trkpt>
      <trkpt lat="48.66769" lon="7.51822">
        <ele>225.3</ele>
        <time>2020-01-05T08:52:51Z</time>
      </trkpt>
      <trkpt lat="48.66766" lon="7.5182">
        <ele>225.5</ele>
        <time>2020-01-05T08:52:54Z</time>
      </trkpt>
      <trkpt lat="48.66762" lon="7.51817">
        <ele>225.6</ele>
        <time>2020-01-05T08:52:58Z</time>
      </trkpt>
      <trkpt lat="48.6676" lon="7.51815">
        <ele>225.8</ele>
        <time>2020-01-05T08:53:01Z</time>
      </trkpt>
      <trkpt lat="48.66757" lon="7.51815">
        <ele>226</ele>
        <time>2020-01-05T08:53:04Z</time>
      </trkpt>
      <trkpt lat="48.66753" lon="7.51813">
        <ele>226.3</ele>
        <time>2020-01-05T08:53:07Z</time>
      </trkpt>
      <trkpt lat="48.6675" lon="7.51811">
        <ele>226.4</ele>
        <time>2020-01-05T08:53:10Z</time>
      </trkpt>
      <trkpt lat="48.66747" lon="7.51811">
        <ele>226.6</ele>
        <time>2020-01-05T08:53:13Z</time>
      </trkpt>
      <trkpt lat="48.66744" lon="7.51811">
        <ele>226.8</ele>
        <time>2020-01-05T08:53:17Z</time>
      </trkpt>
      <trkpt lat="48.66741" lon="7.51813">
        <ele>227</ele>
        <time>2020-01-05T08:53:22Z</time>
      </trkpt>
      <trkpt lat="48.66738" lon="7.51812">
        <ele>227.1</ele>
        <time>2020-01-05T08:53:26Z</time>
      </trkpt>
      <trkpt lat="48.66735" lon="7.5181">
        <ele>227.2</ele>
        <time>2020-01-05T08:53:28Z</time>
      </trkpt>
      <trkpt lat="48.66733" lon="7.51806">
        <ele>227.4</ele>
        <time>2020-01-05T08:53:30Z</time>
      </trkpt>
      <trkpt lat="48.66731" lon="7.51804">
        <ele>227.5</ele>
        <time>2020-01-05T08:53:32Z</time>
      </trkpt>
      <trkpt lat="48.66728" lon="7.51804">
        <ele>227.6</ele>
        <time>2020-01-05T08:53:34Z</time>
      </trkpt>
      <trkpt lat="48.66725" lon="7.51804">
        <ele>227.7</ele>
        <time>2020-01-05T08:53:38Z</time>
      </trkpt>
      <trkpt lat="48.66722" lon="7.51803">
        <ele>227.8</ele>
        <time>2020-01-05T08:53:41Z</time>
      </trkpt>
      <trkpt lat="48.66719" lon="7.51802">
        <ele>227.9</ele>
        <time>2020-01-05T08:53:46Z</time>
      </trkpt>
      <trkpt lat="48.66716" lon="7.51804">
        <ele>228</ele>
        <time>2020-01-05T08:53:50Z</time>
      </trkpt>
      <trkpt lat="48.66714" lon="7.51804">
        <ele>228.1</ele>
        <time>2020-01-05T08:53:53Z</time>
      </trkpt>
      <trkpt lat="48.6671" lon="7.51803">
        <ele>228.3</ele>
        <time>2020-01-05T08:53:57Z</time>
      </trkpt>
      <trkpt lat="48.66706" lon="7.51803">
        <ele>228.4</ele>
        <time>2020-01-05T08:54:01Z</time>
      </trkpt>
      <trkpt lat="48.66703" lon="7.51802">
        <ele>228.6</ele>
        <time>2020-01-05T08:54:05Z</time>
      </trkpt>
      <trkpt lat="48.66699" lon="7.51799">
        <ele>228.9</ele>
        <time>2020-01-05T08:54:09Z</time>
      </trkpt>
      <trkpt lat="48.66696" lon="7.51799">
        <ele>229.1</ele>
        <time>2020-01-05T08:54:11Z</time>
      </trkpt>
      <trkpt lat="48.66693" lon="7.51799">
        <ele>229.2</ele>
        <time>2020-01-05T08:54:13Z</time>
      </trkpt>
      <trkpt lat="48.6669" lon="7.51798">
        <ele>229.4</ele>
        <time>2020-01-05T08:54:16Z</time>
      </trkpt>
      <trkpt lat="48.66687" lon="7.51796">
        <ele>229.6</ele>
        <time>2020-01-05T08:54:19Z</time>
      </trkpt>
      <trkpt lat="48.66684" lon="7.51796">
        <ele>229.7</ele>
        <time>2020-01-05T08:54:22Z</time>
      </trkpt>
      <trkpt lat="48.6668" lon="7.51795">
        <ele>229.9</ele>
        <time>2020-01-05T08:54:25Z</time>
      </trkpt>
      <trkpt lat="48.66678" lon="7.51793">
        <ele>230.1</ele>
        <time>2020-01-05T08:54:28Z</time>
      </trkpt>
      <trkpt lat="48.66674" lon="7.51792">
        <ele>230.2</ele>
        <time>2020-01-05T08:54:31Z</time>
      </trkpt>
      <trkpt lat="48.66672" lon="7.51788">
        <ele>230.4</ele>
        <time>2020-01-05T08:54:34Z</time>
      </trkpt>
      <trkpt lat="48.66669" lon="7.51788">
        <ele>230.6</ele>
        <time>2020-01-05T08:54:37Z</time>
      </trkpt>
      <trkpt lat="48.66666" lon="7.51788">
        <ele>230.8</ele>
        <time>2020-01-05T08:54:40Z</time>
      </trkpt>
      <trkpt lat="48.66663" lon="7.51787">
        <ele>231</ele>
        <time>2020-01-05T08:54:42Z</time>
      </trkpt>
      <trkpt lat="48.6666" lon="7.51786">
        <ele>231.2</ele>
        <time>2020-01-05T08:54:44Z</time>
      </trkpt>
      <trkpt lat="48.66657" lon="7.51784">
        <ele>231.4</ele>
        <time>2020-01-05T08:54:47Z</time>
      </trkpt>
      <trkpt lat="48.66653" lon="7.51784">
        <ele>231.6</ele>
        <time>2020-01-05T08:54:50Z</time>
      </trkpt>
      <trkpt lat="48.6665" lon="7.51782">
        <ele>231.8</ele>
        <time>2020-01-05T08:54:53Z</time>
      </trkpt>
      <trkpt lat="48.66647" lon="7.51782">
        <ele>232</ele>
        <time>2020-01-05T08:54:57Z</time>
      </trkpt>
      <trkpt lat="48.66643" lon="7.51782">
        <ele>232.2</ele>
        <time>2020-01-05T08:55:00Z</time>
      </trkpt>
      <trkpt lat="48.66641" lon="7.51781">
        <ele>232.3</ele>
        <time>2020-01-05T08:55:02Z</time>
      </trkpt>
      <trkpt lat="48.66638" lon="7.51778">
        <ele>232.5</ele>
        <time>2020-01-05T08:55:05Z</time>
      </trkpt>
      <trkpt lat="48.66635" lon="7.51776">
        <ele>232.7</ele>
        <time>2020-01-05T08:55:08Z</time>
      </trkpt>
      <trkpt lat="48.66632" lon="7.51774">
        <ele>232.9</ele>
        <time>2020-01-05T08:55:11Z</time>
      </trkpt>
      <trkpt lat="48.66629" lon="7.51773">
        <ele>233.1</ele>
        <time>2020-01-05T08:55:14Z</time>
      </trkpt>
      <trkpt lat="48.66626" lon="7.51772">
        <ele>233.2</ele>
        <time>2020-01-05T08:55:17Z</time>
      </trkpt>
      <trkpt lat="48.66624" lon="7.51769">
        <ele>233.3</ele>
        <time>2020-01-05T08:55:20Z</time>
      </trkpt>
      <trkpt lat="48.6662" lon="7.51769">
        <ele>233.4</ele>
        <time>2020-01-05T08:55:23Z</time>
      </trkpt>
      <trkpt lat="48.66617" lon="7.51769">
        <ele>233.5</ele>
        <time>2020-01-05T08:55:26Z</time>
      </trkpt>
      <trkpt lat="48.66613" lon="7.51768">
        <ele>233.7</ele>
        <time>2020-01-05T08:55:29Z</time>
      </trkpt>
      <trkpt lat="48.6661" lon="7.51767">
        <ele>233.8</ele>
        <time>2020-01-05T08:55:32Z</time>
      </trkpt>
      <trkpt lat="48.66607" lon="7.51766">
        <ele>234</ele>
        <time>2020-01-05T08:55:35Z</time>
      </trkpt>
      <trkpt lat="48.66603" lon="7.51764">
        <ele>234.3</ele>
        <time>2020-01-05T08:55:39Z</time>
      </trkpt>
      <trkpt lat="48.666" lon="7.51764">
        <ele>234.4</ele>
        <time>2020-01-05T08:55:42Z</time>
      </trkpt>
      <trkpt lat="48.66597" lon="7.51763">
        <ele>234.6</ele>
        <time>2020-01-05T08:55:44Z</time>
      </trkpt>
      <trkpt lat="48.66594" lon="7.5176">
        <ele>234.9</ele>
        <time>2020-01-05T08:55:47Z</time>
      </trkpt>
      <trkpt lat="48.66591" lon="7.51759">
        <ele>235</ele>
        <time>2020-01-05T08:55:50Z</time>
      </trkpt>
      <trkpt lat="48.66588" lon="7.51759">
        <ele>235.3</ele>
        <time>2020-01-05T08:55:52Z</time>
      </trkpt>
      <trkpt lat="48.66585" lon="7.51758">
        <ele>235.5</ele>
        <time>2020-01-05T08:55:55Z</time>
      </trkpt>
      <trkpt lat="48.66582" lon="7.51755">
        <ele>235.6</ele>
        <time>2020-01-05T08:55:58Z</time>
      </trkpt>
      <trkpt lat="48.66579" lon="7.51755">
        <ele>235.8</ele>
        <time>2020-01-05T08:56:00Z</time>
      </trkpt>
      <trkpt lat="48.66576" lon="7.51753">
        <ele>235.9</ele>
        <time>2020-01-05T08:56:03Z</time>
      </trkpt>
      <trkpt lat="48.66573" lon="7.5175">
        <ele>236.1</ele>
        <time>2020-01-05T08:56:07Z</time>
      </trkpt>
      <trkpt lat="48.6657" lon="7.51749">
        <ele>236.2</ele>
        <time>2020-01-05T08:56:10Z</time>
      </trkpt>
      <trkpt lat="48.66567" lon="7.51747">
        <ele>236.4</ele>
        <time>2020-01-05T08:56:12Z</time>
      </trkpt>
      <trkpt lat="48.66564" lon="7.51746">
        <ele>236.6</ele>
        <time>2020-01-05T08:56:15Z</time>
      </trkpt>
      <trkpt lat="48.66561" lon="7.51744">
        <ele>236.8</ele>
        <time>2020-01-05T08:56:19Z</time>
      </trkpt>
      <trkpt lat="48.66558" lon="7.51742">
        <ele>236.8</ele>
        <time>2020-01-05T08:56:22Z</time>
      </trkpt>
      <trkpt lat="48.66555" lon="7.51739">
        <ele>237</ele>
        <time>2020-01-05T08:56:25Z</time>
      </trkpt>
      <trkpt lat="48.66552" lon="7.51736">
        <ele>237.1</ele>
        <time>2020-01-05T08:56:28Z</time>
      </trkpt>
      <trkpt lat="48.66549" lon="7.51734">
        <ele>237.2</ele>
        <time>2020-01-05T08:56:30Z</time>
      </trkpt>
      <trkpt lat="48.66546" lon="7.51733">
        <ele>237.3</ele>
        <time>2020-01-05T08:56:34Z</time>
      </trkpt>
      <trkpt lat="48.66543" lon="7.51732">
        <ele>237.4</ele>
        <time>2020-01-05T08:56:37Z</time>
      </trkpt>
      <trkpt lat="48.6654" lon="7.51731">
        <ele>237.5</ele>
        <time>2020-01-05T08:56:40Z</time>
      </trkpt>
      <trkpt lat="48.66536" lon="7.51729">
        <ele>237.7</ele>
        <time>2020-01-05T08:56:43Z</time>
      </trkpt>
      <trkpt lat="48.66533" lon="7.51728">
        <ele>237.8</ele>
        <time>2020-01-05T08:56:45Z</time>
      </trkpt>
      <trkpt lat="48.66529" lon="7.51727">
        <ele>237.9</ele>
        <time>2020-01-05T08:56:48Z</time>
      </trkpt>
      <trkpt lat="48.66527" lon="7.51724">
        <ele>238</ele>
        <time>2020-01-05T08:56:52Z</time>
      </trkpt>
      <trkpt lat="48.66524" lon="7.51722">
        <ele>238.2</ele>
        <time>2020-01-05T08:56:57Z</time>
      </trkpt>
      <trkpt lat="48.66521" lon="7.5172">
        <ele>238.4</ele>
        <time>2020-01-05T08:57:00Z</time>
      </trkpt>
      <trkpt lat="48.66518" lon="7.51717">
        <ele>238.7</ele>
        <time>2020-01-05T08:57:03Z</time>
      </trkpt>
      <trkpt lat="48.66515" lon="7.51716">
        <ele>238.9</ele>
        <time>2020-01-05T08:57:05Z</time>
      </trkpt>
      <trkpt lat="48.66513" lon="7.51716">
        <ele>239.2</ele>
        <time>2020-01-05T08:57:07Z</time>
      </trkpt>
      <trkpt lat="48.66509" lon="7.51717">
        <ele>239.5</ele>
        <time>2020-01-05T08:57:10Z</time>
      </trkpt>
      <trkpt lat="48.66506" lon="7.51714">
        <ele>239.8</ele>
        <time>2020-01-05T08:57:13Z</time>
      </trkpt>
      <trkpt lat="48.66504" lon="7.51709">
        <ele>240.1</ele>
        <time>2020-01-05T08:57:16Z</time>
      </trkpt>
      <trkpt lat="48.66501" lon="7.51707">
        <ele>240.4</ele>
        <time>2020-01-05T08:57:19Z</time>
      </trkpt>
      <trkpt lat="48.66498" lon="7.51705">
        <ele>240.6</ele>
        <time>2020-01-05T08:57:22Z</time>
      </trkpt>
      <trkpt lat="48.66494" lon="7.51702">
        <ele>240.8</ele>
        <time>2020-01-05T08:57:25Z</time>
      </trkpt>
      <trkpt lat="48.66492" lon="7.51701">
        <ele>241</ele>
        <time>2020-01-05T08:57:27Z</time>
      </trkpt>
      <trkpt lat="48.66489" lon="7.517">
        <ele>241.2</ele>
        <time>2020-01-05T08:57:31Z</time>
      </trkpt>
      <trkpt lat="48.66486" lon="7.51698">
        <ele>241.4</ele>
        <time>2020-01-05T08:57:34Z</time>
      </trkpt>
      <trkpt lat="48.66483" lon="7.51697">
        <ele>241.6</ele>
        <time>2020-01-05T08:57:37Z</time>
      </trkpt>
      <trkpt lat="48.66479" lon="7.51695">
        <ele>241.8</ele>
        <time>2020-01-05T08:57:40Z</time>
      </trkpt>
      <trkpt lat="48.66476" lon="7.51693">
        <ele>242.1</ele>
        <time>2020-01-05T08:57:43Z</time>
      </trkpt>
      <trkpt lat="48.66474" lon="7.51691">
        <ele>242.3</ele>
        <time>2020-01-05T08:57:46Z</time>
      </trkpt>
      <trkpt lat="48.66471" lon="7.51688">
        <ele>242.5</ele>
        <time>2020-01-05T08:57:49Z</time>
      </trkpt>
      <trkpt lat="48.66467" lon="7.51687">
        <ele>242.7</ele>
        <time>2020-01-05T08:57:53Z</time>
      </trkpt>
      <trkpt lat="48.66465" lon="7.51688">
        <ele>242.8</ele>
        <time>2020-01-05T08:58:04Z</time>
      </trkpt>
      <trkpt lat="48.66462" lon="7.51686">
        <ele>243</ele>
        <time>2020-01-05T08:58:07Z</time>
      </trkpt>
      <trkpt lat="48.6646" lon="7.51683">
        <ele>243.1</ele>
        <time>2020-01-05T08:58:10Z</time>
      </trkpt>
      <trkpt lat="48.66456" lon="7.51682">
        <ele>243.3</ele>
        <time>2020-01-05T08:58:14Z</time>
      </trkpt>
      <trkpt lat="48.66453" lon="7.51682">
        <ele>243.5</ele>
        <time>2020-01-05T08:58:17Z</time>
      </trkpt>
      <trkpt lat="48.6645" lon="7.5168">
        <ele>243.6</ele>
        <time>2020-01-05T08:58:20Z</time>
      </trkpt>
      <trkpt lat="48.66447" lon="7.51679">
        <ele>243.8</ele>
        <time>2020-01-05T08:58:23Z</time>
      </trkpt>
      <trkpt lat="48.66444" lon="7.51676">
        <ele>244</ele>
        <time>2020-01-05T08:58:26Z</time>
      </trkpt>
      <trkpt lat="48.6644" lon="7.51676">
        <ele>244.2</ele>
        <time>2020-01-05T08:58:29Z</time>
      </trkpt>
      <trkpt lat="48.66438" lon="7.51675">
        <ele>244.3</ele>
        <time>2020-01-05T08:58:32Z</time>
      </trkpt>
      <trkpt lat="48.66434" lon="7.51673">
        <ele>244.6</ele>
        <time>2020-01-05T08:58:36Z</time>
      </trkpt>
      <trkpt lat="48.66431" lon="7.5167">
        <ele>244.8</ele>
        <time>2020-01-05T08:58:39Z</time>
      </trkpt>
      <trkpt lat="48.66428" lon="7.51668">
        <ele>245</ele>
        <time>2020-01-05T08:58:42Z</time>
      </trkpt>
      <trkpt lat="48.66425" lon="7.51668">
        <ele>245.1</ele>
        <time>2020-01-05T08:58:45Z</time>
      </trkpt>
      <trkpt lat="48.66421" lon="7.51669">
        <ele>245.2</ele>
        <time>2020-01-05T08:58:48Z</time>
      </trkpt>
      <trkpt lat="48.66418" lon="7.51671">
        <ele>245.4</ele>
        <time>2020-01-05T08:58:51Z</time>
      </trkpt>
      <trkpt lat="48.66415" lon="7.51673">
        <ele>245.5</ele>
        <time>2020-01-05T08:58:53Z</time>
      </trkpt>
      <trkpt lat="48.66411" lon="7.51676">
        <ele>245.6</ele>
        <time>2020-01-05T08:58:56Z</time>
      </trkpt>
      <trkpt lat="48.66407" lon="7.51676">
        <ele>245.8</ele>
        <time>2020-01-05T08:58:59Z</time>
      </trkpt>
      <trkpt lat="48.66403" lon="7.51678">
        <ele>245.9</ele>
        <time>2020-01-05T08:59:02Z</time>
      </trkpt>
      <trkpt lat="48.66399" lon="7.5168">
        <ele>246.1</ele>
        <time>2020-01-05T08:59:05Z</time>
      </trkpt>
      <trkpt lat="48.66396" lon="7.51683">
        <ele>246.2</ele>
        <time>2020-01-05T08:59:10Z</time>
      </trkpt>
      <trkpt lat="48.66393" lon="7.51685">
        <ele>246.3</ele>
        <time>2020-01-05T08:59:12Z</time>
      </trkpt>
      <trkpt lat="48.6639" lon="7.51689">
        <ele>246.5</ele>
        <time>2020-01-05T08:59:16Z</time>
      </trkpt>
      <trkpt lat="48.66386" lon="7.51692">
        <ele>246.7</ele>
        <time>2020-01-05T08:59:20Z</time>
      </trkpt>
      <trkpt lat="48.66383" lon="7.51697">
        <ele>246.8</ele>
        <time>2020-01-05T08:59:23Z</time>
      </trkpt>
      <trkpt lat="48.6638" lon="7.51701">
        <ele>246.9</ele>
        <time>2020-01-05T08:59:25Z</time>
      </trkpt>
      <trkpt lat="48.66379" lon="7.51705">
        <ele>247</ele>
        <time>2020-01-05T08:59:28Z</time>
      </trkpt>
      <trkpt lat="48.66377" lon="7.51708">
        <ele>247.1</ele>
        <time>2020-01-05T08:59:31Z</time>
      </trkpt>
      <trkpt lat="48.66375" lon="7.51711">
        <ele>247.2</ele>
        <time>2020-01-05T08:59:34Z</time>
      </trkpt>
      <trkpt lat="48.66373" lon="7.51715">
        <ele>247.5</ele>
        <time>2020-01-05T08:59:37Z</time>
      </trkpt>
      <trkpt lat="48.6637" lon="7.51719">
        <ele>247.7</ele>
        <time>2020-01-05T08:59:40Z</time>
      </trkpt>
      <trkpt lat="48.66368" lon="7.51725">
        <ele>247.9</ele>
        <time>2020-01-05T08:59:43Z</time>
      </trkpt>
      <trkpt lat="48.66368" lon="7.5173">
        <ele>248.1</ele>
        <time>2020-01-05T08:59:46Z</time>
      </trkpt>
      <trkpt lat="48.66366" lon="7.51736">
        <ele>248.4</ele>
        <time>2020-01-05T08:59:49Z</time>
      </trkpt>
      <trkpt lat="48.66364" lon="7.51741">
        <ele>248.7</ele>
        <time>2020-01-05T08:59:52Z</time>
      </trkpt>
      <trkpt lat="48.66362" lon="7.51745">
        <ele>248.8</ele>
        <time>2020-01-05T08:59:55Z</time>
      </trkpt>
      <trkpt lat="48.66361" lon="7.5175">
        <ele>249</ele>
        <time>2020-01-05T08:59:58Z</time>
      </trkpt>
      <trkpt lat="48.66361" lon="7.51754">
        <ele>249.1</ele>
        <time>2020-01-05T09:00:00Z</time>
      </trkpt>
      <trkpt lat="48.6636" lon="7.51759">
        <ele>249.3</ele>
        <time>2020-01-05T09:00:02Z</time>
      </trkpt>
      <trkpt lat="48.66359" lon="7.51762">
        <ele>249.4</ele>
        <time>2020-01-05T09:00:04Z</time>
      </trkpt>
      <trkpt lat="48.66357" lon="7.51766">
        <ele>249.5</ele>
        <time>2020-01-05T09:00:07Z</time>
      </trkpt>
      <trkpt lat="48.66358" lon="7.51772">
        <ele>249.6</ele>
        <time>2020-01-05T09:00:10Z</time>
      </trkpt>
      <trkpt lat="48.66359" lon="7.51776">
        <ele>249.7</ele>
        <time>2020-01-05T09:00:13Z</time>
      </trkpt>
      <trkpt lat="48.66358" lon="7.5178">
        <ele>249.7</ele>
        <time>2020-01-05T09:00:15Z</time>
      </trkpt>
      <trkpt lat="48.66358" lon="7.51785">
        <ele>249.8</ele>
        <time>2020-01-05T09:00:18Z</time>
      </trkpt>
      <trkpt lat="48.66358" lon="7.5179">
        <ele>249.9</ele>
        <time>2020-01-05T09:00:21Z</time>
      </trkpt>
      <trkpt lat="48.66357" lon="7.51794">
        <ele>250</ele>
        <time>2020-01-05T09:00:24Z</time>
      </trkpt>
      <trkpt lat="48.66357" lon="7.51801">
        <ele>250.1</ele>
        <time>2020-01-05T09:00:28Z</time>
      </trkpt>
      <trkpt lat="48.66358" lon="7.51805">
        <ele>250.1</ele>
        <time>2020-01-05T09:00:31Z</time>
      </trkpt>
      <trkpt lat="48.66358" lon="7.5181">
        <ele>250.2</ele>
        <time>2020-01-05T09:00:33Z</time>
      </trkpt>
      <trkpt lat="48.66357" lon="7.51814">
        <ele>250.2</ele>
        <time>2020-01-05T09:00:36Z</time>
      </trkpt>
      <trkpt lat="48.66358" lon="7.51818">
        <ele>250.3</ele>
        <time>2020-01-05T09:00:38Z</time>
      </trkpt>
      <trkpt lat="48.66357" lon="7.51824">
        <ele>250.3</ele>
        <time>2020-01-05T09:00:41Z</time>
      </trkpt>
      <trkpt lat="48.66357" lon="7.51829">
        <ele>250.3</ele>
        <time>2020-01-05T09:00:45Z</time>
      </trkpt>
      <trkpt lat="48.66357" lon="7.51833">
        <ele>250.4</ele>
        <time>2020-01-05T09:00:48Z</time>
      </trkpt>
      <trkpt lat="48.66356" lon="7.51838">
        <ele>250.4</ele>
        <time>2020-01-05T09:00:51Z</time>
      </trkpt>
      <trkpt lat="48.66357" lon="7.51842">
        <ele>250.4</ele>
        <time>2020-01-05T09:00:53Z</time>
      </trkpt>
      <trkpt lat="48.66358" lon="7.51847">
        <ele>250.5</ele>
        <time>2020-01-05T09:00:56Z</time>
      </trkpt>
      <trkpt lat="48.66357" lon="7.51853">
        <ele>250.6</ele>
        <time>2020-01-05T09:00:59Z</time>
      </trkpt>
      <trkpt lat="48.66357" lon="7.51858">
        <ele>250.6</ele>
        <time>2020-01-05T09:01:02Z</time>
      </trkpt>
      <trkpt lat="48.66356" lon="7.51863">
        <ele>250.7</ele>
        <time>2020-01-05T09:01:05Z</time>
      </trkpt>
      <trkpt lat="48.66358" lon="7.51867">
        <ele>250.7</ele>
        <time>2020-01-05T09:01:08Z</time>
      </trkpt>
      <trkpt lat="48.66357" lon="7.51872">
        <ele>250.7</ele>
        <time>2020-01-05T09:01:10Z</time>
      </trkpt>
      <trkpt lat="48.66358" lon="7.51876">
        <ele>250.8</ele>
        <time>2020-01-05T09:01:13Z</time>
      </trkpt>
      <trkpt lat="48.66358" lon="7.51881">
        <ele>250.8</ele>
        <time>2020-01-05T09:01:15Z</time>
      </trkpt>
      <trkpt lat="48.66358" lon="7.51886">
        <ele>250.9</ele>
        <time>2020-01-05T09:01:18Z</time>
      </trkpt>
      <trkpt lat="48.66358" lon="7.51891">
        <ele>250.9</ele>
        <time>2020-01-05T09:01:20Z</time>
      </trkpt>
      <trkpt lat="48.66357" lon="7.51896">
        <ele>251</ele>
        <time>2020-01-05T09:01:23Z</time>
      </trkpt>
      <trkpt lat="48.66358" lon="7.519">
        <ele>251</ele>
        <time>2020-01-05T09:01:26Z</time>
      </trkpt>
      <trkpt lat="48.66358" lon="7.51905">
        <ele>251.1</ele>
        <time>2020-01-05T09:01:29Z</time>
      </trkpt>
      <trkpt lat="48.66358" lon="7.51909">
        <ele>251.1</ele>
        <time>2020-01-05T09:01:32Z</time>
      </trkpt>
      <trkpt lat="48.66358" lon="7.51914">
        <ele>251.2</ele>
        <time>2020-01-05T09:01:34Z</time>
      </trkpt>
      <trkpt lat="48.66358" lon="7.51919">
        <ele>251.2</ele>
        <time>2020-01-05T09:01:36Z</time>
      </trkpt>
      <trkpt lat="48.66358" lon="7.51924">
        <ele>251.3</ele>
        <time>2020-01-05T09:01:39Z</time>
      </trkpt>
      <trkpt lat="48.66359" lon="7.51929">
        <ele>251.4</ele>
        <time>2020-01-05T09:01:42Z</time>
      </trkpt>
      <trkpt lat="48.66359" lon="7.51933">
        <ele>251.4</ele>
        <time>2020-01-05T09:01:44Z</time>
      </trkpt>
      <trkpt lat="48.6636" lon="7.51939">
        <ele>251.4</ele>
        <time>2020-01-05T09:01:47Z</time>
      </trkpt>
      <trkpt lat="48.66361" lon="7.51942">
        <ele>251.4</ele>
        <time>2020-01-05T09:01:49Z</time>
      </trkpt>
      <trkpt lat="48.66362" lon="7.51946">
        <ele>251.4</ele>
        <time>2020-01-05T09:01:52Z</time>
      </trkpt>
      <trkpt lat="48.66363" lon="7.5195">
        <ele>251.4</ele>
        <time>2020-01-05T09:01:55Z</time>
      </trkpt>
      <trkpt lat="48.66364" lon="7.51956">
        <ele>251.4</ele>
        <time>2020-01-05T09:01:58Z</time>
      </trkpt>
      <trkpt lat="48.66365" lon="7.51961">
        <ele>251.4</ele>
        <time>2020-01-05T09:02:01Z</time>
      </trkpt>
      <trkpt lat="48.66366" lon="7.51966">
        <ele>251.5</ele>
        <time>2020-01-05T09:02:04Z</time>
      </trkpt>
      <trkpt lat="48.66367" lon="7.51969">
        <ele>251.5</ele>
        <time>2020-01-05T09:02:08Z</time>
      </trkpt>
      <trkpt lat="48.66369" lon="7.51974">
        <ele>251.5</ele>
        <time>2020-01-05T09:02:10Z</time>
      </trkpt>
      <trkpt lat="48.66369" lon="7.51978">
        <ele>251.6</ele>
        <time>2020-01-05T09:02:12Z</time>
      </trkpt>
      <trkpt lat="48.66369" lon="7.51982">
        <ele>251.6</ele>
        <time>2020-01-05T09:02:14Z</time>
      </trkpt>
      <trkpt lat="48.66371" lon="7.51986">
        <ele>251.6</ele>
        <time>2020-01-05T09:02:17Z</time>
      </trkpt>
      <trkpt lat="48.66373" lon="7.5199">
        <ele>251.7</ele>
        <time>2020-01-05T09:02:19Z</time>
      </trkpt>
      <trkpt lat="48.66374" lon="7.51995">
        <ele>251.7</ele>
        <time>2020-01-05T09:02:21Z</time>
      </trkpt>
      <trkpt lat="48.66375" lon="7.52">
        <ele>251.7</ele>
        <time>2020-01-05T09:02:24Z</time>
      </trkpt>
      <trkpt lat="48.66374" lon="7.52004">
        <ele>251.7</ele>
        <time>2020-01-05T09:02:26Z</time>
      </trkpt>
      <trkpt lat="48.66376" lon="7.52009">
        <ele>251.7</ele>
        <time>2020-01-05T09:02:30Z</time>
      </trkpt>
      <trkpt lat="48.66378" lon="7.52014">
        <ele>251.7</ele>
        <time>2020-01-05T09:02:33Z</time>
      </trkpt>
      <trkpt lat="48.66379" lon="7.52019">
        <ele>251.7</ele>
        <time>2020-01-05T09:02:37Z</time>
      </trkpt>
      <trkpt lat="48.66379" lon="7.52024">
        <ele>251.7</ele>
        <time>2020-01-05T09:02:40Z</time>
      </trkpt>
      <trkpt lat="48.6638" lon="7.52028">
        <ele>251.7</ele>
        <time>2020-01-05T09:02:43Z</time>
      </trkpt>
      <trkpt lat="48.66381" lon="7.52033">
        <ele>251.7</ele>
        <time>2020-01-05T09:02:47Z</time>
      </trkpt>
      <trkpt lat="48.66382" lon="7.52037">
        <ele>251.7</ele>
        <time>2020-01-05T09:02:49Z</time>
      </trkpt>
      <trkpt lat="48.66383" lon="7.52042">
        <ele>251.8</ele>
        <time>2020-01-05T09:02:51Z</time>
      </trkpt>
      <trkpt lat="48.66384" lon="7.52046">
        <ele>251.8</ele>
        <time>2020-01-05T09:02:54Z</time>
      </trkpt>
      <trkpt lat="48.66385" lon="7.52051">
        <ele>251.9</ele>
        <time>2020-01-05T09:02:56Z</time>
      </trkpt>
      <trkpt lat="48.66386" lon="7.52056">
        <ele>252</ele>
        <time>2020-01-05T09:02:59Z</time>
      </trkpt>
      <trkpt lat="48.66387" lon="7.52061">
        <ele>252.1</ele>
        <time>2020-01-05T09:03:02Z</time>
      </trkpt>
      <trkpt lat="48.66389" lon="7.52065">
        <ele>252.1</ele>
        <time>2020-01-05T09:03:04Z</time>
      </trkpt>
      <trkpt lat="48.66391" lon="7.52069">
        <ele>252.2</ele>
        <time>2020-01-05T09:03:07Z</time>
      </trkpt>
      <trkpt lat="48.66393" lon="7.52073">
        <ele>252.2</ele>
        <time>2020-01-05T09:03:10Z</time>
      </trkpt>
      <trkpt lat="48.66393" lon="7.52077">
        <ele>252.2</ele>
        <time>2020-01-05T09:03:12Z</time>
      </trkpt>
      <trkpt lat="48.66394" lon="7.52083">
        <ele>252.3</ele>
        <time>2020-01-05T09:03:16Z</time>
      </trkpt>
      <trkpt lat="48.66394" lon="7.52088">
        <ele>252.3</ele>
        <time>2020-01-05T09:03:19Z</time>
      </trkpt>
      <trkpt lat="48.66395" lon="7.52094">
        <ele>252.3</ele>
        <time>2020-01-05T09:03:22Z</time>
      </trkpt>
      <trkpt lat="48.66396" lon="7.52099">
        <ele>252.3</ele>
        <time>2020-01-05T09:03:25Z</time>
      </trkpt>
      <trkpt lat="48.66395" lon="7.52105">
        <ele>252.3</ele>
        <time>2020-01-05T09:03:28Z</time>
      </trkpt>
      <trkpt lat="48.66395" lon="7.5211">
        <ele>252.4</ele>
        <time>2020-01-05T09:03:31Z</time>
      </trkpt>
      <trkpt lat="48.66395" lon="7.52115">
        <ele>252.4</ele>
        <time>2020-01-05T09:03:34Z</time>
      </trkpt>
      <trkpt lat="48.66396" lon="7.52119">
        <ele>252.4</ele>
        <time>2020-01-05T09:03:36Z</time>
      </trkpt>
      <trkpt lat="48.66397" lon="7.52124">
        <ele>252.5</ele>
        <time>2020-01-05T09:03:39Z</time>
      </trkpt>
      <trkpt lat="48.66398" lon="7.5213">
        <ele>252.5</ele>
        <time>2020-01-05T09:03:41Z</time>
      </trkpt>
      <trkpt lat="48.66398" lon="7.52134">
        <ele>252.6</ele>
        <time>2020-01-05T09:03:44Z</time>
      </trkpt>
      <trkpt lat="48.66399" lon="7.52139">
        <ele>252.7</ele>
        <time>2020-01-05T09:03:48Z</time>
      </trkpt>
      <trkpt lat="48.66399" lon="7.52145">
        <ele>252.7</ele>
        <time>2020-01-05T09:03:52Z</time>
      </trkpt>
      <trkpt lat="48.664" lon="7.52151">
        <ele>252.8</ele>
        <time>2020-01-05T09:03:55Z</time>
      </trkpt>
      <trkpt lat="48.66401" lon="7.52156">
        <ele>252.8</ele>
        <time>2020-01-05T09:03:57Z</time>
      </trkpt>
      <trkpt lat="48.66401" lon="7.5216">
        <ele>252.9</ele>
        <time>2020-01-05T09:03:59Z</time>
      </trkpt>
      <trkpt lat="48.66402" lon="7.52166">
        <ele>252.9</ele>
        <time>2020-01-05T09:04:02Z</time>
      </trkpt>
      <trkpt lat="48.66402" lon="7.52171">
        <ele>252.9</ele>
        <time>2020-01-05T09:04:06Z</time>
      </trkpt>
      <trkpt lat="48.66402" lon="7.52176">
        <ele>252.9</ele>
        <time>2020-01-05T09:04:09Z</time>
      </trkpt>
      <trkpt lat="48.66402" lon="7.52182">
        <ele>252.9</ele>
        <time>2020-01-05T09:04:13Z</time>
      </trkpt>
      <trkpt lat="48.66402" lon="7.52187">
        <ele>252.8</ele>
        <time>2020-01-05T09:04:16Z</time>
      </trkpt>
      <trkpt lat="48.66403" lon="7.52191">
        <ele>252.8</ele>
        <time>2020-01-05T09:04:18Z</time>
      </trkpt>
      <trkpt lat="48.66403" lon="7.52196">
        <ele>252.7</ele>
        <time>2020-01-05T09:04:21Z</time>
      </trkpt>
      <trkpt lat="48.66403" lon="7.52202">
        <ele>252.6</ele>
        <time>2020-01-05T09:04:24Z</time>
      </trkpt>
      <trkpt lat="48.66404" lon="7.52207">
        <ele>252.5</ele>
        <time>2020-01-05T09:04:27Z</time>
      </trkpt>
      <trkpt lat="48.66404" lon="7.52212">
        <ele>252.5</ele>
        <time>2020-01-05T09:04:30Z</time>
      </trkpt>
      <trkpt lat="48.66406" lon="7.52216">
        <ele>252.5</ele>
        <time>2020-01-05T09:04:32Z</time>
      </trkpt>
      <trkpt lat="48.66405" lon="7.52222">
        <ele>252.4</ele>
        <time>2020-01-05T09:04:35Z</time>
      </trkpt>
      <trkpt lat="48.66404" lon="7.52227">
        <ele>252.4</ele>
        <time>2020-01-05T09:04:39Z</time>
      </trkpt>
      <trkpt lat="48.66405" lon="7.52232">
        <ele>252.4</ele>
        <time>2020-01-05T09:04:42Z</time>
      </trkpt>
      <trkpt lat="48.66406" lon="7.52237">
        <ele>252.4</ele>
        <time>2020-01-05T09:04:45Z</time>
      </trkpt>
      <trkpt lat="48.66406" lon="7.52241">
        <ele>252.4</ele>
        <time>2020-01-05T09:04:47Z</time>
      </trkpt>
      <trkpt lat="48.66406" lon="7.52246">
        <ele>252.5</ele>
        <time>2020-01-05T09:04:50Z</time>
      </trkpt>
      <trkpt lat="48.66407" lon="7.52252">
        <ele>252.5</ele>
        <time>2020-01-05T09:04:54Z</time>
      </trkpt>
      <trkpt lat="48.66407" lon="7.52259">
        <ele>252.6</ele>
        <time>2020-01-05T09:04:57Z</time>
      </trkpt>
      <trkpt lat="48.66408" lon="7.52263">
        <ele>252.7</ele>
        <time>2020-01-05T09:05:00Z</time>
      </trkpt>
      <trkpt lat="48.66407" lon="7.52267">
        <ele>252.8</ele>
        <time>2020-01-05T09:05:03Z</time>
      </trkpt>
      <trkpt lat="48.66407" lon="7.52273">
        <ele>252.9</ele>
        <time>2020-01-05T09:05:06Z</time>
      </trkpt>
      <trkpt lat="48.66407" lon="7.52277">
        <ele>253</ele>
        <time>2020-01-05T09:05:09Z</time>
      </trkpt>
      <trkpt lat="48.66405" lon="7.52283">
        <ele>253.1</ele>
        <time>2020-01-05T09:05:12Z</time>
      </trkpt>
      <trkpt lat="48.66405" lon="7.52288">
        <ele>253.2</ele>
        <time>2020-01-05T09:05:15Z</time>
      </trkpt>
      <trkpt lat="48.66406" lon="7.52292">
        <ele>253.3</ele>
        <time>2020-01-05T09:05:17Z</time>
      </trkpt>
      <trkpt lat="48.66407" lon="7.52297">
        <ele>253.3</ele>
        <time>2020-01-05T09:05:20Z</time>
      </trkpt>
      <trkpt lat="48.66407" lon="7.52301">
        <ele>253.4</ele>
        <time>2020-01-05T09:05:23Z</time>
      </trkpt>
      <trkpt lat="48.66407" lon="7.52306">
        <ele>253.5</ele>
        <time>2020-01-05T09:05:27Z</time>
      </trkpt>
      <trkpt lat="48.66408" lon="7.52311">
        <ele>253.6</ele>
        <time>2020-01-05T09:05:30Z</time>
      </trkpt>
      <trkpt lat="48.66409" lon="7.52316">
        <ele>253.7</ele>
        <time>2020-01-05T09:05:33Z</time>
      </trkpt>
      <trkpt lat="48.6641" lon="7.52322">
        <ele>253.8</ele>
        <time>2020-01-05T09:05:36Z</time>
      </trkpt>
      <trkpt lat="48.6641" lon="7.52327">
        <ele>253.9</ele>
        <time>2020-01-05T09:05:39Z</time>
      </trkpt>
      <trkpt lat="48.66411" lon="7.52332">
        <ele>254</ele>
        <time>2020-01-05T09:05:41Z</time>
      </trkpt>
      <trkpt lat="48.6641" lon="7.52338">
        <ele>254</ele>
        <time>2020-01-05T09:05:43Z</time>
      </trkpt>
      <trkpt lat="48.6641" lon="7.52342">
        <ele>254.1</ele>
        <time>2020-01-05T09:05:46Z</time>
      </trkpt>
      <trkpt lat="48.66411" lon="7.52347">
        <ele>254.1</ele>
        <time>2020-01-05T09:05:49Z</time>
      </trkpt>
      <trkpt lat="48.66412" lon="7.52351">
        <ele>254.1</ele>
        <time>2020-01-05T09:05:52Z</time>
      </trkpt>
      <trkpt lat="48.66411" lon="7.52356">
        <ele>254.1</ele>
        <time>2020-01-05T09:05:55Z</time>
      </trkpt>
      <trkpt lat="48.66411" lon="7.52361">
        <ele>254.2</ele>
        <time>2020-01-05T09:05:59Z</time>
      </trkpt>
      <trkpt lat="48.66412" lon="7.52367">
        <ele>254.2</ele>
        <time>2020-01-05T09:06:02Z</time>
      </trkpt>
      <trkpt lat="48.66412" lon="7.52372">
        <ele>254.2</ele>
        <time>2020-01-05T09:06:06Z</time>
      </trkpt>
      <trkpt lat="48.66412" lon="7.52377">
        <ele>254.2</ele>
        <time>2020-01-05T09:06:08Z</time>
      </trkpt>
      <trkpt lat="48.66412" lon="7.52383">
        <ele>254.2</ele>
        <time>2020-01-05T09:06:11Z</time>
      </trkpt>
      <trkpt lat="48.66411" lon="7.52388">
        <ele>254.2</ele>
        <time>2020-01-05T09:06:13Z</time>
      </trkpt>
      <trkpt lat="48.66411" lon="7.52393">
        <ele>254.2</ele>
        <time>2020-01-05T09:06:16Z</time>
      </trkpt>
      <trkpt lat="48.66412" lon="7.52397">
        <ele>254.2</ele>
        <time>2020-01-05T09:06:18Z</time>
      </trkpt>
      <trkpt lat="48.66412" lon="7.52401">
        <ele>254.2</ele>
        <time>2020-01-05T09:06:21Z</time>
      </trkpt>
      <trkpt lat="48.66413" lon="7.52405">
        <ele>254.2</ele>
        <time>2020-01-05T09:06:23Z</time>
      </trkpt>
      <trkpt lat="48.66413" lon="7.5241">
        <ele>254.2</ele>
        <time>2020-01-05T09:06:26Z</time>
      </trkpt>
      <trkpt lat="48.66413" lon="7.52415">
        <ele>254.2</ele>
        <time>2020-01-05T09:06:29Z</time>
      </trkpt>
      <trkpt lat="48.66413" lon="7.52419">
        <ele>254.2</ele>
        <time>2020-01-05T09:06:32Z</time>
      </trkpt>
      <trkpt lat="48.66413" lon="7.52424">
        <ele>254.2</ele>
        <time>2020-01-05T09:06:35Z</time>
      </trkpt>
      <trkpt lat="48.66414" lon="7.52429">
        <ele>254.2</ele>
        <time>2020-01-05T09:06:39Z</time>
      </trkpt>
      <trkpt lat="48.66413" lon="7.52433">
        <ele>254.2</ele>
        <time>2020-01-05T09:06:41Z</time>
      </trkpt>
      <trkpt lat="48.66413" lon="7.52437">
        <ele>254.2</ele>
        <time>2020-01-05T09:06:44Z</time>
      </trkpt>
      <trkpt lat="48.66411" lon="7.5244">
        <ele>254.2</ele>
        <time>2020-01-05T09:06:47Z</time>
      </trkpt>
      <trkpt lat="48.66408" lon="7.52441">
        <ele>254.1</ele>
        <time>2020-01-05T09:06:52Z</time>
      </trkpt>
      <trkpt lat="48.66404" lon="7.52441">
        <ele>254.1</ele>
        <time>2020-01-05T09:07:02Z</time>
      </trkpt>
      <trkpt lat="48.664" lon="7.52439">
        <ele>254</ele>
        <time>2020-01-05T09:07:05Z</time>
      </trkpt>
      <trkpt lat="48.66398" lon="7.52437">
        <ele>254</ele>
        <time>2020-01-05T09:07:08Z</time>
      </trkpt>
      <trkpt lat="48.66396" lon="7.52434">
        <ele>253.9</ele>
        <time>2020-01-05T09:07:11Z</time>
      </trkpt>
      <trkpt lat="48.66392" lon="7.5243">
        <ele>253.7</ele>
        <time>2020-01-05T09:07:14Z</time>
      </trkpt>
      <trkpt lat="48.66389" lon="7.52427">
        <ele>253.6</ele>
        <time>2020-01-05T09:07:17Z</time>
      </trkpt>
      <trkpt lat="48.66387" lon="7.52425">
        <ele>253.5</ele>
        <time>2020-01-05T09:07:20Z</time>
      </trkpt>
      <trkpt lat="48.66383" lon="7.52423">
        <ele>253.3</ele>
        <time>2020-01-05T09:07:23Z</time>
      </trkpt>
      <trkpt lat="48.66379" lon="7.52419">
        <ele>253</ele>
        <time>2020-01-05T09:07:26Z</time>
      </trkpt>
      <trkpt lat="48.66376" lon="7.52416">
        <ele>252.8</ele>
        <time>2020-01-05T09:07:29Z</time>
      </trkpt>
      <trkpt lat="48.66374" lon="7.52413">
        <ele>252.7</ele>
        <time>2020-01-05T09:07:32Z</time>
      </trkpt>
      <trkpt lat="48.66371" lon="7.52413">
        <ele>252.5</ele>
        <time>2020-01-05T09:07:35Z</time>
      </trkpt>
      <trkpt lat="48.66368" lon="7.52412">
        <ele>252.3</ele>
        <time>2020-01-05T09:07:38Z</time>
      </trkpt>
      <trkpt lat="48.66366" lon="7.52408">
        <ele>252.1</ele>
        <time>2020-01-05T09:07:42Z</time>
      </trkpt>
      <trkpt lat="48.66363" lon="7.52406">
        <ele>251.9</ele>
        <time>2020-01-05T09:07:45Z</time>
      </trkpt>
      <trkpt lat="48.6636" lon="7.52402">
        <ele>251.7</ele>
        <time>2020-01-05T09:07:48Z</time>
      </trkpt>
      <trkpt lat="48.66358" lon="7.52398">
        <ele>251.4</ele>
        <time>2020-01-05T09:07:51Z</time>
      </trkpt>
      <trkpt lat="48.66355" lon="7.52395">
        <ele>251.2</ele>
        <time>2020-01-05T09:07:53Z</time>
      </trkpt>
      <trkpt lat="48.66352" lon="7.52393">
        <ele>251</ele>
        <time>2020-01-05T09:07:57Z</time>
      </trkpt>
      <trkpt lat="48.6635" lon="7.5239">
        <ele>250.7</ele>
        <time>2020-01-05T09:07:59Z</time>
      </trkpt>
      <trkpt lat="48.66347" lon="7.52389">
        <ele>250.5</ele>
        <time>2020-01-05T09:08:02Z</time>
      </trkpt>
      <trkpt lat="48.66344" lon="7.52388">
        <ele>250.2</ele>
        <time>2020-01-05T09:08:05Z</time>
      </trkpt>
      <trkpt lat="48.66342" lon="7.52385">
        <ele>250</ele>
        <time>2020-01-05T09:08:08Z</time>
      </trkpt>
      <trkpt lat="48.66338" lon="7.52382">
        <ele>249.6</ele>
        <time>2020-01-05T09:08:11Z</time>
      </trkpt>
      <trkpt lat="48.66335" lon="7.52379">
        <ele>249.2</ele>
        <time>2020-01-05T09:08:15Z</time>
      </trkpt>
      <trkpt lat="48.66332" lon="7.52376">
        <ele>248.9</ele>
        <time>2020-01-05T09:08:18Z</time>
      </trkpt>
      <trkpt lat="48.66329" lon="7.52375">
        <ele>248.6</ele>
        <time>2020-01-05T09:08:21Z</time>
      </trkpt>
      <trkpt lat="48.66326" lon="7.52372">
        <ele>248.3</ele>
        <time>2020-01-05T09:08:24Z</time>
      </trkpt>
      <trkpt lat="48.66323" lon="7.52368">
        <ele>248</ele>
        <time>2020-01-05T09:08:27Z</time>
      </trkpt>
      <trkpt lat="48.66321" lon="7.52365">
        <ele>247.7</ele>
        <time>2020-01-05T09:08:30Z</time>
      </trkpt>
      <trkpt lat="48.66318" lon="7.52364">
        <ele>247.4</ele>
        <time>2020-01-05T09:08:33Z</time>
      </trkpt>
      <trkpt lat="48.66314" lon="7.52363">
        <ele>247</ele>
        <time>2020-01-05T09:08:36Z</time>
      </trkpt>
      <trkpt lat="48.66311" lon="7.52362">
        <ele>246.7</ele>
        <time>2020-01-05T09:08:39Z</time>
      </trkpt>
      <trkpt lat="48.66308" lon="7.52359">
        <ele>246.4</ele>
        <time>2020-01-05T09:08:42Z</time>
      </trkpt>
      <trkpt lat="48.66305" lon="7.52357">
        <ele>246.1</ele>
        <time>2020-01-05T09:08:44Z</time>
      </trkpt>
      <trkpt lat="48.66303" lon="7.52355">
        <ele>245.8</ele>
        <time>2020-01-05T09:08:46Z</time>
      </trkpt>
      <trkpt lat="48.66301" lon="7.52352">
        <ele>245.6</ele>
        <time>2020-01-05T09:08:49Z</time>
      </trkpt>
      <trkpt lat="48.66298" lon="7.52348">
        <ele>245.2</ele>
        <time>2020-01-05T09:08:51Z</time>
      </trkpt>
      <trkpt lat="48.66295" lon="7.52347">
        <ele>244.9</ele>
        <time>2020-01-05T09:08:54Z</time>
      </trkpt>
      <trkpt lat="48.66292" lon="7.52346">
        <ele>244.7</ele>
        <time>2020-01-05T09:08:56Z</time>
      </trkpt>
      <trkpt lat="48.6629" lon="7.52344">
        <ele>244.4</ele>
        <time>2020-01-05T09:08:59Z</time>
      </trkpt>
      <trkpt lat="48.66287" lon="7.5234">
        <ele>244.1</ele>
        <time>2020-01-05T09:09:03Z</time>
      </trkpt>
      <trkpt lat="48.66284" lon="7.52338">
        <ele>243.8</ele>
        <time>2020-01-05T09:09:06Z</time>
      </trkpt>
      <trkpt lat="48.66281" lon="7.52335">
        <ele>243.6</ele>
        <time>2020-01-05T09:09:09Z</time>
      </trkpt>
      <trkpt lat="48.66278" lon="7.52332">
        <ele>243.2</ele>
        <time>2020-01-05T09:09:13Z</time>
      </trkpt>
      <trkpt lat="48.66274" lon="7.5233">
        <ele>242.9</ele>
        <time>2020-01-05T09:09:16Z</time>
      </trkpt>
      <trkpt lat="48.66271" lon="7.52329">
        <ele>242.6</ele>
        <time>2020-01-05T09:09:19Z</time>
      </trkpt>
      <trkpt lat="48.66269" lon="7.52326">
        <ele>242.3</ele>
        <time>2020-01-05T09:09:21Z</time>
      </trkpt>
      <trkpt lat="48.66267" lon="7.52322">
        <ele>242</ele>
        <time>2020-01-05T09:09:24Z</time>
      </trkpt>
      <trkpt lat="48.66264" lon="7.5232">
        <ele>241.7</ele>
        <time>2020-01-05T09:09:26Z</time>
      </trkpt>
      <trkpt lat="48.66261" lon="7.52316">
        <ele>241.2</ele>
        <time>2020-01-05T09:09:29Z</time>
      </trkpt>
      <trkpt lat="48.66258" lon="7.52313">
        <ele>240.8</ele>
        <time>2020-01-05T09:09:32Z</time>
      </trkpt>
      <trkpt lat="48.66255" lon="7.52311">
        <ele>240.5</ele>
        <time>2020-01-05T09:09:36Z</time>
      </trkpt>
      <trkpt lat="48.66252" lon="7.52309">
        <ele>240</ele>
        <time>2020-01-05T09:09:39Z</time>
      </trkpt>
      <trkpt lat="48.66249" lon="7.52307">
        <ele>239.7</ele>
        <time>2020-01-05T09:09:42Z</time>
      </trkpt>
      <trkpt lat="48.66245" lon="7.52305">
        <ele>239.6</ele>
        <time>2020-01-05T09:09:45Z</time>
      </trkpt>
      <trkpt lat="48.66243" lon="7.52302">
        <ele>239.7</ele>
        <time>2020-01-05T09:09:48Z</time>
      </trkpt>
      <trkpt lat="48.6624" lon="7.52297">
        <ele>239.8</ele>
        <time>2020-01-05T09:09:51Z</time>
      </trkpt>
      <trkpt lat="48.66238" lon="7.52294">
        <ele>239.9</ele>
        <time>2020-01-05T09:09:53Z</time>
      </trkpt>
      <trkpt lat="48.66237" lon="7.5229">
        <ele>240</ele>
        <time>2020-01-05T09:09:56Z</time>
      </trkpt>
      <trkpt lat="48.66234" lon="7.52287">
        <ele>240.1</ele>
        <time>2020-01-05T09:09:59Z</time>
      </trkpt>
      <trkpt lat="48.66231" lon="7.52283">
        <ele>240.3</ele>
        <time>2020-01-05T09:10:03Z</time>
      </trkpt>
      <trkpt lat="48.66228" lon="7.5228">
        <ele>240.4</ele>
        <time>2020-01-05T09:10:06Z</time>
      </trkpt>
      <trkpt lat="48.66226" lon="7.52277">
        <ele>240.6</ele>
        <time>2020-01-05T09:10:09Z</time>
      </trkpt>
      <trkpt lat="48.66225" lon="7.52273">
        <ele>240.7</ele>
        <time>2020-01-05T09:10:11Z</time>
      </trkpt>
      <trkpt lat="48.66222" lon="7.52268">
        <ele>240.8</ele>
        <time>2020-01-05T09:10:14Z</time>
      </trkpt>
      <trkpt lat="48.66219" lon="7.52266">
        <ele>241</ele>
        <time>2020-01-05T09:10:18Z</time>
      </trkpt>
      <trkpt lat="48.66217" lon="7.52262">
        <ele>241.1</ele>
        <time>2020-01-05T09:10:21Z</time>
      </trkpt>
      <trkpt lat="48.66214" lon="7.52259">
        <ele>241.3</ele>
        <time>2020-01-05T09:10:23Z</time>
      </trkpt>
      <trkpt lat="48.66211" lon="7.52255">
        <ele>241.6</ele>
        <time>2020-01-05T09:10:26Z</time>
      </trkpt>
      <trkpt lat="48.66209" lon="7.52252">
        <ele>241.8</ele>
        <time>2020-01-05T09:10:29Z</time>
      </trkpt>
      <trkpt lat="48.66207" lon="7.52249">
        <ele>242</ele>
        <time>2020-01-05T09:10:31Z</time>
      </trkpt>
      <trkpt lat="48.66204" lon="7.52246">
        <ele>242.2</ele>
        <time>2020-01-05T09:10:34Z</time>
      </trkpt>
      <trkpt lat="48.66202" lon="7.52242">
        <ele>242.4</ele>
        <time>2020-01-05T09:10:37Z</time>
      </trkpt>
      <trkpt lat="48.66198" lon="7.5224">
        <ele>242.7</ele>
        <time>2020-01-05T09:10:40Z</time>
      </trkpt>
      <trkpt lat="48.66197" lon="7.52237">
        <ele>242.8</ele>
        <time>2020-01-05T09:10:42Z</time>
      </trkpt>
      <trkpt lat="48.66194" lon="7.52235">
        <ele>243</ele>
        <time>2020-01-05T09:10:47Z</time>
      </trkpt>
      <trkpt lat="48.66192" lon="7.52232">
        <ele>243.2</ele>
        <time>2020-01-05T09:10:49Z</time>
      </trkpt>
      <trkpt lat="48.66189" lon="7.5223">
        <ele>243.4</ele>
        <time>2020-01-05T09:10:52Z</time>
      </trkpt>
      <trkpt lat="48.66186" lon="7.52227">
        <ele>243.5</ele>
        <time>2020-01-05T09:10:55Z</time>
      </trkpt>
      <trkpt lat="48.66183" lon="7.52224">
        <ele>243.7</ele>
        <time>2020-01-05T09:10:58Z</time>
      </trkpt>
      <trkpt lat="48.66182" lon="7.52221">
        <ele>243.8</ele>
        <time>2020-01-05T09:11:01Z</time>
      </trkpt>
      <trkpt lat="48.6618" lon="7.52218">
        <ele>244</ele>
        <time>2020-01-05T09:11:04Z</time>
      </trkpt>
      <trkpt lat="48.66177" lon="7.52215">
        <ele>244.3</ele>
        <time>2020-01-05T09:11:07Z</time>
      </trkpt>
      <trkpt lat="48.66174" lon="7.52213">
        <ele>244.5</ele>
        <time>2020-01-05T09:11:10Z</time>
      </trkpt>
      <trkpt lat="48.66172" lon="7.5221">
        <ele>244.7</ele>
        <time>2020-01-05T09:11:13Z</time>
      </trkpt>
      <trkpt lat="48.66169" lon="7.52208">
        <ele>244.9</ele>
        <time>2020-01-05T09:11:16Z</time>
      </trkpt>
      <trkpt lat="48.66168" lon="7.52204">
        <ele>245</ele>
        <time>2020-01-05T09:11:18Z</time>
      </trkpt>
      <trkpt lat="48.66165" lon="7.522">
        <ele>245.1</ele>
        <time>2020-01-05T09:11:20Z</time>
      </trkpt>
      <trkpt lat="48.66163" lon="7.52197">
        <ele>245.2</ele>
        <time>2020-01-05T09:11:22Z</time>
      </trkpt>
      <trkpt lat="48.66161" lon="7.52194">
        <ele>245.3</ele>
        <time>2020-01-05T09:11:24Z</time>
      </trkpt>
      <trkpt lat="48.66159" lon="7.52191">
        <ele>245.5</ele>
        <time>2020-01-05T09:11:27Z</time>
      </trkpt>
      <trkpt lat="48.66156" lon="7.52189">
        <ele>245.5</ele>
        <time>2020-01-05T09:11:30Z</time>
      </trkpt>
      <trkpt lat="48.66153" lon="7.52187">
        <ele>245.6</ele>
        <time>2020-01-05T09:11:33Z</time>
      </trkpt>
      <trkpt lat="48.66151" lon="7.52184">
        <ele>245.7</ele>
        <time>2020-01-05T09:11:36Z</time>
      </trkpt>
      <trkpt lat="48.66148" lon="7.5218">
        <ele>245.8</ele>
        <time>2020-01-05T09:11:39Z</time>
      </trkpt>
      <trkpt lat="48.66146" lon="7.52177">
        <ele>245.8</ele>
        <time>2020-01-05T09:11:42Z</time>
      </trkpt>
      <trkpt lat="48.66143" lon="7.52175">
        <ele>245.9</ele>
        <time>2020-01-05T09:11:50Z</time>
      </trkpt>
      <trkpt lat="48.6614" lon="7.52171">
        <ele>245.9</ele>
        <time>2020-01-05T09:11:53Z</time>
      </trkpt>
      <trkpt lat="48.66138" lon="7.52167">
        <ele>246</ele>
        <time>2020-01-05T09:11:56Z</time>
      </trkpt>
      <trkpt lat="48.66136" lon="7.52163">
        <ele>246</ele>
        <time>2020-01-05T09:11:59Z</time>
      </trkpt>
      <trkpt lat="48.66133" lon="7.52159">
        <ele>246</ele>
        <time>2020-01-05T09:12:02Z</time>
      </trkpt>
      <trkpt lat="48.66131" lon="7.52156">
        <ele>246</ele>
        <time>2020-01-05T09:12:05Z</time>
      </trkpt>
      <trkpt lat="48.66128" lon="7.52154">
        <ele>246.1</ele>
        <time>2020-01-05T09:12:07Z</time>
      </trkpt>
      <trkpt lat="48.66125" lon="7.52152">
        <ele>246.1</ele>
        <time>2020-01-05T09:12:09Z</time>
      </trkpt>
      <trkpt lat="48.66123" lon="7.5215">
        <ele>246.1</ele>
        <time>2020-01-05T09:12:12Z</time>
      </trkpt>
      <trkpt lat="48.66121" lon="7.52145">
        <ele>246.1</ele>
        <time>2020-01-05T09:12:17Z</time>
      </trkpt>
      <trkpt lat="48.66119" lon="7.52142">
        <ele>246.1</ele>
        <time>2020-01-05T09:12:19Z</time>
      </trkpt>
      <trkpt lat="48.66116" lon="7.5214">
        <ele>246.1</ele>
        <time>2020-01-05T09:12:22Z</time>
      </trkpt>
      <trkpt lat="48.66114" lon="7.52136">
        <ele>246</ele>
        <time>2020-01-05T09:12:26Z</time>
      </trkpt>
      <trkpt lat="48.66111" lon="7.52133">
        <ele>246</ele>
        <time>2020-01-05T09:12:30Z</time>
      </trkpt>
      <trkpt lat="48.6611" lon="7.5213">
        <ele>246</ele>
        <time>2020-01-05T09:12:32Z</time>
      </trkpt>
      <trkpt lat="48.66106" lon="7.52127">
        <ele>245.9</ele>
        <time>2020-01-05T09:12:37Z</time>
      </trkpt>
      <trkpt lat="48.66103" lon="7.52123">
        <ele>245.9</ele>
        <time>2020-01-05T09:12:40Z</time>
      </trkpt>
      <trkpt lat="48.66101" lon="7.52121">
        <ele>245.9</ele>
        <time>2020-01-05T09:12:42Z</time>
      </trkpt>
      <trkpt lat="48.66098" lon="7.52119">
        <ele>245.8</ele>
        <time>2020-01-05T09:12:45Z</time>
      </trkpt>
      <trkpt lat="48.66095" lon="7.52116">
        <ele>245.8</ele>
        <time>2020-01-05T09:12:48Z</time>
      </trkpt>
      <trkpt lat="48.66092" lon="7.52113">
        <ele>245.7</ele>
        <time>2020-01-05T09:12:51Z</time>
      </trkpt>
      <trkpt lat="48.66091" lon="7.52108">
        <ele>245.6</ele>
        <time>2020-01-05T09:12:54Z</time>
      </trkpt>
      <trkpt lat="48.66088" lon="7.52106">
        <ele>245.6</ele>
        <time>2020-01-05T09:12:57Z</time>
      </trkpt>
      <trkpt lat="48.66085" lon="7.52102">
        <ele>245.5</ele>
        <time>2020-01-05T09:13:00Z</time>
      </trkpt>
      <trkpt lat="48.66084" lon="7.52099">
        <ele>245.5</ele>
        <time>2020-01-05T09:13:03Z</time>
      </trkpt>
      <trkpt lat="48.66082" lon="7.52096">
        <ele>245.4</ele>
        <time>2020-01-05T09:13:07Z</time>
      </trkpt>
      <trkpt lat="48.66078" lon="7.52093">
        <ele>245.2</ele>
        <time>2020-01-05T09:13:10Z</time>
      </trkpt>
      <trkpt lat="48.66075" lon="7.52092">
        <ele>245.1</ele>
        <time>2020-01-05T09:13:14Z</time>
      </trkpt>
      <trkpt lat="48.66073" lon="7.52087">
        <ele>245</ele>
        <time>2020-01-05T09:13:17Z</time>
      </trkpt>
      <trkpt lat="48.66071" lon="7.52084">
        <ele>244.9</ele>
        <time>2020-01-05T09:13:20Z</time>
      </trkpt>
      <trkpt lat="48.66069" lon="7.52081">
        <ele>244.8</ele>
        <time>2020-01-05T09:13:22Z</time>
      </trkpt>
      <trkpt lat="48.66067" lon="7.52077">
        <ele>244.7</ele>
        <time>2020-01-05T09:13:25Z</time>
      </trkpt>
      <trkpt lat="48.66065" lon="7.52073">
        <ele>244.6</ele>
        <time>2020-01-05T09:13:29Z</time>
      </trkpt>
      <trkpt lat="48.66063" lon="7.5207">
        <ele>244.5</ele>
        <time>2020-01-05T09:13:32Z</time>
      </trkpt>
      <trkpt lat="48.66061" lon="7.52066">
        <ele>244.4</ele>
        <time>2020-01-05T09:13:36Z</time>
      </trkpt>
      <trkpt lat="48.66059" lon="7.52064">
        <ele>244.3</ele>
        <time>2020-01-05T09:13:39Z</time>
      </trkpt>
      <trkpt lat="48.66057" lon="7.52061">
        <ele>244.2</ele>
        <time>2020-01-05T09:13:42Z</time>
      </trkpt>
      <trkpt lat="48.66055" lon="7.52058">
        <ele>244.1</ele>
        <time>2020-01-05T09:13:44Z</time>
      </trkpt>
      <trkpt lat="48.66053" lon="7.52055">
        <ele>244</ele>
        <time>2020-01-05T09:13:47Z</time>
      </trkpt>
      <trkpt lat="48.66051" lon="7.52051">
        <ele>243.9</ele>
        <time>2020-01-05T09:13:49Z</time>
      </trkpt>
      <trkpt lat="48.66048" lon="7.5205">
        <ele>243.7</ele>
        <time>2020-01-05T09:13:52Z</time>
      </trkpt>
      <trkpt lat="48.66046" lon="7.52047">
        <ele>243.5</ele>
        <time>2020-01-05T09:13:55Z</time>
      </trkpt>
      <trkpt lat="48.66045" lon="7.52044">
        <ele>243.4</ele>
        <time>2020-01-05T09:13:58Z</time>
      </trkpt>
      <trkpt lat="48.66043" lon="7.52041">
        <ele>243.2</ele>
        <time>2020-01-05T09:14:02Z</time>
      </trkpt>
      <trkpt lat="48.66041" lon="7.52037">
        <ele>243</ele>
        <time>2020-01-05T09:14:05Z</time>
      </trkpt>
      <trkpt lat="48.66037" lon="7.52033">
        <ele>242.7</ele>
        <time>2020-01-05T09:14:08Z</time>
      </trkpt>
      <trkpt lat="48.66034" lon="7.5203">
        <ele>242.4</ele>
        <time>2020-01-05T09:14:11Z</time>
      </trkpt>
      <trkpt lat="48.66033" lon="7.52026">
        <ele>242.2</ele>
        <time>2020-01-05T09:14:14Z</time>
      </trkpt>
      <trkpt lat="48.66031" lon="7.52023">
        <ele>242</ele>
        <time>2020-01-05T09:14:17Z</time>
      </trkpt>
      <trkpt lat="48.66029" lon="7.52019">
        <ele>241.9</ele>
        <time>2020-01-05T09:14:20Z</time>
      </trkpt>
      <trkpt lat="48.66026" lon="7.52015">
        <ele>241.6</ele>
        <time>2020-01-05T09:14:23Z</time>
      </trkpt>
      <trkpt lat="48.66025" lon="7.5201">
        <ele>241.4</ele>
        <time>2020-01-05T09:14:26Z</time>
      </trkpt>
      <trkpt lat="48.66024" lon="7.52006">
        <ele>241.2</ele>
        <time>2020-01-05T09:14:30Z</time>
      </trkpt>
      <trkpt lat="48.66024" lon="7.52002">
        <ele>241</ele>
        <time>2020-01-05T09:14:33Z</time>
      </trkpt>
      <trkpt lat="48.66021" lon="7.51998">
        <ele>240.8</ele>
        <time>2020-01-05T09:14:36Z</time>
      </trkpt>
      <trkpt lat="48.6602" lon="7.51995">
        <ele>240.7</ele>
        <time>2020-01-05T09:14:38Z</time>
      </trkpt>
      <trkpt lat="48.66018" lon="7.5199">
        <ele>240.7</ele>
        <time>2020-01-05T09:14:41Z</time>
      </trkpt>
      <trkpt lat="48.66015" lon="7.51986">
        <ele>240.6</ele>
        <time>2020-01-05T09:14:44Z</time>
      </trkpt>
      <trkpt lat="48.66013" lon="7.51982">
        <ele>240.5</ele>
        <time>2020-01-05T09:14:47Z</time>
      </trkpt>
      <trkpt lat="48.66012" lon="7.51979">
        <ele>240.4</ele>
        <time>2020-01-05T09:14:49Z</time>
      </trkpt>
      <trkpt lat="48.6601" lon="7.51975">
        <ele>240.3</ele>
        <time>2020-01-05T09:14:52Z</time>
      </trkpt>
      <trkpt lat="48.66009" lon="7.51971">
        <ele>240.2</ele>
        <time>2020-01-05T09:14:54Z</time>
      </trkpt>
      <trkpt lat="48.66007" lon="7.51966">
        <ele>240</ele>
        <time>2020-01-05T09:14:58Z</time>
      </trkpt>
      <trkpt lat="48.66005" lon="7.51962">
        <ele>239.9</ele>
        <time>2020-01-05T09:15:00Z</time>
      </trkpt>
      <trkpt lat="48.66003" lon="7.51958">
        <ele>239.7</ele>
        <time>2020-01-05T09:15:03Z</time>
      </trkpt>
      <trkpt lat="48.66001" lon="7.51954">
        <ele>239.5</ele>
        <time>2020-01-05T09:15:07Z</time>
      </trkpt>
      <trkpt lat="48.65998" lon="7.51951">
        <ele>239.3</ele>
        <time>2020-01-05T09:15:10Z</time>
      </trkpt>
      <trkpt lat="48.65997" lon="7.51947">
        <ele>239.2</ele>
        <time>2020-01-05T09:15:13Z</time>
      </trkpt>
      <trkpt lat="48.65996" lon="7.51942">
        <ele>238.9</ele>
        <time>2020-01-05T09:15:16Z</time>
      </trkpt>
      <trkpt lat="48.65994" lon="7.51937">
        <ele>238.7</ele>
        <time>2020-01-05T09:15:19Z</time>
      </trkpt>
      <trkpt lat="48.65993" lon="7.51932">
        <ele>238.5</ele>
        <time>2020-01-05T09:15:23Z</time>
      </trkpt>
      <trkpt lat="48.65991" lon="7.51928">
        <ele>238.2</ele>
        <time>2020-01-05T09:15:26Z</time>
      </trkpt>
      <trkpt lat="48.6599" lon="7.51923">
        <ele>238</ele>
        <time>2020-01-05T09:15:29Z</time>
      </trkpt>
      <trkpt lat="48.65988" lon="7.51919">
        <ele>237.8</ele>
        <time>2020-01-05T09:15:32Z</time>
      </trkpt>
      <trkpt lat="48.65986" lon="7.51916">
        <ele>237.6</ele>
        <time>2020-01-05T09:15:36Z</time>
      </trkpt>
      <trkpt lat="48.65984" lon="7.51911">
        <ele>237.4</ele>
        <time>2020-01-05T09:15:39Z</time>
      </trkpt>
      <trkpt lat="48.65984" lon="7.51906">
        <ele>237.2</ele>
        <time>2020-01-05T09:15:42Z</time>
      </trkpt>
      <trkpt lat="48.65982" lon="7.519">
        <ele>237</ele>
        <time>2020-01-05T09:15:45Z</time>
      </trkpt>
      <trkpt lat="48.65982" lon="7.51894">
        <ele>236.8</ele>
        <time>2020-01-05T09:15:48Z</time>
      </trkpt>
      <trkpt lat="48.6598" lon="7.51891">
        <ele>236.6</ele>
        <time>2020-01-05T09:15:52Z</time>
      </trkpt>
      <trkpt lat="48.65979" lon="7.51886">
        <ele>236.4</ele>
        <time>2020-01-05T09:15:55Z</time>
      </trkpt>
      <trkpt lat="48.65978" lon="7.51882">
        <ele>236.3</ele>
        <time>2020-01-05T09:15:58Z</time>
      </trkpt>
      <trkpt lat="48.65976" lon="7.51878">
        <ele>236.1</ele>
        <time>2020-01-05T09:16:01Z</time>
      </trkpt>
      <trkpt lat="48.65975" lon="7.51873">
        <ele>235.9</ele>
        <time>2020-01-05T09:16:03Z</time>
      </trkpt>
      <trkpt lat="48.65975" lon="7.51868">
        <ele>235.7</ele>
        <time>2020-01-05T09:16:07Z</time>
      </trkpt>
      <trkpt lat="48.65974" lon="7.51863">
        <ele>235.5</ele>
        <time>2020-01-05T09:16:10Z</time>
      </trkpt>
      <trkpt lat="48.65973" lon="7.51859">
        <ele>235.3</ele>
        <time>2020-01-05T09:16:13Z</time>
      </trkpt>
      <trkpt lat="48.6597" lon="7.51854">
        <ele>235</ele>
        <time>2020-01-05T09:16:16Z</time>
      </trkpt>
      <trkpt lat="48.65969" lon="7.51849">
        <ele>234.8</ele>
        <time>2020-01-05T09:16:18Z</time>
      </trkpt>
      <trkpt lat="48.65968" lon="7.51845">
        <ele>234.6</ele>
        <time>2020-01-05T09:16:21Z</time>
      </trkpt>
      <trkpt lat="48.65966" lon="7.51841">
        <ele>234.4</ele>
        <time>2020-01-05T09:16:24Z</time>
      </trkpt>
      <trkpt lat="48.65965" lon="7.51837">
        <ele>234.1</ele>
        <time>2020-01-05T09:16:27Z</time>
      </trkpt>
      <trkpt lat="48.65964" lon="7.51831">
        <ele>233.8</ele>
        <time>2020-01-05T09:16:30Z</time>
      </trkpt>
      <trkpt lat="48.65963" lon="7.51825">
        <ele>233.4</ele>
        <time>2020-01-05T09:16:34Z</time>
      </trkpt>
      <trkpt lat="48.65961" lon="7.51819">
        <ele>233.1</ele>
        <time>2020-01-05T09:16:37Z</time>
      </trkpt>
      <trkpt lat="48.65959" lon="7.51815">
        <ele>232.8</ele>
        <time>2020-01-05T09:16:42Z</time>
      </trkpt>
      <trkpt lat="48.65958" lon="7.51811">
        <ele>232.5</ele>
        <time>2020-01-05T09:16:45Z</time>
      </trkpt>
      <trkpt lat="48.65958" lon="7.51806">
        <ele>232.2</ele>
        <time>2020-01-05T09:16:48Z</time>
      </trkpt>
      <trkpt lat="48.65959" lon="7.51802">
        <ele>232.1</ele>
        <time>2020-01-05T09:16:50Z</time>
      </trkpt>
      <trkpt lat="48.65959" lon="7.51796">
        <ele>231.8</ele>
        <time>2020-01-05T09:16:54Z</time>
      </trkpt>
      <trkpt lat="48.65959" lon="7.51791">
        <ele>231.7</ele>
        <time>2020-01-05T09:16:58Z</time>
      </trkpt>
      <trkpt lat="48.6596" lon="7.51786">
        <ele>231.6</ele>
        <time>2020-01-05T09:17:01Z</time>
      </trkpt>
      <trkpt lat="48.65959" lon="7.51781">
        <ele>231.5</ele>
        <time>2020-01-05T09:17:04Z</time>
      </trkpt>
      <trkpt lat="48.6596" lon="7.51776">
        <ele>231.4</ele>
        <time>2020-01-05T09:17:06Z</time>
      </trkpt>
      <trkpt lat="48.6596" lon="7.51771">
        <ele>231.4</ele>
        <time>2020-01-05T09:17:08Z</time>
      </trkpt>
      <trkpt lat="48.65959" lon="7.51767">
        <ele>231.3</ele>
        <time>2020-01-05T09:17:12Z</time>
      </trkpt>
      <trkpt lat="48.65958" lon="7.51762">
        <ele>231.3</ele>
        <time>2020-01-05T09:17:15Z</time>
      </trkpt>
      <trkpt lat="48.65957" lon="7.51757">
        <ele>231.2</ele>
        <time>2020-01-05T09:17:18Z</time>
      </trkpt>
      <trkpt lat="48.65956" lon="7.51753">
        <ele>231</ele>
        <time>2020-01-05T09:17:21Z</time>
      </trkpt>
      <trkpt lat="48.65954" lon="7.5175">
        <ele>230.9</ele>
        <time>2020-01-05T09:17:23Z</time>
      </trkpt>
      <trkpt lat="48.65953" lon="7.51745">
        <ele>230.8</ele>
        <time>2020-01-05T09:17:27Z</time>
      </trkpt>
      <trkpt lat="48.65953" lon="7.51739">
        <ele>230.6</ele>
        <time>2020-01-05T09:17:30Z</time>
      </trkpt>
      <trkpt lat="48.65953" lon="7.51734">
        <ele>230.5</ele>
        <time>2020-01-05T09:17:33Z</time>
      </trkpt>
      <trkpt lat="48.65951" lon="7.5173">
        <ele>230.4</ele>
        <time>2020-01-05T09:17:36Z</time>
      </trkpt>
      <trkpt lat="48.6595" lon="7.51725">
        <ele>230.3</ele>
        <time>2020-01-05T09:17:39Z</time>
      </trkpt>
      <trkpt lat="48.65952" lon="7.5172">
        <ele>230.2</ele>
        <time>2020-01-05T09:17:41Z</time>
      </trkpt>
      <trkpt lat="48.65952" lon="7.51715">
        <ele>230.1</ele>
        <time>2020-01-05T09:17:44Z</time>
      </trkpt>
      <trkpt lat="48.65952" lon="7.51711">
        <ele>230</ele>
        <time>2020-01-05T09:17:48Z</time>
      </trkpt>
      <trkpt lat="48.65953" lon="7.51706">
        <ele>230</ele>
        <time>2020-01-05T09:17:51Z</time>
      </trkpt>
      <trkpt lat="48.65953" lon="7.51701">
        <ele>229.9</ele>
        <time>2020-01-05T09:17:55Z</time>
      </trkpt>
      <trkpt lat="48.65955" lon="7.51696">
        <ele>229.8</ele>
        <time>2020-01-05T09:17:58Z</time>
      </trkpt>
      <trkpt lat="48.65956" lon="7.51692">
        <ele>229.7</ele>
        <time>2020-01-05T09:18:01Z</time>
      </trkpt>
      <trkpt lat="48.65955" lon="7.51686">
        <ele>229.6</ele>
        <time>2020-01-05T09:18:04Z</time>
      </trkpt>
      <trkpt lat="48.65955" lon="7.51681">
        <ele>229.5</ele>
        <time>2020-01-05T09:18:07Z</time>
      </trkpt>
      <trkpt lat="48.65956" lon="7.51677">
        <ele>229.5</ele>
        <time>2020-01-05T09:18:09Z</time>
      </trkpt>
      <trkpt lat="48.65956" lon="7.51672">
        <ele>229.4</ele>
        <time>2020-01-05T09:18:13Z</time>
      </trkpt>
      <trkpt lat="48.65955" lon="7.51668">
        <ele>229.4</ele>
        <time>2020-01-05T09:18:16Z</time>
      </trkpt>
      <trkpt lat="48.65955" lon="7.51662">
        <ele>229.5</ele>
        <time>2020-01-05T09:18:19Z</time>
      </trkpt>
      <trkpt lat="48.65954" lon="7.51658">
        <ele>229.5</ele>
        <time>2020-01-05T09:18:21Z</time>
      </trkpt>
      <trkpt lat="48.65953" lon="7.51653">
        <ele>229.6</ele>
        <time>2020-01-05T09:18:24Z</time>
      </trkpt>
      <trkpt lat="48.65951" lon="7.51648">
        <ele>229.6</ele>
        <time>2020-01-05T09:18:28Z</time>
      </trkpt>
      <trkpt lat="48.6595" lon="7.51643">
        <ele>229.7</ele>
        <time>2020-01-05T09:18:30Z</time>
      </trkpt>
      <trkpt lat="48.65947" lon="7.51639">
        <ele>229.7</ele>
        <time>2020-01-05T09:18:34Z</time>
      </trkpt>
      <trkpt lat="48.65946" lon="7.51633">
        <ele>229.8</ele>
        <time>2020-01-05T09:18:37Z</time>
      </trkpt>
      <trkpt lat="48.65946" lon="7.51629">
        <ele>229.8</ele>
        <time>2020-01-05T09:18:39Z</time>
      </trkpt>
      <trkpt lat="48.65945" lon="7.51624">
        <ele>229.9</ele>
        <time>2020-01-05T09:18:42Z</time>
      </trkpt>
      <trkpt lat="48.65944" lon="7.51619">
        <ele>229.9</ele>
        <time>2020-01-05T09:18:45Z</time>
      </trkpt>
      <trkpt lat="48.65943" lon="7.51614">
        <ele>230</ele>
        <time>2020-01-05T09:18:48Z</time>
      </trkpt>
      <trkpt lat="48.65942" lon="7.51609">
        <ele>230</ele>
        <time>2020-01-05T09:18:50Z</time>
      </trkpt>
      <trkpt lat="48.65942" lon="7.51605">
        <ele>230.1</ele>
        <time>2020-01-05T09:18:53Z</time>
      </trkpt>
      <trkpt lat="48.6594" lon="7.516">
        <ele>230.1</ele>
        <time>2020-01-05T09:18:56Z</time>
      </trkpt>
      <trkpt lat="48.65939" lon="7.51595">
        <ele>230.2</ele>
        <time>2020-01-05T09:18:59Z</time>
      </trkpt>
      <trkpt lat="48.65937" lon="7.51589">
        <ele>230.3</ele>
        <time>2020-01-05T09:19:03Z</time>
      </trkpt>
      <trkpt lat="48.65937" lon="7.51583">
        <ele>230.3</ele>
        <time>2020-01-05T09:19:06Z</time>
      </trkpt>
      <trkpt lat="48.65937" lon="7.51578">
        <ele>230.4</ele>
        <time>2020-01-05T09:19:08Z</time>
      </trkpt>
      <trkpt lat="48.65936" lon="7.51573">
        <ele>230.5</ele>
        <time>2020-01-05T09:19:12Z</time>
      </trkpt>
      <trkpt lat="48.65937" lon="7.51569">
        <ele>230.5</ele>
        <time>2020-01-05T09:19:15Z</time>
      </trkpt>
      <trkpt lat="48.65937" lon="7.51564">
        <ele>230.6</ele>
        <time>2020-01-05T09:19:19Z</time>
      </trkpt>
      <trkpt lat="48.65936" lon="7.5156">
        <ele>230.7</ele>
        <time>2020-01-05T09:19:21Z</time>
      </trkpt>
      <trkpt lat="48.65934" lon="7.51555">
        <ele>230.7</ele>
        <time>2020-01-05T09:19:24Z</time>
      </trkpt>
      <trkpt lat="48.65934" lon="7.51549">
        <ele>230.8</ele>
        <time>2020-01-05T09:19:27Z</time>
      </trkpt>
      <trkpt lat="48.65933" lon="7.51544">
        <ele>230.9</ele>
        <time>2020-01-05T09:19:31Z</time>
      </trkpt>
      <trkpt lat="48.65933" lon="7.51539">
        <ele>230.9</ele>
        <time>2020-01-05T09:19:34Z</time>
      </trkpt>
      <trkpt lat="48.65934" lon="7.51535">
        <ele>231</ele>
        <time>2020-01-05T09:19:36Z</time>
      </trkpt>
      <trkpt lat="48.65933" lon="7.51529">
        <ele>231</ele>
        <time>2020-01-05T09:19:39Z</time>
      </trkpt>
      <trkpt lat="48.65932" lon="7.51525">
        <ele>231.1</ele>
        <time>2020-01-05T09:19:42Z</time>
      </trkpt>
      <trkpt lat="48.65931" lon="7.51521">
        <ele>231.2</ele>
        <time>2020-01-05T09:19:45Z</time>
      </trkpt>
      <trkpt lat="48.65929" lon="7.51517">
        <ele>231.2</ele>
        <time>2020-01-05T09:19:48Z</time>
      </trkpt>
      <trkpt lat="48.65929" lon="7.51513">
        <ele>231.3</ele>
        <time>2020-01-05T09:19:50Z</time>
      </trkpt>
      <trkpt lat="48.65929" lon="7.51507">
        <ele>231.4</ele>
        <time>2020-01-05T09:19:53Z</time>
      </trkpt>
      <trkpt lat="48.65928" lon="7.51502">
        <ele>231.5</ele>
        <time>2020-01-05T09:19:56Z</time>
      </trkpt>
      <trkpt lat="48.65928" lon="7.51497">
        <ele>231.6</ele>
        <time>2020-01-05T09:19:59Z</time>
      </trkpt>
      <trkpt lat="48.65931" lon="7.51493">
        <ele>231.7</ele>
        <time>2020-01-05T09:20:02Z</time>
      </trkpt>
      <trkpt lat="48.65932" lon="7.51488">
        <ele>231.8</ele>
        <time>2020-01-05T09:20:05Z</time>
      </trkpt>
      <trkpt lat="48.65934" lon="7.51485">
        <ele>232.1</ele>
        <time>2020-01-05T09:20:09Z</time>
      </trkpt>
      <trkpt lat="48.65937" lon="7.51483">
        <ele>232.1</ele>
        <time>2020-01-05T09:20:13Z</time>
      </trkpt>
      <trkpt lat="48.6594" lon="7.51479">
        <ele>232.2</ele>
        <time>2020-01-05T09:20:17Z</time>
      </trkpt>
      <trkpt lat="48.65941" lon="7.51475">
        <ele>232.2</ele>
        <time>2020-01-05T09:20:21Z</time>
      </trkpt>
      <trkpt lat="48.65943" lon="7.51472">
        <ele>232.3</ele>
        <time>2020-01-05T09:20:25Z</time>
      </trkpt>
      <trkpt lat="48.65946" lon="7.51472">
        <ele>232.3</ele>
        <time>2020-01-05T09:20:29Z</time>
      </trkpt>
      <trkpt lat="48.6595" lon="7.51473">
        <ele>232.3</ele>
        <time>2020-01-05T09:20:32Z</time>
      </trkpt>
      <trkpt lat="48.65953" lon="7.51474">
        <ele>232.4</ele>
        <time>2020-01-05T09:20:36Z</time>
      </trkpt>
      <trkpt lat="48.65957" lon="7.51472">
        <ele>232.4</ele>
        <time>2020-01-05T09:20:39Z</time>
      </trkpt>
      <trkpt lat="48.65958" lon="7.51467">
        <ele>232.4</ele>
        <time>2020-01-05T09:20:41Z</time>
      </trkpt>
      <trkpt lat="48.65959" lon="7.51462">
        <ele>232.4</ele>
        <time>2020-01-05T09:20:43Z</time>
      </trkpt>
      <trkpt lat="48.65961" lon="7.51458">
        <ele>232.4</ele>
        <time>2020-01-05T09:20:45Z</time>
      </trkpt>
      <trkpt lat="48.6596" lon="7.51452">
        <ele>232.4</ele>
        <time>2020-01-05T09:20:48Z</time>
      </trkpt>
      <trkpt lat="48.65961" lon="7.51448">
        <ele>232.4</ele>
        <time>2020-01-05T09:20:50Z</time>
      </trkpt>
      <trkpt lat="48.65962" lon="7.51444">
        <ele>232.4</ele>
        <time>2020-01-05T09:20:53Z</time>
      </trkpt>
      <trkpt lat="48.65962" lon="7.51439">
        <ele>232.4</ele>
        <time>2020-01-05T09:20:57Z</time>
      </trkpt>
      <trkpt lat="48.65962" lon="7.51433">
        <ele>232.3</ele>
        <time>2020-01-05T09:21:00Z</time>
      </trkpt>
      <trkpt lat="48.65962" lon="7.51428">
        <ele>232.3</ele>
        <time>2020-01-05T09:21:03Z</time>
      </trkpt>
      <trkpt lat="48.65962" lon="7.51423">
        <ele>232.2</ele>
        <time>2020-01-05T09:21:06Z</time>
      </trkpt>
      <trkpt lat="48.65963" lon="7.51419">
        <ele>232.2</ele>
        <time>2020-01-05T09:21:08Z</time>
      </trkpt>
      <trkpt lat="48.65962" lon="7.51413">
        <ele>232.1</ele>
        <time>2020-01-05T09:21:11Z</time>
      </trkpt>
      <trkpt lat="48.65961" lon="7.51409">
        <ele>232.1</ele>
        <time>2020-01-05T09:21:14Z</time>
      </trkpt>
      <trkpt lat="48.65963" lon="7.51404">
        <ele>232</ele>
        <time>2020-01-05T09:21:17Z</time>
      </trkpt>
      <trkpt lat="48.65964" lon="7.514">
        <ele>232</ele>
        <time>2020-01-05T09:21:20Z</time>
      </trkpt>
      <trkpt lat="48.65965" lon="7.51395">
        <ele>231.9</ele>
        <time>2020-01-05T09:21:24Z</time>
      </trkpt>
      <trkpt lat="48.65965" lon="7.51391">
        <ele>231.9</ele>
        <time>2020-01-05T09:21:27Z</time>
      </trkpt>
      <trkpt lat="48.65965" lon="7.51385">
        <ele>232</ele>
        <time>2020-01-05T09:21:30Z</time>
      </trkpt>
      <trkpt lat="48.65966" lon="7.51379">
        <ele>232</ele>
        <time>2020-01-05T09:21:33Z</time>
      </trkpt>
      <trkpt lat="48.65967" lon="7.51374">
        <ele>232.1</ele>
        <time>2020-01-05T09:21:35Z</time>
      </trkpt>
      <trkpt lat="48.65967" lon="7.5137">
        <ele>232.2</ele>
        <time>2020-01-05T09:21:37Z</time>
      </trkpt>
      <trkpt lat="48.65965" lon="7.51366">
        <ele>232.3</ele>
        <time>2020-01-05T09:21:39Z</time>
      </trkpt>
      <trkpt lat="48.65965" lon="7.5136">
        <ele>232.4</ele>
        <time>2020-01-05T09:21:42Z</time>
      </trkpt>
      <trkpt lat="48.65964" lon="7.51355">
        <ele>232.5</ele>
        <time>2020-01-05T09:21:45Z</time>
      </trkpt>
      <trkpt lat="48.65963" lon="7.51351">
        <ele>232.6</ele>
        <time>2020-01-05T09:21:47Z</time>
      </trkpt>
      <trkpt lat="48.65963" lon="7.51346">
        <ele>232.8</ele>
        <time>2020-01-05T09:21:51Z</time>
      </trkpt>
      <trkpt lat="48.65963" lon="7.5134">
        <ele>233</ele>
        <time>2020-01-05T09:21:54Z</time>
      </trkpt>
      <trkpt lat="48.65963" lon="7.51335">
        <ele>233.2</ele>
        <time>2020-01-05T09:21:57Z</time>
      </trkpt>
      <trkpt lat="48.65963" lon="7.51331">
        <ele>233.3</ele>
        <time>2020-01-05T09:21:59Z</time>
      </trkpt>
      <trkpt lat="48.65962" lon="7.51325">
        <ele>233.5</ele>
        <time>2020-01-05T09:22:04Z</time>
      </trkpt>
      <trkpt lat="48.65961" lon="7.51319">
        <ele>233.7</ele>
        <time>2020-01-05T09:22:07Z</time>
      </trkpt>
      <trkpt lat="48.65961" lon="7.51314">
        <ele>233.9</ele>
        <time>2020-01-05T09:22:10Z</time>
      </trkpt>
      <trkpt lat="48.65963" lon="7.51309">
        <ele>234</ele>
        <time>2020-01-05T09:22:13Z</time>
      </trkpt>
      <trkpt lat="48.65963" lon="7.51304">
        <ele>234.2</ele>
        <time>2020-01-05T09:22:16Z</time>
      </trkpt>
      <trkpt lat="48.65962" lon="7.51299">
        <ele>234.3</ele>
        <time>2020-01-05T09:22:19Z</time>
      </trkpt>
      <trkpt lat="48.65961" lon="7.51294">
        <ele>234.4</ele>
        <time>2020-01-05T09:22:23Z</time>
      </trkpt>
      <trkpt lat="48.65959" lon="7.51288">
        <ele>234.6</ele>
        <time>2020-01-05T09:22:26Z</time>
      </trkpt>
      <trkpt lat="48.65959" lon="7.51283">
        <ele>234.7</ele>
        <time>2020-01-05T09:22:29Z</time>
      </trkpt>
      <trkpt lat="48.65959" lon="7.51277">
        <ele>234.9</ele>
        <time>2020-01-05T09:22:32Z</time>
      </trkpt>
      <trkpt lat="48.65957" lon="7.51272">
        <ele>235</ele>
        <time>2020-01-05T09:22:35Z</time>
      </trkpt>
      <trkpt lat="48.65957" lon="7.51267">
        <ele>235.1</ele>
        <time>2020-01-05T09:22:37Z</time>
      </trkpt>
      <trkpt lat="48.65955" lon="7.51264">
        <ele>235.2</ele>
        <time>2020-01-05T09:22:39Z</time>
      </trkpt>
      <trkpt lat="48.65953" lon="7.51261">
        <ele>235.3</ele>
        <time>2020-01-05T09:22:42Z</time>
      </trkpt>
      <trkpt lat="48.65951" lon="7.51257">
        <ele>235.4</ele>
        <time>2020-01-05T09:22:45Z</time>
      </trkpt>
      <trkpt lat="48.6595" lon="7.51252">
        <ele>235.5</ele>
        <time>2020-01-05T09:22:48Z</time>
      </trkpt>
      <trkpt lat="48.65947" lon="7.51248">
        <ele>235.6</ele>
        <time>2020-01-05T09:22:51Z</time>
      </trkpt>
      <trkpt lat="48.65943" lon="7.5125">
        <ele>235.8</ele>
        <time>2020-01-05T09:22:55Z</time>
      </trkpt>
      <trkpt lat="48.6594" lon="7.51251">
        <ele>235.7</ele>
        <time>2020-01-05T09:22:57Z</time>
      </trkpt>
      <trkpt lat="48.65936" lon="7.51251">
        <ele>235.5</ele>
        <time>2020-01-05T09:23:00Z</time>
      </trkpt>
      <trkpt lat="48.65932" lon="7.51251">
        <ele>235.4</ele>
        <time>2020-01-05T09:23:03Z</time>
      </trkpt>
      <trkpt lat="48.65929" lon="7.51252">
        <ele>235.3</ele>
        <time>2020-01-05T09:23:05Z</time>
      </trkpt>
      <trkpt lat="48.65926" lon="7.51252">
        <ele>235.2</ele>
        <time>2020-01-05T09:23:07Z</time>
      </trkpt>
      <trkpt lat="48.65923" lon="7.51253">
        <ele>235.1</ele>
        <time>2020-01-05T09:23:09Z</time>
      </trkpt>
      <trkpt lat="48.6592" lon="7.51254">
        <ele>235.1</ele>
        <time>2020-01-05T09:23:11Z</time>
      </trkpt>
      <trkpt lat="48.65918" lon="7.51254">
        <ele>235</ele>
        <time>2020-01-05T09:23:12Z</time>
      </trkpt>
      <trkpt lat="48.65915" lon="7.51255">
        <ele>234.9</ele>
        <time>2020-01-05T09:23:14Z</time>
      </trkpt>
      <trkpt lat="48.65912" lon="7.51254">
        <ele>234.9</ele>
        <time>2020-01-05T09:23:17Z</time>
      </trkpt>
      <trkpt lat="48.65909" lon="7.51253">
        <ele>234.9</ele>
        <time>2020-01-05T09:23:19Z</time>
      </trkpt>
      <trkpt lat="48.65905" lon="7.51255">
        <ele>234.8</ele>
        <time>2020-01-05T09:23:21Z</time>
      </trkpt>
      <trkpt lat="48.65903" lon="7.51256">
        <ele>234.8</ele>
        <time>2020-01-05T09:23:23Z</time>
      </trkpt>
      <trkpt lat="48.659" lon="7.51258">
        <ele>234.8</ele>
        <time>2020-01-05T09:23:26Z</time>
      </trkpt>
      <trkpt lat="48.65898" lon="7.51262">
        <ele>234.8</ele>
        <time>2020-01-05T09:23:28Z</time>
      </trkpt>
      <trkpt lat="48.65898" lon="7.51267">
        <ele>234.7</ele>
        <time>2020-01-05T09:23:32Z</time>
      </trkpt>
      <trkpt lat="48.65897" lon="7.51271">
        <ele>234.7</ele>
        <time>2020-01-05T09:23:35Z</time>
      </trkpt>
      <trkpt lat="48.65894" lon="7.51275">
        <ele>234.7</ele>
        <time>2020-01-05T09:23:38Z</time>
      </trkpt>
      <trkpt lat="48.65893" lon="7.51281">
        <ele>234.7</ele>
        <time>2020-01-05T09:23:41Z</time>
      </trkpt>
      <trkpt lat="48.65891" lon="7.51284">
        <ele>234.6</ele>
        <time>2020-01-05T09:23:43Z</time>
      </trkpt>
      <trkpt lat="48.65888" lon="7.5129">
        <ele>234.6</ele>
        <time>2020-01-05T09:23:46Z</time>
      </trkpt>
      <trkpt lat="48.65887" lon="7.51294">
        <ele>234.6</ele>
        <time>2020-01-05T09:23:48Z</time>
      </trkpt>
      <trkpt lat="48.65886" lon="7.51299">
        <ele>234.6</ele>
        <time>2020-01-05T09:23:51Z</time>
      </trkpt>
      <trkpt lat="48.65886" lon="7.51304">
        <ele>234.6</ele>
        <time>2020-01-05T09:23:54Z</time>
      </trkpt>
      <trkpt lat="48.65886" lon="7.51309">
        <ele>234.6</ele>
        <time>2020-01-05T09:23:57Z</time>
      </trkpt>
      <trkpt lat="48.65885" lon="7.51315">
        <ele>234.6</ele>
        <time>2020-01-05T09:24:00Z</time>
      </trkpt>
      <trkpt lat="48.65884" lon="7.51319">
        <ele>234.6</ele>
        <time>2020-01-05T09:24:03Z</time>
      </trkpt>
      <trkpt lat="48.65882" lon="7.51324">
        <ele>234.6</ele>
        <time>2020-01-05T09:24:06Z</time>
      </trkpt>
      <trkpt lat="48.65881" lon="7.51327">
        <ele>234.6</ele>
        <time>2020-01-05T09:24:09Z</time>
      </trkpt>
      <trkpt lat="48.6588" lon="7.51333">
        <ele>234.6</ele>
        <time>2020-01-05T09:24:12Z</time>
      </trkpt>
      <trkpt lat="48.65879" lon="7.51338">
        <ele>234.6</ele>
        <time>2020-01-05T09:24:15Z</time>
      </trkpt>
      <trkpt lat="48.65879" lon="7.51342">
        <ele>234.6</ele>
        <time>2020-01-05T09:24:18Z</time>
      </trkpt>
      <trkpt lat="48.65878" lon="7.51346">
        <ele>234.6</ele>
        <time>2020-01-05T09:24:22Z</time>
      </trkpt>
      <trkpt lat="48.65875" lon="7.51348">
        <ele>234.6</ele>
        <time>2020-01-05T09:24:25Z</time>
      </trkpt>
      <trkpt lat="48.65872" lon="7.51348">
        <ele>234.6</ele>
        <time>2020-01-05T09:24:29Z</time>
      </trkpt>
      <trkpt lat="48.65871" lon="7.51352">
        <ele>234.6</ele>
        <time>2020-01-05T09:24:42Z</time>
      </trkpt>
      <trkpt lat="48.65871" lon="7.51357">
        <ele>234.6</ele>
        <time>2020-01-05T09:25:30Z</time>
      </trkpt>
      <trkpt lat="48.6587" lon="7.51361">
        <ele>234.5</ele>
        <time>2020-01-05T09:25:57Z</time>
      </trkpt>
      <trkpt lat="48.6587" lon="7.51365">
        <ele>234.5</ele>
        <time>2020-01-05T09:26:11Z</time>
      </trkpt>
      <trkpt lat="48.65872" lon="7.51362">
        <ele>234.5</ele>
        <time>2020-01-05T09:26:20Z</time>
      </trkpt>
      <trkpt lat="48.65872" lon="7.51367">
        <ele>234.5</ele>
        <time>2020-01-05T09:26:46Z</time>
      </trkpt>
      <trkpt lat="48.65873" lon="7.51363">
        <ele>234.5</ele>
        <time>2020-01-05T09:26:54Z</time>
      </trkpt>
      <trkpt lat="48.65872" lon="7.51367">
        <ele>234.5</ele>
        <time>2020-01-05T09:27:44Z</time>
      </trkpt>
      <trkpt lat="48.65872" lon="7.51362">
        <ele>234.4</ele>
        <time>2020-01-05T09:27:51Z</time>
      </trkpt>
      <trkpt lat="48.65873" lon="7.51365">
        <ele>234.4</ele>
        <time>2020-01-05T09:28:05Z</time>
      </trkpt>
      <trkpt lat="48.65871" lon="7.51367">
        <ele>234.4</ele>
        <time>2020-01-05T09:28:13Z</time>
      </trkpt>
      <trkpt lat="48.65869" lon="7.51371">
        <ele>234.4</ele>
        <time>2020-01-05T09:28:28Z</time>
      </trkpt>
      <trkpt lat="48.65871" lon="7.51367">
        <ele>234.3</ele>
        <time>2020-01-05T09:28:36Z</time>
      </trkpt>
      <trkpt lat="48.65868" lon="7.51365">
        <ele>234.3</ele>
        <time>2020-01-05T09:28:50Z</time>
      </trkpt>
      <trkpt lat="48.65865" lon="7.51367">
        <ele>234.3</ele>
        <time>2020-01-05T09:29:07Z</time>
      </trkpt>
      <trkpt lat="48.65864" lon="7.51376">
        <ele>234.2</ele>
        <time>2020-01-05T09:29:19Z</time>
      </trkpt>
      <trkpt lat="48.65864" lon="7.51383">
        <ele>234.1</ele>
        <time>2020-01-05T09:29:24Z</time>
      </trkpt>
      <trkpt lat="48.65864" lon="7.5139">
        <ele>234.1</ele>
        <time>2020-01-05T09:29:26Z</time>
      </trkpt>
      <trkpt lat="48.65864" lon="7.51394">
        <ele>234</ele>
        <time>2020-01-05T09:29:29Z</time>
      </trkpt>
      <trkpt lat="48.65863" lon="7.514">
        <ele>234</ele>
        <time>2020-01-05T09:29:32Z</time>
      </trkpt>
      <trkpt lat="48.65861" lon="7.51407">
        <ele>233.9</ele>
        <time>2020-01-05T09:29:36Z</time>
      </trkpt>
      <trkpt lat="48.65859" lon="7.51413">
        <ele>233.9</ele>
        <time>2020-01-05T09:29:38Z</time>
      </trkpt>
      <trkpt lat="48.65858" lon="7.51417">
        <ele>233.9</ele>
        <time>2020-01-05T09:29:40Z</time>
      </trkpt>
      <trkpt lat="48.65855" lon="7.51418">
        <ele>233.8</ele>
        <time>2020-01-05T09:29:58Z</time>
      </trkpt>
      <trkpt lat="48.65856" lon="7.51413">
        <ele>233.8</ele>
        <time>2020-01-05T09:30:02Z</time>
      </trkpt>
      <trkpt lat="48.65857" lon="7.51409">
        <ele>233.8</ele>
        <time>2020-01-05T09:30:04Z</time>
      </trkpt>
      <trkpt lat="48.65856" lon="7.51406">
        <ele>233.8</ele>
        <time>2020-01-05T09:30:12Z</time>
      </trkpt>
      <trkpt lat="48.65858" lon="7.51402">
        <ele>233.7</ele>
        <time>2020-01-05T09:30:17Z</time>
      </trkpt>
      <trkpt lat="48.65858" lon="7.51397">
        <ele>233.7</ele>
        <time>2020-01-05T09:30:19Z</time>
      </trkpt>
      <trkpt lat="48.65859" lon="7.51392">
        <ele>233.8</ele>
        <time>2020-01-05T09:30:21Z</time>
      </trkpt>
      <trkpt lat="48.65862" lon="7.51387">
        <ele>233.8</ele>
        <time>2020-01-05T09:30:23Z</time>
      </trkpt>
      <trkpt lat="48.65865" lon="7.51385">
        <ele>233.9</ele>
        <time>2020-01-05T09:30:25Z</time>
      </trkpt>
      <trkpt lat="48.65867" lon="7.51382">
        <ele>233.9</ele>
        <time>2020-01-05T09:30:29Z</time>
      </trkpt>
      <trkpt lat="48.6587" lon="7.51379">
        <ele>234</ele>
        <time>2020-01-05T09:30:33Z</time>
      </trkpt>
      <trkpt lat="48.65872" lon="7.51377">
        <ele>234.1</ele>
        <time>2020-01-05T09:30:40Z</time>
      </trkpt>
      <trkpt lat="48.65873" lon="7.5138">
        <ele>234.1</ele>
        <time>2020-01-05T09:30:45Z</time>
      </trkpt>
      <trkpt lat="48.65872" lon="7.51377">
        <ele>234.2</ele>
        <time>2020-01-05T09:30:53Z</time>
      </trkpt>
      <trkpt lat="48.65873" lon="7.51372">
        <ele>234.3</ele>
        <time>2020-01-05T09:30:58Z</time>
      </trkpt>
      <trkpt lat="48.65872" lon="7.51368">
        <ele>234.4</ele>
        <time>2020-01-05T09:31:01Z</time>
      </trkpt>
      <trkpt lat="48.65871" lon="7.51364">
        <ele>234.4</ele>
        <time>2020-01-05T09:31:05Z</time>
      </trkpt>
      <trkpt lat="48.65873" lon="7.51359">
        <ele>234.5</ele>
        <time>2020-01-05T09:31:07Z</time>
      </trkpt>
      <trkpt lat="48.65875" lon="7.51356">
        <ele>234.6</ele>
        <time>2020-01-05T09:31:10Z</time>
      </trkpt>
      <trkpt lat="48.65872" lon="7.51356">
        <ele>234.7</ele>
        <time>2020-01-05T09:31:14Z</time>
      </trkpt>
      <trkpt lat="48.65871" lon="7.51353">
        <ele>234.7</ele>
        <time>2020-01-05T09:31:54Z</time>
      </trkpt>
      <trkpt lat="48.65868" lon="7.51352">
        <ele>234.8</ele>
        <time>2020-01-05T09:32:07Z</time>
      </trkpt>
      <trkpt lat="48.65867" lon="7.51356">
        <ele>234.8</ele>
        <time>2020-01-05T09:32:15Z</time>
      </trkpt>
      <trkpt lat="48.65867" lon="7.51352">
        <ele>234.8</ele>
        <time>2020-01-05T09:32:18Z</time>
      </trkpt>
      <trkpt lat="48.65865" lon="7.51346">
        <ele>234.8</ele>
        <time>2020-01-05T09:32:22Z</time>
      </trkpt>
      <trkpt lat="48.65864" lon="7.51341">
        <ele>234.8</ele>
        <time>2020-01-05T09:32:24Z</time>
      </trkpt>
      <trkpt lat="48.65863" lon="7.51337">
        <ele>234.8</ele>
        <time>2020-01-05T09:32:27Z</time>
      </trkpt>
      <trkpt lat="48.65862" lon="7.51333">
        <ele>234.9</ele>
        <time>2020-01-05T09:32:31Z</time>
      </trkpt>
      <trkpt lat="48.65858" lon="7.51332">
        <ele>234.9</ele>
        <time>2020-01-05T09:32:35Z</time>
      </trkpt>
      <trkpt lat="48.65855" lon="7.51329">
        <ele>234.9</ele>
        <time>2020-01-05T09:32:41Z</time>
      </trkpt>
      <trkpt lat="48.65853" lon="7.51326">
        <ele>234.9</ele>
        <time>2020-01-05T09:32:47Z</time>
      </trkpt>
      <trkpt lat="48.65851" lon="7.51322">
        <ele>234.9</ele>
        <time>2020-01-05T09:32:52Z</time>
      </trkpt>
      <trkpt lat="48.65849" lon="7.51318">
        <ele>235</ele>
        <time>2020-01-05T09:32:55Z</time>
      </trkpt>
      <trkpt lat="48.65846" lon="7.51315">
        <ele>235</ele>
        <time>2020-01-05T09:33:03Z</time>
      </trkpt>
      <trkpt lat="48.65844" lon="7.51312">
        <ele>235.1</ele>
        <time>2020-01-05T09:33:06Z</time>
      </trkpt>
      <trkpt lat="48.65842" lon="7.51308">
        <ele>235.2</ele>
        <time>2020-01-05T09:33:09Z</time>
      </trkpt>
      <trkpt lat="48.65843" lon="7.51304">
        <ele>235.3</ele>
        <time>2020-01-05T09:33:13Z</time>
      </trkpt>
      <trkpt lat="48.65842" lon="7.51299">
        <ele>235.5</ele>
        <time>2020-01-05T09:33:17Z</time>
      </trkpt>
      <trkpt lat="48.6584" lon="7.51295">
        <ele>235.7</ele>
        <time>2020-01-05T09:33:21Z</time>
      </trkpt>
      <trkpt lat="48.65838" lon="7.5129">
        <ele>235.9</ele>
        <time>2020-01-05T09:33:24Z</time>
      </trkpt>
      <trkpt lat="48.65835" lon="7.51287">
        <ele>236.1</ele>
        <time>2020-01-05T09:33:28Z</time>
      </trkpt>
      <trkpt lat="48.65834" lon="7.51281">
        <ele>236.3</ele>
        <time>2020-01-05T09:33:31Z</time>
      </trkpt>
      <trkpt lat="48.65834" lon="7.51275">
        <ele>236.5</ele>
        <time>2020-01-05T09:33:34Z</time>
      </trkpt>
      <trkpt lat="48.65832" lon="7.51271">
        <ele>236.7</ele>
        <time>2020-01-05T09:33:37Z</time>
      </trkpt>
      <trkpt lat="48.65832" lon="7.51267">
        <ele>236.9</ele>
        <time>2020-01-05T09:33:39Z</time>
      </trkpt>
      <trkpt lat="48.6583" lon="7.51263">
        <ele>237.1</ele>
        <time>2020-01-05T09:33:42Z</time>
      </trkpt>
      <trkpt lat="48.65829" lon="7.51258">
        <ele>237.3</ele>
        <time>2020-01-05T09:33:45Z</time>
      </trkpt>
      <trkpt lat="48.65828" lon="7.51253">
        <ele>237.6</ele>
        <time>2020-01-05T09:33:48Z</time>
      </trkpt>
      <trkpt lat="48.65826" lon="7.5125">
        <ele>237.9</ele>
        <time>2020-01-05T09:33:52Z</time>
      </trkpt>
      <trkpt lat="48.65824" lon="7.51246">
        <ele>238.2</ele>
        <time>2020-01-05T09:33:55Z</time>
      </trkpt>
      <trkpt lat="48.65823" lon="7.51242">
        <ele>238.5</ele>
        <time>2020-01-05T09:33:58Z</time>
      </trkpt>
      <trkpt lat="48.6582" lon="7.51238">
        <ele>238.8</ele>
        <time>2020-01-05T09:34:01Z</time>
      </trkpt>
      <trkpt lat="48.65818" lon="7.51236">
        <ele>239</ele>
        <time>2020-01-05T09:34:05Z</time>
      </trkpt>
      <trkpt lat="48.65816" lon="7.51231">
        <ele>239.4</ele>
        <time>2020-01-05T09:34:08Z</time>
      </trkpt>
      <trkpt lat="48.65813" lon="7.51228">
        <ele>239.6</ele>
        <time>2020-01-05T09:34:10Z</time>
      </trkpt>
      <trkpt lat="48.65812" lon="7.51224">
        <ele>239.8</ele>
        <time>2020-01-05T09:34:13Z</time>
      </trkpt>
      <trkpt lat="48.65811" lon="7.5122">
        <ele>240</ele>
        <time>2020-01-05T09:34:15Z</time>
      </trkpt>
      <trkpt lat="48.6581" lon="7.51216">
        <ele>240.2</ele>
        <time>2020-01-05T09:34:18Z</time>
      </trkpt>
      <trkpt lat="48.6581" lon="7.51211">
        <ele>240.4</ele>
        <time>2020-01-05T09:34:20Z</time>
      </trkpt>
      <trkpt lat="48.65808" lon="7.51207">
        <ele>240.6</ele>
        <time>2020-01-05T09:34:23Z</time>
      </trkpt>
      <trkpt lat="48.65808" lon="7.51203">
        <ele>240.8</ele>
        <time>2020-01-05T09:34:25Z</time>
      </trkpt>
      <trkpt lat="48.65806" lon="7.512">
        <ele>241</ele>
        <time>2020-01-05T09:34:28Z</time>
      </trkpt>
      <trkpt lat="48.65806" lon="7.51194">
        <ele>241.3</ele>
        <time>2020-01-05T09:34:32Z</time>
      </trkpt>
      <trkpt lat="48.65806" lon="7.51188">
        <ele>241.5</ele>
        <time>2020-01-05T09:34:34Z</time>
      </trkpt>
      <trkpt lat="48.65807" lon="7.51184">
        <ele>241.7</ele>
        <time>2020-01-05T09:34:37Z</time>
      </trkpt>
      <trkpt lat="48.65806" lon="7.51179">
        <ele>242</ele>
        <time>2020-01-05T09:34:40Z</time>
      </trkpt>
      <trkpt lat="48.65805" lon="7.51175">
        <ele>242.2</ele>
        <time>2020-01-05T09:34:44Z</time>
      </trkpt>
      <trkpt lat="48.65804" lon="7.5117">
        <ele>242.5</ele>
        <time>2020-01-05T09:34:46Z</time>
      </trkpt>
      <trkpt lat="48.65803" lon="7.51164">
        <ele>242.8</ele>
        <time>2020-01-05T09:34:49Z</time>
      </trkpt>
      <trkpt lat="48.65802" lon="7.5116">
        <ele>243.1</ele>
        <time>2020-01-05T09:34:52Z</time>
      </trkpt>
      <trkpt lat="48.65799" lon="7.51155">
        <ele>243.6</ele>
        <time>2020-01-05T09:34:55Z</time>
      </trkpt>
      <trkpt lat="48.65798" lon="7.51151">
        <ele>243.9</ele>
        <time>2020-01-05T09:34:58Z</time>
      </trkpt>
      <trkpt lat="48.65795" lon="7.51147">
        <ele>244.2</ele>
        <time>2020-01-05T09:35:01Z</time>
      </trkpt>
      <trkpt lat="48.65792" lon="7.51144">
        <ele>244.5</ele>
        <time>2020-01-05T09:35:05Z</time>
      </trkpt>
      <trkpt lat="48.65789" lon="7.51143">
        <ele>244.9</ele>
        <time>2020-01-05T09:35:09Z</time>
      </trkpt>
      <trkpt lat="48.65787" lon="7.5114">
        <ele>245.2</ele>
        <time>2020-01-05T09:35:14Z</time>
      </trkpt>
      <trkpt lat="48.65784" lon="7.51137">
        <ele>245.5</ele>
        <time>2020-01-05T09:35:18Z</time>
      </trkpt>
      <trkpt lat="48.65781" lon="7.51136">
        <ele>245.8</ele>
        <time>2020-01-05T09:35:20Z</time>
      </trkpt>
      <trkpt lat="48.65779" lon="7.51134">
        <ele>246.1</ele>
        <time>2020-01-05T09:35:22Z</time>
      </trkpt>
      <trkpt lat="48.65777" lon="7.51132">
        <ele>246.4</ele>
        <time>2020-01-05T09:35:26Z</time>
      </trkpt>
      <trkpt lat="48.65774" lon="7.5113">
        <ele>246.7</ele>
        <time>2020-01-05T09:35:28Z</time>
      </trkpt>
      <trkpt lat="48.65771" lon="7.51129">
        <ele>247</ele>
        <time>2020-01-05T09:35:31Z</time>
      </trkpt>
      <trkpt lat="48.65768" lon="7.51126">
        <ele>247.4</ele>
        <time>2020-01-05T09:35:34Z</time>
      </trkpt>
      <trkpt lat="48.65765" lon="7.51125">
        <ele>247.7</ele>
        <time>2020-01-05T09:35:36Z</time>
      </trkpt>
      <trkpt lat="48.65762" lon="7.51124">
        <ele>248</ele>
        <time>2020-01-05T09:35:38Z</time>
      </trkpt>
      <trkpt lat="48.65759" lon="7.51126">
        <ele>247.7</ele>
        <time>2020-01-05T09:35:41Z</time>
      </trkpt>
      <trkpt lat="48.65756" lon="7.51126">
        <ele>247.6</ele>
        <time>2020-01-05T09:35:43Z</time>
      </trkpt>
      <trkpt lat="48.65754" lon="7.51126">
        <ele>247.5</ele>
        <time>2020-01-05T09:35:45Z</time>
      </trkpt>
      <trkpt lat="48.6575" lon="7.51127">
        <ele>247.4</ele>
        <time>2020-01-05T09:35:49Z</time>
      </trkpt>
      <trkpt lat="48.65748" lon="7.51129">
        <ele>247.4</ele>
        <time>2020-01-05T09:35:52Z</time>
      </trkpt>
      <trkpt lat="48.65745" lon="7.5113">
        <ele>247.3</ele>
        <time>2020-01-05T09:35:54Z</time>
      </trkpt>
      <trkpt lat="48.65742" lon="7.51133">
        <ele>247.3</ele>
        <time>2020-01-05T09:35:57Z</time>
      </trkpt>
      <trkpt lat="48.6574" lon="7.51136">
        <ele>247.3</ele>
        <time>2020-01-05T09:36:01Z</time>
      </trkpt>
      <trkpt lat="48.65739" lon="7.5114">
        <ele>247.3</ele>
        <time>2020-01-05T09:36:03Z</time>
      </trkpt>
      <trkpt lat="48.65736" lon="7.51142">
        <ele>247.4</ele>
        <time>2020-01-05T09:36:06Z</time>
      </trkpt>
      <trkpt lat="48.65733" lon="7.51144">
        <ele>247.4</ele>
        <time>2020-01-05T09:36:09Z</time>
      </trkpt>
      <trkpt lat="48.65732" lon="7.51147">
        <ele>247.5</ele>
        <time>2020-01-05T09:36:12Z</time>
      </trkpt>
      <trkpt lat="48.65729" lon="7.5115">
        <ele>247.6</ele>
        <time>2020-01-05T09:36:15Z</time>
      </trkpt>
      <trkpt lat="48.65726" lon="7.51155">
        <ele>247.8</ele>
        <time>2020-01-05T09:36:18Z</time>
      </trkpt>
      <trkpt lat="48.65724" lon="7.51157">
        <ele>247.9</ele>
        <time>2020-01-05T09:36:21Z</time>
      </trkpt>
      <trkpt lat="48.65721" lon="7.5116">
        <ele>248.1</ele>
        <time>2020-01-05T09:36:25Z</time>
      </trkpt>
      <trkpt lat="48.65719" lon="7.51163">
        <ele>248.2</ele>
        <time>2020-01-05T09:36:27Z</time>
      </trkpt>
      <trkpt lat="48.65716" lon="7.51166">
        <ele>248.3</ele>
        <time>2020-01-05T09:36:29Z</time>
      </trkpt>
      <trkpt lat="48.65713" lon="7.51168">
        <ele>248.5</ele>
        <time>2020-01-05T09:36:32Z</time>
      </trkpt>
      <trkpt lat="48.65711" lon="7.51172">
        <ele>248.6</ele>
        <time>2020-01-05T09:36:35Z</time>
      </trkpt>
      <trkpt lat="48.65708" lon="7.51172">
        <ele>248.8</ele>
        <time>2020-01-05T09:36:38Z</time>
      </trkpt>
      <trkpt lat="48.65705" lon="7.51174">
        <ele>249</ele>
        <time>2020-01-05T09:36:40Z</time>
      </trkpt>
      <trkpt lat="48.65702" lon="7.51175">
        <ele>249.2</ele>
        <time>2020-01-05T09:36:44Z</time>
      </trkpt>
      <trkpt lat="48.657" lon="7.51177">
        <ele>249.5</ele>
        <time>2020-01-05T09:36:46Z</time>
      </trkpt>
      <trkpt lat="48.65697" lon="7.51179">
        <ele>249.7</ele>
        <time>2020-01-05T09:36:49Z</time>
      </trkpt>
      <trkpt lat="48.65695" lon="7.51183">
        <ele>250</ele>
        <time>2020-01-05T09:36:52Z</time>
      </trkpt>
      <trkpt lat="48.65692" lon="7.51185">
        <ele>250.2</ele>
        <time>2020-01-05T09:36:55Z</time>
      </trkpt>
      <trkpt lat="48.65689" lon="7.51187">
        <ele>250.5</ele>
        <time>2020-01-05T09:36:58Z</time>
      </trkpt>
      <trkpt lat="48.65685" lon="7.5119">
        <ele>250.8</ele>
        <time>2020-01-05T09:37:01Z</time>
      </trkpt>
      <trkpt lat="48.65683" lon="7.51192">
        <ele>251</ele>
        <time>2020-01-05T09:37:03Z</time>
      </trkpt>
      <trkpt lat="48.6568" lon="7.51193">
        <ele>251.1</ele>
        <time>2020-01-05T09:37:05Z</time>
      </trkpt>
      <trkpt lat="48.65677" lon="7.51195">
        <ele>251.2</ele>
        <time>2020-01-05T09:37:08Z</time>
      </trkpt>
      <trkpt lat="48.65674" lon="7.51198">
        <ele>251.3</ele>
        <time>2020-01-05T09:37:11Z</time>
      </trkpt>
      <trkpt lat="48.65671" lon="7.51196">
        <ele>251.3</ele>
        <time>2020-01-05T09:37:16Z</time>
      </trkpt>
      <trkpt lat="48.65668" lon="7.51199">
        <ele>251.3</ele>
        <time>2020-01-05T09:37:25Z</time>
      </trkpt>
      <trkpt lat="48.65666" lon="7.51201">
        <ele>251.3</ele>
        <time>2020-01-05T09:37:28Z</time>
      </trkpt>
      <trkpt lat="48.65662" lon="7.51202">
        <ele>251.4</ele>
        <time>2020-01-05T09:37:32Z</time>
      </trkpt>
      <trkpt lat="48.65658" lon="7.51204">
        <ele>251.4</ele>
        <time>2020-01-05T09:37:35Z</time>
      </trkpt>
      <trkpt lat="48.65655" lon="7.51207">
        <ele>251.5</ele>
        <time>2020-01-05T09:37:38Z</time>
      </trkpt>
      <trkpt lat="48.65651" lon="7.51208">
        <ele>251.7</ele>
        <time>2020-01-05T09:37:41Z</time>
      </trkpt>
      <trkpt lat="48.65648" lon="7.51208">
        <ele>251.9</ele>
        <time>2020-01-05T09:37:44Z</time>
      </trkpt>
      <trkpt lat="48.65646" lon="7.5121">
        <ele>252</ele>
        <time>2020-01-05T09:37:47Z</time>
      </trkpt>
      <trkpt lat="48.65643" lon="7.51209">
        <ele>252.1</ele>
        <time>2020-01-05T09:37:50Z</time>
      </trkpt>
      <trkpt lat="48.6564" lon="7.51208">
        <ele>252.4</ele>
        <time>2020-01-05T09:37:56Z</time>
      </trkpt>
      <trkpt lat="48.65637" lon="7.51204">
        <ele>252.6</ele>
        <time>2020-01-05T09:37:59Z</time>
      </trkpt>
      <trkpt lat="48.65636" lon="7.51199">
        <ele>252.8</ele>
        <time>2020-01-05T09:38:02Z</time>
      </trkpt>
      <trkpt lat="48.65635" lon="7.51194">
        <ele>253</ele>
        <time>2020-01-05T09:38:06Z</time>
      </trkpt>
      <trkpt lat="48.65634" lon="7.51188">
        <ele>253.1</ele>
        <time>2020-01-05T09:38:09Z</time>
      </trkpt>
      <trkpt lat="48.65633" lon="7.51183">
        <ele>253.3</ele>
        <time>2020-01-05T09:38:12Z</time>
      </trkpt>
      <trkpt lat="48.65632" lon="7.51178">
        <ele>253.7</ele>
        <time>2020-01-05T09:38:16Z</time>
      </trkpt>
      <trkpt lat="48.65632" lon="7.51174">
        <ele>253.7</ele>
        <time>2020-01-05T09:38:18Z</time>
      </trkpt>
      <trkpt lat="48.65631" lon="7.51169">
        <ele>253.7</ele>
        <time>2020-01-05T09:38:20Z</time>
      </trkpt>
      <trkpt lat="48.6563" lon="7.51164">
        <ele>254.2</ele>
        <time>2020-01-05T09:38:23Z</time>
      </trkpt>
      <trkpt lat="48.6563" lon="7.5116">
        <ele>254.5</ele>
        <time>2020-01-05T09:38:27Z</time>
      </trkpt>
      <trkpt lat="48.6563" lon="7.51155">
        <ele>254.8</ele>
        <time>2020-01-05T09:38:31Z</time>
      </trkpt>
      <trkpt lat="48.65632" lon="7.51151">
        <ele>255.1</ele>
        <time>2020-01-05T09:38:34Z</time>
      </trkpt>
      <trkpt lat="48.65632" lon="7.51146">
        <ele>255.4</ele>
        <time>2020-01-05T09:38:37Z</time>
      </trkpt>
      <trkpt lat="48.65632" lon="7.51142">
        <ele>255.7</ele>
        <time>2020-01-05T09:38:40Z</time>
      </trkpt>
      <trkpt lat="48.65633" lon="7.51137">
        <ele>256</ele>
        <time>2020-01-05T09:38:43Z</time>
      </trkpt>
      <trkpt lat="48.65633" lon="7.51131">
        <ele>256.3</ele>
        <time>2020-01-05T09:38:46Z</time>
      </trkpt>
      <trkpt lat="48.65633" lon="7.51126">
        <ele>256.6</ele>
        <time>2020-01-05T09:38:50Z</time>
      </trkpt>
      <trkpt lat="48.65634" lon="7.51122">
        <ele>256.9</ele>
        <time>2020-01-05T09:38:53Z</time>
      </trkpt>
      <trkpt lat="48.65634" lon="7.51117">
        <ele>257.1</ele>
        <time>2020-01-05T09:38:56Z</time>
      </trkpt>
      <trkpt lat="48.65634" lon="7.51113">
        <ele>257.4</ele>
        <time>2020-01-05T09:38:59Z</time>
      </trkpt>
      <trkpt lat="48.65635" lon="7.51106">
        <ele>257.7</ele>
        <time>2020-01-05T09:39:03Z</time>
      </trkpt>
      <trkpt lat="48.65636" lon="7.51102">
        <ele>257.9</ele>
        <time>2020-01-05T09:39:05Z</time>
      </trkpt>
      <trkpt lat="48.65636" lon="7.51097">
        <ele>258.2</ele>
        <time>2020-01-05T09:39:09Z</time>
      </trkpt>
      <trkpt lat="48.65636" lon="7.51092">
        <ele>258.5</ele>
        <time>2020-01-05T09:39:12Z</time>
      </trkpt>
      <trkpt lat="48.65637" lon="7.51088">
        <ele>258.7</ele>
        <time>2020-01-05T09:39:15Z</time>
      </trkpt>
      <trkpt lat="48.65637" lon="7.51083">
        <ele>258.9</ele>
        <time>2020-01-05T09:39:18Z</time>
      </trkpt>
      <trkpt lat="48.65639" lon="7.51079">
        <ele>259.1</ele>
        <time>2020-01-05T09:39:21Z</time>
      </trkpt>
      <trkpt lat="48.65639" lon="7.51073">
        <ele>259.4</ele>
        <time>2020-01-05T09:39:24Z</time>
      </trkpt>
      <trkpt lat="48.65639" lon="7.51067">
        <ele>259.7</ele>
        <time>2020-01-05T09:39:28Z</time>
      </trkpt>
      <trkpt lat="48.65641" lon="7.51064">
        <ele>260</ele>
        <time>2020-01-05T09:39:31Z</time>
      </trkpt>
      <trkpt lat="48.65642" lon="7.5106">
        <ele>260.2</ele>
        <time>2020-01-05T09:39:34Z</time>
      </trkpt>
      <trkpt lat="48.65644" lon="7.51055">
        <ele>260.4</ele>
        <time>2020-01-05T09:39:37Z</time>
      </trkpt>
      <trkpt lat="48.65644" lon="7.5105">
        <ele>260.6</ele>
        <time>2020-01-05T09:39:40Z</time>
      </trkpt>
      <trkpt lat="48.65644" lon="7.51045">
        <ele>260.8</ele>
        <time>2020-01-05T09:39:43Z</time>
      </trkpt>
      <trkpt lat="48.65645" lon="7.5104">
        <ele>261.1</ele>
        <time>2020-01-05T09:39:46Z</time>
      </trkpt>
      <trkpt lat="48.65644" lon="7.51036">
        <ele>261.3</ele>
        <time>2020-01-05T09:39:49Z</time>
      </trkpt>
      <trkpt lat="48.65643" lon="7.51031">
        <ele>261.5</ele>
        <time>2020-01-05T09:39:52Z</time>
      </trkpt>
      <trkpt lat="48.65642" lon="7.51026">
        <ele>261.7</ele>
        <time>2020-01-05T09:39:55Z</time>
      </trkpt>
      <trkpt lat="48.65641" lon="7.51022">
        <ele>262</ele>
        <time>2020-01-05T09:39:59Z</time>
      </trkpt>
      <trkpt lat="48.65641" lon="7.51016">
        <ele>262.2</ele>
        <time>2020-01-05T09:40:02Z</time>
      </trkpt>
      <trkpt lat="48.65641" lon="7.51011">
        <ele>262.5</ele>
        <time>2020-01-05T09:40:05Z</time>
      </trkpt>
      <trkpt lat="48.65641" lon="7.51006">
        <ele>262.7</ele>
        <time>2020-01-05T09:40:08Z</time>
      </trkpt>
      <trkpt lat="48.65639" lon="7.51002">
        <ele>262.9</ele>
        <time>2020-01-05T09:40:12Z</time>
      </trkpt>
      <trkpt lat="48.6564" lon="7.50996">
        <ele>263.2</ele>
        <time>2020-01-05T09:40:15Z</time>
      </trkpt>
      <trkpt lat="48.65641" lon="7.50992">
        <ele>263.4</ele>
        <time>2020-01-05T09:40:18Z</time>
      </trkpt>
      <trkpt lat="48.6564" lon="7.50987">
        <ele>263.7</ele>
        <time>2020-01-05T09:40:20Z</time>
      </trkpt>
      <trkpt lat="48.6564" lon="7.50982">
        <ele>264</ele>
        <time>2020-01-05T09:40:24Z</time>
      </trkpt>
      <trkpt lat="48.6564" lon="7.50977">
        <ele>264.2</ele>
        <time>2020-01-05T09:40:27Z</time>
      </trkpt>
      <trkpt lat="48.6564" lon="7.50972">
        <ele>264.5</ele>
        <time>2020-01-05T09:40:30Z</time>
      </trkpt>
      <trkpt lat="48.6564" lon="7.50968">
        <ele>264.8</ele>
        <time>2020-01-05T09:40:34Z</time>
      </trkpt>
      <trkpt lat="48.65638" lon="7.50962">
        <ele>265.3</ele>
        <time>2020-01-05T09:40:38Z</time>
      </trkpt>
      <trkpt lat="48.65637" lon="7.50957">
        <ele>265.6</ele>
        <time>2020-01-05T09:40:41Z</time>
      </trkpt>
      <trkpt lat="48.65637" lon="7.50952">
        <ele>266</ele>
        <time>2020-01-05T09:40:45Z</time>
      </trkpt>
      <trkpt lat="48.65638" lon="7.50948">
        <ele>266.3</ele>
        <time>2020-01-05T09:40:48Z</time>
      </trkpt>
      <trkpt lat="48.65638" lon="7.50943">
        <ele>266.6</ele>
        <time>2020-01-05T09:40:51Z</time>
      </trkpt>
      <trkpt lat="48.65638" lon="7.50938">
        <ele>266.9</ele>
        <time>2020-01-05T09:40:54Z</time>
      </trkpt>
      <trkpt lat="48.65638" lon="7.50933">
        <ele>267.3</ele>
        <time>2020-01-05T09:40:57Z</time>
      </trkpt>
      <trkpt lat="48.65637" lon="7.50928">
        <ele>267.7</ele>
        <time>2020-01-05T09:41:00Z</time>
      </trkpt>
      <trkpt lat="48.65637" lon="7.50922">
        <ele>268.2</ele>
        <time>2020-01-05T09:41:03Z</time>
      </trkpt>
      <trkpt lat="48.65637" lon="7.50917">
        <ele>268.5</ele>
        <time>2020-01-05T09:41:07Z</time>
      </trkpt>
      <trkpt lat="48.65637" lon="7.50912">
        <ele>268.8</ele>
        <time>2020-01-05T09:41:10Z</time>
      </trkpt>
      <trkpt lat="48.65635" lon="7.50909">
        <ele>269.1</ele>
        <time>2020-01-05T09:41:13Z</time>
      </trkpt>
      <trkpt lat="48.65635" lon="7.50905">
        <ele>269.3</ele>
        <time>2020-01-05T09:41:16Z</time>
      </trkpt>
      <trkpt lat="48.65634" lon="7.509">
        <ele>269.6</ele>
        <time>2020-01-05T09:41:19Z</time>
      </trkpt>
      <trkpt lat="48.65633" lon="7.50896">
        <ele>269.9</ele>
        <time>2020-01-05T09:41:22Z</time>
      </trkpt>
      <trkpt lat="48.65632" lon="7.50892">
        <ele>270.2</ele>
        <time>2020-01-05T09:41:25Z</time>
      </trkpt>
      <trkpt lat="48.65632" lon="7.50888">
        <ele>270.4</ele>
        <time>2020-01-05T09:41:27Z</time>
      </trkpt>
      <trkpt lat="48.65631" lon="7.50883">
        <ele>270.7</ele>
        <time>2020-01-05T09:41:30Z</time>
      </trkpt>
      <trkpt lat="48.65631" lon="7.50878">
        <ele>271</ele>
        <time>2020-01-05T09:41:34Z</time>
      </trkpt>
      <trkpt lat="48.65631" lon="7.50873">
        <ele>271.4</ele>
        <time>2020-01-05T09:41:37Z</time>
      </trkpt>
      <trkpt lat="48.6563" lon="7.50869">
        <ele>271.7</ele>
        <time>2020-01-05T09:41:39Z</time>
      </trkpt>
      <trkpt lat="48.65629" lon="7.50865">
        <ele>272</ele>
        <time>2020-01-05T09:41:43Z</time>
      </trkpt>
      <trkpt lat="48.65628" lon="7.50861">
        <ele>272.3</ele>
        <time>2020-01-05T09:41:46Z</time>
      </trkpt>
      <trkpt lat="48.65627" lon="7.50856">
        <ele>272.7</ele>
        <time>2020-01-05T09:41:49Z</time>
      </trkpt>
      <trkpt lat="48.65627" lon="7.50851">
        <ele>273</ele>
        <time>2020-01-05T09:41:53Z</time>
      </trkpt>
      <trkpt lat="48.65626" lon="7.50846">
        <ele>273.4</ele>
        <time>2020-01-05T09:41:56Z</time>
      </trkpt>
      <trkpt lat="48.65625" lon="7.50843">
        <ele>273.8</ele>
        <time>2020-01-05T09:42:00Z</time>
      </trkpt>
      <trkpt lat="48.65622" lon="7.50838">
        <ele>274.3</ele>
        <time>2020-01-05T09:42:04Z</time>
      </trkpt>
      <trkpt lat="48.65621" lon="7.50835">
        <ele>274.6</ele>
        <time>2020-01-05T09:42:07Z</time>
      </trkpt>
      <trkpt lat="48.6562" lon="7.5083">
        <ele>274.9</ele>
        <time>2020-01-05T09:42:10Z</time>
      </trkpt>
      <trkpt lat="48.65619" lon="7.50826">
        <ele>275.2</ele>
        <time>2020-01-05T09:42:13Z</time>
      </trkpt>
      <trkpt lat="48.65618" lon="7.50822">
        <ele>275.5</ele>
        <time>2020-01-05T09:42:16Z</time>
      </trkpt>
      <trkpt lat="48.65616" lon="7.50819">
        <ele>275.8</ele>
        <time>2020-01-05T09:42:19Z</time>
      </trkpt>
      <trkpt lat="48.65614" lon="7.50814">
        <ele>276.2</ele>
        <time>2020-01-05T09:42:22Z</time>
      </trkpt>
      <trkpt lat="48.65613" lon="7.50811">
        <ele>276.6</ele>
        <time>2020-01-05T09:42:24Z</time>
      </trkpt>
      <trkpt lat="48.65611" lon="7.50807">
        <ele>276.9</ele>
        <time>2020-01-05T09:42:27Z</time>
      </trkpt>
      <trkpt lat="48.6561" lon="7.50802">
        <ele>277.3</ele>
        <time>2020-01-05T09:42:30Z</time>
      </trkpt>
      <trkpt lat="48.65608" lon="7.50798">
        <ele>277.6</ele>
        <time>2020-01-05T09:42:33Z</time>
      </trkpt>
      <trkpt lat="48.65608" lon="7.50791">
        <ele>278</ele>
        <time>2020-01-05T09:42:37Z</time>
      </trkpt>
      <trkpt lat="48.65606" lon="7.50786">
        <ele>278.3</ele>
        <time>2020-01-05T09:42:40Z</time>
      </trkpt>
      <trkpt lat="48.65606" lon="7.50781">
        <ele>278.6</ele>
        <time>2020-01-05T09:42:44Z</time>
      </trkpt>
      <trkpt lat="48.65606" lon="7.50775">
        <ele>278.9</ele>
        <time>2020-01-05T09:42:48Z</time>
      </trkpt>
      <trkpt lat="48.65604" lon="7.5077">
        <ele>279.3</ele>
        <time>2020-01-05T09:42:52Z</time>
      </trkpt>
      <trkpt lat="48.65603" lon="7.50765">
        <ele>279.6</ele>
        <time>2020-01-05T09:42:55Z</time>
      </trkpt>
      <trkpt lat="48.65601" lon="7.50759">
        <ele>279.9</ele>
        <time>2020-01-05T09:42:58Z</time>
      </trkpt>
      <trkpt lat="48.65601" lon="7.50755">
        <ele>280.2</ele>
        <time>2020-01-05T09:43:00Z</time>
      </trkpt>
      <trkpt lat="48.656" lon="7.50751">
        <ele>280.4</ele>
        <time>2020-01-05T09:43:04Z</time>
      </trkpt>
      <trkpt lat="48.65599" lon="7.50746">
        <ele>280.8</ele>
        <time>2020-01-05T09:43:07Z</time>
      </trkpt>
      <trkpt lat="48.65598" lon="7.50742">
        <ele>281</ele>
        <time>2020-01-05T09:43:10Z</time>
      </trkpt>
      <trkpt lat="48.65597" lon="7.50737">
        <ele>281.4</ele>
        <time>2020-01-05T09:43:13Z</time>
      </trkpt>
      <trkpt lat="48.65596" lon="7.50731">
        <ele>281.7</ele>
        <time>2020-01-05T09:43:16Z</time>
      </trkpt>
      <trkpt lat="48.65594" lon="7.50726">
        <ele>282</ele>
        <time>2020-01-05T09:43:19Z</time>
      </trkpt>
      <trkpt lat="48.65592" lon="7.50722">
        <ele>282.2</ele>
        <time>2020-01-05T09:43:22Z</time>
      </trkpt>
      <trkpt lat="48.6559" lon="7.50718">
        <ele>282.4</ele>
        <time>2020-01-05T09:43:25Z</time>
      </trkpt>
      <trkpt lat="48.65589" lon="7.50715">
        <ele>282.6</ele>
        <time>2020-01-05T09:43:29Z</time>
      </trkpt>
      <trkpt lat="48.65587" lon="7.5071">
        <ele>282.9</ele>
        <time>2020-01-05T09:43:31Z</time>
      </trkpt>
      <trkpt lat="48.65586" lon="7.50707">
        <ele>283.1</ele>
        <time>2020-01-05T09:43:33Z</time>
      </trkpt>
      <trkpt lat="48.65585" lon="7.50702">
        <ele>283.4</ele>
        <time>2020-01-05T09:43:36Z</time>
      </trkpt>
      <trkpt lat="48.65583" lon="7.50697">
        <ele>283.7</ele>
        <time>2020-01-05T09:43:40Z</time>
      </trkpt>
      <trkpt lat="48.65582" lon="7.50693">
        <ele>283.9</ele>
        <time>2020-01-05T09:43:42Z</time>
      </trkpt>
      <trkpt lat="48.65581" lon="7.50689">
        <ele>284.1</ele>
        <time>2020-01-05T09:43:44Z</time>
      </trkpt>
      <trkpt lat="48.6558" lon="7.50684">
        <ele>284.3</ele>
        <time>2020-01-05T09:43:46Z</time>
      </trkpt>
      <trkpt lat="48.65579" lon="7.50679">
        <ele>284.6</ele>
        <time>2020-01-05T09:43:49Z</time>
      </trkpt>
      <trkpt lat="48.65579" lon="7.50674">
        <ele>284.8</ele>
        <time>2020-01-05T09:43:53Z</time>
      </trkpt>
      <trkpt lat="48.65578" lon="7.5067">
        <ele>285</ele>
        <time>2020-01-05T09:43:56Z</time>
      </trkpt>
      <trkpt lat="48.65578" lon="7.50664">
        <ele>285.3</ele>
        <time>2020-01-05T09:44:01Z</time>
      </trkpt>
      <trkpt lat="48.65578" lon="7.5066">
        <ele>285.5</ele>
        <time>2020-01-05T09:44:03Z</time>
      </trkpt>
      <trkpt lat="48.65578" lon="7.50654">
        <ele>285.7</ele>
        <time>2020-01-05T09:44:06Z</time>
      </trkpt>
      <trkpt lat="48.65579" lon="7.50649">
        <ele>286.3</ele>
        <time>2020-01-05T09:44:09Z</time>
      </trkpt>
      <trkpt lat="48.65578" lon="7.50645">
        <ele>286.5</ele>
        <time>2020-01-05T09:44:11Z</time>
      </trkpt>
      <trkpt lat="48.65578" lon="7.5064">
        <ele>286.7</ele>
        <time>2020-01-05T09:44:14Z</time>
      </trkpt>
      <trkpt lat="48.6558" lon="7.50636">
        <ele>286.9</ele>
        <time>2020-01-05T09:44:18Z</time>
      </trkpt>
      <trkpt lat="48.65582" lon="7.50633">
        <ele>287.1</ele>
        <time>2020-01-05T09:44:21Z</time>
      </trkpt>
      <trkpt lat="48.65584" lon="7.5063">
        <ele>287.3</ele>
        <time>2020-01-05T09:44:23Z</time>
      </trkpt>
      <trkpt lat="48.65586" lon="7.50627">
        <ele>287.4</ele>
        <time>2020-01-05T09:44:25Z</time>
      </trkpt>
      <trkpt lat="48.65588" lon="7.50625">
        <ele>287.6</ele>
        <time>2020-01-05T09:44:28Z</time>
      </trkpt>
      <trkpt lat="48.65591" lon="7.50622">
        <ele>287.8</ele>
        <time>2020-01-05T09:44:31Z</time>
      </trkpt>
      <trkpt lat="48.65593" lon="7.50619">
        <ele>288</ele>
        <time>2020-01-05T09:44:34Z</time>
      </trkpt>
      <trkpt lat="48.65596" lon="7.50616">
        <ele>288.3</ele>
        <time>2020-01-05T09:44:37Z</time>
      </trkpt>
      <trkpt lat="48.65599" lon="7.50614">
        <ele>288.5</ele>
        <time>2020-01-05T09:44:39Z</time>
      </trkpt>
      <trkpt lat="48.65601" lon="7.50611">
        <ele>288.7</ele>
        <time>2020-01-05T09:44:42Z</time>
      </trkpt>
      <trkpt lat="48.65604" lon="7.50609">
        <ele>288.9</ele>
        <time>2020-01-05T09:44:45Z</time>
      </trkpt>
      <trkpt lat="48.65608" lon="7.50607">
        <ele>289.1</ele>
        <time>2020-01-05T09:44:49Z</time>
      </trkpt>
      <trkpt lat="48.6561" lon="7.50604">
        <ele>289.3</ele>
        <time>2020-01-05T09:44:51Z</time>
      </trkpt>
      <trkpt lat="48.65612" lon="7.50602">
        <ele>289.5</ele>
        <time>2020-01-05T09:44:54Z</time>
      </trkpt>
      <trkpt lat="48.65614" lon="7.50599">
        <ele>289.7</ele>
        <time>2020-01-05T09:44:57Z</time>
      </trkpt>
      <trkpt lat="48.65617" lon="7.50596">
        <ele>289.9</ele>
        <time>2020-01-05T09:45:00Z</time>
      </trkpt>
      <trkpt lat="48.6562" lon="7.50595">
        <ele>290.1</ele>
        <time>2020-01-05T09:45:02Z</time>
      </trkpt>
      <trkpt lat="48.65623" lon="7.50591">
        <ele>290.4</ele>
        <time>2020-01-05T09:45:05Z</time>
      </trkpt>
      <trkpt lat="48.65626" lon="7.50589">
        <ele>290.6</ele>
        <time>2020-01-05T09:45:08Z</time>
      </trkpt>
      <trkpt lat="48.65628" lon="7.50585">
        <ele>290.8</ele>
        <time>2020-01-05T09:45:11Z</time>
      </trkpt>
      <trkpt lat="48.6563" lon="7.50584">
        <ele>291</ele>
        <time>2020-01-05T09:45:14Z</time>
      </trkpt>
      <trkpt lat="48.65634" lon="7.50582">
        <ele>291.1</ele>
        <time>2020-01-05T09:45:17Z</time>
      </trkpt>
      <trkpt lat="48.65637" lon="7.5058">
        <ele>291.3</ele>
        <time>2020-01-05T09:45:21Z</time>
      </trkpt>
      <trkpt lat="48.65639" lon="7.50578">
        <ele>291.4</ele>
        <time>2020-01-05T09:45:24Z</time>
      </trkpt>
      <trkpt lat="48.65642" lon="7.50576">
        <ele>291.6</ele>
        <time>2020-01-05T09:45:27Z</time>
      </trkpt>
      <trkpt lat="48.65644" lon="7.50573">
        <ele>291.7</ele>
        <time>2020-01-05T09:45:30Z</time>
      </trkpt>
      <trkpt lat="48.65647" lon="7.5057">
        <ele>291.8</ele>
        <time>2020-01-05T09:45:34Z</time>
      </trkpt>
      <trkpt lat="48.6565" lon="7.50568">
        <ele>291.9</ele>
        <time>2020-01-05T09:45:37Z</time>
      </trkpt>
      <trkpt lat="48.65652" lon="7.50564">
        <ele>292</ele>
        <time>2020-01-05T09:45:41Z</time>
      </trkpt>
      <trkpt lat="48.65655" lon="7.5056">
        <ele>292.1</ele>
        <time>2020-01-05T09:45:44Z</time>
      </trkpt>
      <trkpt lat="48.65658" lon="7.50559">
        <ele>292.9</ele>
        <time>2020-01-05T09:45:46Z</time>
      </trkpt>
      <trkpt lat="48.65661" lon="7.50557">
        <ele>293.2</ele>
        <time>2020-01-05T09:45:48Z</time>
      </trkpt>
      <trkpt lat="48.65664" lon="7.50554">
        <ele>293.6</ele>
        <time>2020-01-05T09:45:51Z</time>
      </trkpt>
      <trkpt lat="48.65667" lon="7.50553">
        <ele>293.9</ele>
        <time>2020-01-05T09:45:55Z</time>
      </trkpt>
      <trkpt lat="48.65671" lon="7.50551">
        <ele>294.3</ele>
        <time>2020-01-05T09:45:58Z</time>
      </trkpt>
      <trkpt lat="48.65674" lon="7.50549">
        <ele>294.6</ele>
        <time>2020-01-05T09:46:01Z</time>
      </trkpt>
      <trkpt lat="48.65677" lon="7.50547">
        <ele>294.8</ele>
        <time>2020-01-05T09:46:04Z</time>
      </trkpt>
      <trkpt lat="48.6568" lon="7.50547">
        <ele>295</ele>
        <time>2020-01-05T09:46:08Z</time>
      </trkpt>
      <trkpt lat="48.65683" lon="7.50544">
        <ele>295.2</ele>
        <time>2020-01-05T09:46:12Z</time>
      </trkpt>
      <trkpt lat="48.65687" lon="7.50542">
        <ele>295.4</ele>
        <time>2020-01-05T09:46:15Z</time>
      </trkpt>
      <trkpt lat="48.6569" lon="7.50541">
        <ele>295.6</ele>
        <time>2020-01-05T09:46:18Z</time>
      </trkpt>
      <trkpt lat="48.65692" lon="7.50538">
        <ele>295.8</ele>
        <time>2020-01-05T09:46:21Z</time>
      </trkpt>
      <trkpt lat="48.65695" lon="7.50536">
        <ele>296.1</ele>
        <time>2020-01-05T09:46:24Z</time>
      </trkpt>
      <trkpt lat="48.65698" lon="7.50535">
        <ele>296.4</ele>
        <time>2020-01-05T09:46:27Z</time>
      </trkpt>
      <trkpt lat="48.657" lon="7.50532">
        <ele>296.7</ele>
        <time>2020-01-05T09:46:30Z</time>
      </trkpt>
      <trkpt lat="48.65703" lon="7.50531">
        <ele>297</ele>
        <time>2020-01-05T09:46:35Z</time>
      </trkpt>
      <trkpt lat="48.65706" lon="7.50529">
        <ele>297.4</ele>
        <time>2020-01-05T09:46:38Z</time>
      </trkpt>
      <trkpt lat="48.65709" lon="7.50528">
        <ele>297.7</ele>
        <time>2020-01-05T09:46:41Z</time>
      </trkpt>
      <trkpt lat="48.65712" lon="7.50526">
        <ele>298</ele>
        <time>2020-01-05T09:46:44Z</time>
      </trkpt>
      <trkpt lat="48.65715" lon="7.50523">
        <ele>298.3</ele>
        <time>2020-01-05T09:46:47Z</time>
      </trkpt>
      <trkpt lat="48.65717" lon="7.50522">
        <ele>298.4</ele>
        <time>2020-01-05T09:46:49Z</time>
      </trkpt>
      <trkpt lat="48.6572" lon="7.5052">
        <ele>298.6</ele>
        <time>2020-01-05T09:46:51Z</time>
      </trkpt>
      <trkpt lat="48.65722" lon="7.50518">
        <ele>298.7</ele>
        <time>2020-01-05T09:46:53Z</time>
      </trkpt>
      <trkpt lat="48.65726" lon="7.50515">
        <ele>298.9</ele>
        <time>2020-01-05T09:46:56Z</time>
      </trkpt>
      <trkpt lat="48.65729" lon="7.50512">
        <ele>299</ele>
        <time>2020-01-05T09:46:59Z</time>
      </trkpt>
      <trkpt lat="48.65731" lon="7.50508">
        <ele>299.1</ele>
        <time>2020-01-05T09:47:02Z</time>
      </trkpt>
      <trkpt lat="48.65734" lon="7.50506">
        <ele>299.2</ele>
        <time>2020-01-05T09:47:05Z</time>
      </trkpt>
      <trkpt lat="48.65737" lon="7.50506">
        <ele>299.3</ele>
        <time>2020-01-05T09:47:08Z</time>
      </trkpt>
      <trkpt lat="48.6574" lon="7.50504">
        <ele>299.4</ele>
        <time>2020-01-05T09:47:10Z</time>
      </trkpt>
      <trkpt lat="48.65743" lon="7.50502">
        <ele>299.5</ele>
        <time>2020-01-05T09:47:16Z</time>
      </trkpt>
      <trkpt lat="48.65745" lon="7.50501">
        <ele>299.7</ele>
        <time>2020-01-05T09:47:18Z</time>
      </trkpt>
      <trkpt lat="48.65747" lon="7.50497">
        <ele>299.9</ele>
        <time>2020-01-05T09:47:21Z</time>
      </trkpt>
      <trkpt lat="48.6575" lon="7.50494">
        <ele>300.2</ele>
        <time>2020-01-05T09:47:24Z</time>
      </trkpt>
      <trkpt lat="48.65753" lon="7.50491">
        <ele>300.5</ele>
        <time>2020-01-05T09:47:26Z</time>
      </trkpt>
      <trkpt lat="48.65756" lon="7.50488">
        <ele>301</ele>
        <time>2020-01-05T09:47:29Z</time>
      </trkpt>
      <trkpt lat="48.65759" lon="7.50486">
        <ele>301.3</ele>
        <time>2020-01-05T09:47:32Z</time>
      </trkpt>
      <trkpt lat="48.65761" lon="7.50483">
        <ele>301.6</ele>
        <time>2020-01-05T09:47:35Z</time>
      </trkpt>
      <trkpt lat="48.65764" lon="7.50481">
        <ele>301.9</ele>
        <time>2020-01-05T09:47:39Z</time>
      </trkpt>
      <trkpt lat="48.65767" lon="7.50479">
        <ele>302.3</ele>
        <time>2020-01-05T09:47:42Z</time>
      </trkpt>
      <trkpt lat="48.6577" lon="7.50476">
        <ele>302.8</ele>
        <time>2020-01-05T09:47:46Z</time>
      </trkpt>
      <trkpt lat="48.65772" lon="7.50473">
        <ele>303.3</ele>
        <time>2020-01-05T09:47:48Z</time>
      </trkpt>
      <trkpt lat="48.65775" lon="7.50471">
        <ele>303.7</ele>
        <time>2020-01-05T09:47:51Z</time>
      </trkpt>
      <trkpt lat="48.65778" lon="7.50468">
        <ele>304.2</ele>
        <time>2020-01-05T09:47:55Z</time>
      </trkpt>
      <trkpt lat="48.65781" lon="7.50466">
        <ele>304.7</ele>
        <time>2020-01-05T09:47:58Z</time>
      </trkpt>
      <trkpt lat="48.65783" lon="7.50463">
        <ele>305.1</ele>
        <time>2020-01-05T09:48:01Z</time>
      </trkpt>
      <trkpt lat="48.65786" lon="7.5046">
        <ele>305.7</ele>
        <time>2020-01-05T09:48:04Z</time>
      </trkpt>
      <trkpt lat="48.65789" lon="7.50457">
        <ele>306</ele>
        <time>2020-01-05T09:48:07Z</time>
      </trkpt>
      <trkpt lat="48.65791" lon="7.50455">
        <ele>306.3</ele>
        <time>2020-01-05T09:48:09Z</time>
      </trkpt>
      <trkpt lat="48.65794" lon="7.50453">
        <ele>306.5</ele>
        <time>2020-01-05T09:48:12Z</time>
      </trkpt>
      <trkpt lat="48.65796" lon="7.50451">
        <ele>306.7</ele>
        <time>2020-01-05T09:48:14Z</time>
      </trkpt>
      <trkpt lat="48.65799" lon="7.50449">
        <ele>306.8</ele>
        <time>2020-01-05T09:48:17Z</time>
      </trkpt>
      <trkpt lat="48.65802" lon="7.50446">
        <ele>307</ele>
        <time>2020-01-05T09:48:20Z</time>
      </trkpt>
      <trkpt lat="48.65805" lon="7.50444">
        <ele>307.1</ele>
        <time>2020-01-05T09:48:23Z</time>
      </trkpt>
      <trkpt lat="48.65808" lon="7.50442">
        <ele>307.1</ele>
        <time>2020-01-05T09:48:25Z</time>
      </trkpt>
      <trkpt lat="48.65811" lon="7.50439">
        <ele>307.2</ele>
        <time>2020-01-05T09:48:28Z</time>
      </trkpt>
      <trkpt lat="48.65814" lon="7.50437">
        <ele>307.2</ele>
        <time>2020-01-05T09:48:31Z</time>
      </trkpt>
      <trkpt lat="48.65816" lon="7.50434">
        <ele>307.2</ele>
        <time>2020-01-05T09:48:34Z</time>
      </trkpt>
      <trkpt lat="48.65819" lon="7.50431">
        <ele>307.2</ele>
        <time>2020-01-05T09:48:36Z</time>
      </trkpt>
      <trkpt lat="48.65822" lon="7.50429">
        <ele>307.2</ele>
        <time>2020-01-05T09:48:39Z</time>
      </trkpt>
      <trkpt lat="48.65825" lon="7.50427">
        <ele>307.3</ele>
        <time>2020-01-05T09:48:43Z</time>
      </trkpt>
      <trkpt lat="48.65827" lon="7.50425">
        <ele>307.3</ele>
        <time>2020-01-05T09:48:46Z</time>
      </trkpt>
      <trkpt lat="48.65831" lon="7.50424">
        <ele>307.4</ele>
        <time>2020-01-05T09:48:51Z</time>
      </trkpt>
      <trkpt lat="48.65834" lon="7.50422">
        <ele>307.5</ele>
        <time>2020-01-05T09:48:54Z</time>
      </trkpt>
      <trkpt lat="48.65837" lon="7.50421">
        <ele>307.6</ele>
        <time>2020-01-05T09:48:57Z</time>
      </trkpt>
      <trkpt lat="48.65841" lon="7.5042">
        <ele>307.6</ele>
        <time>2020-01-05T09:49:00Z</time>
      </trkpt>
      <trkpt lat="48.65843" lon="7.50418">
        <ele>307.7</ele>
        <time>2020-01-05T09:49:02Z</time>
      </trkpt>
      <trkpt lat="48.65846" lon="7.50416">
        <ele>307.7</ele>
        <time>2020-01-05T09:49:05Z</time>
      </trkpt>
      <trkpt lat="48.65849" lon="7.50414">
        <ele>307.7</ele>
        <time>2020-01-05T09:49:07Z</time>
      </trkpt>
      <trkpt lat="48.65851" lon="7.5041">
        <ele>307.7</ele>
        <time>2020-01-05T09:49:10Z</time>
      </trkpt>
      <trkpt lat="48.65854" lon="7.50408">
        <ele>307.6</ele>
        <time>2020-01-05T09:49:14Z</time>
      </trkpt>
      <trkpt lat="48.65857" lon="7.50406">
        <ele>307.5</ele>
        <time>2020-01-05T09:49:19Z</time>
      </trkpt>
      <trkpt lat="48.65861" lon="7.50404">
        <ele>307.4</ele>
        <time>2020-01-05T09:49:22Z</time>
      </trkpt>
      <trkpt lat="48.65864" lon="7.50402">
        <ele>307.4</ele>
        <time>2020-01-05T09:49:25Z</time>
      </trkpt>
      <trkpt lat="48.65867" lon="7.50402">
        <ele>307.5</ele>
        <time>2020-01-05T09:49:27Z</time>
      </trkpt>
      <trkpt lat="48.6587" lon="7.50399">
        <ele>307.6</ele>
        <time>2020-01-05T09:49:31Z</time>
      </trkpt>
      <trkpt lat="48.65872" lon="7.50398">
        <ele>307.6</ele>
        <time>2020-01-05T09:49:33Z</time>
      </trkpt>
      <trkpt lat="48.65876" lon="7.50397">
        <ele>307.7</ele>
        <time>2020-01-05T09:49:35Z</time>
      </trkpt>
      <trkpt lat="48.65878" lon="7.50395">
        <ele>307.8</ele>
        <time>2020-01-05T09:49:37Z</time>
      </trkpt>
      <trkpt lat="48.65881" lon="7.50393">
        <ele>307.9</ele>
        <time>2020-01-05T09:49:40Z</time>
      </trkpt>
      <trkpt lat="48.65884" lon="7.5039">
        <ele>307.9</ele>
        <time>2020-01-05T09:49:46Z</time>
      </trkpt>
      <trkpt lat="48.65887" lon="7.50387">
        <ele>308</ele>
        <time>2020-01-05T09:49:49Z</time>
      </trkpt>
      <trkpt lat="48.65891" lon="7.50384">
        <ele>308.1</ele>
        <time>2020-01-05T09:49:52Z</time>
      </trkpt>
      <trkpt lat="48.65894" lon="7.50383">
        <ele>308.2</ele>
        <time>2020-01-05T09:49:54Z</time>
      </trkpt>
      <trkpt lat="48.65897" lon="7.50381">
        <ele>308.2</ele>
        <time>2020-01-05T09:49:57Z</time>
      </trkpt>
      <trkpt lat="48.65899" lon="7.50379">
        <ele>308.3</ele>
        <time>2020-01-05T09:50:02Z</time>
      </trkpt>
      <trkpt lat="48.65903" lon="7.50378">
        <ele>308.4</ele>
        <time>2020-01-05T09:50:05Z</time>
      </trkpt>
      <trkpt lat="48.65906" lon="7.50377">
        <ele>308.5</ele>
        <time>2020-01-05T09:50:08Z</time>
      </trkpt>
      <trkpt lat="48.6591" lon="7.50374">
        <ele>308.7</ele>
        <time>2020-01-05T09:50:11Z</time>
      </trkpt>
      <trkpt lat="48.65912" lon="7.50373">
        <ele>308.7</ele>
        <time>2020-01-05T09:50:14Z</time>
      </trkpt>
      <trkpt lat="48.65916" lon="7.50372">
        <ele>308.8</ele>
        <time>2020-01-05T09:50:17Z</time>
      </trkpt>
      <trkpt lat="48.65918" lon="7.50369">
        <ele>308.9</ele>
        <time>2020-01-05T09:50:20Z</time>
      </trkpt>
      <trkpt lat="48.65921" lon="7.50368">
        <ele>308.9</ele>
        <time>2020-01-05T09:50:23Z</time>
      </trkpt>
      <trkpt lat="48.65924" lon="7.50367">
        <ele>309</ele>
        <time>2020-01-05T09:50:26Z</time>
      </trkpt>
      <trkpt lat="48.65927" lon="7.50371">
        <ele>309</ele>
        <time>2020-01-05T09:50:47Z</time>
      </trkpt>
      <trkpt lat="48.6593" lon="7.50375">
        <ele>309</ele>
        <time>2020-01-05T09:50:50Z</time>
      </trkpt>
      <trkpt lat="48.65932" lon="7.50379">
        <ele>309</ele>
        <time>2020-01-05T09:50:53Z</time>
      </trkpt>
      <trkpt lat="48.65933" lon="7.50384">
        <ele>309</ele>
        <time>2020-01-05T09:50:56Z</time>
      </trkpt>
      <trkpt lat="48.65931" lon="7.5038">
        <ele>309</ele>
        <time>2020-01-05T09:51:22Z</time>
      </trkpt>
      <trkpt lat="48.65928" lon="7.50376">
        <ele>309</ele>
        <time>2020-01-05T09:51:25Z</time>
      </trkpt>
      <trkpt lat="48.65926" lon="7.50373">
        <ele>309</ele>
        <time>2020-01-05T09:51:29Z</time>
      </trkpt>
      <trkpt lat="48.65926" lon="7.50369">
        <ele>309</ele>
        <time>2020-01-05T09:52:00Z</time>
      </trkpt>
      <trkpt lat="48.65927" lon="7.50365">
        <ele>308.9</ele>
        <time>2020-01-05T09:52:07Z</time>
      </trkpt>
      <trkpt lat="48.65928" lon="7.50361">
        <ele>308.9</ele>
        <time>2020-01-05T09:52:16Z</time>
      </trkpt>
      <trkpt lat="48.65929" lon="7.50357">
        <ele>308.9</ele>
        <time>2020-01-05T09:52:24Z</time>
      </trkpt>
      <trkpt lat="48.65932" lon="7.50355">
        <ele>308.9</ele>
        <time>2020-01-05T09:52:30Z</time>
      </trkpt>
      <trkpt lat="48.65934" lon="7.50352">
        <ele>308.9</ele>
        <time>2020-01-05T09:52:34Z</time>
      </trkpt>
      <trkpt lat="48.65937" lon="7.5035">
        <ele>308.9</ele>
        <time>2020-01-05T09:52:38Z</time>
      </trkpt>
      <trkpt lat="48.6594" lon="7.50349">
        <ele>308.9</ele>
        <time>2020-01-05T09:52:40Z</time>
      </trkpt>
      <trkpt lat="48.65944" lon="7.50347">
        <ele>308.9</ele>
        <time>2020-01-05T09:52:43Z</time>
      </trkpt>
      <trkpt lat="48.65946" lon="7.50345">
        <ele>308.9</ele>
        <time>2020-01-05T09:52:45Z</time>
      </trkpt>
      <trkpt lat="48.65948" lon="7.50343">
        <ele>308.9</ele>
        <time>2020-01-05T09:52:48Z</time>
      </trkpt>
      <trkpt lat="48.65951" lon="7.50339">
        <ele>308.8</ele>
        <time>2020-01-05T09:52:51Z</time>
      </trkpt>
      <trkpt lat="48.65954" lon="7.50338">
        <ele>308.7</ele>
        <time>2020-01-05T09:52:56Z</time>
      </trkpt>
      <trkpt lat="48.65957" lon="7.50335">
        <ele>308.6</ele>
        <time>2020-01-05T09:52:59Z</time>
      </trkpt>
      <trkpt lat="48.65959" lon="7.50333">
        <ele>308.5</ele>
        <time>2020-01-05T09:53:02Z</time>
      </trkpt>
      <trkpt lat="48.65962" lon="7.50331">
        <ele>308.4</ele>
        <time>2020-01-05T09:53:06Z</time>
      </trkpt>
      <trkpt lat="48.65965" lon="7.50327">
        <ele>308.3</ele>
        <time>2020-01-05T09:53:10Z</time>
      </trkpt>
      <trkpt lat="48.65967" lon="7.50324">
        <ele>308.3</ele>
        <time>2020-01-05T09:53:13Z</time>
      </trkpt>
      <trkpt lat="48.6597" lon="7.50321">
        <ele>308.2</ele>
        <time>2020-01-05T09:53:17Z</time>
      </trkpt>
      <trkpt lat="48.65973" lon="7.5032">
        <ele>308.2</ele>
        <time>2020-01-05T09:53:20Z</time>
      </trkpt>
      <trkpt lat="48.65977" lon="7.50317">
        <ele>308.1</ele>
        <time>2020-01-05T09:53:23Z</time>
      </trkpt>
      <trkpt lat="48.65979" lon="7.50315">
        <ele>308.1</ele>
        <time>2020-01-05T09:53:27Z</time>
      </trkpt>
      <trkpt lat="48.65982" lon="7.50314">
        <ele>308.1</ele>
        <time>2020-01-05T09:53:30Z</time>
      </trkpt>
      <trkpt lat="48.65984" lon="7.5031">
        <ele>308.1</ele>
        <time>2020-01-05T09:53:32Z</time>
      </trkpt>
      <trkpt lat="48.65986" lon="7.50306">
        <ele>308</ele>
        <time>2020-01-05T09:53:34Z</time>
      </trkpt>
      <trkpt lat="48.65989" lon="7.50304">
        <ele>308</ele>
        <time>2020-01-05T09:53:36Z</time>
      </trkpt>
      <trkpt lat="48.65992" lon="7.50302">
        <ele>308</ele>
        <time>2020-01-05T09:53:39Z</time>
      </trkpt>
      <trkpt lat="48.65995" lon="7.503">
        <ele>308</ele>
        <time>2020-01-05T09:53:43Z</time>
      </trkpt>
      <trkpt lat="48.65999" lon="7.50298">
        <ele>308</ele>
        <time>2020-01-05T09:53:46Z</time>
      </trkpt>
      <trkpt lat="48.66001" lon="7.50296">
        <ele>308</ele>
        <time>2020-01-05T09:53:48Z</time>
      </trkpt>
      <trkpt lat="48.66004" lon="7.50296">
        <ele>308</ele>
        <time>2020-01-05T09:53:51Z</time>
      </trkpt>
      <trkpt lat="48.66006" lon="7.50294">
        <ele>308</ele>
        <time>2020-01-05T09:53:53Z</time>
      </trkpt>
      <trkpt lat="48.66009" lon="7.50292">
        <ele>308</ele>
        <time>2020-01-05T09:53:57Z</time>
      </trkpt>
      <trkpt lat="48.66011" lon="7.50289">
        <ele>308</ele>
        <time>2020-01-05T09:54:00Z</time>
      </trkpt>
      <trkpt lat="48.66014" lon="7.50287">
        <ele>308</ele>
        <time>2020-01-05T09:54:03Z</time>
      </trkpt>
      <trkpt lat="48.66017" lon="7.50285">
        <ele>308.1</ele>
        <time>2020-01-05T09:54:05Z</time>
      </trkpt>
      <trkpt lat="48.66021" lon="7.50286">
        <ele>308.1</ele>
        <time>2020-01-05T09:54:08Z</time>
      </trkpt>
      <trkpt lat="48.66023" lon="7.50283">
        <ele>308.1</ele>
        <time>2020-01-05T09:54:11Z</time>
      </trkpt>
      <trkpt lat="48.66026" lon="7.5028">
        <ele>308.1</ele>
        <time>2020-01-05T09:54:14Z</time>
      </trkpt>
      <trkpt lat="48.66028" lon="7.50277">
        <ele>308.1</ele>
        <time>2020-01-05T09:54:17Z</time>
      </trkpt>
      <trkpt lat="48.66031" lon="7.50275">
        <ele>308.1</ele>
        <time>2020-01-05T09:54:20Z</time>
      </trkpt>
      <trkpt lat="48.66034" lon="7.50273">
        <ele>308.1</ele>
        <time>2020-01-05T09:54:22Z</time>
      </trkpt>
      <trkpt lat="48.66037" lon="7.50272">
        <ele>308.1</ele>
        <time>2020-01-05T09:54:26Z</time>
      </trkpt>
      <trkpt lat="48.6604" lon="7.50268">
        <ele>308.1</ele>
        <time>2020-01-05T09:54:30Z</time>
      </trkpt>
      <trkpt lat="48.66043" lon="7.50266">
        <ele>308.1</ele>
        <time>2020-01-05T09:54:34Z</time>
      </trkpt>
      <trkpt lat="48.66046" lon="7.50262">
        <ele>308.1</ele>
        <time>2020-01-05T09:54:38Z</time>
      </trkpt>
      <trkpt lat="48.66048" lon="7.50259">
        <ele>308.1</ele>
        <time>2020-01-05T09:54:42Z</time>
      </trkpt>
      <trkpt lat="48.66051" lon="7.50258">
        <ele>308.1</ele>
        <time>2020-01-05T09:54:44Z</time>
      </trkpt>
      <trkpt lat="48.66054" lon="7.50256">
        <ele>308.1</ele>
        <time>2020-01-05T09:54:47Z</time>
      </trkpt>
      <trkpt lat="48.66057" lon="7.50254">
        <ele>308.1</ele>
        <time>2020-01-05T09:54:50Z</time>
      </trkpt>
      <trkpt lat="48.6606" lon="7.50252">
        <ele>308.1</ele>
        <time>2020-01-05T09:54:54Z</time>
      </trkpt>
      <trkpt lat="48.66063" lon="7.5025">
        <ele>308.1</ele>
        <time>2020-01-05T09:54:57Z</time>
      </trkpt>
      <trkpt lat="48.66065" lon="7.50247">
        <ele>308.1</ele>
        <time>2020-01-05T09:54:59Z</time>
      </trkpt>
      <trkpt lat="48.66068" lon="7.50245">
        <ele>308.1</ele>
        <time>2020-01-05T09:55:02Z</time>
      </trkpt>
      <trkpt lat="48.66071" lon="7.50241">
        <ele>308.1</ele>
        <time>2020-01-05T09:55:05Z</time>
      </trkpt>
      <trkpt lat="48.66073" lon="7.50239">
        <ele>308.1</ele>
        <time>2020-01-05T09:55:08Z</time>
      </trkpt>
      <trkpt lat="48.66077" lon="7.50236">
        <ele>308</ele>
        <time>2020-01-05T09:55:11Z</time>
      </trkpt>
      <trkpt lat="48.6608" lon="7.50233">
        <ele>307.9</ele>
        <time>2020-01-05T09:55:15Z</time>
      </trkpt>
      <trkpt lat="48.66083" lon="7.50229">
        <ele>307.8</ele>
        <time>2020-01-05T09:55:18Z</time>
      </trkpt>
      <trkpt lat="48.66086" lon="7.50226">
        <ele>307.7</ele>
        <time>2020-01-05T09:55:21Z</time>
      </trkpt>
      <trkpt lat="48.66088" lon="7.50222">
        <ele>307.6</ele>
        <time>2020-01-05T09:55:26Z</time>
      </trkpt>
      <trkpt lat="48.66091" lon="7.5022">
        <ele>307.5</ele>
        <time>2020-01-05T09:55:29Z</time>
      </trkpt>
      <trkpt lat="48.66094" lon="7.50219">
        <ele>307.4</ele>
        <time>2020-01-05T09:55:32Z</time>
      </trkpt>
      <trkpt lat="48.66096" lon="7.50216">
        <ele>307.2</ele>
        <time>2020-01-05T09:55:35Z</time>
      </trkpt>
      <trkpt lat="48.66096" lon="7.50211">
        <ele>307.1</ele>
        <time>2020-01-05T09:55:45Z</time>
      </trkpt>
      <trkpt lat="48.66099" lon="7.50206">
        <ele>306.9</ele>
        <time>2020-01-05T09:55:49Z</time>
      </trkpt>
      <trkpt lat="48.66102" lon="7.50204">
        <ele>306.7</ele>
        <time>2020-01-05T09:55:53Z</time>
      </trkpt>
      <trkpt lat="48.66104" lon="7.50203">
        <ele>306.5</ele>
        <time>2020-01-05T09:55:56Z</time>
      </trkpt>
      <trkpt lat="48.66107" lon="7.50203">
        <ele>306.3</ele>
        <time>2020-01-05T09:55:58Z</time>
      </trkpt>
      <trkpt lat="48.6611" lon="7.50201">
        <ele>306.1</ele>
        <time>2020-01-05T09:56:01Z</time>
      </trkpt>
      <trkpt lat="48.66112" lon="7.50198">
        <ele>305.9</ele>
        <time>2020-01-05T09:56:03Z</time>
      </trkpt>
      <trkpt lat="48.66115" lon="7.50195">
        <ele>305.6</ele>
        <time>2020-01-05T09:56:06Z</time>
      </trkpt>
      <trkpt lat="48.66118" lon="7.50194">
        <ele>305.3</ele>
        <time>2020-01-05T09:56:09Z</time>
      </trkpt>
      <trkpt lat="48.66122" lon="7.50193">
        <ele>305</ele>
        <time>2020-01-05T09:56:12Z</time>
      </trkpt>
      <trkpt lat="48.66123" lon="7.5019">
        <ele>304.8</ele>
        <time>2020-01-05T09:56:15Z</time>
      </trkpt>
      <trkpt lat="48.66127" lon="7.50188">
        <ele>304.5</ele>
        <time>2020-01-05T09:56:18Z</time>
      </trkpt>
      <trkpt lat="48.66128" lon="7.50184">
        <ele>304.3</ele>
        <time>2020-01-05T09:56:21Z</time>
      </trkpt>
      <trkpt lat="48.66131" lon="7.50181">
        <ele>304</ele>
        <time>2020-01-05T09:56:25Z</time>
      </trkpt>
      <trkpt lat="48.66134" lon="7.50182">
        <ele>303.8</ele>
        <time>2020-01-05T09:56:27Z</time>
      </trkpt>
      <trkpt lat="48.66137" lon="7.50179">
        <ele>303.5</ele>
        <time>2020-01-05T09:56:33Z</time>
      </trkpt>
      <trkpt lat="48.6614" lon="7.50176">
        <ele>303.3</ele>
        <time>2020-01-05T09:56:36Z</time>
      </trkpt>
      <trkpt lat="48.66142" lon="7.50173">
        <ele>303.1</ele>
        <time>2020-01-05T09:56:39Z</time>
      </trkpt>
      <trkpt lat="48.66145" lon="7.50169">
        <ele>302.9</ele>
        <time>2020-01-05T09:56:42Z</time>
      </trkpt>
      <trkpt lat="48.66148" lon="7.50167">
        <ele>302.7</ele>
        <time>2020-01-05T09:56:45Z</time>
      </trkpt>
      <trkpt lat="48.66151" lon="7.50166">
        <ele>302.5</ele>
        <time>2020-01-05T09:56:48Z</time>
      </trkpt>
      <trkpt lat="48.66153" lon="7.50163">
        <ele>302.4</ele>
        <time>2020-01-05T09:56:51Z</time>
      </trkpt>
      <trkpt lat="48.66157" lon="7.50161">
        <ele>302.2</ele>
        <time>2020-01-05T09:56:55Z</time>
      </trkpt>
      <trkpt lat="48.66158" lon="7.50158">
        <ele>302.1</ele>
        <time>2020-01-05T09:56:58Z</time>
      </trkpt>
      <trkpt lat="48.6616" lon="7.50154">
        <ele>302</ele>
        <time>2020-01-05T09:57:01Z</time>
      </trkpt>
      <trkpt lat="48.66163" lon="7.50151">
        <ele>301.9</ele>
        <time>2020-01-05T09:57:05Z</time>
      </trkpt>
      <trkpt lat="48.66166" lon="7.5015">
        <ele>301.8</ele>
        <time>2020-01-05T09:57:08Z</time>
      </trkpt>
      <trkpt lat="48.66169" lon="7.50147">
        <ele>301.7</ele>
        <time>2020-01-05T09:57:12Z</time>
      </trkpt>
      <trkpt lat="48.66171" lon="7.50145">
        <ele>301.6</ele>
        <time>2020-01-05T09:57:15Z</time>
      </trkpt>
      <trkpt lat="48.66173" lon="7.50143">
        <ele>301.5</ele>
        <time>2020-01-05T09:57:17Z</time>
      </trkpt>
      <trkpt lat="48.66176" lon="7.50139">
        <ele>301.3</ele>
        <time>2020-01-05T09:57:20Z</time>
      </trkpt>
      <trkpt lat="48.66179" lon="7.50137">
        <ele>301.2</ele>
        <time>2020-01-05T09:57:23Z</time>
      </trkpt>
      <trkpt lat="48.66181" lon="7.50133">
        <ele>301.1</ele>
        <time>2020-01-05T09:57:26Z</time>
      </trkpt>
      <trkpt lat="48.66184" lon="7.5013">
        <ele>300.9</ele>
        <time>2020-01-05T09:57:30Z</time>
      </trkpt>
      <trkpt lat="48.66187" lon="7.50127">
        <ele>300.8</ele>
        <time>2020-01-05T09:57:34Z</time>
      </trkpt>
      <trkpt lat="48.6619" lon="7.50127">
        <ele>300.6</ele>
        <time>2020-01-05T09:57:36Z</time>
      </trkpt>
      <trkpt lat="48.66193" lon="7.50124">
        <ele>300.5</ele>
        <time>2020-01-05T09:57:39Z</time>
      </trkpt>
      <trkpt lat="48.66196" lon="7.50121">
        <ele>300.3</ele>
        <time>2020-01-05T09:57:42Z</time>
      </trkpt>
      <trkpt lat="48.66198" lon="7.50118">
        <ele>300.2</ele>
        <time>2020-01-05T09:57:45Z</time>
      </trkpt>
      <trkpt lat="48.662" lon="7.50114">
        <ele>300.1</ele>
        <time>2020-01-05T09:57:49Z</time>
      </trkpt>
      <trkpt lat="48.66204" lon="7.50114">
        <ele>300</ele>
        <time>2020-01-05T09:57:53Z</time>
      </trkpt>
      <trkpt lat="48.66206" lon="7.5011">
        <ele>299.9</ele>
        <time>2020-01-05T09:57:56Z</time>
      </trkpt>
      <trkpt lat="48.66209" lon="7.50106">
        <ele>299.8</ele>
        <time>2020-01-05T09:57:59Z</time>
      </trkpt>
      <trkpt lat="48.66212" lon="7.50103">
        <ele>299.8</ele>
        <time>2020-01-05T09:58:02Z</time>
      </trkpt>
      <trkpt lat="48.66214" lon="7.50101">
        <ele>299.7</ele>
        <time>2020-01-05T09:58:06Z</time>
      </trkpt>
      <trkpt lat="48.66217" lon="7.50099">
        <ele>299.7</ele>
        <time>2020-01-05T09:58:09Z</time>
      </trkpt>
      <trkpt lat="48.6622" lon="7.50097">
        <ele>299.6</ele>
        <time>2020-01-05T09:58:13Z</time>
      </trkpt>
      <trkpt lat="48.66224" lon="7.50096">
        <ele>299.6</ele>
        <time>2020-01-05T09:58:19Z</time>
      </trkpt>
      <trkpt lat="48.66226" lon="7.50092">
        <ele>299.6</ele>
        <time>2020-01-05T09:58:23Z</time>
      </trkpt>
      <trkpt lat="48.66228" lon="7.50087">
        <ele>299.6</ele>
        <time>2020-01-05T09:58:28Z</time>
      </trkpt>
      <trkpt lat="48.66231" lon="7.5009">
        <ele>299.6</ele>
        <time>2020-01-05T09:58:46Z</time>
      </trkpt>
      <trkpt lat="48.66234" lon="7.50093">
        <ele>299.5</ele>
        <time>2020-01-05T09:58:49Z</time>
      </trkpt>
      <trkpt lat="48.66234" lon="7.50097">
        <ele>299.5</ele>
        <time>2020-01-05T09:58:53Z</time>
      </trkpt>
      <trkpt lat="48.66237" lon="7.501">
        <ele>299.4</ele>
        <time>2020-01-05T09:58:57Z</time>
      </trkpt>
      <trkpt lat="48.66239" lon="7.50102">
        <ele>299.4</ele>
        <time>2020-01-05T09:59:00Z</time>
      </trkpt>
      <trkpt lat="48.66241" lon="7.50106">
        <ele>299.3</ele>
        <time>2020-01-05T09:59:03Z</time>
      </trkpt>
      <trkpt lat="48.66243" lon="7.5011">
        <ele>299.2</ele>
        <time>2020-01-05T09:59:06Z</time>
      </trkpt>
      <trkpt lat="48.66244" lon="7.50114">
        <ele>299.2</ele>
        <time>2020-01-05T09:59:10Z</time>
      </trkpt>
      <trkpt lat="48.66245" lon="7.50119">
        <ele>299.1</ele>
        <time>2020-01-05T09:59:12Z</time>
      </trkpt>
      <trkpt lat="48.66246" lon="7.50123">
        <ele>299.1</ele>
        <time>2020-01-05T09:59:14Z</time>
      </trkpt>
      <trkpt lat="48.66247" lon="7.50128">
        <ele>299</ele>
        <time>2020-01-05T09:59:17Z</time>
      </trkpt>
      <trkpt lat="48.66248" lon="7.50132">
        <ele>298.9</ele>
        <time>2020-01-05T09:59:21Z</time>
      </trkpt>
      <trkpt lat="48.6625" lon="7.50135">
        <ele>298.9</ele>
        <time>2020-01-05T09:59:25Z</time>
      </trkpt>
      <trkpt lat="48.66251" lon="7.50141">
        <ele>298.7</ele>
        <time>2020-01-05T09:59:28Z</time>
      </trkpt>
      <trkpt lat="48.66253" lon="7.50145">
        <ele>298.7</ele>
        <time>2020-01-05T09:59:44Z</time>
      </trkpt>
      <trkpt lat="48.66254" lon="7.50149">
        <ele>298.6</ele>
        <time>2020-01-05T09:59:50Z</time>
      </trkpt>
      <trkpt lat="48.66256" lon="7.50153">
        <ele>298.5</ele>
        <time>2020-01-05T09:59:53Z</time>
      </trkpt>
      <trkpt lat="48.66257" lon="7.50156">
        <ele>298.4</ele>
        <time>2020-01-05T09:59:55Z</time>
      </trkpt>
      <trkpt lat="48.66258" lon="7.50161">
        <ele>298.3</ele>
        <time>2020-01-05T09:59:59Z</time>
      </trkpt>
      <trkpt lat="48.66259" lon="7.50167">
        <ele>298.2</ele>
        <time>2020-01-05T10:00:02Z</time>
      </trkpt>
      <trkpt lat="48.6626" lon="7.50172">
        <ele>298.1</ele>
        <time>2020-01-05T10:00:05Z</time>
      </trkpt>
      <trkpt lat="48.66261" lon="7.50175">
        <ele>298</ele>
        <time>2020-01-05T10:00:08Z</time>
      </trkpt>
      <trkpt lat="48.66263" lon="7.5018">
        <ele>297.9</ele>
        <time>2020-01-05T10:00:12Z</time>
      </trkpt>
      <trkpt lat="48.66265" lon="7.50184">
        <ele>297.8</ele>
        <time>2020-01-05T10:00:15Z</time>
      </trkpt>
      <trkpt lat="48.66266" lon="7.50188">
        <ele>297.7</ele>
        <time>2020-01-05T10:00:17Z</time>
      </trkpt>
      <trkpt lat="48.66267" lon="7.50193">
        <ele>297.6</ele>
        <time>2020-01-05T10:00:20Z</time>
      </trkpt>
      <trkpt lat="48.66269" lon="7.50197">
        <ele>297.5</ele>
        <time>2020-01-05T10:00:24Z</time>
      </trkpt>
      <trkpt lat="48.66271" lon="7.50202">
        <ele>297.4</ele>
        <time>2020-01-05T10:00:27Z</time>
      </trkpt>
      <trkpt lat="48.66272" lon="7.50206">
        <ele>297.3</ele>
        <time>2020-01-05T10:00:30Z</time>
      </trkpt>
      <trkpt lat="48.66274" lon="7.50212">
        <ele>297.2</ele>
        <time>2020-01-05T10:00:33Z</time>
      </trkpt>
      <trkpt lat="48.66275" lon="7.50218">
        <ele>297.1</ele>
        <time>2020-01-05T10:00:36Z</time>
      </trkpt>
      <trkpt lat="48.66276" lon="7.50222">
        <ele>296.9</ele>
        <time>2020-01-05T10:00:39Z</time>
      </trkpt>
      <trkpt lat="48.66277" lon="7.50227">
        <ele>296.8</ele>
        <time>2020-01-05T10:00:42Z</time>
      </trkpt>
      <trkpt lat="48.66279" lon="7.50231">
        <ele>296.7</ele>
        <time>2020-01-05T10:00:45Z</time>
      </trkpt>
      <trkpt lat="48.66281" lon="7.50235">
        <ele>296.5</ele>
        <time>2020-01-05T10:00:48Z</time>
      </trkpt>
      <trkpt lat="48.66282" lon="7.50239">
        <ele>296.4</ele>
        <time>2020-01-05T10:00:50Z</time>
      </trkpt>
      <trkpt lat="48.66283" lon="7.50243">
        <ele>296.3</ele>
        <time>2020-01-05T10:00:53Z</time>
      </trkpt>
      <trkpt lat="48.66284" lon="7.50248">
        <ele>296.2</ele>
        <time>2020-01-05T10:00:55Z</time>
      </trkpt>
      <trkpt lat="48.66284" lon="7.50253">
        <ele>296.1</ele>
        <time>2020-01-05T10:00:58Z</time>
      </trkpt>
      <trkpt lat="48.66286" lon="7.50257">
        <ele>296</ele>
        <time>2020-01-05T10:01:01Z</time>
      </trkpt>
      <trkpt lat="48.66289" lon="7.50261">
        <ele>295.9</ele>
        <time>2020-01-05T10:01:04Z</time>
      </trkpt>
      <trkpt lat="48.6629" lon="7.50266">
        <ele>295.7</ele>
        <time>2020-01-05T10:01:07Z</time>
      </trkpt>
      <trkpt lat="48.66292" lon="7.50271">
        <ele>295.6</ele>
        <time>2020-01-05T10:01:10Z</time>
      </trkpt>
      <trkpt lat="48.66292" lon="7.50275">
        <ele>295.5</ele>
        <time>2020-01-05T10:01:13Z</time>
      </trkpt>
      <trkpt lat="48.66294" lon="7.50279">
        <ele>295.4</ele>
        <time>2020-01-05T10:01:18Z</time>
      </trkpt>
      <trkpt lat="48.66296" lon="7.50284">
        <ele>295.3</ele>
        <time>2020-01-05T10:01:21Z</time>
      </trkpt>
      <trkpt lat="48.66297" lon="7.5029">
        <ele>295.3</ele>
        <time>2020-01-05T10:01:24Z</time>
      </trkpt>
      <trkpt lat="48.66298" lon="7.50294">
        <ele>295.2</ele>
        <time>2020-01-05T10:01:26Z</time>
      </trkpt>
      <trkpt lat="48.663" lon="7.50298">
        <ele>295.1</ele>
        <time>2020-01-05T10:01:29Z</time>
      </trkpt>
      <trkpt lat="48.66301" lon="7.50304">
        <ele>295</ele>
        <time>2020-01-05T10:01:32Z</time>
      </trkpt>
      <trkpt lat="48.66302" lon="7.50308">
        <ele>295</ele>
        <time>2020-01-05T10:01:36Z</time>
      </trkpt>
      <trkpt lat="48.66304" lon="7.50314">
        <ele>294.8</ele>
        <time>2020-01-05T10:01:39Z</time>
      </trkpt>
      <trkpt lat="48.66305" lon="7.50319">
        <ele>294.7</ele>
        <time>2020-01-05T10:01:42Z</time>
      </trkpt>
      <trkpt lat="48.66307" lon="7.50323">
        <ele>294.7</ele>
        <time>2020-01-05T10:01:45Z</time>
      </trkpt>
      <trkpt lat="48.66308" lon="7.50327">
        <ele>294.6</ele>
        <time>2020-01-05T10:01:47Z</time>
      </trkpt>
      <trkpt lat="48.6631" lon="7.50332">
        <ele>294.5</ele>
        <time>2020-01-05T10:01:50Z</time>
      </trkpt>
      <trkpt lat="48.6631" lon="7.50336">
        <ele>294.5</ele>
        <time>2020-01-05T10:01:52Z</time>
      </trkpt>
      <trkpt lat="48.66312" lon="7.5034">
        <ele>294.4</ele>
        <time>2020-01-05T10:01:54Z</time>
      </trkpt>
      <trkpt lat="48.66314" lon="7.50343">
        <ele>294.4</ele>
        <time>2020-01-05T10:01:58Z</time>
      </trkpt>
      <trkpt lat="48.66317" lon="7.50347">
        <ele>294.4</ele>
        <time>2020-01-05T10:02:01Z</time>
      </trkpt>
      <trkpt lat="48.66319" lon="7.50351">
        <ele>294.4</ele>
        <time>2020-01-05T10:02:04Z</time>
      </trkpt>
      <trkpt lat="48.6632" lon="7.50356">
        <ele>294.5</ele>
        <time>2020-01-05T10:02:07Z</time>
      </trkpt>
      <trkpt lat="48.66321" lon="7.5036">
        <ele>294.5</ele>
        <time>2020-01-05T10:02:10Z</time>
      </trkpt>
      <trkpt lat="48.66321" lon="7.50365">
        <ele>294.6</ele>
        <time>2020-01-05T10:02:13Z</time>
      </trkpt>
      <trkpt lat="48.66322" lon="7.50369">
        <ele>294.6</ele>
        <time>2020-01-05T10:02:17Z</time>
      </trkpt>
      <trkpt lat="48.66324" lon="7.50374">
        <ele>294.7</ele>
        <time>2020-01-05T10:02:20Z</time>
      </trkpt>
      <trkpt lat="48.66326" lon="7.50377">
        <ele>294.7</ele>
        <time>2020-01-05T10:02:22Z</time>
      </trkpt>
      <trkpt lat="48.66328" lon="7.50382">
        <ele>294.7</ele>
        <time>2020-01-05T10:02:27Z</time>
      </trkpt>
      <trkpt lat="48.66329" lon="7.50386">
        <ele>294.6</ele>
        <time>2020-01-05T10:02:30Z</time>
      </trkpt>
      <trkpt lat="48.66332" lon="7.50392">
        <ele>294.5</ele>
        <time>2020-01-05T10:02:33Z</time>
      </trkpt>
      <trkpt lat="48.66333" lon="7.50396">
        <ele>294.4</ele>
        <time>2020-01-05T10:02:35Z</time>
      </trkpt>
      <trkpt lat="48.66333" lon="7.50401">
        <ele>294.2</ele>
        <time>2020-01-05T10:02:38Z</time>
      </trkpt>
      <trkpt lat="48.66336" lon="7.50404">
        <ele>294.1</ele>
        <time>2020-01-05T10:02:41Z</time>
      </trkpt>
      <trkpt lat="48.66336" lon="7.50409">
        <ele>293.9</ele>
        <time>2020-01-05T10:02:44Z</time>
      </trkpt>
      <trkpt lat="48.66338" lon="7.50413">
        <ele>293.8</ele>
        <time>2020-01-05T10:02:47Z</time>
      </trkpt>
      <trkpt lat="48.66339" lon="7.50416">
        <ele>293.6</ele>
        <time>2020-01-05T10:02:49Z</time>
      </trkpt>
      <trkpt lat="48.66341" lon="7.50421">
        <ele>293.4</ele>
        <time>2020-01-05T10:02:52Z</time>
      </trkpt>
      <trkpt lat="48.66342" lon="7.50425">
        <ele>293.2</ele>
        <time>2020-01-05T10:02:55Z</time>
      </trkpt>
      <trkpt lat="48.66343" lon="7.50429">
        <ele>293</ele>
        <time>2020-01-05T10:02:58Z</time>
      </trkpt>
      <trkpt lat="48.66345" lon="7.50434">
        <ele>292.6</ele>
        <time>2020-01-05T10:03:00Z</time>
      </trkpt>
      <trkpt lat="48.66346" lon="7.50439">
        <ele>292.3</ele>
        <time>2020-01-05T10:03:03Z</time>
      </trkpt>
      <trkpt lat="48.66348" lon="7.50443">
        <ele>292</ele>
        <time>2020-01-05T10:03:06Z</time>
      </trkpt>
      <trkpt lat="48.66349" lon="7.50447">
        <ele>291.7</ele>
        <time>2020-01-05T10:03:10Z</time>
      </trkpt>
      <trkpt lat="48.66351" lon="7.50453">
        <ele>291.4</ele>
        <time>2020-01-05T10:03:13Z</time>
      </trkpt>
      <trkpt lat="48.66353" lon="7.50457">
        <ele>291.2</ele>
        <time>2020-01-05T10:03:16Z</time>
      </trkpt>
      <trkpt lat="48.66354" lon="7.50462">
        <ele>290.9</ele>
        <time>2020-01-05T10:03:19Z</time>
      </trkpt>
      <trkpt lat="48.66354" lon="7.50466">
        <ele>290.6</ele>
        <time>2020-01-05T10:03:22Z</time>
      </trkpt>
      <trkpt lat="48.66357" lon="7.5047">
        <ele>290.3</ele>
        <time>2020-01-05T10:03:25Z</time>
      </trkpt>
      <trkpt lat="48.66358" lon="7.50474">
        <ele>290.1</ele>
        <time>2020-01-05T10:03:28Z</time>
      </trkpt>
      <trkpt lat="48.6636" lon="7.50479">
        <ele>289.9</ele>
        <time>2020-01-05T10:03:31Z</time>
      </trkpt>
      <trkpt lat="48.66362" lon="7.50484">
        <ele>289.6</ele>
        <time>2020-01-05T10:03:34Z</time>
      </trkpt>
      <trkpt lat="48.66364" lon="7.50489">
        <ele>289.4</ele>
        <time>2020-01-05T10:03:38Z</time>
      </trkpt>
      <trkpt lat="48.66365" lon="7.50493">
        <ele>289.2</ele>
        <time>2020-01-05T10:03:41Z</time>
      </trkpt>
      <trkpt lat="48.66366" lon="7.50498">
        <ele>289</ele>
        <time>2020-01-05T10:03:45Z</time>
      </trkpt>
      <trkpt lat="48.66368" lon="7.50502">
        <ele>288.7</ele>
        <time>2020-01-05T10:03:48Z</time>
      </trkpt>
      <trkpt lat="48.66368" lon="7.50508">
        <ele>288.6</ele>
        <time>2020-01-05T10:03:51Z</time>
      </trkpt>
      <trkpt lat="48.6637" lon="7.50512">
        <ele>288.5</ele>
        <time>2020-01-05T10:03:53Z</time>
      </trkpt>
      <trkpt lat="48.66371" lon="7.50517">
        <ele>288.3</ele>
        <time>2020-01-05T10:03:57Z</time>
      </trkpt>
      <trkpt lat="48.66374" lon="7.50521">
        <ele>287.9</ele>
        <time>2020-01-05T10:04:00Z</time>
      </trkpt>
      <trkpt lat="48.66375" lon="7.50526">
        <ele>287.8</ele>
        <time>2020-01-05T10:04:04Z</time>
      </trkpt>
      <trkpt lat="48.66376" lon="7.5053">
        <ele>287.6</ele>
        <time>2020-01-05T10:04:07Z</time>
      </trkpt>
      <trkpt lat="48.66377" lon="7.50534">
        <ele>287.4</ele>
        <time>2020-01-05T10:04:10Z</time>
      </trkpt>
      <trkpt lat="48.66377" lon="7.50539">
        <ele>287.3</ele>
        <time>2020-01-05T10:04:12Z</time>
      </trkpt>
      <trkpt lat="48.66379" lon="7.50543">
        <ele>287.1</ele>
        <time>2020-01-05T10:04:15Z</time>
      </trkpt>
      <trkpt lat="48.6638" lon="7.50547">
        <ele>286.8</ele>
        <time>2020-01-05T10:04:19Z</time>
      </trkpt>
      <trkpt lat="48.66381" lon="7.50551">
        <ele>286.5</ele>
        <time>2020-01-05T10:04:21Z</time>
      </trkpt>
      <trkpt lat="48.66382" lon="7.50556">
        <ele>286.2</ele>
        <time>2020-01-05T10:04:24Z</time>
      </trkpt>
      <trkpt lat="48.66382" lon="7.5056">
        <ele>285.9</ele>
        <time>2020-01-05T10:04:27Z</time>
      </trkpt>
      <trkpt lat="48.66384" lon="7.50565">
        <ele>285.5</ele>
        <time>2020-01-05T10:04:30Z</time>
      </trkpt>
      <trkpt lat="48.66385" lon="7.50569">
        <ele>285.3</ele>
        <time>2020-01-05T10:04:32Z</time>
      </trkpt>
      <trkpt lat="48.66386" lon="7.50573">
        <ele>284.9</ele>
        <time>2020-01-05T10:04:35Z</time>
      </trkpt>
      <trkpt lat="48.66386" lon="7.50579">
        <ele>284.5</ele>
        <time>2020-01-05T10:04:38Z</time>
      </trkpt>
      <trkpt lat="48.66387" lon="7.50584">
        <ele>284.1</ele>
        <time>2020-01-05T10:04:41Z</time>
      </trkpt>
      <trkpt lat="48.66389" lon="7.50587">
        <ele>283.8</ele>
        <time>2020-01-05T10:04:43Z</time>
      </trkpt>
      <trkpt lat="48.66389" lon="7.50591">
        <ele>283.3</ele>
        <time>2020-01-05T10:04:46Z</time>
      </trkpt>
      <trkpt lat="48.66391" lon="7.50595">
        <ele>282.9</ele>
        <time>2020-01-05T10:04:49Z</time>
      </trkpt>
      <trkpt lat="48.66393" lon="7.50599">
        <ele>282.5</ele>
        <time>2020-01-05T10:04:51Z</time>
      </trkpt>
      <trkpt lat="48.66394" lon="7.50604">
        <ele>281.9</ele>
        <time>2020-01-05T10:04:54Z</time>
      </trkpt>
      <trkpt lat="48.66395" lon="7.50609">
        <ele>281.3</ele>
        <time>2020-01-05T10:04:56Z</time>
      </trkpt>
      <trkpt lat="48.66396" lon="7.50613">
        <ele>280.9</ele>
        <time>2020-01-05T10:05:00Z</time>
      </trkpt>
      <trkpt lat="48.66398" lon="7.50617">
        <ele>280.4</ele>
        <time>2020-01-05T10:05:03Z</time>
      </trkpt>
      <trkpt lat="48.66398" lon="7.50622">
        <ele>279.8</ele>
        <time>2020-01-05T10:05:06Z</time>
      </trkpt>
      <trkpt lat="48.66399" lon="7.50628">
        <ele>279.3</ele>
        <time>2020-01-05T10:05:09Z</time>
      </trkpt>
      <trkpt lat="48.66399" lon="7.50633">
        <ele>278.9</ele>
        <time>2020-01-05T10:05:13Z</time>
      </trkpt>
      <trkpt lat="48.66401" lon="7.50638">
        <ele>278.4</ele>
        <time>2020-01-05T10:05:16Z</time>
      </trkpt>
      <trkpt lat="48.66403" lon="7.50642">
        <ele>277.9</ele>
        <time>2020-01-05T10:05:19Z</time>
      </trkpt>
      <trkpt lat="48.66404" lon="7.50647">
        <ele>277.3</ele>
        <time>2020-01-05T10:05:21Z</time>
      </trkpt>
      <trkpt lat="48.66404" lon="7.50651">
        <ele>276.8</ele>
        <time>2020-01-05T10:05:24Z</time>
      </trkpt>
      <trkpt lat="48.66406" lon="7.50656">
        <ele>276.3</ele>
        <time>2020-01-05T10:05:27Z</time>
      </trkpt>
      <trkpt lat="48.66407" lon="7.50661">
        <ele>275.8</ele>
        <time>2020-01-05T10:05:30Z</time>
      </trkpt>
      <trkpt lat="48.66408" lon="7.50666">
        <ele>275.4</ele>
        <time>2020-01-05T10:05:33Z</time>
      </trkpt>
      <trkpt lat="48.6641" lon="7.5067">
        <ele>275</ele>
        <time>2020-01-05T10:05:36Z</time>
      </trkpt>
      <trkpt lat="48.66412" lon="7.50674">
        <ele>274.6</ele>
        <time>2020-01-05T10:05:39Z</time>
      </trkpt>
      <trkpt lat="48.66413" lon="7.50678">
        <ele>274.3</ele>
        <time>2020-01-05T10:05:42Z</time>
      </trkpt>
      <trkpt lat="48.66413" lon="7.50683">
        <ele>273.9</ele>
        <time>2020-01-05T10:05:45Z</time>
      </trkpt>
      <trkpt lat="48.66415" lon="7.50686">
        <ele>273.5</ele>
        <time>2020-01-05T10:05:48Z</time>
      </trkpt>
      <trkpt lat="48.66417" lon="7.5069">
        <ele>273.1</ele>
        <time>2020-01-05T10:05:50Z</time>
      </trkpt>
      <trkpt lat="48.66418" lon="7.50694">
        <ele>272.7</ele>
        <time>2020-01-05T10:05:53Z</time>
      </trkpt>
      <trkpt lat="48.66417" lon="7.50698">
        <ele>272.3</ele>
        <time>2020-01-05T10:05:57Z</time>
      </trkpt>
      <trkpt lat="48.66418" lon="7.50703">
        <ele>271.8</ele>
        <time>2020-01-05T10:05:59Z</time>
      </trkpt>
      <trkpt lat="48.6642" lon="7.50708">
        <ele>271.2</ele>
        <time>2020-01-05T10:06:03Z</time>
      </trkpt>
      <trkpt lat="48.66422" lon="7.50712">
        <ele>270.8</ele>
        <time>2020-01-05T10:06:06Z</time>
      </trkpt>
      <trkpt lat="48.66422" lon="7.50717">
        <ele>270.3</ele>
        <time>2020-01-05T10:06:09Z</time>
      </trkpt>
      <trkpt lat="48.66423" lon="7.50721">
        <ele>269.9</ele>
        <time>2020-01-05T10:06:12Z</time>
      </trkpt>
      <trkpt lat="48.66423" lon="7.50725">
        <ele>269.5</ele>
        <time>2020-01-05T10:06:15Z</time>
      </trkpt>
      <trkpt lat="48.66423" lon="7.50729">
        <ele>269.1</ele>
        <time>2020-01-05T10:06:17Z</time>
      </trkpt>
      <trkpt lat="48.66425" lon="7.50733">
        <ele>268.7</ele>
        <time>2020-01-05T10:06:19Z</time>
      </trkpt>
      <trkpt lat="48.66427" lon="7.50737">
        <ele>268.2</ele>
        <time>2020-01-05T10:06:21Z</time>
      </trkpt>
      <trkpt lat="48.66428" lon="7.50742">
        <ele>267.8</ele>
        <time>2020-01-05T10:06:24Z</time>
      </trkpt>
      <trkpt lat="48.66429" lon="7.50747">
        <ele>267.5</ele>
        <time>2020-01-05T10:06:26Z</time>
      </trkpt>
      <trkpt lat="48.6643" lon="7.50751">
        <ele>267.1</ele>
        <time>2020-01-05T10:06:28Z</time>
      </trkpt>
      <trkpt lat="48.66431" lon="7.50755">
        <ele>266.8</ele>
        <time>2020-01-05T10:06:31Z</time>
      </trkpt>
      <trkpt lat="48.66432" lon="7.50759">
        <ele>266.4</ele>
        <time>2020-01-05T10:06:35Z</time>
      </trkpt>
      <trkpt lat="48.66433" lon="7.50763">
        <ele>266.1</ele>
        <time>2020-01-05T10:06:37Z</time>
      </trkpt>
      <trkpt lat="48.66434" lon="7.50768">
        <ele>265.6</ele>
        <time>2020-01-05T10:06:40Z</time>
      </trkpt>
      <trkpt lat="48.66434" lon="7.50772">
        <ele>265</ele>
        <time>2020-01-05T10:06:42Z</time>
      </trkpt>
      <trkpt lat="48.66435" lon="7.50776">
        <ele>264.6</ele>
        <time>2020-01-05T10:06:44Z</time>
      </trkpt>
      <trkpt lat="48.66437" lon="7.5078">
        <ele>264.2</ele>
        <time>2020-01-05T10:06:46Z</time>
      </trkpt>
      <trkpt lat="48.66438" lon="7.50784">
        <ele>263.7</ele>
        <time>2020-01-05T10:06:49Z</time>
      </trkpt>
      <trkpt lat="48.6644" lon="7.50789">
        <ele>263.2</ele>
        <time>2020-01-05T10:06:53Z</time>
      </trkpt>
      <trkpt lat="48.66441" lon="7.50793">
        <ele>262.7</ele>
        <time>2020-01-05T10:06:55Z</time>
      </trkpt>
      <trkpt lat="48.66443" lon="7.50799">
        <ele>262.1</ele>
        <time>2020-01-05T10:06:58Z</time>
      </trkpt>
      <trkpt lat="48.66445" lon="7.50805">
        <ele>261.5</ele>
        <time>2020-01-05T10:07:01Z</time>
      </trkpt>
      <trkpt lat="48.66447" lon="7.50809">
        <ele>261</ele>
        <time>2020-01-05T10:07:05Z</time>
      </trkpt>
      <trkpt lat="48.66448" lon="7.50813">
        <ele>260.6</ele>
        <time>2020-01-05T10:07:08Z</time>
      </trkpt>
      <trkpt lat="48.66449" lon="7.50818">
        <ele>260.2</ele>
        <time>2020-01-05T10:07:11Z</time>
      </trkpt>
      <trkpt lat="48.6645" lon="7.50824">
        <ele>259.5</ele>
        <time>2020-01-05T10:07:15Z</time>
      </trkpt>
      <trkpt lat="48.66451" lon="7.50828">
        <ele>259</ele>
        <time>2020-01-05T10:07:18Z</time>
      </trkpt>
      <trkpt lat="48.66454" lon="7.50831">
        <ele>258.5</ele>
        <time>2020-01-05T10:07:20Z</time>
      </trkpt>
      <trkpt lat="48.66455" lon="7.50836">
        <ele>257.9</ele>
        <time>2020-01-05T10:07:24Z</time>
      </trkpt>
      <trkpt lat="48.66456" lon="7.50842">
        <ele>257.2</ele>
        <time>2020-01-05T10:07:27Z</time>
      </trkpt>
      <trkpt lat="48.66458" lon="7.50846">
        <ele>256.7</ele>
        <time>2020-01-05T10:07:31Z</time>
      </trkpt>
      <trkpt lat="48.66459" lon="7.50851">
        <ele>256.2</ele>
        <time>2020-01-05T10:07:34Z</time>
      </trkpt>
      <trkpt lat="48.66461" lon="7.50856">
        <ele>255.5</ele>
        <time>2020-01-05T10:07:37Z</time>
      </trkpt>
      <trkpt lat="48.66463" lon="7.5086">
        <ele>254.9</ele>
        <time>2020-01-05T10:07:39Z</time>
      </trkpt>
      <trkpt lat="48.66465" lon="7.50864">
        <ele>254.5</ele>
        <time>2020-01-05T10:07:41Z</time>
      </trkpt>
      <trkpt lat="48.66466" lon="7.50869">
        <ele>254</ele>
        <time>2020-01-05T10:07:44Z</time>
      </trkpt>
      <trkpt lat="48.66467" lon="7.50874">
        <ele>253.5</ele>
        <time>2020-01-05T10:07:47Z</time>
      </trkpt>
      <trkpt lat="48.66469" lon="7.50877">
        <ele>253</ele>
        <time>2020-01-05T10:07:50Z</time>
      </trkpt>
      <trkpt lat="48.66472" lon="7.50879">
        <ele>252.3</ele>
        <time>2020-01-05T10:07:52Z</time>
      </trkpt>
      <trkpt lat="48.66475" lon="7.50879">
        <ele>251.9</ele>
        <time>2020-01-05T10:07:54Z</time>
      </trkpt>
      <trkpt lat="48.66479" lon="7.50879">
        <ele>251.8</ele>
        <time>2020-01-05T10:07:57Z</time>
      </trkpt>
      <trkpt lat="48.66482" lon="7.50878">
        <ele>251.7</ele>
        <time>2020-01-05T10:08:00Z</time>
      </trkpt>
      <trkpt lat="48.66485" lon="7.50878">
        <ele>251.6</ele>
        <time>2020-01-05T10:08:02Z</time>
      </trkpt>
      <trkpt lat="48.66487" lon="7.50876">
        <ele>251.6</ele>
        <time>2020-01-05T10:08:04Z</time>
      </trkpt>
      <trkpt lat="48.6649" lon="7.50876">
        <ele>251.5</ele>
        <time>2020-01-05T10:08:12Z</time>
      </trkpt>
      <trkpt lat="48.66494" lon="7.50874">
        <ele>251.5</ele>
        <time>2020-01-05T10:08:14Z</time>
      </trkpt>
      <trkpt lat="48.66498" lon="7.50873">
        <ele>251.4</ele>
        <time>2020-01-05T10:08:16Z</time>
      </trkpt>
      <trkpt lat="48.66501" lon="7.5087">
        <ele>251.4</ele>
        <time>2020-01-05T10:08:19Z</time>
      </trkpt>
      <trkpt lat="48.66504" lon="7.50869">
        <ele>251.4</ele>
        <time>2020-01-05T10:08:22Z</time>
      </trkpt>
      <trkpt lat="48.66507" lon="7.50869">
        <ele>251.4</ele>
        <time>2020-01-05T10:08:25Z</time>
      </trkpt>
      <trkpt lat="48.6651" lon="7.50868">
        <ele>251.4</ele>
        <time>2020-01-05T10:08:28Z</time>
      </trkpt>
      <trkpt lat="48.66513" lon="7.50868">
        <ele>251.4</ele>
        <time>2020-01-05T10:08:30Z</time>
      </trkpt>
      <trkpt lat="48.66516" lon="7.50867">
        <ele>251.4</ele>
        <time>2020-01-05T10:08:32Z</time>
      </trkpt>
      <trkpt lat="48.66519" lon="7.50866">
        <ele>251.5</ele>
        <time>2020-01-05T10:08:34Z</time>
      </trkpt>
      <trkpt lat="48.66523" lon="7.50864">
        <ele>251.5</ele>
        <time>2020-01-05T10:08:37Z</time>
      </trkpt>
      <trkpt lat="48.66526" lon="7.50863">
        <ele>251.5</ele>
        <time>2020-01-05T10:08:40Z</time>
      </trkpt>
      <trkpt lat="48.66529" lon="7.50861">
        <ele>251.6</ele>
        <time>2020-01-05T10:08:43Z</time>
      </trkpt>
      <trkpt lat="48.66532" lon="7.50859">
        <ele>251.6</ele>
        <time>2020-01-05T10:08:46Z</time>
      </trkpt>
      <trkpt lat="48.66535" lon="7.50859">
        <ele>251.6</ele>
        <time>2020-01-05T10:08:48Z</time>
      </trkpt>
      <trkpt lat="48.66539" lon="7.50859">
        <ele>251.6</ele>
        <time>2020-01-05T10:08:51Z</time>
      </trkpt>
      <trkpt lat="48.66543" lon="7.50857">
        <ele>251.7</ele>
        <time>2020-01-05T10:08:56Z</time>
      </trkpt>
      <trkpt lat="48.66546" lon="7.50856">
        <ele>251.7</ele>
        <time>2020-01-05T10:08:59Z</time>
      </trkpt>
      <trkpt lat="48.6655" lon="7.50857">
        <ele>251.8</ele>
        <time>2020-01-05T10:09:02Z</time>
      </trkpt>
      <trkpt lat="48.66553" lon="7.50854">
        <ele>251.8</ele>
        <time>2020-01-05T10:09:05Z</time>
      </trkpt>
      <trkpt lat="48.66556" lon="7.50854">
        <ele>251.8</ele>
        <time>2020-01-05T10:09:08Z</time>
      </trkpt>
      <trkpt lat="48.66559" lon="7.50854">
        <ele>251.9</ele>
        <time>2020-01-05T10:09:11Z</time>
      </trkpt>
      <trkpt lat="48.66562" lon="7.50854">
        <ele>251.9</ele>
        <time>2020-01-05T10:09:15Z</time>
      </trkpt>
      <trkpt lat="48.66565" lon="7.50854">
        <ele>251.9</ele>
        <time>2020-01-05T10:09:17Z</time>
      </trkpt>
      <trkpt lat="48.66568" lon="7.50856">
        <ele>251.3</ele>
        <time>2020-01-05T10:09:21Z</time>
      </trkpt>
      <trkpt lat="48.66571" lon="7.50857">
        <ele>250.7</ele>
        <time>2020-01-05T10:09:24Z</time>
      </trkpt>
      <trkpt lat="48.66574" lon="7.50858">
        <ele>250.1</ele>
        <time>2020-01-05T10:09:27Z</time>
      </trkpt>
      <trkpt lat="48.66576" lon="7.50862">
        <ele>249.6</ele>
        <time>2020-01-05T10:09:32Z</time>
      </trkpt>
      <trkpt lat="48.66576" lon="7.50866">
        <ele>249.2</ele>
        <time>2020-01-05T10:09:36Z</time>
      </trkpt>
      <trkpt lat="48.66578" lon="7.50872">
        <ele>248.7</ele>
        <time>2020-01-05T10:09:41Z</time>
      </trkpt>
      <trkpt lat="48.66579" lon="7.50876">
        <ele>248.4</ele>
        <time>2020-01-05T10:09:43Z</time>
      </trkpt>
      <trkpt lat="48.66579" lon="7.5088">
        <ele>248.1</ele>
        <time>2020-01-05T10:09:46Z</time>
      </trkpt>
      <trkpt lat="48.66581" lon="7.50884">
        <ele>247.8</ele>
        <time>2020-01-05T10:09:49Z</time>
      </trkpt>
      <trkpt lat="48.66583" lon="7.50888">
        <ele>247.5</ele>
        <time>2020-01-05T10:09:52Z</time>
      </trkpt>
      <trkpt lat="48.66585" lon="7.50891">
        <ele>247.3</ele>
        <time>2020-01-05T10:09:55Z</time>
      </trkpt>
      <trkpt lat="48.66587" lon="7.50895">
        <ele>247</ele>
        <time>2020-01-05T10:09:58Z</time>
      </trkpt>
      <trkpt lat="48.66589" lon="7.50899">
        <ele>246.8</ele>
        <time>2020-01-05T10:10:00Z</time>
      </trkpt>
      <trkpt lat="48.6659" lon="7.50903">
        <ele>246.6</ele>
        <time>2020-01-05T10:10:04Z</time>
      </trkpt>
      <trkpt lat="48.66591" lon="7.50908">
        <ele>246.3</ele>
        <time>2020-01-05T10:10:07Z</time>
      </trkpt>
      <trkpt lat="48.66593" lon="7.50913">
        <ele>246.1</ele>
        <time>2020-01-05T10:10:10Z</time>
      </trkpt>
      <trkpt lat="48.66597" lon="7.50916">
        <ele>245.8</ele>
        <time>2020-01-05T10:10:13Z</time>
      </trkpt>
      <trkpt lat="48.666" lon="7.50919">
        <ele>245.4</ele>
        <time>2020-01-05T10:10:17Z</time>
      </trkpt>
      <trkpt lat="48.66601" lon="7.50924">
        <ele>245.1</ele>
        <time>2020-01-05T10:10:21Z</time>
      </trkpt>
      <trkpt lat="48.66603" lon="7.50928">
        <ele>244.9</ele>
        <time>2020-01-05T10:10:23Z</time>
      </trkpt>
      <trkpt lat="48.66605" lon="7.50931">
        <ele>244.6</ele>
        <time>2020-01-05T10:10:25Z</time>
      </trkpt>
      <trkpt lat="48.66608" lon="7.50933">
        <ele>244.3</ele>
        <time>2020-01-05T10:10:28Z</time>
      </trkpt>
      <trkpt lat="48.6661" lon="7.50937">
        <ele>244</ele>
        <time>2020-01-05T10:10:29Z</time>
      </trkpt>
      <trkpt lat="48.66612" lon="7.50941">
        <ele>243.6</ele>
        <time>2020-01-05T10:10:32Z</time>
      </trkpt>
      <trkpt lat="48.66613" lon="7.50945">
        <ele>243.3</ele>
        <time>2020-01-05T10:10:34Z</time>
      </trkpt>
      <trkpt lat="48.66614" lon="7.50949">
        <ele>243</ele>
        <time>2020-01-05T10:10:37Z</time>
      </trkpt>
      <trkpt lat="48.66615" lon="7.50954">
        <ele>242.5</ele>
        <time>2020-01-05T10:10:40Z</time>
      </trkpt>
      <trkpt lat="48.66617" lon="7.50958">
        <ele>242.2</ele>
        <time>2020-01-05T10:10:42Z</time>
      </trkpt>
      <trkpt lat="48.66619" lon="7.50961">
        <ele>241.8</ele>
        <time>2020-01-05T10:10:45Z</time>
      </trkpt>
      <trkpt lat="48.66621" lon="7.50964">
        <ele>241.5</ele>
        <time>2020-01-05T10:10:47Z</time>
      </trkpt>
      <trkpt lat="48.66623" lon="7.50968">
        <ele>241.1</ele>
        <time>2020-01-05T10:10:51Z</time>
      </trkpt>
      <trkpt lat="48.66625" lon="7.5097">
        <ele>240.8</ele>
        <time>2020-01-05T10:10:54Z</time>
      </trkpt>
      <trkpt lat="48.66628" lon="7.50973">
        <ele>240.5</ele>
        <time>2020-01-05T10:10:56Z</time>
      </trkpt>
      <trkpt lat="48.6663" lon="7.50976">
        <ele>240.1</ele>
        <time>2020-01-05T10:10:58Z</time>
      </trkpt>
      <trkpt lat="48.66632" lon="7.5098">
        <ele>239.8</ele>
        <time>2020-01-05T10:11:02Z</time>
      </trkpt>
      <trkpt lat="48.66635" lon="7.50984">
        <ele>239.3</ele>
        <time>2020-01-05T10:11:05Z</time>
      </trkpt>
      <trkpt lat="48.66637" lon="7.50988">
        <ele>238.9</ele>
        <time>2020-01-05T10:11:09Z</time>
      </trkpt>
      <trkpt lat="48.6664" lon="7.50991">
        <ele>238.4</ele>
        <time>2020-01-05T10:11:13Z</time>
      </trkpt>
      <trkpt lat="48.66642" lon="7.50995">
        <ele>238.1</ele>
        <time>2020-01-05T10:11:15Z</time>
      </trkpt>
      <trkpt lat="48.66643" lon="7.50999">
        <ele>237.7</ele>
        <time>2020-01-05T10:11:18Z</time>
      </trkpt>
      <trkpt lat="48.66645" lon="7.51002">
        <ele>237.2</ele>
        <time>2020-01-05T10:11:21Z</time>
      </trkpt>
      <trkpt lat="48.66648" lon="7.51004">
        <ele>236.8</ele>
        <time>2020-01-05T10:11:24Z</time>
      </trkpt>
      <trkpt lat="48.66651" lon="7.51006">
        <ele>236.3</ele>
        <time>2020-01-05T10:11:27Z</time>
      </trkpt>
      <trkpt lat="48.66653" lon="7.51011">
        <ele>235.7</ele>
        <time>2020-01-05T10:11:31Z</time>
      </trkpt>
      <trkpt lat="48.66654" lon="7.51014">
        <ele>235.3</ele>
        <time>2020-01-05T10:11:34Z</time>
      </trkpt>
      <trkpt lat="48.66657" lon="7.51018">
        <ele>234.6</ele>
        <time>2020-01-05T10:11:37Z</time>
      </trkpt>
      <trkpt lat="48.6666" lon="7.51021">
        <ele>234</ele>
        <time>2020-01-05T10:11:40Z</time>
      </trkpt>
      <trkpt lat="48.66662" lon="7.51023">
        <ele>233.6</ele>
        <time>2020-01-05T10:11:43Z</time>
      </trkpt>
      <trkpt lat="48.66665" lon="7.51026">
        <ele>233.2</ele>
        <time>2020-01-05T10:11:47Z</time>
      </trkpt>
      <trkpt lat="48.66667" lon="7.51028">
        <ele>232.8</ele>
        <time>2020-01-05T10:11:50Z</time>
      </trkpt>
      <trkpt lat="48.6667" lon="7.5103">
        <ele>232.4</ele>
        <time>2020-01-05T10:11:53Z</time>
      </trkpt>
      <trkpt lat="48.66672" lon="7.51033">
        <ele>232</ele>
        <time>2020-01-05T10:11:56Z</time>
      </trkpt>
      <trkpt lat="48.66675" lon="7.51036">
        <ele>231.6</ele>
        <time>2020-01-05T10:11:59Z</time>
      </trkpt>
      <trkpt lat="48.66677" lon="7.5104">
        <ele>231.1</ele>
        <time>2020-01-05T10:12:03Z</time>
      </trkpt>
      <trkpt lat="48.66679" lon="7.51043">
        <ele>230.8</ele>
        <time>2020-01-05T10:12:06Z</time>
      </trkpt>
      <trkpt lat="48.66681" lon="7.51046">
        <ele>230.4</ele>
        <time>2020-01-05T10:12:09Z</time>
      </trkpt>
      <trkpt lat="48.66684" lon="7.5105">
        <ele>230</ele>
        <time>2020-01-05T10:12:13Z</time>
      </trkpt>
      <trkpt lat="48.66687" lon="7.51052">
        <ele>229.6</ele>
        <time>2020-01-05T10:12:16Z</time>
      </trkpt>
      <trkpt lat="48.66689" lon="7.51054">
        <ele>229.2</ele>
        <time>2020-01-05T10:12:21Z</time>
      </trkpt>
      <trkpt lat="48.66691" lon="7.5106">
        <ele>228.7</ele>
        <time>2020-01-05T10:12:25Z</time>
      </trkpt>
      <trkpt lat="48.66692" lon="7.51066">
        <ele>228.2</ele>
        <time>2020-01-05T10:12:28Z</time>
      </trkpt>
      <trkpt lat="48.66694" lon="7.51069">
        <ele>227.9</ele>
        <time>2020-01-05T10:12:30Z</time>
      </trkpt>
      <trkpt lat="48.66697" lon="7.51072">
        <ele>227.5</ele>
        <time>2020-01-05T10:12:33Z</time>
      </trkpt>
      <trkpt lat="48.667" lon="7.51074">
        <ele>227.2</ele>
        <time>2020-01-05T10:12:36Z</time>
      </trkpt>
      <trkpt lat="48.66703" lon="7.51076">
        <ele>226.9</ele>
        <time>2020-01-05T10:12:40Z</time>
      </trkpt>
      <trkpt lat="48.66705" lon="7.51081">
        <ele>226.6</ele>
        <time>2020-01-05T10:12:43Z</time>
      </trkpt>
      <trkpt lat="48.66707" lon="7.51084">
        <ele>226.3</ele>
        <time>2020-01-05T10:12:46Z</time>
      </trkpt>
      <trkpt lat="48.6671" lon="7.51088">
        <ele>226</ele>
        <time>2020-01-05T10:12:49Z</time>
      </trkpt>
      <trkpt lat="48.66712" lon="7.51092">
        <ele>225.9</ele>
        <time>2020-01-05T10:12:52Z</time>
      </trkpt>
      <trkpt lat="48.66714" lon="7.51096">
        <ele>225.7</ele>
        <time>2020-01-05T10:12:54Z</time>
      </trkpt>
      <trkpt lat="48.66717" lon="7.51099">
        <ele>225.5</ele>
        <time>2020-01-05T10:12:57Z</time>
      </trkpt>
      <trkpt lat="48.6672" lon="7.51099">
        <ele>225.3</ele>
        <time>2020-01-05T10:13:00Z</time>
      </trkpt>
      <trkpt lat="48.66723" lon="7.51099">
        <ele>225.2</ele>
        <time>2020-01-05T10:13:02Z</time>
      </trkpt>
      <trkpt lat="48.66726" lon="7.511">
        <ele>225</ele>
        <time>2020-01-05T10:13:05Z</time>
      </trkpt>
      <trkpt lat="48.66728" lon="7.51104">
        <ele>224.8</ele>
        <time>2020-01-05T10:13:11Z</time>
      </trkpt>
      <trkpt lat="48.66731" lon="7.51106">
        <ele>224.6</ele>
        <time>2020-01-05T10:13:14Z</time>
      </trkpt>
      <trkpt lat="48.66734" lon="7.51108">
        <ele>224.4</ele>
        <time>2020-01-05T10:13:18Z</time>
      </trkpt>
      <trkpt lat="48.66736" lon="7.51111">
        <ele>224.2</ele>
        <time>2020-01-05T10:13:21Z</time>
      </trkpt>
      <trkpt lat="48.6674" lon="7.51111">
        <ele>223.9</ele>
        <time>2020-01-05T10:13:24Z</time>
      </trkpt>
      <trkpt lat="48.66743" lon="7.51111">
        <ele>223.7</ele>
        <time>2020-01-05T10:13:28Z</time>
      </trkpt>
      <trkpt lat="48.66745" lon="7.51114">
        <ele>223.5</ele>
        <time>2020-01-05T10:13:31Z</time>
      </trkpt>
      <trkpt lat="48.66749" lon="7.51116">
        <ele>223.2</ele>
        <time>2020-01-05T10:13:34Z</time>
      </trkpt>
      <trkpt lat="48.66752" lon="7.51118">
        <ele>223</ele>
        <time>2020-01-05T10:13:37Z</time>
      </trkpt>
      <trkpt lat="48.66754" lon="7.51121">
        <ele>222.8</ele>
        <time>2020-01-05T10:13:41Z</time>
      </trkpt>
      <trkpt lat="48.66757" lon="7.51122">
        <ele>222.6</ele>
        <time>2020-01-05T10:13:44Z</time>
      </trkpt>
      <trkpt lat="48.66761" lon="7.51126">
        <ele>222.4</ele>
        <time>2020-01-05T10:13:47Z</time>
      </trkpt>
      <trkpt lat="48.66763" lon="7.5113">
        <ele>222.2</ele>
        <time>2020-01-05T10:13:49Z</time>
      </trkpt>
      <trkpt lat="48.66767" lon="7.51133">
        <ele>222</ele>
        <time>2020-01-05T10:13:52Z</time>
      </trkpt>
      <trkpt lat="48.6677" lon="7.51135">
        <ele>221.8</ele>
        <time>2020-01-05T10:13:54Z</time>
      </trkpt>
      <trkpt lat="48.66773" lon="7.51137">
        <ele>221.7</ele>
        <time>2020-01-05T10:13:58Z</time>
      </trkpt>
      <trkpt lat="48.66777" lon="7.51139">
        <ele>221.5</ele>
        <time>2020-01-05T10:14:02Z</time>
      </trkpt>
      <trkpt lat="48.66779" lon="7.51141">
        <ele>221.3</ele>
        <time>2020-01-05T10:14:04Z</time>
      </trkpt>
      <trkpt lat="48.66782" lon="7.51141">
        <ele>221.2</ele>
        <time>2020-01-05T10:14:07Z</time>
      </trkpt>
      <trkpt lat="48.66785" lon="7.51141">
        <ele>221</ele>
        <time>2020-01-05T10:14:10Z</time>
      </trkpt>
      <trkpt lat="48.66788" lon="7.51139">
        <ele>220.8</ele>
        <time>2020-01-05T10:14:13Z</time>
      </trkpt>
      <trkpt lat="48.6679" lon="7.51142">
        <ele>220.6</ele>
        <time>2020-01-05T10:14:16Z</time>
      </trkpt>
      <trkpt lat="48.66793" lon="7.51146">
        <ele>220.4</ele>
        <time>2020-01-05T10:14:18Z</time>
      </trkpt>
      <trkpt lat="48.66796" lon="7.51147">
        <ele>220.3</ele>
        <time>2020-01-05T10:14:21Z</time>
      </trkpt>
      <trkpt lat="48.66798" lon="7.51149">
        <ele>220.1</ele>
        <time>2020-01-05T10:14:23Z</time>
      </trkpt>
      <trkpt lat="48.66801" lon="7.51151">
        <ele>220</ele>
        <time>2020-01-05T10:14:26Z</time>
      </trkpt>
      <trkpt lat="48.66804" lon="7.51154">
        <ele>219.8</ele>
        <time>2020-01-05T10:14:28Z</time>
      </trkpt>
      <trkpt lat="48.66807" lon="7.51158">
        <ele>219.7</ele>
        <time>2020-01-05T10:14:31Z</time>
      </trkpt>
      <trkpt lat="48.6681" lon="7.51155">
        <ele>219.6</ele>
        <time>2020-01-05T10:14:35Z</time>
      </trkpt>
      <trkpt lat="48.66813" lon="7.51155">
        <ele>219.5</ele>
        <time>2020-01-05T10:14:38Z</time>
      </trkpt>
      <trkpt lat="48.66815" lon="7.51157">
        <ele>219.4</ele>
        <time>2020-01-05T10:14:40Z</time>
      </trkpt>
      <trkpt lat="48.66819" lon="7.51159">
        <ele>219.3</ele>
        <time>2020-01-05T10:14:42Z</time>
      </trkpt>
      <trkpt lat="48.66822" lon="7.51158">
        <ele>219.2</ele>
        <time>2020-01-05T10:14:44Z</time>
      </trkpt>
      <trkpt lat="48.66825" lon="7.51161">
        <ele>219.2</ele>
        <time>2020-01-05T10:14:47Z</time>
      </trkpt>
      <trkpt lat="48.66828" lon="7.51162">
        <ele>219.1</ele>
        <time>2020-01-05T10:14:50Z</time>
      </trkpt>
      <trkpt lat="48.6683" lon="7.51165">
        <ele>219</ele>
        <time>2020-01-05T10:14:52Z</time>
      </trkpt>
      <trkpt lat="48.66834" lon="7.51165">
        <ele>218.9</ele>
        <time>2020-01-05T10:14:55Z</time>
      </trkpt>
      <trkpt lat="48.66837" lon="7.51167">
        <ele>218.8</ele>
        <time>2020-01-05T10:14:57Z</time>
      </trkpt>
      <trkpt lat="48.6684" lon="7.51171">
        <ele>218.7</ele>
        <time>2020-01-05T10:15:00Z</time>
      </trkpt>
      <trkpt lat="48.66844" lon="7.51172">
        <ele>218.5</ele>
        <time>2020-01-05T10:15:03Z</time>
      </trkpt>
      <trkpt lat="48.66846" lon="7.51174">
        <ele>218.5</ele>
        <time>2020-01-05T10:15:06Z</time>
      </trkpt>
      <trkpt lat="48.66848" lon="7.51178">
        <ele>218.4</ele>
        <time>2020-01-05T10:15:10Z</time>
      </trkpt>
      <trkpt lat="48.66851" lon="7.51179">
        <ele>218.5</ele>
        <time>2020-01-05T10:15:15Z</time>
      </trkpt>
      <trkpt lat="48.66855" lon="7.51177">
        <ele>218.6</ele>
        <time>2020-01-05T10:15:17Z</time>
      </trkpt>
      <trkpt lat="48.66858" lon="7.51174">
        <ele>218.7</ele>
        <time>2020-01-05T10:15:21Z</time>
      </trkpt>
      <trkpt lat="48.66858" lon="7.5117">
        <ele>218.8</ele>
        <time>2020-01-05T10:16:22Z</time>
      </trkpt>
      <trkpt lat="48.66862" lon="7.51174">
        <ele>219</ele>
        <time>2020-01-05T10:16:38Z</time>
      </trkpt>
      <trkpt lat="48.66865" lon="7.51177">
        <ele>219.1</ele>
        <time>2020-01-05T10:16:40Z</time>
      </trkpt>
      <trkpt lat="48.66868" lon="7.51179">
        <ele>219.1</ele>
        <time>2020-01-05T10:16:43Z</time>
      </trkpt>
      <trkpt lat="48.6687" lon="7.51183">
        <ele>219.2</ele>
        <time>2020-01-05T10:16:49Z</time>
      </trkpt>
      <trkpt lat="48.66871" lon="7.51188">
        <ele>217.9</ele>
        <time>2020-01-05T10:16:53Z</time>
      </trkpt>
      <trkpt lat="48.66873" lon="7.51192">
        <ele>218</ele>
        <time>2020-01-05T10:16:56Z</time>
      </trkpt>
      <trkpt lat="48.66877" lon="7.51193">
        <ele>218</ele>
        <time>2020-01-05T10:16:59Z</time>
      </trkpt>
      <trkpt lat="48.6688" lon="7.51195">
        <ele>218.1</ele>
        <time>2020-01-05T10:17:01Z</time>
      </trkpt>
      <trkpt lat="48.66883" lon="7.51196">
        <ele>218.2</ele>
        <time>2020-01-05T10:17:04Z</time>
      </trkpt>
      <trkpt lat="48.66886" lon="7.51196">
        <ele>218.2</ele>
        <time>2020-01-05T10:17:07Z</time>
      </trkpt>
      <trkpt lat="48.66889" lon="7.51196">
        <ele>218.3</ele>
        <time>2020-01-05T10:17:09Z</time>
      </trkpt>
      <trkpt lat="48.66892" lon="7.51196">
        <ele>218.4</ele>
        <time>2020-01-05T10:17:12Z</time>
      </trkpt>
      <trkpt lat="48.66896" lon="7.51195">
        <ele>218.4</ele>
        <time>2020-01-05T10:17:15Z</time>
      </trkpt>
      <trkpt lat="48.66899" lon="7.51196">
        <ele>218.5</ele>
        <time>2020-01-05T10:17:17Z</time>
      </trkpt>
      <trkpt lat="48.66903" lon="7.51197">
        <ele>218.7</ele>
        <time>2020-01-05T10:17:19Z</time>
      </trkpt>
      <trkpt lat="48.66906" lon="7.51199">
        <ele>218.9</ele>
        <time>2020-01-05T10:17:22Z</time>
      </trkpt>
      <trkpt lat="48.66909" lon="7.512">
        <ele>219.1</ele>
        <time>2020-01-05T10:17:25Z</time>
      </trkpt>
      <trkpt lat="48.66912" lon="7.51201">
        <ele>219.4</ele>
        <time>2020-01-05T10:17:28Z</time>
      </trkpt>
      <trkpt lat="48.66914" lon="7.51196">
        <ele>219.7</ele>
        <time>2020-01-05T10:17:31Z</time>
      </trkpt>
      <trkpt lat="48.66917" lon="7.51192">
        <ele>220</ele>
        <time>2020-01-05T10:17:34Z</time>
      </trkpt>
      <trkpt lat="48.66918" lon="7.51187">
        <ele>220.2</ele>
        <time>2020-01-05T10:17:38Z</time>
      </trkpt>
      <trkpt lat="48.66919" lon="7.51183">
        <ele>220.4</ele>
        <time>2020-01-05T10:17:40Z</time>
      </trkpt>
      <trkpt lat="48.66921" lon="7.51179">
        <ele>220.6</ele>
        <time>2020-01-05T10:17:43Z</time>
      </trkpt>
      <trkpt lat="48.66922" lon="7.51175">
        <ele>220.8</ele>
        <time>2020-01-05T10:17:48Z</time>
      </trkpt>
      <trkpt lat="48.66921" lon="7.51171">
        <ele>221.1</ele>
        <time>2020-01-05T10:17:50Z</time>
      </trkpt>
      <trkpt lat="48.66921" lon="7.51166">
        <ele>221.5</ele>
        <time>2020-01-05T10:17:52Z</time>
      </trkpt>
      <trkpt lat="48.6692" lon="7.51161">
        <ele>221.8</ele>
        <time>2020-01-05T10:17:55Z</time>
      </trkpt>
      <trkpt lat="48.66921" lon="7.51155">
        <ele>222.2</ele>
        <time>2020-01-05T10:17:58Z</time>
      </trkpt>
      <trkpt lat="48.66921" lon="7.5115">
        <ele>222.6</ele>
        <time>2020-01-05T10:18:02Z</time>
      </trkpt>
      <trkpt lat="48.66923" lon="7.51145">
        <ele>223</ele>
        <time>2020-01-05T10:18:05Z</time>
      </trkpt>
      <trkpt lat="48.66925" lon="7.51141">
        <ele>223.3</ele>
        <time>2020-01-05T10:18:08Z</time>
      </trkpt>
      <trkpt lat="48.66927" lon="7.51139">
        <ele>223.5</ele>
        <time>2020-01-05T10:18:11Z</time>
      </trkpt>
      <trkpt lat="48.66927" lon="7.51135">
        <ele>223.8</ele>
        <time>2020-01-05T10:18:13Z</time>
      </trkpt>
      <trkpt lat="48.66929" lon="7.51133">
        <ele>224</ele>
        <time>2020-01-05T10:18:16Z</time>
      </trkpt>
      <trkpt lat="48.66931" lon="7.51129">
        <ele>224.2</ele>
        <time>2020-01-05T10:18:19Z</time>
      </trkpt>
      <trkpt lat="48.66934" lon="7.51127">
        <ele>224.4</ele>
        <time>2020-01-05T10:18:23Z</time>
      </trkpt>
      <trkpt lat="48.66936" lon="7.51123">
        <ele>224.5</ele>
        <time>2020-01-05T10:18:25Z</time>
      </trkpt>
      <trkpt lat="48.66938" lon="7.5112">
        <ele>224.7</ele>
        <time>2020-01-05T10:18:28Z</time>
      </trkpt>
      <trkpt lat="48.66941" lon="7.51118">
        <ele>224.8</ele>
        <time>2020-01-05T10:18:30Z</time>
      </trkpt>
      <trkpt lat="48.66945" lon="7.51115">
        <ele>225.1</ele>
        <time>2020-01-05T10:18:34Z</time>
      </trkpt>
      <trkpt lat="48.66947" lon="7.51113">
        <ele>225.3</ele>
        <time>2020-01-05T10:18:37Z</time>
      </trkpt>
      <trkpt lat="48.6695" lon="7.51113">
        <ele>225.5</ele>
        <time>2020-01-05T10:18:40Z</time>
      </trkpt>
      <trkpt lat="48.66953" lon="7.51111">
        <ele>225.6</ele>
        <time>2020-01-05T10:18:45Z</time>
      </trkpt>
      <trkpt lat="48.66954" lon="7.51106">
        <ele>225.8</ele>
        <time>2020-01-05T10:18:50Z</time>
      </trkpt>
      <trkpt lat="48.66956" lon="7.511">
        <ele>226</ele>
        <time>2020-01-05T10:18:53Z</time>
      </trkpt>
      <trkpt lat="48.66957" lon="7.51097">
        <ele>226.1</ele>
        <time>2020-01-05T10:18:56Z</time>
      </trkpt>
      <trkpt lat="48.66959" lon="7.51093">
        <ele>226.3</ele>
        <time>2020-01-05T10:18:59Z</time>
      </trkpt>
      <trkpt lat="48.66961" lon="7.51089">
        <ele>226.5</ele>
        <time>2020-01-05T10:19:02Z</time>
      </trkpt>
      <trkpt lat="48.66962" lon="7.51085">
        <ele>226.6</ele>
        <time>2020-01-05T10:19:04Z</time>
      </trkpt>
      <trkpt lat="48.66963" lon="7.51081">
        <ele>226.8</ele>
        <time>2020-01-05T10:19:06Z</time>
      </trkpt>
      <trkpt lat="48.66966" lon="7.51077">
        <ele>227</ele>
        <time>2020-01-05T10:19:10Z</time>
      </trkpt>
      <trkpt lat="48.66967" lon="7.5107">
        <ele>227.2</ele>
        <time>2020-01-05T10:19:14Z</time>
      </trkpt>
      <trkpt lat="48.66968" lon="7.51065">
        <ele>227.5</ele>
        <time>2020-01-05T10:19:18Z</time>
      </trkpt>
      <trkpt lat="48.66969" lon="7.51061">
        <ele>227.6</ele>
        <time>2020-01-05T10:19:20Z</time>
      </trkpt>
      <trkpt lat="48.66971" lon="7.51058">
        <ele>227.8</ele>
        <time>2020-01-05T10:19:24Z</time>
      </trkpt>
      <trkpt lat="48.66974" lon="7.51054">
        <ele>228.1</ele>
        <time>2020-01-05T10:19:27Z</time>
      </trkpt>
      <trkpt lat="48.66977" lon="7.5105">
        <ele>228.7</ele>
        <time>2020-01-05T10:19:30Z</time>
      </trkpt>
      <trkpt lat="48.66979" lon="7.51047">
        <ele>228.6</ele>
        <time>2020-01-05T10:19:34Z</time>
      </trkpt>
      <trkpt lat="48.66983" lon="7.51047">
        <ele>228.5</ele>
        <time>2020-01-05T10:19:37Z</time>
      </trkpt>
      <trkpt lat="48.66986" lon="7.51045">
        <ele>228.5</ele>
        <time>2020-01-05T10:19:50Z</time>
      </trkpt>
      <trkpt lat="48.66989" lon="7.51045">
        <ele>228.5</ele>
        <time>2020-01-05T10:19:57Z</time>
      </trkpt>
      <trkpt lat="48.66992" lon="7.51046">
        <ele>228.5</ele>
        <time>2020-01-05T10:20:02Z</time>
      </trkpt>
      <trkpt lat="48.66996" lon="7.51048">
        <ele>228.6</ele>
        <time>2020-01-05T10:20:05Z</time>
      </trkpt>
      <trkpt lat="48.66998" lon="7.5105">
        <ele>228.7</ele>
        <time>2020-01-05T10:20:10Z</time>
      </trkpt>
      <trkpt lat="48.67001" lon="7.51051">
        <ele>228.7</ele>
        <time>2020-01-05T10:20:12Z</time>
      </trkpt>
      <trkpt lat="48.67004" lon="7.5105">
        <ele>228.8</ele>
        <time>2020-01-05T10:20:14Z</time>
      </trkpt>
      <trkpt lat="48.67007" lon="7.51049">
        <ele>228.9</ele>
        <time>2020-01-05T10:20:17Z</time>
      </trkpt>
      <trkpt lat="48.6701" lon="7.5105">
        <ele>229</ele>
        <time>2020-01-05T10:20:19Z</time>
      </trkpt>
      <trkpt lat="48.67014" lon="7.51049">
        <ele>229.2</ele>
        <time>2020-01-05T10:20:21Z</time>
      </trkpt>
      <trkpt lat="48.67018" lon="7.5105">
        <ele>229.4</ele>
        <time>2020-01-05T10:20:25Z</time>
      </trkpt>
      <trkpt lat="48.67022" lon="7.51047">
        <ele>229.5</ele>
        <time>2020-01-05T10:20:30Z</time>
      </trkpt>
      <trkpt lat="48.67026" lon="7.51046">
        <ele>229.6</ele>
        <time>2020-01-05T10:20:32Z</time>
      </trkpt>
      <trkpt lat="48.67029" lon="7.51043">
        <ele>229.8</ele>
        <time>2020-01-05T10:20:37Z</time>
      </trkpt>
      <trkpt lat="48.67032" lon="7.51039">
        <ele>229.9</ele>
        <time>2020-01-05T10:20:40Z</time>
      </trkpt>
      <trkpt lat="48.67035" lon="7.51037">
        <ele>230</ele>
        <time>2020-01-05T10:20:45Z</time>
      </trkpt>
      <trkpt lat="48.67038" lon="7.51035">
        <ele>230.1</ele>
        <time>2020-01-05T10:20:49Z</time>
      </trkpt>
      <trkpt lat="48.67042" lon="7.51035">
        <ele>230.2</ele>
        <time>2020-01-05T10:20:54Z</time>
      </trkpt>
      <trkpt lat="48.67045" lon="7.51035">
        <ele>230.3</ele>
        <time>2020-01-05T10:20:57Z</time>
      </trkpt>
      <trkpt lat="48.67047" lon="7.51031">
        <ele>230.3</ele>
        <time>2020-01-05T10:20:59Z</time>
      </trkpt>
      <trkpt lat="48.67051" lon="7.51031">
        <ele>230.3</ele>
        <time>2020-01-05T10:21:01Z</time>
      </trkpt>
      <trkpt lat="48.67053" lon="7.51027">
        <ele>230.3</ele>
        <time>2020-01-05T10:21:03Z</time>
      </trkpt>
      <trkpt lat="48.67055" lon="7.51024">
        <ele>230.3</ele>
        <time>2020-01-05T10:21:06Z</time>
      </trkpt>
      <trkpt lat="48.67057" lon="7.51021">
        <ele>230.4</ele>
        <time>2020-01-05T10:21:09Z</time>
      </trkpt>
      <trkpt lat="48.67059" lon="7.51016">
        <ele>230.5</ele>
        <time>2020-01-05T10:21:11Z</time>
      </trkpt>
      <trkpt lat="48.67062" lon="7.51012">
        <ele>231.5</ele>
        <time>2020-01-05T10:21:15Z</time>
      </trkpt>
      <trkpt lat="48.67063" lon="7.51007">
        <ele>231.6</ele>
        <time>2020-01-05T10:21:18Z</time>
      </trkpt>
      <trkpt lat="48.67065" lon="7.51004">
        <ele>231.7</ele>
        <time>2020-01-05T10:21:20Z</time>
      </trkpt>
      <trkpt lat="48.67066" lon="7.50998">
        <ele>231.8</ele>
        <time>2020-01-05T10:21:23Z</time>
      </trkpt>
      <trkpt lat="48.67069" lon="7.50997">
        <ele>231.8</ele>
        <time>2020-01-05T10:21:26Z</time>
      </trkpt>
      <trkpt lat="48.67072" lon="7.50995">
        <ele>231.9</ele>
        <time>2020-01-05T10:21:28Z</time>
      </trkpt>
      <trkpt lat="48.67075" lon="7.50995">
        <ele>231.9</ele>
        <time>2020-01-05T10:21:30Z</time>
      </trkpt>
      <trkpt lat="48.67078" lon="7.50993">
        <ele>232</ele>
        <time>2020-01-05T10:21:35Z</time>
      </trkpt>
      <trkpt lat="48.67081" lon="7.50992">
        <ele>232</ele>
        <time>2020-01-05T10:21:38Z</time>
      </trkpt>
      <trkpt lat="48.67085" lon="7.5099">
        <ele>232</ele>
        <time>2020-01-05T10:21:41Z</time>
      </trkpt>
      <trkpt lat="48.67088" lon="7.50987">
        <ele>232</ele>
        <time>2020-01-05T10:21:43Z</time>
      </trkpt>
      <trkpt lat="48.6709" lon="7.50985">
        <ele>232</ele>
        <time>2020-01-05T10:21:45Z</time>
      </trkpt>
      <trkpt lat="48.67093" lon="7.50984">
        <ele>232</ele>
        <time>2020-01-05T10:21:50Z</time>
      </trkpt>
      <trkpt lat="48.67096" lon="7.50981">
        <ele>232</ele>
        <time>2020-01-05T10:21:53Z</time>
      </trkpt>
      <trkpt lat="48.67098" lon="7.50976">
        <ele>232</ele>
        <time>2020-01-05T10:21:56Z</time>
      </trkpt>
      <trkpt lat="48.67098" lon="7.50971">
        <ele>232</ele>
        <time>2020-01-05T10:22:00Z</time>
      </trkpt>
      <trkpt lat="48.67098" lon="7.50967">
        <ele>232</ele>
        <time>2020-01-05T10:22:02Z</time>
      </trkpt>
      <trkpt lat="48.671" lon="7.50961">
        <ele>231.9</ele>
        <time>2020-01-05T10:22:05Z</time>
      </trkpt>
      <trkpt lat="48.671" lon="7.50955">
        <ele>231.9</ele>
        <time>2020-01-05T10:22:08Z</time>
      </trkpt>
      <trkpt lat="48.67099" lon="7.5095">
        <ele>231.8</ele>
        <time>2020-01-05T10:22:10Z</time>
      </trkpt>
      <trkpt lat="48.67099" lon="7.50946">
        <ele>231.8</ele>
        <time>2020-01-05T10:22:13Z</time>
      </trkpt>
      <trkpt lat="48.67101" lon="7.50941">
        <ele>231.7</ele>
        <time>2020-01-05T10:22:18Z</time>
      </trkpt>
      <trkpt lat="48.67103" lon="7.50937">
        <ele>231.7</ele>
        <time>2020-01-05T10:22:21Z</time>
      </trkpt>
      <trkpt lat="48.67102" lon="7.50931">
        <ele>231.6</ele>
        <time>2020-01-05T10:22:25Z</time>
      </trkpt>
      <trkpt lat="48.67102" lon="7.50926">
        <ele>231.5</ele>
        <time>2020-01-05T10:22:28Z</time>
      </trkpt>
      <trkpt lat="48.67103" lon="7.50923">
        <ele>231.5</ele>
        <time>2020-01-05T10:22:31Z</time>
      </trkpt>
      <trkpt lat="48.67104" lon="7.50918">
        <ele>231.5</ele>
        <time>2020-01-05T10:22:34Z</time>
      </trkpt>
      <trkpt lat="48.67105" lon="7.50914">
        <ele>231.8</ele>
        <time>2020-01-05T10:22:37Z</time>
      </trkpt>
      <trkpt lat="48.67106" lon="7.50909">
        <ele>231.9</ele>
        <time>2020-01-05T10:22:39Z</time>
      </trkpt>
      <trkpt lat="48.67107" lon="7.50905">
        <ele>232</ele>
        <time>2020-01-05T10:22:41Z</time>
      </trkpt>
      <trkpt lat="48.67106" lon="7.50901">
        <ele>232.1</ele>
        <time>2020-01-05T10:22:43Z</time>
      </trkpt>
      <trkpt lat="48.67104" lon="7.50899">
        <ele>232.2</ele>
        <time>2020-01-05T10:22:44Z</time>
      </trkpt>
      <trkpt lat="48.67101" lon="7.50896">
        <ele>232.4</ele>
        <time>2020-01-05T10:22:47Z</time>
      </trkpt>
      <trkpt lat="48.671" lon="7.50892">
        <ele>232.6</ele>
        <time>2020-01-05T10:22:50Z</time>
      </trkpt>
      <trkpt lat="48.67098" lon="7.50887">
        <ele>232.8</ele>
        <time>2020-01-05T10:22:53Z</time>
      </trkpt>
      <trkpt lat="48.67097" lon="7.50882">
        <ele>232.9</ele>
        <time>2020-01-05T10:23:07Z</time>
      </trkpt>
      <trkpt lat="48.67098" lon="7.50877">
        <ele>233.1</ele>
        <time>2020-01-05T10:23:11Z</time>
      </trkpt>
      <trkpt lat="48.67096" lon="7.50872">
        <ele>233.3</ele>
        <time>2020-01-05T10:23:16Z</time>
      </trkpt>
      <trkpt lat="48.67094" lon="7.5087">
        <ele>233.5</ele>
        <time>2020-01-05T10:23:18Z</time>
      </trkpt>
      <trkpt lat="48.67093" lon="7.50864">
        <ele>233.7</ele>
        <time>2020-01-05T10:23:22Z</time>
      </trkpt>
      <trkpt lat="48.67092" lon="7.5086">
        <ele>233.9</ele>
        <time>2020-01-05T10:23:25Z</time>
      </trkpt>
      <trkpt lat="48.6709" lon="7.50857">
        <ele>234.1</ele>
        <time>2020-01-05T10:23:28Z</time>
      </trkpt>
      <trkpt lat="48.67086" lon="7.50855">
        <ele>234.3</ele>
        <time>2020-01-05T10:23:31Z</time>
      </trkpt>
      <trkpt lat="48.67083" lon="7.50854">
        <ele>234.5</ele>
        <time>2020-01-05T10:23:33Z</time>
      </trkpt>
      <trkpt lat="48.67079" lon="7.50852">
        <ele>234.8</ele>
        <time>2020-01-05T10:23:36Z</time>
      </trkpt>
      <trkpt lat="48.67075" lon="7.50853">
        <ele>235.4</ele>
        <time>2020-01-05T10:23:39Z</time>
      </trkpt>
      <trkpt lat="48.67072" lon="7.50854">
        <ele>235.5</ele>
        <time>2020-01-05T10:23:43Z</time>
      </trkpt>
      <trkpt lat="48.67069" lon="7.50856">
        <ele>235.7</ele>
        <time>2020-01-05T10:23:46Z</time>
      </trkpt>
      <trkpt lat="48.67066" lon="7.50857">
        <ele>235.8</ele>
        <time>2020-01-05T10:23:50Z</time>
      </trkpt>
      <trkpt lat="48.67064" lon="7.50858">
        <ele>235.9</ele>
        <time>2020-01-05T10:23:55Z</time>
      </trkpt>
      <trkpt lat="48.67059" lon="7.50859">
        <ele>236.1</ele>
        <time>2020-01-05T10:23:59Z</time>
      </trkpt>
      <trkpt lat="48.67057" lon="7.50859">
        <ele>236.3</ele>
        <time>2020-01-05T10:24:02Z</time>
      </trkpt>
      <trkpt lat="48.67054" lon="7.50859">
        <ele>236.4</ele>
        <time>2020-01-05T10:24:04Z</time>
      </trkpt>
      <trkpt lat="48.6705" lon="7.50862">
        <ele>236.7</ele>
        <time>2020-01-05T10:24:08Z</time>
      </trkpt>
      <trkpt lat="48.67047" lon="7.50861">
        <ele>237</ele>
        <time>2020-01-05T10:24:11Z</time>
      </trkpt>
      <trkpt lat="48.67044" lon="7.50863">
        <ele>237.2</ele>
        <time>2020-01-05T10:24:15Z</time>
      </trkpt>
      <trkpt lat="48.67041" lon="7.50863">
        <ele>237.4</ele>
        <time>2020-01-05T10:24:18Z</time>
      </trkpt>
      <trkpt lat="48.67038" lon="7.50861">
        <ele>237.7</ele>
        <time>2020-01-05T10:24:21Z</time>
      </trkpt>
      <trkpt lat="48.67037" lon="7.50858">
        <ele>238.4</ele>
        <time>2020-01-05T10:24:24Z</time>
      </trkpt>
      <trkpt lat="48.67034" lon="7.50854">
        <ele>238.5</ele>
        <time>2020-01-05T10:24:29Z</time>
      </trkpt>
      <trkpt lat="48.67033" lon="7.50849">
        <ele>238.7</ele>
        <time>2020-01-05T10:24:32Z</time>
      </trkpt>
      <trkpt lat="48.67033" lon="7.50845">
        <ele>238.9</ele>
        <time>2020-01-05T10:24:35Z</time>
      </trkpt>
      <trkpt lat="48.67031" lon="7.50841">
        <ele>239.1</ele>
        <time>2020-01-05T10:24:38Z</time>
      </trkpt>
      <trkpt lat="48.67032" lon="7.50837">
        <ele>239.3</ele>
        <time>2020-01-05T10:24:45Z</time>
      </trkpt>
      <trkpt lat="48.6703" lon="7.50833">
        <ele>239.5</ele>
        <time>2020-01-05T10:24:51Z</time>
      </trkpt>
      <trkpt lat="48.6703" lon="7.50829">
        <ele>239.7</ele>
        <time>2020-01-05T10:24:54Z</time>
      </trkpt>
      <trkpt lat="48.67029" lon="7.50824">
        <ele>239.9</ele>
        <time>2020-01-05T10:24:57Z</time>
      </trkpt>
      <trkpt lat="48.67027" lon="7.5082">
        <ele>240.2</ele>
        <time>2020-01-05T10:24:59Z</time>
      </trkpt>
      <trkpt lat="48.67026" lon="7.50817">
        <ele>240.4</ele>
        <time>2020-01-05T10:25:01Z</time>
      </trkpt>
      <trkpt lat="48.67025" lon="7.50813">
        <ele>240.6</ele>
        <time>2020-01-05T10:25:04Z</time>
      </trkpt>
      <trkpt lat="48.67023" lon="7.50808">
        <ele>240.8</ele>
        <time>2020-01-05T10:25:07Z</time>
      </trkpt>
      <trkpt lat="48.67022" lon="7.50804">
        <ele>241.1</ele>
        <time>2020-01-05T10:25:11Z</time>
      </trkpt>
      <trkpt lat="48.67023" lon="7.508">
        <ele>241.3</ele>
        <time>2020-01-05T10:25:14Z</time>
      </trkpt>
      <trkpt lat="48.6702" lon="7.50795">
        <ele>241.7</ele>
        <time>2020-01-05T10:25:17Z</time>
      </trkpt>
      <trkpt lat="48.67018" lon="7.50791">
        <ele>241.9</ele>
        <time>2020-01-05T10:25:22Z</time>
      </trkpt>
      <trkpt lat="48.67017" lon="7.50786">
        <ele>242.2</ele>
        <time>2020-01-05T10:25:24Z</time>
      </trkpt>
      <trkpt lat="48.67015" lon="7.50783">
        <ele>242.5</ele>
        <time>2020-01-05T10:25:27Z</time>
      </trkpt>
      <trkpt lat="48.67012" lon="7.50781">
        <ele>242.7</ele>
        <time>2020-01-05T10:25:30Z</time>
      </trkpt>
      <trkpt lat="48.6701" lon="7.50777">
        <ele>243</ele>
        <time>2020-01-05T10:25:33Z</time>
      </trkpt>
      <trkpt lat="48.67007" lon="7.50774">
        <ele>243.2</ele>
        <time>2020-01-05T10:25:37Z</time>
      </trkpt>
      <trkpt lat="48.67004" lon="7.50771">
        <ele>243.5</ele>
        <time>2020-01-05T10:25:40Z</time>
      </trkpt>
      <trkpt lat="48.67001" lon="7.50766">
        <ele>243.8</ele>
        <time>2020-01-05T10:25:42Z</time>
      </trkpt>
      <trkpt lat="48.66999" lon="7.50764">
        <ele>244</ele>
        <time>2020-01-05T10:25:46Z</time>
      </trkpt>
      <trkpt lat="48.66997" lon="7.50759">
        <ele>244.3</ele>
        <time>2020-01-05T10:25:50Z</time>
      </trkpt>
      <trkpt lat="48.66997" lon="7.50754">
        <ele>244.6</ele>
        <time>2020-01-05T10:25:54Z</time>
      </trkpt>
      <trkpt lat="48.66995" lon="7.50751">
        <ele>244.8</ele>
        <time>2020-01-05T10:25:56Z</time>
      </trkpt>
      <trkpt lat="48.66993" lon="7.50748">
        <ele>245</ele>
        <time>2020-01-05T10:26:01Z</time>
      </trkpt>
      <trkpt lat="48.66991" lon="7.50744">
        <ele>245.3</ele>
        <time>2020-01-05T10:26:06Z</time>
      </trkpt>
      <trkpt lat="48.66989" lon="7.5074">
        <ele>245.5</ele>
        <time>2020-01-05T10:26:10Z</time>
      </trkpt>
      <trkpt lat="48.66988" lon="7.50736">
        <ele>245.8</ele>
        <time>2020-01-05T10:26:14Z</time>
      </trkpt>
      <trkpt lat="48.66986" lon="7.50732">
        <ele>246.2</ele>
        <time>2020-01-05T10:26:17Z</time>
      </trkpt>
      <trkpt lat="48.66985" lon="7.50729">
        <ele>246.5</ele>
        <time>2020-01-05T10:26:20Z</time>
      </trkpt>
      <trkpt lat="48.66982" lon="7.50726">
        <ele>246.7</ele>
        <time>2020-01-05T10:26:24Z</time>
      </trkpt>
      <trkpt lat="48.66981" lon="7.50721">
        <ele>247.1</ele>
        <time>2020-01-05T10:26:27Z</time>
      </trkpt>
      <trkpt lat="48.66979" lon="7.50718">
        <ele>247.4</ele>
        <time>2020-01-05T10:26:31Z</time>
      </trkpt>
      <trkpt lat="48.66976" lon="7.50715">
        <ele>247.7</ele>
        <time>2020-01-05T10:26:33Z</time>
      </trkpt>
      <trkpt lat="48.66973" lon="7.50714">
        <ele>248</ele>
        <time>2020-01-05T10:26:35Z</time>
      </trkpt>
      <trkpt lat="48.6697" lon="7.50711">
        <ele>248.2</ele>
        <time>2020-01-05T10:26:39Z</time>
      </trkpt>
      <trkpt lat="48.66968" lon="7.50707">
        <ele>248.5</ele>
        <time>2020-01-05T10:26:42Z</time>
      </trkpt>
      <trkpt lat="48.66967" lon="7.50702">
        <ele>248.7</ele>
        <time>2020-01-05T10:26:45Z</time>
      </trkpt>
      <trkpt lat="48.66965" lon="7.50698">
        <ele>248.9</ele>
        <time>2020-01-05T10:26:49Z</time>
      </trkpt>
      <trkpt lat="48.66966" lon="7.50694">
        <ele>249.1</ele>
        <time>2020-01-05T10:26:54Z</time>
      </trkpt>
      <trkpt lat="48.66963" lon="7.50689">
        <ele>249.4</ele>
        <time>2020-01-05T10:26:57Z</time>
      </trkpt>
      <trkpt lat="48.66961" lon="7.50685">
        <ele>249.6</ele>
        <time>2020-01-05T10:27:00Z</time>
      </trkpt>
      <trkpt lat="48.6696" lon="7.50682">
        <ele>249.8</ele>
        <time>2020-01-05T10:27:02Z</time>
      </trkpt>
      <trkpt lat="48.66957" lon="7.50679">
        <ele>250.2</ele>
        <time>2020-01-05T10:27:05Z</time>
      </trkpt>
      <trkpt lat="48.66956" lon="7.50674">
        <ele>250.5</ele>
        <time>2020-01-05T10:27:08Z</time>
      </trkpt>
      <trkpt lat="48.66955" lon="7.50669">
        <ele>250.9</ele>
        <time>2020-01-05T10:27:12Z</time>
      </trkpt>
      <trkpt lat="48.66954" lon="7.50664">
        <ele>251.2</ele>
        <time>2020-01-05T10:27:15Z</time>
      </trkpt>
      <trkpt lat="48.66951" lon="7.5066">
        <ele>251.5</ele>
        <time>2020-01-05T10:27:18Z</time>
      </trkpt>
      <trkpt lat="48.66949" lon="7.50656">
        <ele>251.8</ele>
        <time>2020-01-05T10:27:22Z</time>
      </trkpt>
      <trkpt lat="48.66947" lon="7.50653">
        <ele>252.2</ele>
        <time>2020-01-05T10:27:25Z</time>
      </trkpt>
      <trkpt lat="48.66945" lon="7.50648">
        <ele>252.5</ele>
        <time>2020-01-05T10:27:29Z</time>
      </trkpt>
      <trkpt lat="48.66943" lon="7.50643">
        <ele>252.9</ele>
        <time>2020-01-05T10:27:33Z</time>
      </trkpt>
      <trkpt lat="48.66943" lon="7.50638">
        <ele>253.2</ele>
        <time>2020-01-05T10:27:36Z</time>
      </trkpt>
      <trkpt lat="48.66943" lon="7.50632">
        <ele>253.6</ele>
        <time>2020-01-05T10:27:42Z</time>
      </trkpt>
      <trkpt lat="48.66942" lon="7.50628">
        <ele>253.9</ele>
        <time>2020-01-05T10:27:45Z</time>
      </trkpt>
      <trkpt lat="48.66942" lon="7.50623">
        <ele>254.3</ele>
        <time>2020-01-05T10:27:50Z</time>
      </trkpt>
      <trkpt lat="48.66941" lon="7.50618">
        <ele>254.6</ele>
        <time>2020-01-05T10:27:54Z</time>
      </trkpt>
      <trkpt lat="48.6694" lon="7.50612">
        <ele>255.1</ele>
        <time>2020-01-05T10:27:58Z</time>
      </trkpt>
      <trkpt lat="48.66938" lon="7.50608">
        <ele>255.4</ele>
        <time>2020-01-05T10:28:00Z</time>
      </trkpt>
      <trkpt lat="48.66936" lon="7.50603">
        <ele>255.8</ele>
        <time>2020-01-05T10:28:03Z</time>
      </trkpt>
      <trkpt lat="48.66933" lon="7.506">
        <ele>256.2</ele>
        <time>2020-01-05T10:28:06Z</time>
      </trkpt>
      <trkpt lat="48.6693" lon="7.50596">
        <ele>256.6</ele>
        <time>2020-01-05T10:28:09Z</time>
      </trkpt>
      <trkpt lat="48.66928" lon="7.50592">
        <ele>256.9</ele>
        <time>2020-01-05T10:28:12Z</time>
      </trkpt>
      <trkpt lat="48.66925" lon="7.50589">
        <ele>257.2</ele>
        <time>2020-01-05T10:28:15Z</time>
      </trkpt>
      <trkpt lat="48.66923" lon="7.50585">
        <ele>257.6</ele>
        <time>2020-01-05T10:28:17Z</time>
      </trkpt>
      <trkpt lat="48.66923" lon="7.50581">
        <ele>258.1</ele>
        <time>2020-01-05T10:28:20Z</time>
      </trkpt>
      <trkpt lat="48.66921" lon="7.50577">
        <ele>258.5</ele>
        <time>2020-01-05T10:28:24Z</time>
      </trkpt>
      <trkpt lat="48.66919" lon="7.50574">
        <ele>258.8</ele>
        <time>2020-01-05T10:28:26Z</time>
      </trkpt>
      <trkpt lat="48.66915" lon="7.50573">
        <ele>259</ele>
        <time>2020-01-05T10:28:29Z</time>
      </trkpt>
      <trkpt lat="48.66912" lon="7.5057">
        <ele>259.2</ele>
        <time>2020-01-05T10:28:32Z</time>
      </trkpt>
      <trkpt lat="48.6691" lon="7.50566">
        <ele>259.5</ele>
        <time>2020-01-05T10:28:35Z</time>
      </trkpt>
      <trkpt lat="48.66908" lon="7.50562">
        <ele>259.7</ele>
        <time>2020-01-05T10:28:38Z</time>
      </trkpt>
      <trkpt lat="48.66906" lon="7.50558">
        <ele>259.9</ele>
        <time>2020-01-05T10:28:41Z</time>
      </trkpt>
      <trkpt lat="48.66905" lon="7.50553">
        <ele>260.2</ele>
        <time>2020-01-05T10:28:45Z</time>
      </trkpt>
      <trkpt lat="48.66904" lon="7.5055">
        <ele>260.4</ele>
        <time>2020-01-05T10:28:48Z</time>
      </trkpt>
      <trkpt lat="48.66901" lon="7.50548">
        <ele>260.7</ele>
        <time>2020-01-05T10:28:51Z</time>
      </trkpt>
      <trkpt lat="48.66898" lon="7.50545">
        <ele>261.1</ele>
        <time>2020-01-05T10:28:55Z</time>
      </trkpt>
      <trkpt lat="48.66896" lon="7.50541">
        <ele>261.4</ele>
        <time>2020-01-05T10:28:59Z</time>
      </trkpt>
      <trkpt lat="48.66893" lon="7.50537">
        <ele>261.9</ele>
        <time>2020-01-05T10:29:02Z</time>
      </trkpt>
      <trkpt lat="48.6689" lon="7.50536">
        <ele>262.2</ele>
        <time>2020-01-05T10:29:07Z</time>
      </trkpt>
      <trkpt lat="48.66887" lon="7.50533">
        <ele>262.6</ele>
        <time>2020-01-05T10:29:09Z</time>
      </trkpt>
      <trkpt lat="48.66885" lon="7.50529">
        <ele>263</ele>
        <time>2020-01-05T10:29:13Z</time>
      </trkpt>
      <trkpt lat="48.66882" lon="7.50525">
        <ele>263.3</ele>
        <time>2020-01-05T10:29:16Z</time>
      </trkpt>
      <trkpt lat="48.66879" lon="7.50521">
        <ele>263.9</ele>
        <time>2020-01-05T10:29:20Z</time>
      </trkpt>
      <trkpt lat="48.66877" lon="7.50518">
        <ele>264.3</ele>
        <time>2020-01-05T10:29:23Z</time>
      </trkpt>
      <trkpt lat="48.66874" lon="7.50515">
        <ele>264.7</ele>
        <time>2020-01-05T10:29:27Z</time>
      </trkpt>
      <trkpt lat="48.66872" lon="7.50513">
        <ele>265</ele>
        <time>2020-01-05T10:29:31Z</time>
      </trkpt>
      <trkpt lat="48.66869" lon="7.50509">
        <ele>265.4</ele>
        <time>2020-01-05T10:29:34Z</time>
      </trkpt>
      <trkpt lat="48.66867" lon="7.50506">
        <ele>265.8</ele>
        <time>2020-01-05T10:29:38Z</time>
      </trkpt>
      <trkpt lat="48.66866" lon="7.50501">
        <ele>266.1</ele>
        <time>2020-01-05T10:29:42Z</time>
      </trkpt>
      <trkpt lat="48.66863" lon="7.50498">
        <ele>266.6</ele>
        <time>2020-01-05T10:29:45Z</time>
      </trkpt>
      <trkpt lat="48.6686" lon="7.50496">
        <ele>266.9</ele>
        <time>2020-01-05T10:29:48Z</time>
      </trkpt>
      <trkpt lat="48.66857" lon="7.50491">
        <ele>267.4</ele>
        <time>2020-01-05T10:29:52Z</time>
      </trkpt>
      <trkpt lat="48.66855" lon="7.50489">
        <ele>267.8</ele>
        <time>2020-01-05T10:29:55Z</time>
      </trkpt>
      <trkpt lat="48.66853" lon="7.50486">
        <ele>268.2</ele>
        <time>2020-01-05T10:29:58Z</time>
      </trkpt>
      <trkpt lat="48.66851" lon="7.50484">
        <ele>268.5</ele>
        <time>2020-01-05T10:30:01Z</time>
      </trkpt>
      <trkpt lat="48.66849" lon="7.5048">
        <ele>268.8</ele>
        <time>2020-01-05T10:30:04Z</time>
      </trkpt>
      <trkpt lat="48.66847" lon="7.50476">
        <ele>269.2</ele>
        <time>2020-01-05T10:30:08Z</time>
      </trkpt>
      <trkpt lat="48.66844" lon="7.50474">
        <ele>269.6</ele>
        <time>2020-01-05T10:30:11Z</time>
      </trkpt>
      <trkpt lat="48.66842" lon="7.50471">
        <ele>269.9</ele>
        <time>2020-01-05T10:30:14Z</time>
      </trkpt>
      <trkpt lat="48.66839" lon="7.50468">
        <ele>270.2</ele>
        <time>2020-01-05T10:30:17Z</time>
      </trkpt>
      <trkpt lat="48.66836" lon="7.50466">
        <ele>270.5</ele>
        <time>2020-01-05T10:30:20Z</time>
      </trkpt>
      <trkpt lat="48.66834" lon="7.50463">
        <ele>270.8</ele>
        <time>2020-01-05T10:30:23Z</time>
      </trkpt>
      <trkpt lat="48.66832" lon="7.5046">
        <ele>271.1</ele>
        <time>2020-01-05T10:30:26Z</time>
      </trkpt>
      <trkpt lat="48.6683" lon="7.50456">
        <ele>271.4</ele>
        <time>2020-01-05T10:30:30Z</time>
      </trkpt>
      <trkpt lat="48.66828" lon="7.50452">
        <ele>271.7</ele>
        <time>2020-01-05T10:30:33Z</time>
      </trkpt>
      <trkpt lat="48.66827" lon="7.50448">
        <ele>272</ele>
        <time>2020-01-05T10:30:36Z</time>
      </trkpt>
      <trkpt lat="48.66826" lon="7.50443">
        <ele>272.2</ele>
        <time>2020-01-05T10:30:40Z</time>
      </trkpt>
      <trkpt lat="48.66825" lon="7.50438">
        <ele>272.5</ele>
        <time>2020-01-05T10:30:43Z</time>
      </trkpt>
      <trkpt lat="48.66823" lon="7.50434">
        <ele>272.7</ele>
        <time>2020-01-05T10:30:46Z</time>
      </trkpt>
      <trkpt lat="48.66821" lon="7.50429">
        <ele>273.1</ele>
        <time>2020-01-05T10:30:50Z</time>
      </trkpt>
      <trkpt lat="48.6682" lon="7.50425">
        <ele>273.5</ele>
        <time>2020-01-05T10:30:53Z</time>
      </trkpt>
      <trkpt lat="48.66817" lon="7.50422">
        <ele>273.8</ele>
        <time>2020-01-05T10:30:56Z</time>
      </trkpt>
      <trkpt lat="48.66815" lon="7.50417">
        <ele>274.1</ele>
        <time>2020-01-05T10:30:59Z</time>
      </trkpt>
      <trkpt lat="48.66815" lon="7.50413">
        <ele>274.3</ele>
        <time>2020-01-05T10:31:02Z</time>
      </trkpt>
      <trkpt lat="48.66813" lon="7.50409">
        <ele>274.6</ele>
        <time>2020-01-05T10:31:06Z</time>
      </trkpt>
      <trkpt lat="48.66811" lon="7.50405">
        <ele>274.8</ele>
        <time>2020-01-05T10:31:09Z</time>
      </trkpt>
      <trkpt lat="48.66809" lon="7.50402">
        <ele>275</ele>
        <time>2020-01-05T10:31:12Z</time>
      </trkpt>
      <trkpt lat="48.66808" lon="7.50398">
        <ele>275.3</ele>
        <time>2020-01-05T10:31:15Z</time>
      </trkpt>
      <trkpt lat="48.66806" lon="7.50393">
        <ele>275.5</ele>
        <time>2020-01-05T10:31:18Z</time>
      </trkpt>
      <trkpt lat="48.66804" lon="7.50389">
        <ele>275.8</ele>
        <time>2020-01-05T10:31:20Z</time>
      </trkpt>
      <trkpt lat="48.66803" lon="7.50385">
        <ele>276</ele>
        <time>2020-01-05T10:31:24Z</time>
      </trkpt>
      <trkpt lat="48.66802" lon="7.5038">
        <ele>276.3</ele>
        <time>2020-01-05T10:31:28Z</time>
      </trkpt>
      <trkpt lat="48.66799" lon="7.50378">
        <ele>276.5</ele>
        <time>2020-01-05T10:31:31Z</time>
      </trkpt>
      <trkpt lat="48.66798" lon="7.50375">
        <ele>276.7</ele>
        <time>2020-01-05T10:31:33Z</time>
      </trkpt>
      <trkpt lat="48.66796" lon="7.5037">
        <ele>276.9</ele>
        <time>2020-01-05T10:31:36Z</time>
      </trkpt>
      <trkpt lat="48.66794" lon="7.50365">
        <ele>277.2</ele>
        <time>2020-01-05T10:31:41Z</time>
      </trkpt>
      <trkpt lat="48.66793" lon="7.5036">
        <ele>277.5</ele>
        <time>2020-01-05T10:31:44Z</time>
      </trkpt>
      <trkpt lat="48.66792" lon="7.50356">
        <ele>277.7</ele>
        <time>2020-01-05T10:31:47Z</time>
      </trkpt>
      <trkpt lat="48.6679" lon="7.50352">
        <ele>278</ele>
        <time>2020-01-05T10:31:51Z</time>
      </trkpt>
      <trkpt lat="48.66787" lon="7.50348">
        <ele>278.2</ele>
        <time>2020-01-05T10:31:54Z</time>
      </trkpt>
      <trkpt lat="48.66785" lon="7.50345">
        <ele>278.4</ele>
        <time>2020-01-05T10:31:57Z</time>
      </trkpt>
      <trkpt lat="48.66783" lon="7.5034">
        <ele>278.6</ele>
        <time>2020-01-05T10:32:00Z</time>
      </trkpt>
      <trkpt lat="48.66781" lon="7.50336">
        <ele>278.9</ele>
        <time>2020-01-05T10:32:03Z</time>
      </trkpt>
      <trkpt lat="48.66779" lon="7.50331">
        <ele>279.1</ele>
        <time>2020-01-05T10:32:06Z</time>
      </trkpt>
      <trkpt lat="48.66776" lon="7.50328">
        <ele>279.3</ele>
        <time>2020-01-05T10:32:09Z</time>
      </trkpt>
      <trkpt lat="48.66774" lon="7.50325">
        <ele>279.6</ele>
        <time>2020-01-05T10:32:13Z</time>
      </trkpt>
      <trkpt lat="48.66772" lon="7.50321">
        <ele>279.7</ele>
        <time>2020-01-05T10:32:16Z</time>
      </trkpt>
      <trkpt lat="48.6677" lon="7.50316">
        <ele>280</ele>
        <time>2020-01-05T10:32:19Z</time>
      </trkpt>
      <trkpt lat="48.66767" lon="7.50313">
        <ele>280.1</ele>
        <time>2020-01-05T10:32:22Z</time>
      </trkpt>
      <trkpt lat="48.66765" lon="7.5031">
        <ele>280.3</ele>
        <time>2020-01-05T10:32:25Z</time>
      </trkpt>
      <trkpt lat="48.66762" lon="7.50307">
        <ele>280.5</ele>
        <time>2020-01-05T10:32:28Z</time>
      </trkpt>
      <trkpt lat="48.6676" lon="7.50303">
        <ele>280.6</ele>
        <time>2020-01-05T10:32:31Z</time>
      </trkpt>
      <trkpt lat="48.66757" lon="7.503">
        <ele>280.8</ele>
        <time>2020-01-05T10:32:34Z</time>
      </trkpt>
      <trkpt lat="48.66755" lon="7.50298">
        <ele>280.9</ele>
        <time>2020-01-05T10:32:37Z</time>
      </trkpt>
      <trkpt lat="48.66753" lon="7.50293">
        <ele>281</ele>
        <time>2020-01-05T10:32:40Z</time>
      </trkpt>
      <trkpt lat="48.66752" lon="7.5029">
        <ele>281.1</ele>
        <time>2020-01-05T10:32:42Z</time>
      </trkpt>
      <trkpt lat="48.6675" lon="7.50287">
        <ele>281.2</ele>
        <time>2020-01-05T10:32:45Z</time>
      </trkpt>
      <trkpt lat="48.66748" lon="7.50283">
        <ele>281.3</ele>
        <time>2020-01-05T10:32:48Z</time>
      </trkpt>
      <trkpt lat="48.66746" lon="7.50279">
        <ele>281.4</ele>
        <time>2020-01-05T10:32:52Z</time>
      </trkpt>
      <trkpt lat="48.66744" lon="7.50275">
        <ele>281.5</ele>
        <time>2020-01-05T10:32:55Z</time>
      </trkpt>
      <trkpt lat="48.66742" lon="7.5027">
        <ele>281.6</ele>
        <time>2020-01-05T10:32:58Z</time>
      </trkpt>
      <trkpt lat="48.6674" lon="7.50267">
        <ele>281.7</ele>
        <time>2020-01-05T10:33:02Z</time>
      </trkpt>
      <trkpt lat="48.66738" lon="7.50263">
        <ele>281.8</ele>
        <time>2020-01-05T10:33:05Z</time>
      </trkpt>
      <trkpt lat="48.66735" lon="7.50259">
        <ele>281.9</ele>
        <time>2020-01-05T10:33:09Z</time>
      </trkpt>
      <trkpt lat="48.66732" lon="7.50255">
        <ele>282</ele>
        <time>2020-01-05T10:33:12Z</time>
      </trkpt>
      <trkpt lat="48.66731" lon="7.50252">
        <ele>282</ele>
        <time>2020-01-05T10:33:14Z</time>
      </trkpt>
      <trkpt lat="48.66729" lon="7.50248">
        <ele>282.1</ele>
        <time>2020-01-05T10:33:16Z</time>
      </trkpt>
      <trkpt lat="48.66727" lon="7.50245">
        <ele>282.1</ele>
        <time>2020-01-05T10:33:19Z</time>
      </trkpt>
      <trkpt lat="48.66724" lon="7.50242">
        <ele>282.1</ele>
        <time>2020-01-05T10:33:23Z</time>
      </trkpt>
      <trkpt lat="48.66723" lon="7.50237">
        <ele>282.1</ele>
        <time>2020-01-05T10:33:27Z</time>
      </trkpt>
      <trkpt lat="48.66721" lon="7.50233">
        <ele>282.1</ele>
        <time>2020-01-05T10:33:30Z</time>
      </trkpt>
      <trkpt lat="48.6672" lon="7.50228">
        <ele>282.1</ele>
        <time>2020-01-05T10:33:35Z</time>
      </trkpt>
      <trkpt lat="48.66722" lon="7.50225">
        <ele>281.6</ele>
        <time>2020-01-05T10:35:26Z</time>
      </trkpt>
      <trkpt lat="48.66725" lon="7.50224">
        <ele>281.4</ele>
        <time>2020-01-05T10:35:30Z</time>
      </trkpt>
      <trkpt lat="48.66728" lon="7.50223">
        <ele>281.3</ele>
        <time>2020-01-05T10:36:06Z</time>
      </trkpt>
      <trkpt lat="48.66731" lon="7.50223">
        <ele>281.1</ele>
        <time>2020-01-05T10:36:08Z</time>
      </trkpt>
      <trkpt lat="48.66733" lon="7.5022">
        <ele>281</ele>
        <time>2020-01-05T10:36:11Z</time>
      </trkpt>
      <trkpt lat="48.66736" lon="7.50217">
        <ele>280.9</ele>
        <time>2020-01-05T10:36:14Z</time>
      </trkpt>
      <trkpt lat="48.66737" lon="7.50213">
        <ele>280.8</ele>
        <time>2020-01-05T10:36:18Z</time>
      </trkpt>
      <trkpt lat="48.6674" lon="7.5021">
        <ele>280.8</ele>
        <time>2020-01-05T10:36:23Z</time>
      </trkpt>
      <trkpt lat="48.66743" lon="7.50209">
        <ele>280.8</ele>
        <time>2020-01-05T10:36:25Z</time>
      </trkpt>
      <trkpt lat="48.66745" lon="7.50207">
        <ele>280.8</ele>
        <time>2020-01-05T10:36:27Z</time>
      </trkpt>
      <trkpt lat="48.66747" lon="7.50204">
        <ele>280.8</ele>
        <time>2020-01-05T10:36:29Z</time>
      </trkpt>
      <trkpt lat="48.6675" lon="7.50202">
        <ele>280.8</ele>
        <time>2020-01-05T10:36:35Z</time>
      </trkpt>
      <trkpt lat="48.66752" lon="7.50199">
        <ele>280.8</ele>
        <time>2020-01-05T10:36:38Z</time>
      </trkpt>
      <trkpt lat="48.66756" lon="7.50198">
        <ele>280.8</ele>
        <time>2020-01-05T10:36:41Z</time>
      </trkpt>
      <trkpt lat="48.66759" lon="7.50195">
        <ele>280.7</ele>
        <time>2020-01-05T10:36:44Z</time>
      </trkpt>
      <trkpt lat="48.66762" lon="7.50192">
        <ele>280.7</ele>
        <time>2020-01-05T10:36:48Z</time>
      </trkpt>
      <trkpt lat="48.66765" lon="7.50189">
        <ele>280.6</ele>
        <time>2020-01-05T10:36:51Z</time>
      </trkpt>
      <trkpt lat="48.66768" lon="7.50187">
        <ele>280.5</ele>
        <time>2020-01-05T10:36:54Z</time>
      </trkpt>
      <trkpt lat="48.6677" lon="7.50183">
        <ele>280.3</ele>
        <time>2020-01-05T10:36:58Z</time>
      </trkpt>
      <trkpt lat="48.66772" lon="7.5018">
        <ele>280.2</ele>
        <time>2020-01-05T10:37:02Z</time>
      </trkpt>
      <trkpt lat="48.66776" lon="7.50176">
        <ele>280</ele>
        <time>2020-01-05T10:37:05Z</time>
      </trkpt>
      <trkpt lat="48.66778" lon="7.50172">
        <ele>279.9</ele>
        <time>2020-01-05T10:37:08Z</time>
      </trkpt>
      <trkpt lat="48.66781" lon="7.50168">
        <ele>279.8</ele>
        <time>2020-01-05T10:37:10Z</time>
      </trkpt>
      <trkpt lat="48.66783" lon="7.50166">
        <ele>279.7</ele>
        <time>2020-01-05T10:37:13Z</time>
      </trkpt>
      <trkpt lat="48.66786" lon="7.50166">
        <ele>279.6</ele>
        <time>2020-01-05T10:37:16Z</time>
      </trkpt>
      <trkpt lat="48.66788" lon="7.50164">
        <ele>279.5</ele>
        <time>2020-01-05T10:37:19Z</time>
      </trkpt>
      <trkpt lat="48.66791" lon="7.50162">
        <ele>279.4</ele>
        <time>2020-01-05T10:37:22Z</time>
      </trkpt>
      <trkpt lat="48.66792" lon="7.50158">
        <ele>279.4</ele>
        <time>2020-01-05T10:37:26Z</time>
      </trkpt>
      <trkpt lat="48.66795" lon="7.50155">
        <ele>279.3</ele>
        <time>2020-01-05T10:37:28Z</time>
      </trkpt>
      <trkpt lat="48.66798" lon="7.50154">
        <ele>279.2</ele>
        <time>2020-01-05T10:37:30Z</time>
      </trkpt>
      <trkpt lat="48.66801" lon="7.50151">
        <ele>279</ele>
        <time>2020-01-05T10:37:32Z</time>
      </trkpt>
      <trkpt lat="48.66803" lon="7.50148">
        <ele>278.8</ele>
        <time>2020-01-05T10:37:35Z</time>
      </trkpt>
      <trkpt lat="48.66806" lon="7.50146">
        <ele>278.6</ele>
        <time>2020-01-05T10:37:38Z</time>
      </trkpt>
      <trkpt lat="48.66809" lon="7.50143">
        <ele>278.4</ele>
        <time>2020-01-05T10:37:41Z</time>
      </trkpt>
      <trkpt lat="48.66812" lon="7.50141">
        <ele>278.2</ele>
        <time>2020-01-05T10:37:43Z</time>
      </trkpt>
      <trkpt lat="48.66815" lon="7.50138">
        <ele>278.1</ele>
        <time>2020-01-05T10:37:46Z</time>
      </trkpt>
      <trkpt lat="48.66818" lon="7.50135">
        <ele>277.9</ele>
        <time>2020-01-05T10:37:48Z</time>
      </trkpt>
      <trkpt lat="48.66821" lon="7.50133">
        <ele>277.7</ele>
        <time>2020-01-05T10:37:50Z</time>
      </trkpt>
      <trkpt lat="48.66825" lon="7.5013">
        <ele>277.4</ele>
        <time>2020-01-05T10:37:54Z</time>
      </trkpt>
      <trkpt lat="48.66828" lon="7.50128">
        <ele>277.2</ele>
        <time>2020-01-05T10:37:57Z</time>
      </trkpt>
      <trkpt lat="48.66831" lon="7.50125">
        <ele>277.1</ele>
        <time>2020-01-05T10:37:59Z</time>
      </trkpt>
      <trkpt lat="48.66833" lon="7.50123">
        <ele>277</ele>
        <time>2020-01-05T10:38:01Z</time>
      </trkpt>
      <trkpt lat="48.66836" lon="7.50119">
        <ele>276.9</ele>
        <time>2020-01-05T10:38:04Z</time>
      </trkpt>
      <trkpt lat="48.66839" lon="7.50117">
        <ele>276.7</ele>
        <time>2020-01-05T10:38:07Z</time>
      </trkpt>
      <trkpt lat="48.66841" lon="7.50114">
        <ele>276.6</ele>
        <time>2020-01-05T10:38:10Z</time>
      </trkpt>
      <trkpt lat="48.66843" lon="7.50111">
        <ele>276.5</ele>
        <time>2020-01-05T10:38:13Z</time>
      </trkpt>
      <trkpt lat="48.66846" lon="7.50107">
        <ele>276.4</ele>
        <time>2020-01-05T10:38:16Z</time>
      </trkpt>
      <trkpt lat="48.66848" lon="7.50104">
        <ele>276.3</ele>
        <time>2020-01-05T10:38:18Z</time>
      </trkpt>
      <trkpt lat="48.66852" lon="7.50103">
        <ele>276.1</ele>
        <time>2020-01-05T10:38:21Z</time>
      </trkpt>
      <trkpt lat="48.66855" lon="7.501">
        <ele>276</ele>
        <time>2020-01-05T10:38:25Z</time>
      </trkpt>
      <trkpt lat="48.66857" lon="7.50097">
        <ele>275.9</ele>
        <time>2020-01-05T10:38:27Z</time>
      </trkpt>
      <trkpt lat="48.6686" lon="7.50095">
        <ele>275.8</ele>
        <time>2020-01-05T10:38:30Z</time>
      </trkpt>
      <trkpt lat="48.66863" lon="7.50093">
        <ele>275.7</ele>
        <time>2020-01-05T10:38:33Z</time>
      </trkpt>
      <trkpt lat="48.66866" lon="7.50089">
        <ele>275.5</ele>
        <time>2020-01-05T10:38:36Z</time>
      </trkpt>
      <trkpt lat="48.66869" lon="7.50087">
        <ele>275.4</ele>
        <time>2020-01-05T10:38:39Z</time>
      </trkpt>
      <trkpt lat="48.66871" lon="7.50085">
        <ele>275.2</ele>
        <time>2020-01-05T10:38:43Z</time>
      </trkpt>
      <trkpt lat="48.66873" lon="7.50081">
        <ele>275</ele>
        <time>2020-01-05T10:38:45Z</time>
      </trkpt>
      <trkpt lat="48.66875" lon="7.50079">
        <ele>274.8</ele>
        <time>2020-01-05T10:38:48Z</time>
      </trkpt>
      <trkpt lat="48.66878" lon="7.50076">
        <ele>274.6</ele>
        <time>2020-01-05T10:38:51Z</time>
      </trkpt>
      <trkpt lat="48.66881" lon="7.50073">
        <ele>274.4</ele>
        <time>2020-01-05T10:38:54Z</time>
      </trkpt>
      <trkpt lat="48.66883" lon="7.50069">
        <ele>274</ele>
        <time>2020-01-05T10:38:57Z</time>
      </trkpt>
      <trkpt lat="48.66886" lon="7.50067">
        <ele>273.9</ele>
        <time>2020-01-05T10:39:01Z</time>
      </trkpt>
      <trkpt lat="48.66889" lon="7.50064">
        <ele>273.7</ele>
        <time>2020-01-05T10:39:03Z</time>
      </trkpt>
      <trkpt lat="48.66892" lon="7.50062">
        <ele>273.5</ele>
        <time>2020-01-05T10:39:06Z</time>
      </trkpt>
      <trkpt lat="48.66894" lon="7.50058">
        <ele>273.4</ele>
        <time>2020-01-05T10:39:09Z</time>
      </trkpt>
      <trkpt lat="48.66896" lon="7.50056">
        <ele>273.3</ele>
        <time>2020-01-05T10:39:12Z</time>
      </trkpt>
      <trkpt lat="48.66899" lon="7.50054">
        <ele>273.1</ele>
        <time>2020-01-05T10:39:15Z</time>
      </trkpt>
      <trkpt lat="48.66901" lon="7.5005">
        <ele>273</ele>
        <time>2020-01-05T10:39:17Z</time>
      </trkpt>
      <trkpt lat="48.66903" lon="7.50047">
        <ele>272.8</ele>
        <time>2020-01-05T10:39:20Z</time>
      </trkpt>
      <trkpt lat="48.66906" lon="7.50047">
        <ele>272.7</ele>
        <time>2020-01-05T10:39:22Z</time>
      </trkpt>
      <trkpt lat="48.66909" lon="7.50044">
        <ele>272.6</ele>
        <time>2020-01-05T10:39:25Z</time>
      </trkpt>
      <trkpt lat="48.66911" lon="7.5004">
        <ele>272.4</ele>
        <time>2020-01-05T10:39:28Z</time>
      </trkpt>
      <trkpt lat="48.66914" lon="7.50039">
        <ele>272.3</ele>
        <time>2020-01-05T10:39:30Z</time>
      </trkpt>
      <trkpt lat="48.66917" lon="7.50036">
        <ele>272</ele>
        <time>2020-01-05T10:39:32Z</time>
      </trkpt>
      <trkpt lat="48.66919" lon="7.50035">
        <ele>271.8</ele>
        <time>2020-01-05T10:39:35Z</time>
      </trkpt>
      <trkpt lat="48.66922" lon="7.50031">
        <ele>271.7</ele>
        <time>2020-01-05T10:39:38Z</time>
      </trkpt>
      <trkpt lat="48.66925" lon="7.5003">
        <ele>271.5</ele>
        <time>2020-01-05T10:39:40Z</time>
      </trkpt>
      <trkpt lat="48.66928" lon="7.50027">
        <ele>271.3</ele>
        <time>2020-01-05T10:39:43Z</time>
      </trkpt>
      <trkpt lat="48.66931" lon="7.50025">
        <ele>271.1</ele>
        <time>2020-01-05T10:39:45Z</time>
      </trkpt>
      <trkpt lat="48.66934" lon="7.50023">
        <ele>270.9</ele>
        <time>2020-01-05T10:39:48Z</time>
      </trkpt>
      <trkpt lat="48.66937" lon="7.5002">
        <ele>270.6</ele>
        <time>2020-01-05T10:39:51Z</time>
      </trkpt>
      <trkpt lat="48.6694" lon="7.50017">
        <ele>270.3</ele>
        <time>2020-01-05T10:39:54Z</time>
      </trkpt>
      <trkpt lat="48.66943" lon="7.50015">
        <ele>270.2</ele>
        <time>2020-01-05T10:39:56Z</time>
      </trkpt>
      <trkpt lat="48.66945" lon="7.50011">
        <ele>270.1</ele>
        <time>2020-01-05T10:39:58Z</time>
      </trkpt>
      <trkpt lat="48.66948" lon="7.50009">
        <ele>270</ele>
        <time>2020-01-05T10:40:01Z</time>
      </trkpt>
      <trkpt lat="48.66952" lon="7.50005">
        <ele>269.9</ele>
        <time>2020-01-05T10:40:04Z</time>
      </trkpt>
      <trkpt lat="48.66954" lon="7.50002">
        <ele>269.8</ele>
        <time>2020-01-05T10:40:06Z</time>
      </trkpt>
      <trkpt lat="48.66957" lon="7.50001">
        <ele>269.7</ele>
        <time>2020-01-05T10:40:08Z</time>
      </trkpt>
      <trkpt lat="48.6696" lon="7.49997">
        <ele>269.6</ele>
        <time>2020-01-05T10:40:11Z</time>
      </trkpt>
      <trkpt lat="48.66962" lon="7.49994">
        <ele>269.5</ele>
        <time>2020-01-05T10:40:14Z</time>
      </trkpt>
      <trkpt lat="48.66965" lon="7.49992">
        <ele>269.4</ele>
        <time>2020-01-05T10:40:17Z</time>
      </trkpt>
      <trkpt lat="48.66966" lon="7.49989">
        <ele>269.3</ele>
        <time>2020-01-05T10:40:20Z</time>
      </trkpt>
      <trkpt lat="48.66969" lon="7.49985">
        <ele>269.1</ele>
        <time>2020-01-05T10:40:24Z</time>
      </trkpt>
      <trkpt lat="48.66971" lon="7.49982">
        <ele>269.1</ele>
        <time>2020-01-05T10:40:26Z</time>
      </trkpt>
      <trkpt lat="48.66974" lon="7.4998">
        <ele>269</ele>
        <time>2020-01-05T10:40:29Z</time>
      </trkpt>
      <trkpt lat="48.66977" lon="7.49978">
        <ele>268.9</ele>
        <time>2020-01-05T10:40:32Z</time>
      </trkpt>
      <trkpt lat="48.6698" lon="7.49976">
        <ele>268.8</ele>
        <time>2020-01-05T10:40:36Z</time>
      </trkpt>
      <trkpt lat="48.66982" lon="7.49972">
        <ele>268.7</ele>
        <time>2020-01-05T10:40:39Z</time>
      </trkpt>
      <trkpt lat="48.66985" lon="7.49968">
        <ele>268.6</ele>
        <time>2020-01-05T10:40:42Z</time>
      </trkpt>
      <trkpt lat="48.66987" lon="7.49967">
        <ele>268.5</ele>
        <time>2020-01-05T10:40:44Z</time>
      </trkpt>
      <trkpt lat="48.66991" lon="7.49964">
        <ele>268.5</ele>
        <time>2020-01-05T10:40:47Z</time>
      </trkpt>
      <trkpt lat="48.66993" lon="7.49962">
        <ele>268.4</ele>
        <time>2020-01-05T10:40:49Z</time>
      </trkpt>
      <trkpt lat="48.66995" lon="7.49958">
        <ele>268.3</ele>
        <time>2020-01-05T10:40:51Z</time>
      </trkpt>
      <trkpt lat="48.66998" lon="7.49956">
        <ele>268.2</ele>
        <time>2020-01-05T10:40:54Z</time>
      </trkpt>
      <trkpt lat="48.67001" lon="7.49953">
        <ele>268.2</ele>
        <time>2020-01-05T10:40:57Z</time>
      </trkpt>
      <trkpt lat="48.67003" lon="7.4995">
        <ele>268.1</ele>
        <time>2020-01-05T10:41:00Z</time>
      </trkpt>
      <trkpt lat="48.67007" lon="7.49947">
        <ele>267.9</ele>
        <time>2020-01-05T10:41:03Z</time>
      </trkpt>
      <trkpt lat="48.67011" lon="7.49945">
        <ele>267.9</ele>
        <time>2020-01-05T10:41:06Z</time>
      </trkpt>
      <trkpt lat="48.67014" lon="7.49943">
        <ele>267.8</ele>
        <time>2020-01-05T10:41:08Z</time>
      </trkpt>
      <trkpt lat="48.67017" lon="7.49941">
        <ele>267.8</ele>
        <time>2020-01-05T10:41:11Z</time>
      </trkpt>
      <trkpt lat="48.67019" lon="7.49938">
        <ele>267.7</ele>
        <time>2020-01-05T10:41:14Z</time>
      </trkpt>
      <trkpt lat="48.67022" lon="7.49936">
        <ele>267.7</ele>
        <time>2020-01-05T10:41:17Z</time>
      </trkpt>
      <trkpt lat="48.67024" lon="7.49932">
        <ele>267.7</ele>
        <time>2020-01-05T10:41:20Z</time>
      </trkpt>
      <trkpt lat="48.67027" lon="7.49929">
        <ele>267.6</ele>
        <time>2020-01-05T10:41:23Z</time>
      </trkpt>
      <trkpt lat="48.6703" lon="7.49928">
        <ele>267.6</ele>
        <time>2020-01-05T10:41:26Z</time>
      </trkpt>
      <trkpt lat="48.67033" lon="7.49925">
        <ele>267.5</ele>
        <time>2020-01-05T10:41:30Z</time>
      </trkpt>
      <trkpt lat="48.67036" lon="7.49926">
        <ele>267.4</ele>
        <time>2020-01-05T10:41:33Z</time>
      </trkpt>
      <trkpt lat="48.6704" lon="7.49927">
        <ele>267.4</ele>
        <time>2020-01-05T10:41:38Z</time>
      </trkpt>
      <trkpt lat="48.67042" lon="7.49931">
        <ele>267.3</ele>
        <time>2020-01-05T10:41:41Z</time>
      </trkpt>
      <trkpt lat="48.67044" lon="7.49933">
        <ele>267.3</ele>
        <time>2020-01-05T10:41:43Z</time>
      </trkpt>
      <trkpt lat="48.67046" lon="7.49937">
        <ele>267.2</ele>
        <time>2020-01-05T10:41:45Z</time>
      </trkpt>
      <trkpt lat="48.67047" lon="7.49942">
        <ele>267.1</ele>
        <time>2020-01-05T10:41:49Z</time>
      </trkpt>
      <trkpt lat="48.67049" lon="7.49946">
        <ele>267.1</ele>
        <time>2020-01-05T10:41:51Z</time>
      </trkpt>
      <trkpt lat="48.67051" lon="7.4995">
        <ele>267</ele>
        <time>2020-01-05T10:41:54Z</time>
      </trkpt>
      <trkpt lat="48.67053" lon="7.49953">
        <ele>267</ele>
        <time>2020-01-05T10:41:57Z</time>
      </trkpt>
      <trkpt lat="48.67055" lon="7.49958">
        <ele>266.9</ele>
        <time>2020-01-05T10:42:01Z</time>
      </trkpt>
      <trkpt lat="48.67056" lon="7.49962">
        <ele>266.8</ele>
        <time>2020-01-05T10:42:04Z</time>
      </trkpt>
      <trkpt lat="48.67059" lon="7.49966">
        <ele>266.6</ele>
        <time>2020-01-05T10:42:07Z</time>
      </trkpt>
      <trkpt lat="48.67061" lon="7.4997">
        <ele>266.5</ele>
        <time>2020-01-05T10:42:10Z</time>
      </trkpt>
      <trkpt lat="48.67063" lon="7.49973">
        <ele>266.4</ele>
        <time>2020-01-05T10:42:12Z</time>
      </trkpt>
      <trkpt lat="48.67065" lon="7.49976">
        <ele>266.2</ele>
        <time>2020-01-05T10:42:14Z</time>
      </trkpt>
      <trkpt lat="48.67067" lon="7.4998">
        <ele>266.1</ele>
        <time>2020-01-05T10:42:16Z</time>
      </trkpt>
      <trkpt lat="48.67069" lon="7.49984">
        <ele>265.9</ele>
        <time>2020-01-05T10:42:19Z</time>
      </trkpt>
      <trkpt lat="48.6707" lon="7.49989">
        <ele>265.8</ele>
        <time>2020-01-05T10:42:23Z</time>
      </trkpt>
      <trkpt lat="48.67072" lon="7.49993">
        <ele>265.6</ele>
        <time>2020-01-05T10:42:26Z</time>
      </trkpt>
      <trkpt lat="48.67073" lon="7.49997">
        <ele>265.5</ele>
        <time>2020-01-05T10:42:29Z</time>
      </trkpt>
      <trkpt lat="48.67075" lon="7.50002">
        <ele>265.4</ele>
        <time>2020-01-05T10:42:32Z</time>
      </trkpt>
      <trkpt lat="48.67078" lon="7.50006">
        <ele>265.2</ele>
        <time>2020-01-05T10:42:35Z</time>
      </trkpt>
      <trkpt lat="48.67079" lon="7.5001">
        <ele>265.1</ele>
        <time>2020-01-05T10:42:38Z</time>
      </trkpt>
      <trkpt lat="48.67081" lon="7.50014">
        <ele>265.1</ele>
        <time>2020-01-05T10:42:42Z</time>
      </trkpt>
      <trkpt lat="48.67084" lon="7.50018">
        <ele>265</ele>
        <time>2020-01-05T10:42:44Z</time>
      </trkpt>
      <trkpt lat="48.67085" lon="7.50022">
        <ele>265</ele>
        <time>2020-01-05T10:42:46Z</time>
      </trkpt>
      <trkpt lat="48.67087" lon="7.50026">
        <ele>264.9</ele>
        <time>2020-01-05T10:42:49Z</time>
      </trkpt>
      <trkpt lat="48.67089" lon="7.5003">
        <ele>264.9</ele>
        <time>2020-01-05T10:42:51Z</time>
      </trkpt>
      <trkpt lat="48.67091" lon="7.50034">
        <ele>264.8</ele>
        <time>2020-01-05T10:42:53Z</time>
      </trkpt>
      <trkpt lat="48.67093" lon="7.50037">
        <ele>264.8</ele>
        <time>2020-01-05T10:42:56Z</time>
      </trkpt>
      <trkpt lat="48.67095" lon="7.50042">
        <ele>264.7</ele>
        <time>2020-01-05T10:42:59Z</time>
      </trkpt>
      <trkpt lat="48.67096" lon="7.50045">
        <ele>264.6</ele>
        <time>2020-01-05T10:43:01Z</time>
      </trkpt>
      <trkpt lat="48.67098" lon="7.50049">
        <ele>264.4</ele>
        <time>2020-01-05T10:43:04Z</time>
      </trkpt>
      <trkpt lat="48.671" lon="7.50053">
        <ele>264.3</ele>
        <time>2020-01-05T10:43:06Z</time>
      </trkpt>
      <trkpt lat="48.67101" lon="7.50058">
        <ele>264.1</ele>
        <time>2020-01-05T10:43:09Z</time>
      </trkpt>
      <trkpt lat="48.67102" lon="7.50062">
        <ele>264</ele>
        <time>2020-01-05T10:43:12Z</time>
      </trkpt>
      <trkpt lat="48.67103" lon="7.50067">
        <ele>263.8</ele>
        <time>2020-01-05T10:43:15Z</time>
      </trkpt>
      <trkpt lat="48.67106" lon="7.50069">
        <ele>263.6</ele>
        <time>2020-01-05T10:43:17Z</time>
      </trkpt>
      <trkpt lat="48.67108" lon="7.50073">
        <ele>263.4</ele>
        <time>2020-01-05T10:43:19Z</time>
      </trkpt>
      <trkpt lat="48.6711" lon="7.50077">
        <ele>263.3</ele>
        <time>2020-01-05T10:43:23Z</time>
      </trkpt>
      <trkpt lat="48.67111" lon="7.50081">
        <ele>263.1</ele>
        <time>2020-01-05T10:43:25Z</time>
      </trkpt>
      <trkpt lat="48.67112" lon="7.50087">
        <ele>262.9</ele>
        <time>2020-01-05T10:43:28Z</time>
      </trkpt>
      <trkpt lat="48.67114" lon="7.50091">
        <ele>262.7</ele>
        <time>2020-01-05T10:43:31Z</time>
      </trkpt>
      <trkpt lat="48.67117" lon="7.50095">
        <ele>262.5</ele>
        <time>2020-01-05T10:43:34Z</time>
      </trkpt>
      <trkpt lat="48.67118" lon="7.50099">
        <ele>262.4</ele>
        <time>2020-01-05T10:43:38Z</time>
      </trkpt>
      <trkpt lat="48.67119" lon="7.50104">
        <ele>262.2</ele>
        <time>2020-01-05T10:43:41Z</time>
      </trkpt>
      <trkpt lat="48.6712" lon="7.50108">
        <ele>262</ele>
        <time>2020-01-05T10:43:43Z</time>
      </trkpt>
      <trkpt lat="48.67121" lon="7.50113">
        <ele>261.8</ele>
        <time>2020-01-05T10:43:46Z</time>
      </trkpt>
      <trkpt lat="48.67124" lon="7.50116">
        <ele>261.7</ele>
        <time>2020-01-05T10:43:49Z</time>
      </trkpt>
      <trkpt lat="48.67126" lon="7.5012">
        <ele>261.6</ele>
        <time>2020-01-05T10:43:52Z</time>
      </trkpt>
      <trkpt lat="48.67128" lon="7.50124">
        <ele>261.4</ele>
        <time>2020-01-05T10:43:54Z</time>
      </trkpt>
      <trkpt lat="48.6713" lon="7.50127">
        <ele>261.3</ele>
        <time>2020-01-05T10:43:57Z</time>
      </trkpt>
      <trkpt lat="48.67131" lon="7.50132">
        <ele>261.2</ele>
        <time>2020-01-05T10:44:01Z</time>
      </trkpt>
      <trkpt lat="48.67133" lon="7.50136">
        <ele>261</ele>
        <time>2020-01-05T10:44:04Z</time>
      </trkpt>
      <trkpt lat="48.67134" lon="7.50141">
        <ele>260.9</ele>
        <time>2020-01-05T10:44:07Z</time>
      </trkpt>
      <trkpt lat="48.67135" lon="7.50146">
        <ele>260.8</ele>
        <time>2020-01-05T10:44:10Z</time>
      </trkpt>
      <trkpt lat="48.67137" lon="7.5015">
        <ele>260.6</ele>
        <time>2020-01-05T10:44:13Z</time>
      </trkpt>
      <trkpt lat="48.6714" lon="7.50154">
        <ele>260.5</ele>
        <time>2020-01-05T10:44:15Z</time>
      </trkpt>
      <trkpt lat="48.67141" lon="7.50158">
        <ele>260.4</ele>
        <time>2020-01-05T10:44:17Z</time>
      </trkpt>
      <trkpt lat="48.67144" lon="7.50162">
        <ele>260.2</ele>
        <time>2020-01-05T10:44:20Z</time>
      </trkpt>
      <trkpt lat="48.67146" lon="7.50166">
        <ele>260.1</ele>
        <time>2020-01-05T10:44:23Z</time>
      </trkpt>
      <trkpt lat="48.67149" lon="7.5017">
        <ele>259.8</ele>
        <time>2020-01-05T10:44:26Z</time>
      </trkpt>
      <trkpt lat="48.67151" lon="7.50175">
        <ele>259.5</ele>
        <time>2020-01-05T10:44:29Z</time>
      </trkpt>
      <trkpt lat="48.67154" lon="7.50177">
        <ele>259.3</ele>
        <time>2020-01-05T10:44:31Z</time>
      </trkpt>
      <trkpt lat="48.67156" lon="7.50182">
        <ele>259</ele>
        <time>2020-01-05T10:44:34Z</time>
      </trkpt>
      <trkpt lat="48.67158" lon="7.50187">
        <ele>258.7</ele>
        <time>2020-01-05T10:44:37Z</time>
      </trkpt>
      <trkpt lat="48.67159" lon="7.50191">
        <ele>258.4</ele>
        <time>2020-01-05T10:44:40Z</time>
      </trkpt>
      <trkpt lat="48.67161" lon="7.50195">
        <ele>258.2</ele>
        <time>2020-01-05T10:44:43Z</time>
      </trkpt>
      <trkpt lat="48.67163" lon="7.50198">
        <ele>257.9</ele>
        <time>2020-01-05T10:44:45Z</time>
      </trkpt>
      <trkpt lat="48.67165" lon="7.50202">
        <ele>257.6</ele>
        <time>2020-01-05T10:44:48Z</time>
      </trkpt>
      <trkpt lat="48.67166" lon="7.50207">
        <ele>257.3</ele>
        <time>2020-01-05T10:44:51Z</time>
      </trkpt>
      <trkpt lat="48.67169" lon="7.50212">
        <ele>257</ele>
        <time>2020-01-05T10:44:55Z</time>
      </trkpt>
      <trkpt lat="48.67169" lon="7.50216">
        <ele>256.7</ele>
        <time>2020-01-05T10:44:58Z</time>
      </trkpt>
      <trkpt lat="48.67172" lon="7.5022">
        <ele>256.4</ele>
        <time>2020-01-05T10:45:00Z</time>
      </trkpt>
      <trkpt lat="48.67174" lon="7.50224">
        <ele>256</ele>
        <time>2020-01-05T10:45:03Z</time>
      </trkpt>
      <trkpt lat="48.67175" lon="7.5023">
        <ele>255.6</ele>
        <time>2020-01-05T10:45:06Z</time>
      </trkpt>
      <trkpt lat="48.67177" lon="7.50235">
        <ele>255.2</ele>
        <time>2020-01-05T10:45:09Z</time>
      </trkpt>
      <trkpt lat="48.67179" lon="7.5024">
        <ele>254.8</ele>
        <time>2020-01-05T10:45:13Z</time>
      </trkpt>
      <trkpt lat="48.6718" lon="7.50244">
        <ele>254.5</ele>
        <time>2020-01-05T10:45:16Z</time>
      </trkpt>
      <trkpt lat="48.67182" lon="7.50248">
        <ele>254.2</ele>
        <time>2020-01-05T10:45:18Z</time>
      </trkpt>
      <trkpt lat="48.67184" lon="7.50252">
        <ele>253.8</ele>
        <time>2020-01-05T10:45:22Z</time>
      </trkpt>
      <trkpt lat="48.67185" lon="7.50256">
        <ele>253.5</ele>
        <time>2020-01-05T10:45:24Z</time>
      </trkpt>
      <trkpt lat="48.67187" lon="7.50261">
        <ele>253.2</ele>
        <time>2020-01-05T10:45:28Z</time>
      </trkpt>
      <trkpt lat="48.67189" lon="7.50265">
        <ele>253</ele>
        <time>2020-01-05T10:45:31Z</time>
      </trkpt>
      <trkpt lat="48.6719" lon="7.5027">
        <ele>252.6</ele>
        <time>2020-01-05T10:45:34Z</time>
      </trkpt>
      <trkpt lat="48.67191" lon="7.50275">
        <ele>252.3</ele>
        <time>2020-01-05T10:45:37Z</time>
      </trkpt>
      <trkpt lat="48.67192" lon="7.5028">
        <ele>252</ele>
        <time>2020-01-05T10:45:40Z</time>
      </trkpt>
      <trkpt lat="48.67192" lon="7.50285">
        <ele>251.7</ele>
        <time>2020-01-05T10:45:43Z</time>
      </trkpt>
      <trkpt lat="48.67195" lon="7.50289">
        <ele>251.4</ele>
        <time>2020-01-05T10:45:46Z</time>
      </trkpt>
      <trkpt lat="48.67197" lon="7.50293">
        <ele>251.2</ele>
        <time>2020-01-05T10:45:48Z</time>
      </trkpt>
      <trkpt lat="48.67199" lon="7.50296">
        <ele>250.9</ele>
        <time>2020-01-05T10:45:51Z</time>
      </trkpt>
      <trkpt lat="48.672" lon="7.503">
        <ele>250.6</ele>
        <time>2020-01-05T10:45:54Z</time>
      </trkpt>
      <trkpt lat="48.67202" lon="7.50304">
        <ele>250.3</ele>
        <time>2020-01-05T10:45:56Z</time>
      </trkpt>
      <trkpt lat="48.67204" lon="7.50308">
        <ele>249.9</ele>
        <time>2020-01-05T10:45:58Z</time>
      </trkpt>
      <trkpt lat="48.67205" lon="7.50312">
        <ele>249.4</ele>
        <time>2020-01-05T10:46:01Z</time>
      </trkpt>
      <trkpt lat="48.67208" lon="7.50317">
        <ele>248.9</ele>
        <time>2020-01-05T10:46:04Z</time>
      </trkpt>
      <trkpt lat="48.67209" lon="7.50321">
        <ele>248.5</ele>
        <time>2020-01-05T10:46:07Z</time>
      </trkpt>
      <trkpt lat="48.6721" lon="7.50325">
        <ele>248.1</ele>
        <time>2020-01-05T10:46:09Z</time>
      </trkpt>
      <trkpt lat="48.67211" lon="7.5033">
        <ele>247.7</ele>
        <time>2020-01-05T10:46:12Z</time>
      </trkpt>
      <trkpt lat="48.67212" lon="7.50335">
        <ele>247.4</ele>
        <time>2020-01-05T10:46:15Z</time>
      </trkpt>
      <trkpt lat="48.67214" lon="7.50339">
        <ele>247.1</ele>
        <time>2020-01-05T10:46:17Z</time>
      </trkpt>
      <trkpt lat="48.67216" lon="7.50343">
        <ele>246.8</ele>
        <time>2020-01-05T10:46:20Z</time>
      </trkpt>
      <trkpt lat="48.67218" lon="7.50347">
        <ele>246.4</ele>
        <time>2020-01-05T10:46:23Z</time>
      </trkpt>
      <trkpt lat="48.67219" lon="7.50351">
        <ele>246.1</ele>
        <time>2020-01-05T10:46:25Z</time>
      </trkpt>
      <trkpt lat="48.6722" lon="7.50356">
        <ele>245.7</ele>
        <time>2020-01-05T10:46:28Z</time>
      </trkpt>
      <trkpt lat="48.67221" lon="7.50361">
        <ele>245.4</ele>
        <time>2020-01-05T10:46:31Z</time>
      </trkpt>
      <trkpt lat="48.67222" lon="7.50365">
        <ele>245.2</ele>
        <time>2020-01-05T10:46:34Z</time>
      </trkpt>
      <trkpt lat="48.67224" lon="7.50371">
        <ele>245</ele>
        <time>2020-01-05T10:46:37Z</time>
      </trkpt>
      <trkpt lat="48.67224" lon="7.50375">
        <ele>244.8</ele>
        <time>2020-01-05T10:46:40Z</time>
      </trkpt>
      <trkpt lat="48.67225" lon="7.5038">
        <ele>244.7</ele>
        <time>2020-01-05T10:46:42Z</time>
      </trkpt>
      <trkpt lat="48.67226" lon="7.50385">
        <ele>244.5</ele>
        <time>2020-01-05T10:46:45Z</time>
      </trkpt>
      <trkpt lat="48.67227" lon="7.50391">
        <ele>244.3</ele>
        <time>2020-01-05T10:46:48Z</time>
      </trkpt>
      <trkpt lat="48.67227" lon="7.50395">
        <ele>244.1</ele>
        <time>2020-01-05T10:46:50Z</time>
      </trkpt>
      <trkpt lat="48.67229" lon="7.50399">
        <ele>243.9</ele>
        <time>2020-01-05T10:46:52Z</time>
      </trkpt>
      <trkpt lat="48.6723" lon="7.50403">
        <ele>243.8</ele>
        <time>2020-01-05T10:46:55Z</time>
      </trkpt>
      <trkpt lat="48.67231" lon="7.50407">
        <ele>243.6</ele>
        <time>2020-01-05T10:46:57Z</time>
      </trkpt>
      <trkpt lat="48.67232" lon="7.50411">
        <ele>243.5</ele>
        <time>2020-01-05T10:47:00Z</time>
      </trkpt>
      <trkpt lat="48.67233" lon="7.50415">
        <ele>243.4</ele>
        <time>2020-01-05T10:47:02Z</time>
      </trkpt>
      <trkpt lat="48.67234" lon="7.50419">
        <ele>243.2</ele>
        <time>2020-01-05T10:47:04Z</time>
      </trkpt>
      <trkpt lat="48.67235" lon="7.50424">
        <ele>243</ele>
        <time>2020-01-05T10:47:06Z</time>
      </trkpt>
      <trkpt lat="48.67236" lon="7.50429">
        <ele>242.9</ele>
        <time>2020-01-05T10:47:08Z</time>
      </trkpt>
      <trkpt lat="48.67237" lon="7.50433">
        <ele>242.7</ele>
        <time>2020-01-05T10:47:11Z</time>
      </trkpt>
      <trkpt lat="48.67238" lon="7.50438">
        <ele>241.9</ele>
        <time>2020-01-05T10:47:14Z</time>
      </trkpt>
      <trkpt lat="48.67238" lon="7.50444">
        <ele>241.8</ele>
        <time>2020-01-05T10:47:17Z</time>
      </trkpt>
      <trkpt lat="48.6724" lon="7.50449">
        <ele>241.6</ele>
        <time>2020-01-05T10:47:20Z</time>
      </trkpt>
      <trkpt lat="48.67241" lon="7.50454">
        <ele>241.5</ele>
        <time>2020-01-05T10:47:23Z</time>
      </trkpt>
      <trkpt lat="48.67242" lon="7.50459">
        <ele>241.4</ele>
        <time>2020-01-05T10:47:25Z</time>
      </trkpt>
      <trkpt lat="48.67243" lon="7.50463">
        <ele>241.3</ele>
        <time>2020-01-05T10:47:28Z</time>
      </trkpt>
      <trkpt lat="48.67245" lon="7.50468">
        <ele>241.2</ele>
        <time>2020-01-05T10:47:31Z</time>
      </trkpt>
      <trkpt lat="48.67247" lon="7.50472">
        <ele>241.1</ele>
        <time>2020-01-05T10:47:33Z</time>
      </trkpt>
      <trkpt lat="48.67248" lon="7.50477">
        <ele>241</ele>
        <time>2020-01-05T10:47:36Z</time>
      </trkpt>
      <trkpt lat="48.67249" lon="7.50482">
        <ele>240.9</ele>
        <time>2020-01-05T10:47:39Z</time>
      </trkpt>
      <trkpt lat="48.6725" lon="7.50486">
        <ele>240.8</ele>
        <time>2020-01-05T10:47:41Z</time>
      </trkpt>
      <trkpt lat="48.67253" lon="7.50491">
        <ele>240.7</ele>
        <time>2020-01-05T10:47:44Z</time>
      </trkpt>
      <trkpt lat="48.67254" lon="7.50495">
        <ele>240.6</ele>
        <time>2020-01-05T10:47:46Z</time>
      </trkpt>
      <trkpt lat="48.67255" lon="7.505">
        <ele>240.5</ele>
        <time>2020-01-05T10:47:50Z</time>
      </trkpt>
      <trkpt lat="48.67256" lon="7.50504">
        <ele>240.5</ele>
        <time>2020-01-05T10:47:53Z</time>
      </trkpt>
      <trkpt lat="48.67257" lon="7.50508">
        <ele>240.4</ele>
        <time>2020-01-05T10:47:56Z</time>
      </trkpt>
      <trkpt lat="48.67259" lon="7.50513">
        <ele>240.3</ele>
        <time>2020-01-05T10:47:59Z</time>
      </trkpt>
      <trkpt lat="48.6726" lon="7.50518">
        <ele>240.2</ele>
        <time>2020-01-05T10:48:01Z</time>
      </trkpt>
      <trkpt lat="48.67261" lon="7.50523">
        <ele>240.1</ele>
        <time>2020-01-05T10:48:04Z</time>
      </trkpt>
      <trkpt lat="48.67263" lon="7.50528">
        <ele>240</ele>
        <time>2020-01-05T10:48:07Z</time>
      </trkpt>
      <trkpt lat="48.67264" lon="7.50533">
        <ele>239.9</ele>
        <time>2020-01-05T10:48:10Z</time>
      </trkpt>
      <trkpt lat="48.67265" lon="7.50538">
        <ele>239.8</ele>
        <time>2020-01-05T10:48:13Z</time>
      </trkpt>
      <trkpt lat="48.67266" lon="7.50543">
        <ele>239.7</ele>
        <time>2020-01-05T10:48:17Z</time>
      </trkpt>
      <trkpt lat="48.67267" lon="7.50547">
        <ele>239.6</ele>
        <time>2020-01-05T10:48:20Z</time>
      </trkpt>
      <trkpt lat="48.67267" lon="7.50551">
        <ele>239.6</ele>
        <time>2020-01-05T10:48:26Z</time>
      </trkpt>
      <trkpt lat="48.67266" lon="7.50555">
        <ele>239.5</ele>
        <time>2020-01-05T10:48:35Z</time>
      </trkpt>
      <trkpt lat="48.67263" lon="7.50556">
        <ele>239.3</ele>
        <time>2020-01-05T10:48:40Z</time>
      </trkpt>
      <trkpt lat="48.6726" lon="7.50557">
        <ele>239.2</ele>
        <time>2020-01-05T10:49:05Z</time>
      </trkpt>
      <trkpt lat="48.67258" lon="7.50559">
        <ele>239.1</ele>
        <time>2020-01-05T10:49:25Z</time>
      </trkpt>
      <trkpt lat="48.67257" lon="7.50563">
        <ele>239</ele>
        <time>2020-01-05T10:49:29Z</time>
      </trkpt>
      <trkpt lat="48.67258" lon="7.50559">
        <ele>238.9</ele>
        <time>2020-01-05T10:51:37Z</time>
      </trkpt>
      <trkpt lat="48.67259" lon="7.50556">
        <ele>238.9</ele>
        <time>2020-01-05T10:51:39Z</time>
      </trkpt>
      <trkpt lat="48.67259" lon="7.50561">
        <ele>238.8</ele>
        <time>2020-01-05T10:52:45Z</time>
      </trkpt>
      <trkpt lat="48.67259" lon="7.50557">
        <ele>238.7</ele>
        <time>2020-01-05T10:52:49Z</time>
      </trkpt>
      <trkpt lat="48.67257" lon="7.50555">
        <ele>238.7</ele>
        <time>2020-01-05T10:53:12Z</time>
      </trkpt>
      <trkpt lat="48.67254" lon="7.50556">
        <ele>238.6</ele>
        <time>2020-01-05T10:53:49Z</time>
      </trkpt>
      <trkpt lat="48.67254" lon="7.50561">
        <ele>238.5</ele>
        <time>2020-01-05T10:54:18Z</time>
      </trkpt>
      <trkpt lat="48.67251" lon="7.50559">
        <ele>238.4</ele>
        <time>2020-01-05T10:56:06Z</time>
      </trkpt>
      <trkpt lat="48.67249" lon="7.50563">
        <ele>238.4</ele>
        <time>2020-01-05T10:56:27Z</time>
      </trkpt>
      <trkpt lat="48.67246" lon="7.50564">
        <ele>238.3</ele>
        <time>2020-01-05T10:56:56Z</time>
      </trkpt>
      <trkpt lat="48.67246" lon="7.5056">
        <ele>238.2</ele>
        <time>2020-01-05T10:57:20Z</time>
      </trkpt>
      <trkpt lat="48.67244" lon="7.50556">
        <ele>238.2</ele>
        <time>2020-01-05T10:57:51Z</time>
      </trkpt>
      <trkpt lat="48.67246" lon="7.50559">
        <ele>238.1</ele>
        <time>2020-01-05T10:58:40Z</time>
      </trkpt>
      <trkpt lat="48.6725" lon="7.50559">
        <ele>238</ele>
        <time>2020-01-05T10:58:45Z</time>
      </trkpt>
      <trkpt lat="48.67252" lon="7.5056">
        <ele>238</ele>
        <time>2020-01-05T11:00:58Z</time>
      </trkpt>
      <trkpt lat="48.67254" lon="7.50563">
        <ele>237.9</ele>
        <time>2020-01-05T11:01:06Z</time>
      </trkpt>
      <trkpt lat="48.67252" lon="7.50566">
        <ele>237.8</ele>
        <time>2020-01-05T11:02:08Z</time>
      </trkpt>
      <trkpt lat="48.67251" lon="7.50569">
        <ele>237.8</ele>
        <time>2020-01-05T11:02:55Z</time>
      </trkpt>
      <trkpt lat="48.67252" lon="7.50565">
        <ele>237.7</ele>
        <time>2020-01-05T11:03:25Z</time>
      </trkpt>
      <trkpt lat="48.67255" lon="7.50562">
        <ele>237.6</ele>
        <time>2020-01-05T11:03:46Z</time>
      </trkpt>
      <trkpt lat="48.67258" lon="7.50561">
        <ele>237.5</ele>
        <time>2020-01-05T11:03:55Z</time>
      </trkpt>
      <trkpt lat="48.6726" lon="7.50563">
        <ele>237.4</ele>
        <time>2020-01-05T11:04:01Z</time>
      </trkpt>
      <trkpt lat="48.67264" lon="7.50567">
        <ele>237.3</ele>
        <time>2020-01-05T11:04:07Z</time>
      </trkpt>
      <trkpt lat="48.67266" lon="7.50571">
        <ele>237.2</ele>
        <time>2020-01-05T11:04:09Z</time>
      </trkpt>
      <trkpt lat="48.67269" lon="7.50575">
        <ele>237.1</ele>
        <time>2020-01-05T11:04:14Z</time>
      </trkpt>
      <trkpt lat="48.67271" lon="7.50578">
        <ele>237</ele>
        <time>2020-01-05T11:04:17Z</time>
      </trkpt>
      <trkpt lat="48.67273" lon="7.5058">
        <ele>237</ele>
        <time>2020-01-05T11:04:20Z</time>
      </trkpt>
      <trkpt lat="48.67276" lon="7.50583">
        <ele>236.9</ele>
        <time>2020-01-05T11:04:24Z</time>
      </trkpt>
      <trkpt lat="48.67277" lon="7.50587">
        <ele>236.8</ele>
        <time>2020-01-05T11:04:28Z</time>
      </trkpt>
      <trkpt lat="48.67279" lon="7.50591">
        <ele>236.7</ele>
        <time>2020-01-05T11:04:30Z</time>
      </trkpt>
      <trkpt lat="48.6728" lon="7.50595">
        <ele>236.7</ele>
        <time>2020-01-05T11:04:34Z</time>
      </trkpt>
      <trkpt lat="48.67282" lon="7.506">
        <ele>236.6</ele>
        <time>2020-01-05T11:04:37Z</time>
      </trkpt>
      <trkpt lat="48.67283" lon="7.50605">
        <ele>236.5</ele>
        <time>2020-01-05T11:04:40Z</time>
      </trkpt>
      <trkpt lat="48.67285" lon="7.50608">
        <ele>236.4</ele>
        <time>2020-01-05T11:04:43Z</time>
      </trkpt>
      <trkpt lat="48.67287" lon="7.50613">
        <ele>236.2</ele>
        <time>2020-01-05T11:04:46Z</time>
      </trkpt>
      <trkpt lat="48.67288" lon="7.50617">
        <ele>236.1</ele>
        <time>2020-01-05T11:04:50Z</time>
      </trkpt>
      <trkpt lat="48.67289" lon="7.50621">
        <ele>236</ele>
        <time>2020-01-05T11:04:52Z</time>
      </trkpt>
      <trkpt lat="48.67289" lon="7.50626">
        <ele>235.9</ele>
        <time>2020-01-05T11:04:56Z</time>
      </trkpt>
      <trkpt lat="48.67291" lon="7.5063">
        <ele>235.7</ele>
        <time>2020-01-05T11:05:01Z</time>
      </trkpt>
      <trkpt lat="48.67291" lon="7.50635">
        <ele>235.6</ele>
        <time>2020-01-05T11:05:04Z</time>
      </trkpt>
      <trkpt lat="48.67293" lon="7.50639">
        <ele>235.5</ele>
        <time>2020-01-05T11:05:08Z</time>
      </trkpt>
      <trkpt lat="48.67294" lon="7.50643">
        <ele>235.4</ele>
        <time>2020-01-05T11:05:11Z</time>
      </trkpt>
      <trkpt lat="48.67295" lon="7.50649">
        <ele>235.3</ele>
        <time>2020-01-05T11:05:15Z</time>
      </trkpt>
      <trkpt lat="48.67296" lon="7.50653">
        <ele>235.1</ele>
        <time>2020-01-05T11:05:18Z</time>
      </trkpt>
      <trkpt lat="48.67297" lon="7.50659">
        <ele>235</ele>
        <time>2020-01-05T11:05:22Z</time>
      </trkpt>
      <trkpt lat="48.67298" lon="7.50663">
        <ele>234.8</ele>
        <time>2020-01-05T11:05:26Z</time>
      </trkpt>
      <trkpt lat="48.67299" lon="7.50667">
        <ele>234.6</ele>
        <time>2020-01-05T11:05:28Z</time>
      </trkpt>
      <trkpt lat="48.673" lon="7.50672">
        <ele>234.5</ele>
        <time>2020-01-05T11:05:31Z</time>
      </trkpt>
      <trkpt lat="48.67301" lon="7.50676">
        <ele>234.3</ele>
        <time>2020-01-05T11:05:33Z</time>
      </trkpt>
      <trkpt lat="48.67302" lon="7.50679">
        <ele>234.2</ele>
        <time>2020-01-05T11:05:37Z</time>
      </trkpt>
      <trkpt lat="48.67304" lon="7.50685">
        <ele>234</ele>
        <time>2020-01-05T11:05:41Z</time>
      </trkpt>
      <trkpt lat="48.67305" lon="7.50689">
        <ele>233.9</ele>
        <time>2020-01-05T11:05:44Z</time>
      </trkpt>
      <trkpt lat="48.67306" lon="7.50694">
        <ele>233.8</ele>
        <time>2020-01-05T11:05:47Z</time>
      </trkpt>
      <trkpt lat="48.67309" lon="7.50696">
        <ele>233.6</ele>
        <time>2020-01-05T11:05:52Z</time>
      </trkpt>
      <trkpt lat="48.67309" lon="7.50701">
        <ele>233.5</ele>
        <time>2020-01-05T11:05:56Z</time>
      </trkpt>
      <trkpt lat="48.67311" lon="7.50704">
        <ele>233.4</ele>
        <time>2020-01-05T11:05:59Z</time>
      </trkpt>
      <trkpt lat="48.67313" lon="7.50708">
        <ele>233.3</ele>
        <time>2020-01-05T11:06:01Z</time>
      </trkpt>
      <trkpt lat="48.67314" lon="7.50712">
        <ele>233.2</ele>
        <time>2020-01-05T11:06:03Z</time>
      </trkpt>
      <trkpt lat="48.67314" lon="7.50717">
        <ele>233.1</ele>
        <time>2020-01-05T11:06:06Z</time>
      </trkpt>
      <trkpt lat="48.67315" lon="7.50723">
        <ele>232.9</ele>
        <time>2020-01-05T11:06:09Z</time>
      </trkpt>
      <trkpt lat="48.67316" lon="7.50727">
        <ele>232.8</ele>
        <time>2020-01-05T11:06:18Z</time>
      </trkpt>
      <trkpt lat="48.67317" lon="7.50731">
        <ele>232.7</ele>
        <time>2020-01-05T11:06:20Z</time>
      </trkpt>
      <trkpt lat="48.67318" lon="7.50737">
        <ele>232.6</ele>
        <time>2020-01-05T11:06:23Z</time>
      </trkpt>
      <trkpt lat="48.67319" lon="7.50742">
        <ele>232.5</ele>
        <time>2020-01-05T11:06:26Z</time>
      </trkpt>
      <trkpt lat="48.67319" lon="7.50747">
        <ele>232.4</ele>
        <time>2020-01-05T11:06:29Z</time>
      </trkpt>
      <trkpt lat="48.6732" lon="7.5075">
        <ele>232.4</ele>
        <time>2020-01-05T11:06:31Z</time>
      </trkpt>
      <trkpt lat="48.67323" lon="7.50753">
        <ele>232.3</ele>
        <time>2020-01-05T11:06:34Z</time>
      </trkpt>
      <trkpt lat="48.67324" lon="7.50757">
        <ele>232.2</ele>
        <time>2020-01-05T11:06:36Z</time>
      </trkpt>
      <trkpt lat="48.67326" lon="7.50761">
        <ele>232.1</ele>
        <time>2020-01-05T11:06:39Z</time>
      </trkpt>
      <trkpt lat="48.67327" lon="7.50765">
        <ele>232</ele>
        <time>2020-01-05T11:06:43Z</time>
      </trkpt>
      <trkpt lat="48.67328" lon="7.50771">
        <ele>231.9</ele>
        <time>2020-01-05T11:06:47Z</time>
      </trkpt>
      <trkpt lat="48.67329" lon="7.50776">
        <ele>231.8</ele>
        <time>2020-01-05T11:06:50Z</time>
      </trkpt>
      <trkpt lat="48.67331" lon="7.50781">
        <ele>231.6</ele>
        <time>2020-01-05T11:06:54Z</time>
      </trkpt>
      <trkpt lat="48.67332" lon="7.50786">
        <ele>231.5</ele>
        <time>2020-01-05T11:06:58Z</time>
      </trkpt>
      <trkpt lat="48.67335" lon="7.50791">
        <ele>231.3</ele>
        <time>2020-01-05T11:07:01Z</time>
      </trkpt>
      <trkpt lat="48.67337" lon="7.50794">
        <ele>231.1</ele>
        <time>2020-01-05T11:07:04Z</time>
      </trkpt>
      <trkpt lat="48.67339" lon="7.50798">
        <ele>231</ele>
        <time>2020-01-05T11:07:07Z</time>
      </trkpt>
      <trkpt lat="48.67341" lon="7.50802">
        <ele>230.8</ele>
        <time>2020-01-05T11:07:18Z</time>
      </trkpt>
      <trkpt lat="48.67342" lon="7.50807">
        <ele>230.6</ele>
        <time>2020-01-05T11:07:21Z</time>
      </trkpt>
      <trkpt lat="48.67344" lon="7.50809">
        <ele>230.4</ele>
        <time>2020-01-05T11:07:32Z</time>
      </trkpt>
      <trkpt lat="48.67347" lon="7.50812">
        <ele>230.2</ele>
        <time>2020-01-05T11:07:37Z</time>
      </trkpt>
      <trkpt lat="48.67348" lon="7.50817">
        <ele>230</ele>
        <time>2020-01-05T11:07:52Z</time>
      </trkpt>
      <trkpt lat="48.67351" lon="7.50821">
        <ele>229.6</ele>
        <time>2020-01-05T11:08:00Z</time>
      </trkpt>
      <trkpt lat="48.67352" lon="7.50826">
        <ele>229.4</ele>
        <time>2020-01-05T11:08:02Z</time>
      </trkpt>
      <trkpt lat="48.67354" lon="7.50829">
        <ele>229.1</ele>
        <time>2020-01-05T11:08:04Z</time>
      </trkpt>
      <trkpt lat="48.67355" lon="7.50834">
        <ele>228.9</ele>
        <time>2020-01-05T11:08:08Z</time>
      </trkpt>
      <trkpt lat="48.67356" lon="7.50839">
        <ele>228.6</ele>
        <time>2020-01-05T11:08:11Z</time>
      </trkpt>
      <trkpt lat="48.67356" lon="7.50844">
        <ele>228.3</ele>
        <time>2020-01-05T11:08:14Z</time>
      </trkpt>
      <trkpt lat="48.67357" lon="7.50848">
        <ele>228</ele>
        <time>2020-01-05T11:08:17Z</time>
      </trkpt>
      <trkpt lat="48.67359" lon="7.50851">
        <ele>227.8</ele>
        <time>2020-01-05T11:08:20Z</time>
      </trkpt>
      <trkpt lat="48.6736" lon="7.50856">
        <ele>227.6</ele>
        <time>2020-01-05T11:08:22Z</time>
      </trkpt>
      <trkpt lat="48.67361" lon="7.50861">
        <ele>227.4</ele>
        <time>2020-01-05T11:08:26Z</time>
      </trkpt>
      <trkpt lat="48.67363" lon="7.50864">
        <ele>227.2</ele>
        <time>2020-01-05T11:08:29Z</time>
      </trkpt>
      <trkpt lat="48.67366" lon="7.50869">
        <ele>227</ele>
        <time>2020-01-05T11:08:32Z</time>
      </trkpt>
      <trkpt lat="48.67368" lon="7.50874">
        <ele>226.8</ele>
        <time>2020-01-05T11:08:35Z</time>
      </trkpt>
      <trkpt lat="48.67369" lon="7.50879">
        <ele>226.6</ele>
        <time>2020-01-05T11:08:38Z</time>
      </trkpt>
      <trkpt lat="48.6737" lon="7.50884">
        <ele>226.4</ele>
        <time>2020-01-05T11:08:42Z</time>
      </trkpt>
      <trkpt lat="48.67369" lon="7.50888">
        <ele>226.2</ele>
        <time>2020-01-05T11:08:46Z</time>
      </trkpt>
      <trkpt lat="48.67366" lon="7.50891">
        <ele>226</ele>
        <time>2020-01-05T11:08:50Z</time>
      </trkpt>
      <trkpt lat="48.67363" lon="7.50894">
        <ele>225.9</ele>
        <time>2020-01-05T11:08:52Z</time>
      </trkpt>
      <trkpt lat="48.67362" lon="7.50897">
        <ele>225.8</ele>
        <time>2020-01-05T11:08:58Z</time>
      </trkpt>
      <trkpt lat="48.67365" lon="7.509">
        <ele>225.8</ele>
        <time>2020-01-05T11:09:01Z</time>
      </trkpt>
      <trkpt lat="48.67368" lon="7.50902">
        <ele>225.7</ele>
        <time>2020-01-05T11:09:03Z</time>
      </trkpt>
      <trkpt lat="48.67371" lon="7.50905">
        <ele>225.7</ele>
        <time>2020-01-05T11:09:05Z</time>
      </trkpt>
      <trkpt lat="48.67374" lon="7.50908">
        <ele>225.6</ele>
        <time>2020-01-05T11:09:07Z</time>
      </trkpt>
      <trkpt lat="48.67377" lon="7.50911">
        <ele>225.5</ele>
        <time>2020-01-05T11:09:10Z</time>
      </trkpt>
      <trkpt lat="48.67378" lon="7.50915">
        <ele>225.4</ele>
        <time>2020-01-05T11:09:12Z</time>
      </trkpt>
      <trkpt lat="48.67381" lon="7.50919">
        <ele>225.3</ele>
        <time>2020-01-05T11:09:15Z</time>
      </trkpt>
      <trkpt lat="48.67382" lon="7.50923">
        <ele>225.2</ele>
        <time>2020-01-05T11:09:18Z</time>
      </trkpt>
      <trkpt lat="48.67384" lon="7.50927">
        <ele>225</ele>
        <time>2020-01-05T11:09:20Z</time>
      </trkpt>
      <trkpt lat="48.67387" lon="7.5093">
        <ele>224.9</ele>
        <time>2020-01-05T11:09:23Z</time>
      </trkpt>
      <trkpt lat="48.67389" lon="7.50934">
        <ele>224.8</ele>
        <time>2020-01-05T11:09:26Z</time>
      </trkpt>
      <trkpt lat="48.6739" lon="7.5094">
        <ele>224.6</ele>
        <time>2020-01-05T11:09:29Z</time>
      </trkpt>
      <trkpt lat="48.67392" lon="7.50944">
        <ele>224.5</ele>
        <time>2020-01-05T11:09:32Z</time>
      </trkpt>
      <trkpt lat="48.67393" lon="7.50948">
        <ele>224.3</ele>
        <time>2020-01-05T11:09:34Z</time>
      </trkpt>
      <trkpt lat="48.67395" lon="7.50952">
        <ele>224.2</ele>
        <time>2020-01-05T11:09:36Z</time>
      </trkpt>
      <trkpt lat="48.67397" lon="7.50956">
        <ele>224</ele>
        <time>2020-01-05T11:09:39Z</time>
      </trkpt>
      <trkpt lat="48.67399" lon="7.50961">
        <ele>223.8</ele>
        <time>2020-01-05T11:09:42Z</time>
      </trkpt>
      <trkpt lat="48.67401" lon="7.50964">
        <ele>223.5</ele>
        <time>2020-01-05T11:09:46Z</time>
      </trkpt>
      <trkpt lat="48.67404" lon="7.50969">
        <ele>223.4</ele>
        <time>2020-01-05T11:09:49Z</time>
      </trkpt>
      <trkpt lat="48.67405" lon="7.50973">
        <ele>223.2</ele>
        <time>2020-01-05T11:09:53Z</time>
      </trkpt>
      <trkpt lat="48.67405" lon="7.50978">
        <ele>223.1</ele>
        <time>2020-01-05T11:09:56Z</time>
      </trkpt>
      <trkpt lat="48.67407" lon="7.50982">
        <ele>222.9</ele>
        <time>2020-01-05T11:09:59Z</time>
      </trkpt>
      <trkpt lat="48.67407" lon="7.50987">
        <ele>222.7</ele>
        <time>2020-01-05T11:10:02Z</time>
      </trkpt>
      <trkpt lat="48.67408" lon="7.50992">
        <ele>222.6</ele>
        <time>2020-01-05T11:10:05Z</time>
      </trkpt>
      <trkpt lat="48.67408" lon="7.50996">
        <ele>222.5</ele>
        <time>2020-01-05T11:10:07Z</time>
      </trkpt>
      <trkpt lat="48.6741" lon="7.51">
        <ele>222.4</ele>
        <time>2020-01-05T11:10:10Z</time>
      </trkpt>
      <trkpt lat="48.67412" lon="7.51004">
        <ele>222.3</ele>
        <time>2020-01-05T11:10:12Z</time>
      </trkpt>
      <trkpt lat="48.67412" lon="7.51008">
        <ele>222.2</ele>
        <time>2020-01-05T11:10:14Z</time>
      </trkpt>
      <trkpt lat="48.67414" lon="7.51011">
        <ele>222.1</ele>
        <time>2020-01-05T11:10:18Z</time>
      </trkpt>
      <trkpt lat="48.67415" lon="7.51016">
        <ele>222</ele>
        <time>2020-01-05T11:10:21Z</time>
      </trkpt>
      <trkpt lat="48.67417" lon="7.5102">
        <ele>221.9</ele>
        <time>2020-01-05T11:10:24Z</time>
      </trkpt>
      <trkpt lat="48.67418" lon="7.51024">
        <ele>221.7</ele>
        <time>2020-01-05T11:10:27Z</time>
      </trkpt>
      <trkpt lat="48.6742" lon="7.51028">
        <ele>221.6</ele>
        <time>2020-01-05T11:10:30Z</time>
      </trkpt>
      <trkpt lat="48.67422" lon="7.51033">
        <ele>221.4</ele>
        <time>2020-01-05T11:10:33Z</time>
      </trkpt>
      <trkpt lat="48.67425" lon="7.51037">
        <ele>221.3</ele>
        <time>2020-01-05T11:10:37Z</time>
      </trkpt>
      <trkpt lat="48.67426" lon="7.51041">
        <ele>221.1</ele>
        <time>2020-01-05T11:10:39Z</time>
      </trkpt>
      <trkpt lat="48.67428" lon="7.51045">
        <ele>220.9</ele>
        <time>2020-01-05T11:10:42Z</time>
      </trkpt>
      <trkpt lat="48.6743" lon="7.51049">
        <ele>220.7</ele>
        <time>2020-01-05T11:10:44Z</time>
      </trkpt>
      <trkpt lat="48.6743" lon="7.51054">
        <ele>220.5</ele>
        <time>2020-01-05T11:10:46Z</time>
      </trkpt>
      <trkpt lat="48.67431" lon="7.51058">
        <ele>220.3</ele>
        <time>2020-01-05T11:10:50Z</time>
      </trkpt>
      <trkpt lat="48.67433" lon="7.51063">
        <ele>220.1</ele>
        <time>2020-01-05T11:10:53Z</time>
      </trkpt>
      <trkpt lat="48.67435" lon="7.51068">
        <ele>220</ele>
        <time>2020-01-05T11:10:56Z</time>
      </trkpt>
      <trkpt lat="48.67435" lon="7.51073">
        <ele>219.8</ele>
        <time>2020-01-05T11:10:59Z</time>
      </trkpt>
      <trkpt lat="48.67436" lon="7.51078">
        <ele>219.7</ele>
        <time>2020-01-05T11:11:02Z</time>
      </trkpt>
      <trkpt lat="48.67437" lon="7.51083">
        <ele>219.5</ele>
        <time>2020-01-05T11:11:05Z</time>
      </trkpt>
      <trkpt lat="48.67438" lon="7.51087">
        <ele>219.4</ele>
        <time>2020-01-05T11:11:08Z</time>
      </trkpt>
      <trkpt lat="48.67441" lon="7.51091">
        <ele>219.3</ele>
        <time>2020-01-05T11:11:11Z</time>
      </trkpt>
      <trkpt lat="48.67442" lon="7.51096">
        <ele>219.1</ele>
        <time>2020-01-05T11:11:13Z</time>
      </trkpt>
      <trkpt lat="48.67444" lon="7.511">
        <ele>219</ele>
        <time>2020-01-05T11:11:16Z</time>
      </trkpt>
      <trkpt lat="48.67445" lon="7.51103">
        <ele>218.8</ele>
        <time>2020-01-05T11:11:18Z</time>
      </trkpt>
      <trkpt lat="48.67448" lon="7.51107">
        <ele>218.7</ele>
        <time>2020-01-05T11:11:21Z</time>
      </trkpt>
      <trkpt lat="48.67449" lon="7.51112">
        <ele>218.6</ele>
        <time>2020-01-05T11:11:24Z</time>
      </trkpt>
      <trkpt lat="48.6745" lon="7.51116">
        <ele>218.5</ele>
        <time>2020-01-05T11:11:26Z</time>
      </trkpt>
      <trkpt lat="48.6745" lon="7.51121">
        <ele>218.4</ele>
        <time>2020-01-05T11:11:29Z</time>
      </trkpt>
      <trkpt lat="48.67451" lon="7.51127">
        <ele>218.2</ele>
        <time>2020-01-05T11:11:33Z</time>
      </trkpt>
      <trkpt lat="48.67452" lon="7.5113">
        <ele>218.1</ele>
        <time>2020-01-05T11:11:36Z</time>
      </trkpt>
      <trkpt lat="48.67454" lon="7.51134">
        <ele>218</ele>
        <time>2020-01-05T11:11:39Z</time>
      </trkpt>
      <trkpt lat="48.67456" lon="7.51139">
        <ele>218</ele>
        <time>2020-01-05T11:11:47Z</time>
      </trkpt>
      <trkpt lat="48.67457" lon="7.51143">
        <ele>217.9</ele>
        <time>2020-01-05T11:11:50Z</time>
      </trkpt>
      <trkpt lat="48.67459" lon="7.51146">
        <ele>217.8</ele>
        <time>2020-01-05T11:13:33Z</time>
      </trkpt>
      <trkpt lat="48.67457" lon="7.51143">
        <ele>217.7</ele>
        <time>2020-01-05T11:13:52Z</time>
      </trkpt>
      <trkpt lat="48.67457" lon="7.51147">
        <ele>217.6</ele>
        <time>2020-01-05T11:13:56Z</time>
      </trkpt>
      <trkpt lat="48.67454" lon="7.5115">
        <ele>217.5</ele>
        <time>2020-01-05T11:14:01Z</time>
      </trkpt>
      <trkpt lat="48.67452" lon="7.51152">
        <ele>217.1</ele>
        <time>2020-01-05T11:14:34Z</time>
      </trkpt>
      <trkpt lat="48.67449" lon="7.51155">
        <ele>217</ele>
        <time>2020-01-05T11:14:37Z</time>
      </trkpt>
      <trkpt lat="48.67447" lon="7.51158">
        <ele>216.8</ele>
        <time>2020-01-05T11:14:38Z</time>
      </trkpt>
      <trkpt lat="48.67444" lon="7.51158">
        <ele>216.6</ele>
        <time>2020-01-05T11:14:43Z</time>
      </trkpt>
      <trkpt lat="48.67441" lon="7.51158">
        <ele>216.5</ele>
        <time>2020-01-05T11:14:46Z</time>
      </trkpt>
      <trkpt lat="48.67438" lon="7.51161">
        <ele>216.3</ele>
        <time>2020-01-05T11:14:49Z</time>
      </trkpt>
      <trkpt lat="48.67434" lon="7.51161">
        <ele>216.1</ele>
        <time>2020-01-05T11:14:52Z</time>
      </trkpt>
      <trkpt lat="48.6743" lon="7.51162">
        <ele>215.8</ele>
        <time>2020-01-05T11:14:55Z</time>
      </trkpt>
      <trkpt lat="48.67426" lon="7.51164">
        <ele>215.5</ele>
        <time>2020-01-05T11:14:58Z</time>
      </trkpt>
      <trkpt lat="48.67424" lon="7.51168">
        <ele>215.3</ele>
        <time>2020-01-05T11:15:01Z</time>
      </trkpt>
      <trkpt lat="48.67421" lon="7.51171">
        <ele>215.1</ele>
        <time>2020-01-05T11:15:04Z</time>
      </trkpt>
      <trkpt lat="48.67419" lon="7.51172">
        <ele>215</ele>
        <time>2020-01-05T11:15:07Z</time>
      </trkpt>
      <trkpt lat="48.67416" lon="7.51174">
        <ele>214.8</ele>
        <time>2020-01-05T11:15:11Z</time>
      </trkpt>
      <trkpt lat="48.67413" lon="7.51176">
        <ele>214.5</ele>
        <time>2020-01-05T11:15:14Z</time>
      </trkpt>
      <trkpt lat="48.6741" lon="7.51179">
        <ele>214.3</ele>
        <time>2020-01-05T11:15:17Z</time>
      </trkpt>
      <trkpt lat="48.67408" lon="7.51179">
        <ele>214.2</ele>
        <time>2020-01-05T11:15:21Z</time>
      </trkpt>
      <trkpt lat="48.67405" lon="7.51183">
        <ele>214</ele>
        <time>2020-01-05T11:15:24Z</time>
      </trkpt>
      <trkpt lat="48.67403" lon="7.51184">
        <ele>213.9</ele>
        <time>2020-01-05T11:15:27Z</time>
      </trkpt>
      <trkpt lat="48.67399" lon="7.51188">
        <ele>213.7</ele>
        <time>2020-01-05T11:15:30Z</time>
      </trkpt>
      <trkpt lat="48.67397" lon="7.5119">
        <ele>213.5</ele>
        <time>2020-01-05T11:15:32Z</time>
      </trkpt>
      <trkpt lat="48.67394" lon="7.5119">
        <ele>213.4</ele>
        <time>2020-01-05T11:15:35Z</time>
      </trkpt>
      <trkpt lat="48.67391" lon="7.51193">
        <ele>213.1</ele>
        <time>2020-01-05T11:15:37Z</time>
      </trkpt>
      <trkpt lat="48.67388" lon="7.51194">
        <ele>212.9</ele>
        <time>2020-01-05T11:15:40Z</time>
      </trkpt>
      <trkpt lat="48.67386" lon="7.51196">
        <ele>212.7</ele>
        <time>2020-01-05T11:15:42Z</time>
      </trkpt>
      <trkpt lat="48.67382" lon="7.51196">
        <ele>212.5</ele>
        <time>2020-01-05T11:15:45Z</time>
      </trkpt>
      <trkpt lat="48.6738" lon="7.512">
        <ele>212.3</ele>
        <time>2020-01-05T11:15:47Z</time>
      </trkpt>
      <trkpt lat="48.67377" lon="7.51202">
        <ele>212.1</ele>
        <time>2020-01-05T11:15:50Z</time>
      </trkpt>
      <trkpt lat="48.67374" lon="7.51205">
        <ele>212</ele>
        <time>2020-01-05T11:15:55Z</time>
      </trkpt>
      <trkpt lat="48.67371" lon="7.51208">
        <ele>211.9</ele>
        <time>2020-01-05T11:15:59Z</time>
      </trkpt>
      <trkpt lat="48.67369" lon="7.5121">
        <ele>211.8</ele>
        <time>2020-01-05T11:16:02Z</time>
      </trkpt>
      <trkpt lat="48.67366" lon="7.51213">
        <ele>211.6</ele>
        <time>2020-01-05T11:16:05Z</time>
      </trkpt>
      <trkpt lat="48.67363" lon="7.51214">
        <ele>211.5</ele>
        <time>2020-01-05T11:16:09Z</time>
      </trkpt>
      <trkpt lat="48.6736" lon="7.51216">
        <ele>211.4</ele>
        <time>2020-01-05T11:16:14Z</time>
      </trkpt>
      <trkpt lat="48.67357" lon="7.5122">
        <ele>211.2</ele>
        <time>2020-01-05T11:16:18Z</time>
      </trkpt>
      <trkpt lat="48.67354" lon="7.51222">
        <ele>211.1</ele>
        <time>2020-01-05T11:16:21Z</time>
      </trkpt>
      <trkpt lat="48.67351" lon="7.51223">
        <ele>211</ele>
        <time>2020-01-05T11:16:24Z</time>
      </trkpt>
      <trkpt lat="48.67348" lon="7.51224">
        <ele>210.9</ele>
        <time>2020-01-05T11:16:26Z</time>
      </trkpt>
      <trkpt lat="48.67346" lon="7.51226">
        <ele>210.8</ele>
        <time>2020-01-05T11:16:29Z</time>
      </trkpt>
      <trkpt lat="48.67343" lon="7.51228">
        <ele>210.7</ele>
        <time>2020-01-05T11:16:31Z</time>
      </trkpt>
      <trkpt lat="48.6734" lon="7.51231">
        <ele>210.6</ele>
        <time>2020-01-05T11:16:35Z</time>
      </trkpt>
      <trkpt lat="48.67337" lon="7.51234">
        <ele>210.5</ele>
        <time>2020-01-05T11:16:37Z</time>
      </trkpt>
      <trkpt lat="48.67334" lon="7.51236">
        <ele>210.4</ele>
        <time>2020-01-05T11:16:40Z</time>
      </trkpt>
      <trkpt lat="48.67331" lon="7.51237">
        <ele>210.3</ele>
        <time>2020-01-05T11:16:43Z</time>
      </trkpt>
      <trkpt lat="48.67328" lon="7.5124">
        <ele>210.1</ele>
        <time>2020-01-05T11:16:46Z</time>
      </trkpt>
      <trkpt lat="48.67325" lon="7.51243">
        <ele>210</ele>
        <time>2020-01-05T11:16:48Z</time>
      </trkpt>
      <trkpt lat="48.67322" lon="7.51247">
        <ele>209.9</ele>
        <time>2020-01-05T11:16:51Z</time>
      </trkpt>
      <trkpt lat="48.6732" lon="7.51249">
        <ele>209.9</ele>
        <time>2020-01-05T11:16:54Z</time>
      </trkpt>
      <trkpt lat="48.67316" lon="7.51249">
        <ele>209.9</ele>
        <time>2020-01-05T11:16:57Z</time>
      </trkpt>
      <trkpt lat="48.67313" lon="7.51249">
        <ele>209.9</ele>
        <time>2020-01-05T11:17:00Z</time>
      </trkpt>
      <trkpt lat="48.6731" lon="7.51249">
        <ele>209.9</ele>
        <time>2020-01-05T11:17:03Z</time>
      </trkpt>
      <trkpt lat="48.67307" lon="7.51249">
        <ele>210</ele>
        <time>2020-01-05T11:17:05Z</time>
      </trkpt>
      <trkpt lat="48.67304" lon="7.51248">
        <ele>210</ele>
        <time>2020-01-05T11:17:08Z</time>
      </trkpt>
      <trkpt lat="48.67301" lon="7.51248">
        <ele>210</ele>
        <time>2020-01-05T11:17:10Z</time>
      </trkpt>
      <trkpt lat="48.67298" lon="7.51247">
        <ele>210</ele>
        <time>2020-01-05T11:17:13Z</time>
      </trkpt>
      <trkpt lat="48.67295" lon="7.51247">
        <ele>210</ele>
        <time>2020-01-05T11:17:16Z</time>
      </trkpt>
      <trkpt lat="48.67292" lon="7.51247">
        <ele>210</ele>
        <time>2020-01-05T11:17:19Z</time>
      </trkpt>
      <trkpt lat="48.67289" lon="7.51247">
        <ele>210.1</ele>
        <time>2020-01-05T11:17:22Z</time>
      </trkpt>
      <trkpt lat="48.67286" lon="7.51248">
        <ele>210.1</ele>
        <time>2020-01-05T11:17:25Z</time>
      </trkpt>
      <trkpt lat="48.67282" lon="7.51249">
        <ele>210.1</ele>
        <time>2020-01-05T11:17:28Z</time>
      </trkpt>
      <trkpt lat="48.67278" lon="7.51248">
        <ele>210.2</ele>
        <time>2020-01-05T11:17:31Z</time>
      </trkpt>
      <trkpt lat="48.67275" lon="7.51249">
        <ele>210.2</ele>
        <time>2020-01-05T11:17:33Z</time>
      </trkpt>
      <trkpt lat="48.67272" lon="7.51247">
        <ele>210.3</ele>
        <time>2020-01-05T11:17:35Z</time>
      </trkpt>
      <trkpt lat="48.67268" lon="7.51248">
        <ele>210.3</ele>
        <time>2020-01-05T11:17:38Z</time>
      </trkpt>
      <trkpt lat="48.67265" lon="7.51247">
        <ele>210.4</ele>
        <time>2020-01-05T11:17:40Z</time>
      </trkpt>
      <trkpt lat="48.67262" lon="7.51248">
        <ele>210.5</ele>
        <time>2020-01-05T11:17:43Z</time>
      </trkpt>
      <trkpt lat="48.67259" lon="7.51248">
        <ele>210.5</ele>
        <time>2020-01-05T11:17:45Z</time>
      </trkpt>
      <trkpt lat="48.67257" lon="7.51246">
        <ele>210.6</ele>
        <time>2020-01-05T11:17:48Z</time>
      </trkpt>
      <trkpt lat="48.67254" lon="7.51244">
        <ele>210.7</ele>
        <time>2020-01-05T11:17:51Z</time>
      </trkpt>
      <trkpt lat="48.67251" lon="7.51244">
        <ele>210.7</ele>
        <time>2020-01-05T11:17:55Z</time>
      </trkpt>
      <trkpt lat="48.67247" lon="7.51245">
        <ele>210.8</ele>
        <time>2020-01-05T11:17:58Z</time>
      </trkpt>
      <trkpt lat="48.67244" lon="7.51245">
        <ele>210.9</ele>
        <time>2020-01-05T11:18:00Z</time>
      </trkpt>
      <trkpt lat="48.67241" lon="7.51246">
        <ele>211</ele>
        <time>2020-01-05T11:18:03Z</time>
      </trkpt>
      <trkpt lat="48.67237" lon="7.51246">
        <ele>211.1</ele>
        <time>2020-01-05T11:18:06Z</time>
      </trkpt>
      <trkpt lat="48.67234" lon="7.51244">
        <ele>211.2</ele>
        <time>2020-01-05T11:18:09Z</time>
      </trkpt>
      <trkpt lat="48.67231" lon="7.51242">
        <ele>211.3</ele>
        <time>2020-01-05T11:18:13Z</time>
      </trkpt>
      <trkpt lat="48.67228" lon="7.51243">
        <ele>211.4</ele>
        <time>2020-01-05T11:18:15Z</time>
      </trkpt>
      <trkpt lat="48.67225" lon="7.51242">
        <ele>211.5</ele>
        <time>2020-01-05T11:18:20Z</time>
      </trkpt>
      <trkpt lat="48.67222" lon="7.51242">
        <ele>211.6</ele>
        <time>2020-01-05T11:18:23Z</time>
      </trkpt>
      <trkpt lat="48.67218" lon="7.51241">
        <ele>211.7</ele>
        <time>2020-01-05T11:18:26Z</time>
      </trkpt>
      <trkpt lat="48.67215" lon="7.51242">
        <ele>211.8</ele>
        <time>2020-01-05T11:18:29Z</time>
      </trkpt>
      <trkpt lat="48.67211" lon="7.51242">
        <ele>212</ele>
        <time>2020-01-05T11:18:32Z</time>
      </trkpt>
      <trkpt lat="48.67208" lon="7.51239">
        <ele>212.1</ele>
        <time>2020-01-05T11:18:35Z</time>
      </trkpt>
      <trkpt lat="48.67205" lon="7.51237">
        <ele>212.2</ele>
        <time>2020-01-05T11:18:38Z</time>
      </trkpt>
      <trkpt lat="48.67202" lon="7.51235">
        <ele>212.3</ele>
        <time>2020-01-05T11:18:41Z</time>
      </trkpt>
      <trkpt lat="48.67199" lon="7.51234">
        <ele>212.7</ele>
        <time>2020-01-05T11:18:44Z</time>
      </trkpt>
      <trkpt lat="48.67195" lon="7.51233">
        <ele>213</ele>
        <time>2020-01-05T11:18:47Z</time>
      </trkpt>
      <trkpt lat="48.67191" lon="7.51232">
        <ele>213.3</ele>
        <time>2020-01-05T11:18:50Z</time>
      </trkpt>
      <trkpt lat="48.67188" lon="7.5123">
        <ele>213.5</ele>
        <time>2020-01-05T11:18:53Z</time>
      </trkpt>
      <trkpt lat="48.67185" lon="7.5123">
        <ele>213.9</ele>
        <time>2020-01-05T11:18:57Z</time>
      </trkpt>
      <trkpt lat="48.67182" lon="7.5123">
        <ele>214.1</ele>
        <time>2020-01-05T11:18:59Z</time>
      </trkpt>
      <trkpt lat="48.67179" lon="7.51228">
        <ele>214.5</ele>
        <time>2020-01-05T11:19:01Z</time>
      </trkpt>
      <trkpt lat="48.67176" lon="7.51227">
        <ele>214.8</ele>
        <time>2020-01-05T11:19:03Z</time>
      </trkpt>
      <trkpt lat="48.67173" lon="7.51229">
        <ele>215.1</ele>
        <time>2020-01-05T11:19:05Z</time>
      </trkpt>
      <trkpt lat="48.6717" lon="7.51227">
        <ele>215.4</ele>
        <time>2020-01-05T11:19:07Z</time>
      </trkpt>
      <trkpt lat="48.67167" lon="7.51226">
        <ele>215.7</ele>
        <time>2020-01-05T11:19:11Z</time>
      </trkpt>
      <trkpt lat="48.67164" lon="7.51225">
        <ele>215.9</ele>
        <time>2020-01-05T11:19:14Z</time>
      </trkpt>
      <trkpt lat="48.67161" lon="7.51226">
        <ele>216.2</ele>
        <time>2020-01-05T11:19:17Z</time>
      </trkpt>
      <trkpt lat="48.67158" lon="7.51224">
        <ele>216.4</ele>
        <time>2020-01-05T11:19:20Z</time>
      </trkpt>
      <trkpt lat="48.67155" lon="7.51223">
        <ele>216.6</ele>
        <time>2020-01-05T11:19:24Z</time>
      </trkpt>
      <trkpt lat="48.67152" lon="7.51221">
        <ele>216.7</ele>
        <time>2020-01-05T11:19:27Z</time>
      </trkpt>
      <trkpt lat="48.67148" lon="7.51223">
        <ele>216.9</ele>
        <time>2020-01-05T11:19:30Z</time>
      </trkpt>
      <trkpt lat="48.67145" lon="7.51222">
        <ele>217.1</ele>
        <time>2020-01-05T11:19:33Z</time>
      </trkpt>
      <trkpt lat="48.67143" lon="7.51219">
        <ele>217.2</ele>
        <time>2020-01-05T11:19:36Z</time>
      </trkpt>
      <trkpt lat="48.67139" lon="7.51218">
        <ele>217.4</ele>
        <time>2020-01-05T11:19:38Z</time>
      </trkpt>
      <trkpt lat="48.67136" lon="7.51215">
        <ele>217.6</ele>
        <time>2020-01-05T11:19:41Z</time>
      </trkpt>
      <trkpt lat="48.67134" lon="7.51212">
        <ele>217.8</ele>
        <time>2020-01-05T11:19:45Z</time>
      </trkpt>
      <trkpt lat="48.67132" lon="7.51209">
        <ele>217.9</ele>
        <time>2020-01-05T11:19:48Z</time>
      </trkpt>
      <trkpt lat="48.67129" lon="7.51207">
        <ele>218.1</ele>
        <time>2020-01-05T11:19:51Z</time>
      </trkpt>
      <trkpt lat="48.67126" lon="7.51207">
        <ele>218.2</ele>
        <time>2020-01-05T11:19:53Z</time>
      </trkpt>
      <trkpt lat="48.67123" lon="7.51207">
        <ele>218.3</ele>
        <time>2020-01-05T11:19:55Z</time>
      </trkpt>
      <trkpt lat="48.67119" lon="7.51206">
        <ele>218.3</ele>
        <time>2020-01-05T11:19:58Z</time>
      </trkpt>
      <trkpt lat="48.67117" lon="7.51208">
        <ele>218.4</ele>
        <time>2020-01-05T11:20:01Z</time>
      </trkpt>
      <trkpt lat="48.67116" lon="7.51213">
        <ele>218.4</ele>
        <time>2020-01-05T11:20:03Z</time>
      </trkpt>
      <trkpt lat="48.67116" lon="7.51219">
        <ele>217.1</ele>
        <time>2020-01-05T11:20:07Z</time>
      </trkpt>
      <trkpt lat="48.67116" lon="7.51225">
        <ele>216.7</ele>
        <time>2020-01-05T11:20:10Z</time>
      </trkpt>
      <trkpt lat="48.67115" lon="7.51229">
        <ele>216.4</ele>
        <time>2020-01-05T11:20:12Z</time>
      </trkpt>
      <trkpt lat="48.67114" lon="7.51234">
        <ele>216.1</ele>
        <time>2020-01-05T11:20:16Z</time>
      </trkpt>
      <trkpt lat="48.67115" lon="7.51238">
        <ele>215.8</ele>
        <time>2020-01-05T11:20:20Z</time>
      </trkpt>
      <trkpt lat="48.67115" lon="7.51243">
        <ele>215.5</ele>
        <time>2020-01-05T11:20:25Z</time>
      </trkpt>
      <trkpt lat="48.67115" lon="7.51248">
        <ele>215.1</ele>
        <time>2020-01-05T11:20:29Z</time>
      </trkpt>
      <trkpt lat="48.67113" lon="7.51252">
        <ele>214.8</ele>
        <time>2020-01-05T11:20:32Z</time>
      </trkpt>
      <trkpt lat="48.67112" lon="7.51257">
        <ele>214.5</ele>
        <time>2020-01-05T11:20:35Z</time>
      </trkpt>
      <trkpt lat="48.67112" lon="7.51262">
        <ele>214.1</ele>
        <time>2020-01-05T11:20:38Z</time>
      </trkpt>
      <trkpt lat="48.67113" lon="7.51268">
        <ele>213.6</ele>
        <time>2020-01-05T11:20:41Z</time>
      </trkpt>
      <trkpt lat="48.67113" lon="7.51272">
        <ele>213.3</ele>
        <time>2020-01-05T11:20:43Z</time>
      </trkpt>
      <trkpt lat="48.67112" lon="7.51277">
        <ele>213</ele>
        <time>2020-01-05T11:20:45Z</time>
      </trkpt>
      <trkpt lat="48.67112" lon="7.51283">
        <ele>212.5</ele>
        <time>2020-01-05T11:20:48Z</time>
      </trkpt>
      <trkpt lat="48.6711" lon="7.51287">
        <ele>212.3</ele>
        <time>2020-01-05T11:20:52Z</time>
      </trkpt>
      <trkpt lat="48.67109" lon="7.51291">
        <ele>212</ele>
        <time>2020-01-05T11:20:54Z</time>
      </trkpt>
      <trkpt lat="48.67106" lon="7.51295">
        <ele>211.7</ele>
        <time>2020-01-05T11:20:57Z</time>
      </trkpt>
      <trkpt lat="48.67103" lon="7.51295">
        <ele>211.5</ele>
        <time>2020-01-05T11:21:00Z</time>
      </trkpt>
      <trkpt lat="48.67103" lon="7.51301">
        <ele>211.2</ele>
        <time>2020-01-05T11:21:05Z</time>
      </trkpt>
      <trkpt lat="48.67103" lon="7.51307">
        <ele>210.9</ele>
        <time>2020-01-05T11:21:08Z</time>
      </trkpt>
      <trkpt lat="48.67101" lon="7.51311">
        <ele>210.7</ele>
        <time>2020-01-05T11:21:11Z</time>
      </trkpt>
      <trkpt lat="48.67099" lon="7.51316">
        <ele>210.3</ele>
        <time>2020-01-05T11:21:14Z</time>
      </trkpt>
      <trkpt lat="48.67097" lon="7.51322">
        <ele>209.8</ele>
        <time>2020-01-05T11:21:19Z</time>
      </trkpt>
      <trkpt lat="48.67097" lon="7.51327">
        <ele>209.4</ele>
        <time>2020-01-05T11:21:23Z</time>
      </trkpt>
      <trkpt lat="48.67097" lon="7.51331">
        <ele>209.2</ele>
        <time>2020-01-05T11:21:26Z</time>
      </trkpt>
      <trkpt lat="48.67096" lon="7.51335">
        <ele>209</ele>
        <time>2020-01-05T11:21:29Z</time>
      </trkpt>
      <trkpt lat="48.67095" lon="7.51339">
        <ele>208.8</ele>
        <time>2020-01-05T11:21:31Z</time>
      </trkpt>
      <trkpt lat="48.67094" lon="7.51345">
        <ele>208.6</ele>
        <time>2020-01-05T11:21:34Z</time>
      </trkpt>
      <trkpt lat="48.67093" lon="7.51348">
        <ele>208.4</ele>
        <time>2020-01-05T11:21:37Z</time>
      </trkpt>
      <trkpt lat="48.67091" lon="7.51353">
        <ele>208.2</ele>
        <time>2020-01-05T11:21:40Z</time>
      </trkpt>
      <trkpt lat="48.6709" lon="7.51357">
        <ele>208</ele>
        <time>2020-01-05T11:21:42Z</time>
      </trkpt>
      <trkpt lat="48.6709" lon="7.51362">
        <ele>207.8</ele>
        <time>2020-01-05T11:21:46Z</time>
      </trkpt>
      <trkpt lat="48.67088" lon="7.51366">
        <ele>207.6</ele>
        <time>2020-01-05T11:21:48Z</time>
      </trkpt>
      <trkpt lat="48.67087" lon="7.51371">
        <ele>207.4</ele>
        <time>2020-01-05T11:21:50Z</time>
      </trkpt>
      <trkpt lat="48.67085" lon="7.51375">
        <ele>207.2</ele>
        <time>2020-01-05T11:21:53Z</time>
      </trkpt>
      <trkpt lat="48.67086" lon="7.51381">
        <ele>207</ele>
        <time>2020-01-05T11:21:55Z</time>
      </trkpt>
      <trkpt lat="48.67085" lon="7.51387">
        <ele>206.8</ele>
        <time>2020-01-05T11:21:57Z</time>
      </trkpt>
      <trkpt lat="48.67084" lon="7.51391">
        <ele>206.7</ele>
        <time>2020-01-05T11:22:00Z</time>
      </trkpt>
      <trkpt lat="48.67082" lon="7.51396">
        <ele>206.5</ele>
        <time>2020-01-05T11:22:02Z</time>
      </trkpt>
      <trkpt lat="48.6708" lon="7.51399">
        <ele>206.4</ele>
        <time>2020-01-05T11:22:05Z</time>
      </trkpt>
      <trkpt lat="48.67078" lon="7.51405">
        <ele>206.2</ele>
        <time>2020-01-05T11:22:08Z</time>
      </trkpt>
      <trkpt lat="48.67076" lon="7.51409">
        <ele>206</ele>
        <time>2020-01-05T11:22:10Z</time>
      </trkpt>
      <trkpt lat="48.67073" lon="7.51412">
        <ele>205.9</ele>
        <time>2020-01-05T11:22:13Z</time>
      </trkpt>
      <trkpt lat="48.67069" lon="7.51415">
        <ele>205.7</ele>
        <time>2020-01-05T11:22:18Z</time>
      </trkpt>
      <trkpt lat="48.67068" lon="7.51418">
        <ele>205.6</ele>
        <time>2020-01-05T11:22:22Z</time>
      </trkpt>
      <trkpt lat="48.67067" lon="7.51423">
        <ele>205.5</ele>
        <time>2020-01-05T11:22:25Z</time>
      </trkpt>
      <trkpt lat="48.67065" lon="7.51427">
        <ele>205.2</ele>
        <time>2020-01-05T11:22:28Z</time>
      </trkpt>
      <trkpt lat="48.67065" lon="7.51431">
        <ele>205.1</ele>
        <time>2020-01-05T11:22:30Z</time>
      </trkpt>
      <trkpt lat="48.67064" lon="7.51436">
        <ele>204.9</ele>
        <time>2020-01-05T11:22:33Z</time>
      </trkpt>
      <trkpt lat="48.67063" lon="7.51441">
        <ele>204.7</ele>
        <time>2020-01-05T11:22:35Z</time>
      </trkpt>
      <trkpt lat="48.67062" lon="7.51447">
        <ele>204.5</ele>
        <time>2020-01-05T11:22:37Z</time>
      </trkpt>
      <trkpt lat="48.67061" lon="7.51451">
        <ele>204.4</ele>
        <time>2020-01-05T11:22:40Z</time>
      </trkpt>
      <trkpt lat="48.6706" lon="7.51457">
        <ele>204.3</ele>
        <time>2020-01-05T11:22:43Z</time>
      </trkpt>
      <trkpt lat="48.67059" lon="7.51462">
        <ele>204.3</ele>
        <time>2020-01-05T11:22:45Z</time>
      </trkpt>
      <trkpt lat="48.67058" lon="7.51466">
        <ele>204.3</ele>
        <time>2020-01-05T11:22:48Z</time>
      </trkpt>
      <trkpt lat="48.67057" lon="7.5147">
        <ele>204.4</ele>
        <time>2020-01-05T11:22:51Z</time>
      </trkpt>
      <trkpt lat="48.67057" lon="7.51476">
        <ele>204.5</ele>
        <time>2020-01-05T11:22:54Z</time>
      </trkpt>
      <trkpt lat="48.67056" lon="7.51481">
        <ele>204.6</ele>
        <time>2020-01-05T11:22:58Z</time>
      </trkpt>
      <trkpt lat="48.67054" lon="7.51486">
        <ele>204.7</ele>
        <time>2020-01-05T11:23:00Z</time>
      </trkpt>
      <trkpt lat="48.67055" lon="7.5149">
        <ele>204.7</ele>
        <time>2020-01-05T11:23:03Z</time>
      </trkpt>
      <trkpt lat="48.67056" lon="7.51495">
        <ele>204.7</ele>
        <time>2020-01-05T11:23:06Z</time>
      </trkpt>
      <trkpt lat="48.67057" lon="7.51499">
        <ele>204.8</ele>
        <time>2020-01-05T11:23:08Z</time>
      </trkpt>
      <trkpt lat="48.67058" lon="7.51504">
        <ele>204.8</ele>
        <time>2020-01-05T11:23:10Z</time>
      </trkpt>
      <trkpt lat="48.67059" lon="7.51509">
        <ele>204.9</ele>
        <time>2020-01-05T11:23:13Z</time>
      </trkpt>
      <trkpt lat="48.6706" lon="7.51513">
        <ele>205</ele>
        <time>2020-01-05T11:23:15Z</time>
      </trkpt>
      <trkpt lat="48.67062" lon="7.51517">
        <ele>205.1</ele>
        <time>2020-01-05T11:23:17Z</time>
      </trkpt>
      <trkpt lat="48.67065" lon="7.51521">
        <ele>205.2</ele>
        <time>2020-01-05T11:23:20Z</time>
      </trkpt>
      <trkpt lat="48.67067" lon="7.51524">
        <ele>205.4</ele>
        <time>2020-01-05T11:23:23Z</time>
      </trkpt>
      <trkpt lat="48.67068" lon="7.51528">
        <ele>205.4</ele>
        <time>2020-01-05T11:23:25Z</time>
      </trkpt>
      <trkpt lat="48.67069" lon="7.51534">
        <ele>205.6</ele>
        <time>2020-01-05T11:23:27Z</time>
      </trkpt>
      <trkpt lat="48.67071" lon="7.5154">
        <ele>205.7</ele>
        <time>2020-01-05T11:23:30Z</time>
      </trkpt>
      <trkpt lat="48.67074" lon="7.51545">
        <ele>205.9</ele>
        <time>2020-01-05T11:23:32Z</time>
      </trkpt>
      <trkpt lat="48.67076" lon="7.51548">
        <ele>206</ele>
        <time>2020-01-05T11:23:38Z</time>
      </trkpt>
      <trkpt lat="48.67077" lon="7.51554">
        <ele>206.1</ele>
        <time>2020-01-05T11:23:42Z</time>
      </trkpt>
      <trkpt lat="48.6708" lon="7.51558">
        <ele>206.2</ele>
        <time>2020-01-05T11:23:45Z</time>
      </trkpt>
      <trkpt lat="48.67081" lon="7.51563">
        <ele>206.3</ele>
        <time>2020-01-05T11:23:48Z</time>
      </trkpt>
      <trkpt lat="48.67083" lon="7.51568">
        <ele>206.5</ele>
        <time>2020-01-05T11:23:52Z</time>
      </trkpt>
      <trkpt lat="48.67084" lon="7.51572">
        <ele>206.7</ele>
        <time>2020-01-05T11:23:55Z</time>
      </trkpt>
      <trkpt lat="48.67084" lon="7.51578">
        <ele>206.8</ele>
        <time>2020-01-05T11:23:58Z</time>
      </trkpt>
      <trkpt lat="48.67086" lon="7.51581">
        <ele>207</ele>
        <time>2020-01-05T11:24:00Z</time>
      </trkpt>
      <trkpt lat="48.67088" lon="7.51585">
        <ele>207.1</ele>
        <time>2020-01-05T11:24:02Z</time>
      </trkpt>
      <trkpt lat="48.67091" lon="7.5159">
        <ele>207.3</ele>
        <time>2020-01-05T11:24:06Z</time>
      </trkpt>
      <trkpt lat="48.67092" lon="7.51594">
        <ele>207.4</ele>
        <time>2020-01-05T11:24:10Z</time>
      </trkpt>
      <trkpt lat="48.67093" lon="7.51599">
        <ele>207.6</ele>
        <time>2020-01-05T11:24:13Z</time>
      </trkpt>
      <trkpt lat="48.67093" lon="7.51603">
        <ele>207.7</ele>
        <time>2020-01-05T11:24:15Z</time>
      </trkpt>
      <trkpt lat="48.67093" lon="7.51607">
        <ele>207.9</ele>
        <time>2020-01-05T11:24:18Z</time>
      </trkpt>
      <trkpt lat="48.67093" lon="7.51611">
        <ele>208</ele>
        <time>2020-01-05T11:24:20Z</time>
      </trkpt>
      <trkpt lat="48.67094" lon="7.51616">
        <ele>208.2</ele>
        <time>2020-01-05T11:24:23Z</time>
      </trkpt>
      <trkpt lat="48.67095" lon="7.51621">
        <ele>208.4</ele>
        <time>2020-01-05T11:24:26Z</time>
      </trkpt>
      <trkpt lat="48.67095" lon="7.51625">
        <ele>208.5</ele>
        <time>2020-01-05T11:24:28Z</time>
      </trkpt>
      <trkpt lat="48.67096" lon="7.5163">
        <ele>208.7</ele>
        <time>2020-01-05T11:24:31Z</time>
      </trkpt>
      <trkpt lat="48.67094" lon="7.51635">
        <ele>208.9</ele>
        <time>2020-01-05T11:24:34Z</time>
      </trkpt>
      <trkpt lat="48.67094" lon="7.5164">
        <ele>209.1</ele>
        <time>2020-01-05T11:24:37Z</time>
      </trkpt>
      <trkpt lat="48.67095" lon="7.51644">
        <ele>209.4</ele>
        <time>2020-01-05T11:24:40Z</time>
      </trkpt>
      <trkpt lat="48.67094" lon="7.51648">
        <ele>209.7</ele>
        <time>2020-01-05T11:24:42Z</time>
      </trkpt>
      <trkpt lat="48.67095" lon="7.51654">
        <ele>209.9</ele>
        <time>2020-01-05T11:24:46Z</time>
      </trkpt>
      <trkpt lat="48.67095" lon="7.51659">
        <ele>210.1</ele>
        <time>2020-01-05T11:24:49Z</time>
      </trkpt>
      <trkpt lat="48.67095" lon="7.51664">
        <ele>210.3</ele>
        <time>2020-01-05T11:24:53Z</time>
      </trkpt>
      <trkpt lat="48.67096" lon="7.51669">
        <ele>210.5</ele>
        <time>2020-01-05T11:24:57Z</time>
      </trkpt>
      <trkpt lat="48.67097" lon="7.51673">
        <ele>210.7</ele>
        <time>2020-01-05T11:25:00Z</time>
      </trkpt>
      <trkpt lat="48.67097" lon="7.51677">
        <ele>210.9</ele>
        <time>2020-01-05T11:25:02Z</time>
      </trkpt>
      <trkpt lat="48.67099" lon="7.51681">
        <ele>211.1</ele>
        <time>2020-01-05T11:25:05Z</time>
      </trkpt>
      <trkpt lat="48.67099" lon="7.51686">
        <ele>211.4</ele>
        <time>2020-01-05T11:25:08Z</time>
      </trkpt>
      <trkpt lat="48.67098" lon="7.5169">
        <ele>211.6</ele>
        <time>2020-01-05T11:25:12Z</time>
      </trkpt>
      <trkpt lat="48.67095" lon="7.51693">
        <ele>212.3</ele>
        <time>2020-01-05T11:25:15Z</time>
      </trkpt>
      <trkpt lat="48.67092" lon="7.51695">
        <ele>212.2</ele>
        <time>2020-01-05T11:25:18Z</time>
      </trkpt>
      <trkpt lat="48.6709" lon="7.51697">
        <ele>212.2</ele>
        <time>2020-01-05T11:25:21Z</time>
      </trkpt>
      <trkpt lat="48.67086" lon="7.51697">
        <ele>212.1</ele>
        <time>2020-01-05T11:25:26Z</time>
      </trkpt>
      <trkpt lat="48.67083" lon="7.51697">
        <ele>212</ele>
        <time>2020-01-05T11:25:30Z</time>
      </trkpt>
      <trkpt lat="48.67081" lon="7.517">
        <ele>212</ele>
        <time>2020-01-05T11:25:35Z</time>
      </trkpt>
      <trkpt lat="48.67077" lon="7.51699">
        <ele>212</ele>
        <time>2020-01-05T11:25:38Z</time>
      </trkpt>
      <trkpt lat="48.67075" lon="7.51697">
        <ele>212</ele>
        <time>2020-01-05T11:25:41Z</time>
      </trkpt>
      <trkpt lat="48.67071" lon="7.51697">
        <ele>211.9</ele>
        <time>2020-01-05T11:25:44Z</time>
      </trkpt>
      <trkpt lat="48.67068" lon="7.51694">
        <ele>211.9</ele>
        <time>2020-01-05T11:25:47Z</time>
      </trkpt>
      <trkpt lat="48.67064" lon="7.51693">
        <ele>211.9</ele>
        <time>2020-01-05T11:25:51Z</time>
      </trkpt>
      <trkpt lat="48.67062" lon="7.51693">
        <ele>212</ele>
        <time>2020-01-05T11:25:56Z</time>
      </trkpt>
      <trkpt lat="48.67059" lon="7.51692">
        <ele>212</ele>
        <time>2020-01-05T11:26:00Z</time>
      </trkpt>
      <trkpt lat="48.67054" lon="7.51694">
        <ele>212</ele>
        <time>2020-01-05T11:26:03Z</time>
      </trkpt>
      <trkpt lat="48.67051" lon="7.51694">
        <ele>212</ele>
        <time>2020-01-05T11:26:05Z</time>
      </trkpt>
      <trkpt lat="48.67048" lon="7.51696">
        <ele>212</ele>
        <time>2020-01-05T11:26:07Z</time>
      </trkpt>
      <trkpt lat="48.67045" lon="7.51695">
        <ele>212.1</ele>
        <time>2020-01-05T11:26:10Z</time>
      </trkpt>
      <trkpt lat="48.67041" lon="7.51694">
        <ele>212.1</ele>
        <time>2020-01-05T11:26:13Z</time>
      </trkpt>
      <trkpt lat="48.67038" lon="7.51694">
        <ele>212.2</ele>
        <time>2020-01-05T11:26:16Z</time>
      </trkpt>
      <trkpt lat="48.67033" lon="7.51692">
        <ele>212.3</ele>
        <time>2020-01-05T11:26:19Z</time>
      </trkpt>
      <trkpt lat="48.6703" lon="7.51692">
        <ele>212.3</ele>
        <time>2020-01-05T11:26:23Z</time>
      </trkpt>
      <trkpt lat="48.67027" lon="7.51691">
        <ele>212.3</ele>
        <time>2020-01-05T11:26:28Z</time>
      </trkpt>
      <trkpt lat="48.67025" lon="7.51693">
        <ele>212.4</ele>
        <time>2020-01-05T11:26:30Z</time>
      </trkpt>
      <trkpt lat="48.67021" lon="7.51693">
        <ele>212.4</ele>
        <time>2020-01-05T11:26:32Z</time>
      </trkpt>
      <trkpt lat="48.67019" lon="7.51692">
        <ele>212.5</ele>
        <time>2020-01-05T11:26:35Z</time>
      </trkpt>
      <trkpt lat="48.67016" lon="7.51694">
        <ele>212.5</ele>
        <time>2020-01-05T11:26:39Z</time>
      </trkpt>
      <trkpt lat="48.67012" lon="7.51694">
        <ele>212.5</ele>
        <time>2020-01-05T11:26:42Z</time>
      </trkpt>
      <trkpt lat="48.67009" lon="7.51694">
        <ele>212.5</ele>
        <time>2020-01-05T11:26:45Z</time>
      </trkpt>
      <trkpt lat="48.67006" lon="7.51692">
        <ele>212.5</ele>
        <time>2020-01-05T11:26:48Z</time>
      </trkpt>
      <trkpt lat="48.67003" lon="7.5169">
        <ele>212.6</ele>
        <time>2020-01-05T11:26:51Z</time>
      </trkpt>
      <trkpt lat="48.67" lon="7.51692">
        <ele>212.6</ele>
        <time>2020-01-05T11:26:54Z</time>
      </trkpt>
      <trkpt lat="48.66997" lon="7.51693">
        <ele>212.8</ele>
        <time>2020-01-05T11:26:58Z</time>
      </trkpt>
      <trkpt lat="48.66994" lon="7.51694">
        <ele>212.8</ele>
        <time>2020-01-05T11:27:00Z</time>
      </trkpt>
      <trkpt lat="48.6699" lon="7.51692">
        <ele>213</ele>
        <time>2020-01-05T11:27:03Z</time>
      </trkpt>
      <trkpt lat="48.66987" lon="7.51692">
        <ele>213.1</ele>
        <time>2020-01-05T11:27:05Z</time>
      </trkpt>
      <trkpt lat="48.66984" lon="7.51691">
        <ele>213.2</ele>
        <time>2020-01-05T11:27:08Z</time>
      </trkpt>
      <trkpt lat="48.66981" lon="7.51691">
        <ele>213.3</ele>
        <time>2020-01-05T11:27:11Z</time>
      </trkpt>
      <trkpt lat="48.66977" lon="7.51691">
        <ele>213.4</ele>
        <time>2020-01-05T11:27:14Z</time>
      </trkpt>
      <trkpt lat="48.66974" lon="7.51691">
        <ele>213.5</ele>
        <time>2020-01-05T11:27:17Z</time>
      </trkpt>
      <trkpt lat="48.66971" lon="7.5169">
        <ele>213.6</ele>
        <time>2020-01-05T11:27:22Z</time>
      </trkpt>
      <trkpt lat="48.66968" lon="7.5169">
        <ele>213.7</ele>
        <time>2020-01-05T11:27:25Z</time>
      </trkpt>
      <trkpt lat="48.66965" lon="7.5169">
        <ele>213.8</ele>
        <time>2020-01-05T11:27:28Z</time>
      </trkpt>
      <trkpt lat="48.66962" lon="7.51689">
        <ele>213.8</ele>
        <time>2020-01-05T11:27:33Z</time>
      </trkpt>
      <trkpt lat="48.66959" lon="7.5169">
        <ele>213.9</ele>
        <time>2020-01-05T11:27:35Z</time>
      </trkpt>
      <trkpt lat="48.66957" lon="7.5169">
        <ele>214</ele>
        <time>2020-01-05T11:27:37Z</time>
      </trkpt>
      <trkpt lat="48.66954" lon="7.51691">
        <ele>214.1</ele>
        <time>2020-01-05T11:27:40Z</time>
      </trkpt>
      <trkpt lat="48.6695" lon="7.51692">
        <ele>214.1</ele>
        <time>2020-01-05T11:27:42Z</time>
      </trkpt>
      <trkpt lat="48.66947" lon="7.51692">
        <ele>214.1</ele>
        <time>2020-01-05T11:27:45Z</time>
      </trkpt>
      <trkpt lat="48.66944" lon="7.51691">
        <ele>214.1</ele>
        <time>2020-01-05T11:27:49Z</time>
      </trkpt>
      <trkpt lat="48.6694" lon="7.51691">
        <ele>214.1</ele>
        <time>2020-01-05T11:27:52Z</time>
      </trkpt>
      <trkpt lat="48.66937" lon="7.5169">
        <ele>214.1</ele>
        <time>2020-01-05T11:27:55Z</time>
      </trkpt>
      <trkpt lat="48.66934" lon="7.51691">
        <ele>214.2</ele>
        <time>2020-01-05T11:27:57Z</time>
      </trkpt>
      <trkpt lat="48.6693" lon="7.51691">
        <ele>214.2</ele>
        <time>2020-01-05T11:27:59Z</time>
      </trkpt>
      <trkpt lat="48.66927" lon="7.51692">
        <ele>214.2</ele>
        <time>2020-01-05T11:28:02Z</time>
      </trkpt>
      <trkpt lat="48.66924" lon="7.51691">
        <ele>214.2</ele>
        <time>2020-01-05T11:28:05Z</time>
      </trkpt>
      <trkpt lat="48.6692" lon="7.51692">
        <ele>214.2</ele>
        <time>2020-01-05T11:28:07Z</time>
      </trkpt>
      <trkpt lat="48.66917" lon="7.51691">
        <ele>214.2</ele>
        <time>2020-01-05T11:28:09Z</time>
      </trkpt>
      <trkpt lat="48.66913" lon="7.51692">
        <ele>214.2</ele>
        <time>2020-01-05T11:28:12Z</time>
      </trkpt>
      <trkpt lat="48.66911" lon="7.51694">
        <ele>214.2</ele>
        <time>2020-01-05T11:28:15Z</time>
      </trkpt>
      <trkpt lat="48.66908" lon="7.51696">
        <ele>214.2</ele>
        <time>2020-01-05T11:28:18Z</time>
      </trkpt>
      <trkpt lat="48.66905" lon="7.51695">
        <ele>214.2</ele>
        <time>2020-01-05T11:28:21Z</time>
      </trkpt>
      <trkpt lat="48.66901" lon="7.51695">
        <ele>214.2</ele>
        <time>2020-01-05T11:28:24Z</time>
      </trkpt>
      <trkpt lat="48.66899" lon="7.51697">
        <ele>214.3</ele>
        <time>2020-01-05T11:28:27Z</time>
      </trkpt>
      <trkpt lat="48.66896" lon="7.51698">
        <ele>214.3</ele>
        <time>2020-01-05T11:28:32Z</time>
      </trkpt>
      <trkpt lat="48.66893" lon="7.51696">
        <ele>214.3</ele>
        <time>2020-01-05T11:28:37Z</time>
      </trkpt>
      <trkpt lat="48.66889" lon="7.51697">
        <ele>214.4</ele>
        <time>2020-01-05T11:28:39Z</time>
      </trkpt>
      <trkpt lat="48.66886" lon="7.51698">
        <ele>214.5</ele>
        <time>2020-01-05T11:28:42Z</time>
      </trkpt>
      <trkpt lat="48.66882" lon="7.51698">
        <ele>214.6</ele>
        <time>2020-01-05T11:28:45Z</time>
      </trkpt>
      <trkpt lat="48.66879" lon="7.51699">
        <ele>214.7</ele>
        <time>2020-01-05T11:28:49Z</time>
      </trkpt>
      <trkpt lat="48.66876" lon="7.517">
        <ele>214.8</ele>
        <time>2020-01-05T11:28:52Z</time>
      </trkpt>
      <trkpt lat="48.66873" lon="7.51699">
        <ele>214.9</ele>
        <time>2020-01-05T11:28:55Z</time>
      </trkpt>
      <trkpt lat="48.6687" lon="7.51699">
        <ele>215</ele>
        <time>2020-01-05T11:28:58Z</time>
      </trkpt>
      <trkpt lat="48.66866" lon="7.51698">
        <ele>215.1</ele>
        <time>2020-01-05T11:29:01Z</time>
      </trkpt>
      <trkpt lat="48.66864" lon="7.51701">
        <ele>215.2</ele>
        <time>2020-01-05T11:29:03Z</time>
      </trkpt>
      <trkpt lat="48.66862" lon="7.51705">
        <ele>215.4</ele>
        <time>2020-01-05T11:29:05Z</time>
      </trkpt>
      <trkpt lat="48.66861" lon="7.51709">
        <ele>215.5</ele>
        <time>2020-01-05T11:29:07Z</time>
      </trkpt>
      <trkpt lat="48.6686" lon="7.51713">
        <ele>216.6</ele>
        <time>2020-01-05T11:29:09Z</time>
      </trkpt>
      <trkpt lat="48.6686" lon="7.51719">
        <ele>216.8</ele>
        <time>2020-01-05T11:29:12Z</time>
      </trkpt>
      <trkpt lat="48.66861" lon="7.51723">
        <ele>217.1</ele>
        <time>2020-01-05T11:29:15Z</time>
      </trkpt>
      <trkpt lat="48.66862" lon="7.51727">
        <ele>217.3</ele>
        <time>2020-01-05T11:29:18Z</time>
      </trkpt>
      <trkpt lat="48.66864" lon="7.51732">
        <ele>217.5</ele>
        <time>2020-01-05T11:29:21Z</time>
      </trkpt>
      <trkpt lat="48.66865" lon="7.51736">
        <ele>217.7</ele>
        <time>2020-01-05T11:29:24Z</time>
      </trkpt>
      <trkpt lat="48.66867" lon="7.51741">
        <ele>218</ele>
        <time>2020-01-05T11:29:27Z</time>
      </trkpt>
      <trkpt lat="48.66867" lon="7.51745">
        <ele>218.2</ele>
        <time>2020-01-05T11:29:31Z</time>
      </trkpt>
      <trkpt lat="48.66867" lon="7.5175">
        <ele>218.4</ele>
        <time>2020-01-05T11:29:37Z</time>
      </trkpt>
      <trkpt lat="48.66865" lon="7.51754">
        <ele>218.8</ele>
        <time>2020-01-05T11:29:41Z</time>
      </trkpt>
      <trkpt lat="48.66865" lon="7.51758">
        <ele>218.9</ele>
        <time>2020-01-05T11:29:43Z</time>
      </trkpt>
      <trkpt lat="48.66864" lon="7.51762">
        <ele>219</ele>
        <time>2020-01-05T11:29:45Z</time>
      </trkpt>
      <trkpt lat="48.66865" lon="7.51767">
        <ele>219.2</ele>
        <time>2020-01-05T11:29:48Z</time>
      </trkpt>
      <trkpt lat="48.66865" lon="7.51771">
        <ele>219.3</ele>
        <time>2020-01-05T11:29:51Z</time>
      </trkpt>
      <trkpt lat="48.66865" lon="7.51776">
        <ele>219.4</ele>
        <time>2020-01-05T11:29:54Z</time>
      </trkpt>
      <trkpt lat="48.66863" lon="7.5178">
        <ele>219.6</ele>
        <time>2020-01-05T11:29:57Z</time>
      </trkpt>
      <trkpt lat="48.66863" lon="7.51785">
        <ele>219.7</ele>
        <time>2020-01-05T11:30:02Z</time>
      </trkpt>
      <trkpt lat="48.66863" lon="7.5179">
        <ele>219.9</ele>
        <time>2020-01-05T11:30:05Z</time>
      </trkpt>
      <trkpt lat="48.66861" lon="7.51795">
        <ele>220.4</ele>
        <time>2020-01-05T11:30:10Z</time>
      </trkpt>
      <trkpt lat="48.66861" lon="7.518">
        <ele>220.4</ele>
        <time>2020-01-05T11:30:13Z</time>
      </trkpt>
      <trkpt lat="48.6686" lon="7.51805">
        <ele>220.4</ele>
        <time>2020-01-05T11:30:15Z</time>
      </trkpt>
      <trkpt lat="48.66859" lon="7.51809">
        <ele>220.5</ele>
        <time>2020-01-05T11:30:18Z</time>
      </trkpt>
      <trkpt lat="48.66859" lon="7.51813">
        <ele>221</ele>
        <time>2020-01-05T11:30:21Z</time>
      </trkpt>
      <trkpt lat="48.66858" lon="7.51817">
        <ele>221.1</ele>
        <time>2020-01-05T11:30:24Z</time>
      </trkpt>
      <trkpt lat="48.66857" lon="7.51822">
        <ele>221.2</ele>
        <time>2020-01-05T11:30:27Z</time>
      </trkpt>
      <trkpt lat="48.66856" lon="7.51826">
        <ele>221.3</ele>
        <time>2020-01-05T11:30:30Z</time>
      </trkpt>
      <trkpt lat="48.66855" lon="7.5183">
        <ele>221.4</ele>
        <time>2020-01-05T11:30:33Z</time>
      </trkpt>
      <trkpt lat="48.66852" lon="7.51831">
        <ele>221.6</ele>
        <time>2020-01-05T11:30:37Z</time>
      </trkpt>
      <trkpt lat="48.66849" lon="7.51833">
        <ele>221.6</ele>
        <time>2020-01-05T11:30:42Z</time>
      </trkpt>
      <trkpt lat="48.66847" lon="7.51833">
        <ele>221.6</ele>
        <time>2020-01-05T11:30:45Z</time>
      </trkpt>
      <trkpt lat="48.66843" lon="7.51833">
        <ele>221.6</ele>
        <time>2020-01-05T11:30:48Z</time>
      </trkpt>
      <trkpt lat="48.6684" lon="7.51833">
        <ele>221.7</ele>
        <time>2020-01-05T11:30:51Z</time>
      </trkpt>
      <trkpt lat="48.66837" lon="7.51833">
        <ele>221.7</ele>
        <time>2020-01-05T11:30:54Z</time>
      </trkpt>
      <trkpt lat="48.66834" lon="7.51835">
        <ele>221.7</ele>
        <time>2020-01-05T11:30:58Z</time>
      </trkpt>
      <trkpt lat="48.66831" lon="7.51832">
        <ele>221.7</ele>
        <time>2020-01-05T11:31:01Z</time>
      </trkpt>
      <trkpt lat="48.66828" lon="7.51833">
        <ele>221.8</ele>
        <time>2020-01-05T11:31:05Z</time>
      </trkpt>
      <trkpt lat="48.66825" lon="7.51833">
        <ele>221.8</ele>
        <time>2020-01-05T11:31:10Z</time>
      </trkpt>
      <trkpt lat="48.66822" lon="7.51834">
        <ele>222.2</ele>
        <time>2020-01-05T11:31:13Z</time>
      </trkpt>
      <trkpt lat="48.66818" lon="7.51833">
        <ele>222.4</ele>
        <time>2020-01-05T11:31:16Z</time>
      </trkpt>
      <trkpt lat="48.66815" lon="7.51831">
        <ele>222.5</ele>
        <time>2020-01-05T11:31:19Z</time>
      </trkpt>
      <trkpt lat="48.66812" lon="7.5183">
        <ele>222.7</ele>
        <time>2020-01-05T11:31:23Z</time>
      </trkpt>
      <trkpt lat="48.66809" lon="7.51829">
        <ele>222.9</ele>
        <time>2020-01-05T11:31:26Z</time>
      </trkpt>
      <trkpt lat="48.66805" lon="7.51829">
        <ele>223</ele>
        <time>2020-01-05T11:31:29Z</time>
      </trkpt>
      <trkpt lat="48.66802" lon="7.51826">
        <ele>223.2</ele>
        <time>2020-01-05T11:31:33Z</time>
      </trkpt>
      <trkpt lat="48.66799" lon="7.51826">
        <ele>223.3</ele>
        <time>2020-01-05T11:31:37Z</time>
      </trkpt>
      <trkpt lat="48.66796" lon="7.51825">
        <ele>223.5</ele>
        <time>2020-01-05T11:31:40Z</time>
      </trkpt>
      <trkpt lat="48.66794" lon="7.51824">
        <ele>223.6</ele>
        <time>2020-01-05T11:31:43Z</time>
      </trkpt>
      <trkpt lat="48.66789" lon="7.51825">
        <ele>223.8</ele>
        <time>2020-01-05T11:31:46Z</time>
      </trkpt>
      <trkpt lat="48.66785" lon="7.51826">
        <ele>223.9</ele>
        <time>2020-01-05T11:31:48Z</time>
      </trkpt>
      <trkpt lat="48.66781" lon="7.51823">
        <ele>224.1</ele>
        <time>2020-01-05T11:31:51Z</time>
      </trkpt>
      <trkpt lat="48.66778" lon="7.51822">
        <ele>224.2</ele>
        <time>2020-01-05T11:31:54Z</time>
      </trkpt>
      <trkpt lat="48.66775" lon="7.5182">
        <ele>224.3</ele>
        <time>2020-01-05T11:31:56Z</time>
      </trkpt>
      <trkpt lat="48.66772" lon="7.51818">
        <ele>224.4</ele>
        <time>2020-01-05T11:31:59Z</time>
      </trkpt>
      <trkpt lat="48.66768" lon="7.51817">
        <ele>224.5</ele>
        <time>2020-01-05T11:32:02Z</time>
      </trkpt>
      <trkpt lat="48.66765" lon="7.51817">
        <ele>224.7</ele>
        <time>2020-01-05T11:32:04Z</time>
      </trkpt>
      <trkpt lat="48.66762" lon="7.51817">
        <ele>224.8</ele>
        <time>2020-01-05T11:32:06Z</time>
      </trkpt>
      <trkpt lat="48.66758" lon="7.51817">
        <ele>224.9</ele>
        <time>2020-01-05T11:32:08Z</time>
      </trkpt>
      <trkpt lat="48.66755" lon="7.51815">
        <ele>225</ele>
        <time>2020-01-05T11:32:11Z</time>
      </trkpt>
      <trkpt lat="48.66752" lon="7.51814">
        <ele>225.1</ele>
        <time>2020-01-05T11:32:15Z</time>
      </trkpt>
      <trkpt lat="48.66749" lon="7.51814">
        <ele>225.2</ele>
        <time>2020-01-05T11:32:18Z</time>
      </trkpt>
      <trkpt lat="48.66746" lon="7.51811">
        <ele>225.3</ele>
        <time>2020-01-05T11:32:21Z</time>
      </trkpt>
      <trkpt lat="48.66743" lon="7.51811">
        <ele>225.4</ele>
        <time>2020-01-05T11:32:24Z</time>
      </trkpt>
      <trkpt lat="48.66741" lon="7.51814">
        <ele>225.5</ele>
        <time>2020-01-05T11:32:26Z</time>
      </trkpt>
      <trkpt lat="48.66738" lon="7.51812">
        <ele>225.7</ele>
        <time>2020-01-05T11:32:28Z</time>
      </trkpt>
      <trkpt lat="48.66735" lon="7.5181">
        <ele>225.8</ele>
        <time>2020-01-05T11:32:31Z</time>
      </trkpt>
      <trkpt lat="48.66732" lon="7.51807">
        <ele>226</ele>
        <time>2020-01-05T11:32:33Z</time>
      </trkpt>
      <trkpt lat="48.66728" lon="7.51807">
        <ele>226.2</ele>
        <time>2020-01-05T11:32:36Z</time>
      </trkpt>
      <trkpt lat="48.66725" lon="7.51806">
        <ele>226.3</ele>
        <time>2020-01-05T11:32:40Z</time>
      </trkpt>
      <trkpt lat="48.66722" lon="7.51804">
        <ele>226.5</ele>
        <time>2020-01-05T11:32:44Z</time>
      </trkpt>
      <trkpt lat="48.66719" lon="7.51801">
        <ele>226.6</ele>
        <time>2020-01-05T11:32:47Z</time>
      </trkpt>
      <trkpt lat="48.66716" lon="7.51803">
        <ele>226.8</ele>
        <time>2020-01-05T11:32:49Z</time>
      </trkpt>
      <trkpt lat="48.66713" lon="7.51802">
        <ele>226.9</ele>
        <time>2020-01-05T11:32:51Z</time>
      </trkpt>
      <trkpt lat="48.6671" lon="7.518">
        <ele>227</ele>
        <time>2020-01-05T11:32:53Z</time>
      </trkpt>
      <trkpt lat="48.66706" lon="7.51801">
        <ele>227.2</ele>
        <time>2020-01-05T11:32:55Z</time>
      </trkpt>
      <trkpt lat="48.66703" lon="7.51799">
        <ele>227.3</ele>
        <time>2020-01-05T11:32:59Z</time>
      </trkpt>
      <trkpt lat="48.667" lon="7.51798">
        <ele>227.3</ele>
        <time>2020-01-05T11:33:01Z</time>
      </trkpt>
      <trkpt lat="48.66697" lon="7.51796">
        <ele>227.4</ele>
        <time>2020-01-05T11:33:04Z</time>
      </trkpt>
      <trkpt lat="48.66694" lon="7.51795">
        <ele>227.5</ele>
        <time>2020-01-05T11:33:08Z</time>
      </trkpt>
      <trkpt lat="48.66691" lon="7.51795">
        <ele>227.6</ele>
        <time>2020-01-05T11:33:11Z</time>
      </trkpt>
      <trkpt lat="48.66688" lon="7.51792">
        <ele>227.7</ele>
        <time>2020-01-05T11:33:14Z</time>
      </trkpt>
      <trkpt lat="48.66686" lon="7.51792">
        <ele>227.8</ele>
        <time>2020-01-05T11:33:16Z</time>
      </trkpt>
      <trkpt lat="48.66684" lon="7.51789">
        <ele>227.9</ele>
        <time>2020-01-05T11:33:19Z</time>
      </trkpt>
      <trkpt lat="48.66681" lon="7.51791">
        <ele>227.9</ele>
        <time>2020-01-05T11:33:34Z</time>
      </trkpt>
      <trkpt lat="48.66679" lon="7.5179">
        <ele>228</ele>
        <time>2020-01-05T11:33:40Z</time>
      </trkpt>
      <trkpt lat="48.66676" lon="7.5179">
        <ele>228.1</ele>
        <time>2020-01-05T11:34:06Z</time>
      </trkpt>
      <trkpt lat="48.66677" lon="7.51794">
        <ele>228.2</ele>
        <time>2020-01-05T11:34:30Z</time>
      </trkpt>
      <trkpt lat="48.66677" lon="7.5179">
        <ele>228.3</ele>
        <time>2020-01-05T11:35:22Z</time>
      </trkpt>
      <trkpt lat="48.66679" lon="7.51793">
        <ele>228.3</ele>
        <time>2020-01-05T11:35:37Z</time>
      </trkpt>
      <trkpt lat="48.66679" lon="7.51798">
        <ele>228.4</ele>
        <time>2020-01-05T11:35:53Z</time>
      </trkpt>
      <trkpt lat="48.66682" lon="7.51799">
        <ele>228.5</ele>
        <time>2020-01-05T11:36:26Z</time>
      </trkpt>
      <trkpt lat="48.66684" lon="7.51802">
        <ele>228.7</ele>
        <time>2020-01-05T11:36:29Z</time>
      </trkpt>
      <trkpt lat="48.66685" lon="7.51806">
        <ele>228.9</ele>
        <time>2020-01-05T11:36:32Z</time>
      </trkpt>
      <trkpt lat="48.66683" lon="7.51803">
        <ele>229</ele>
        <time>2020-01-05T11:36:44Z</time>
      </trkpt>
      <trkpt lat="48.66684" lon="7.51799">
        <ele>229.1</ele>
        <time>2020-01-05T11:36:55Z</time>
      </trkpt>
      <trkpt lat="48.66683" lon="7.51795">
        <ele>229.3</ele>
        <time>2020-01-05T11:37:06Z</time>
      </trkpt>
      <trkpt lat="48.66684" lon="7.51791">
        <ele>229.4</ele>
        <time>2020-01-05T11:37:22Z</time>
      </trkpt>
      <trkpt lat="48.66681" lon="7.51787">
        <ele>229.5</ele>
        <time>2020-01-05T11:37:32Z</time>
      </trkpt>
      <trkpt lat="48.66681" lon="7.51791">
        <ele>229.6</ele>
        <time>2020-01-05T11:37:50Z</time>
      </trkpt>
      <trkpt lat="48.6668" lon="7.51787">
        <ele>229.8</ele>
        <time>2020-01-05T11:38:24Z</time>
      </trkpt>
    </trkseg>
  </trk>
</gpx>